<?xml version="1.0" encoding="UTF-8" standalone="no" ?>
<gpx xmlns="http://www.topografix.com/GPX/1/1" xmlns:xsi="http://www.w3.org/2001/XMLSchema-instance" xsi:schemaLocation="http://www.topografix.com/GPX/1/1 http://www.topografix.com/GPX/1/1/gpx.xsd" version="1.1" creator="VisuGPX - https://www.visugpx.com">
  <metadata>
    <name>18/11/2012 Méounes les Montrieux</name>
    <desc><![CDATA[Montée par single (50%) et piste (50%)
Descente par single (75%) et piste (25%), ces singles sont des sentiers ou chemins muletiers récemment  débroussaillés par nos soins. 
 Un bel enduro sur des traces inédites.]]></desc>
  </metadata>
  <trk>
    <name><![CDATA[VTT Méounes avec Adrien]]></name>
    <cmt><![CDATA[18 nov. 2012 08:40:59]]></cmt>
    <trkseg>
      <trkpt lat="43.26333" lon="5.96356">
        <ele>37</ele>
        <time>2012-11-18T07:41:03Z</time>
      </trkpt>
      <trkpt lat="43.26334" lon="5.96328">
        <ele>95</ele>
        <time>2012-11-18T07:41:04Z</time>
      </trkpt>
      <trkpt lat="43.26326" lon="5.96344">
        <ele>145</ele>
        <time>2012-11-18T07:41:08Z</time>
      </trkpt>
      <trkpt lat="43.26325" lon="5.96336">
        <ele>248</ele>
        <time>2012-11-18T07:41:29Z</time>
      </trkpt>
      <trkpt lat="43.26336" lon="5.96337">
        <ele>249</ele>
        <time>2012-11-18T07:41:34Z</time>
      </trkpt>
      <trkpt lat="43.26345" lon="5.96341">
        <ele>248</ele>
        <time>2012-11-18T07:41:36Z</time>
      </trkpt>
      <trkpt lat="43.26357" lon="5.96347">
        <ele>247</ele>
        <time>2012-11-18T07:41:39Z</time>
      </trkpt>
      <trkpt lat="43.26368" lon="5.96354">
        <ele>247</ele>
        <time>2012-11-18T07:41:42Z</time>
      </trkpt>
      <trkpt lat="43.26375" lon="5.96344">
        <ele>248</ele>
        <time>2012-11-18T07:41:46Z</time>
      </trkpt>
      <trkpt lat="43.26371" lon="5.96332">
        <ele>248</ele>
        <time>2012-11-18T07:41:49Z</time>
      </trkpt>
      <trkpt lat="43.26364" lon="5.96317">
        <ele>250</ele>
        <time>2012-11-18T07:41:53Z</time>
      </trkpt>
      <trkpt lat="43.26362" lon="5.96301">
        <ele>250</ele>
        <time>2012-11-18T07:41:56Z</time>
      </trkpt>
      <trkpt lat="43.2636" lon="5.96282">
        <ele>250</ele>
        <time>2012-11-18T07:41:59Z</time>
      </trkpt>
      <trkpt lat="43.26359" lon="5.96265">
        <ele>249</ele>
        <time>2012-11-18T07:42:01Z</time>
      </trkpt>
      <trkpt lat="43.2636" lon="5.96251">
        <ele>248</ele>
        <time>2012-11-18T07:42:03Z</time>
      </trkpt>
      <trkpt lat="43.26361" lon="5.96236">
        <ele>246</ele>
        <time>2012-11-18T07:42:05Z</time>
      </trkpt>
      <trkpt lat="43.26363" lon="5.96222">
        <ele>245</ele>
        <time>2012-11-18T07:42:07Z</time>
      </trkpt>
      <trkpt lat="43.26365" lon="5.96206">
        <ele>242</ele>
        <time>2012-11-18T07:42:10Z</time>
      </trkpt>
      <trkpt lat="43.26367" lon="5.96193">
        <ele>239</ele>
        <time>2012-11-18T07:42:13Z</time>
      </trkpt>
      <trkpt lat="43.26369" lon="5.9618">
        <ele>236</ele>
        <time>2012-11-18T07:42:15Z</time>
      </trkpt>
      <trkpt lat="43.26372" lon="5.96163">
        <ele>232</ele>
        <time>2012-11-18T07:42:18Z</time>
      </trkpt>
      <trkpt lat="43.26374" lon="5.96151">
        <ele>229</ele>
        <time>2012-11-18T07:42:20Z</time>
      </trkpt>
      <trkpt lat="43.26376" lon="5.96138">
        <ele>227</ele>
        <time>2012-11-18T07:42:22Z</time>
      </trkpt>
      <trkpt lat="43.2638" lon="5.96122">
        <ele>225</ele>
        <time>2012-11-18T07:42:25Z</time>
      </trkpt>
      <trkpt lat="43.26384" lon="5.9611">
        <ele>223</ele>
        <time>2012-11-18T07:42:27Z</time>
      </trkpt>
      <trkpt lat="43.26386" lon="5.96097">
        <ele>222</ele>
        <time>2012-11-18T07:42:29Z</time>
      </trkpt>
      <trkpt lat="43.26389" lon="5.96085">
        <ele>222</ele>
        <time>2012-11-18T07:42:31Z</time>
      </trkpt>
      <trkpt lat="43.2639" lon="5.96071">
        <ele>222</ele>
        <time>2012-11-18T07:42:33Z</time>
      </trkpt>
      <trkpt lat="43.26392" lon="5.96059">
        <ele>222</ele>
        <time>2012-11-18T07:42:35Z</time>
      </trkpt>
      <trkpt lat="43.26395" lon="5.96044">
        <ele>222</ele>
        <time>2012-11-18T07:42:37Z</time>
      </trkpt>
      <trkpt lat="43.26398" lon="5.96032">
        <ele>222</ele>
        <time>2012-11-18T07:42:39Z</time>
      </trkpt>
      <trkpt lat="43.26402" lon="5.96017">
        <ele>222</ele>
        <time>2012-11-18T07:42:42Z</time>
      </trkpt>
      <trkpt lat="43.26406" lon="5.96001">
        <ele>223</ele>
        <time>2012-11-18T07:42:45Z</time>
      </trkpt>
      <trkpt lat="43.2641" lon="5.95986">
        <ele>224</ele>
        <time>2012-11-18T07:42:48Z</time>
      </trkpt>
      <trkpt lat="43.26415" lon="5.95975">
        <ele>225</ele>
        <time>2012-11-18T07:42:51Z</time>
      </trkpt>
      <trkpt lat="43.26422" lon="5.95964">
        <ele>226</ele>
        <time>2012-11-18T07:42:54Z</time>
      </trkpt>
      <trkpt lat="43.26431" lon="5.95952">
        <ele>232</ele>
        <time>2012-11-18T07:42:58Z</time>
      </trkpt>
      <trkpt lat="43.26438" lon="5.9594">
        <ele>236</ele>
        <time>2012-11-18T07:43:01Z</time>
      </trkpt>
      <trkpt lat="43.26445" lon="5.95928">
        <ele>239</ele>
        <time>2012-11-18T07:43:04Z</time>
      </trkpt>
      <trkpt lat="43.26452" lon="5.95916">
        <ele>241</ele>
        <time>2012-11-18T07:43:06Z</time>
      </trkpt>
      <trkpt lat="43.2646" lon="5.95902">
        <ele>244</ele>
        <time>2012-11-18T07:43:09Z</time>
      </trkpt>
      <trkpt lat="43.26467" lon="5.95888">
        <ele>245</ele>
        <time>2012-11-18T07:43:12Z</time>
      </trkpt>
      <trkpt lat="43.26473" lon="5.95869">
        <ele>245</ele>
        <time>2012-11-18T07:43:15Z</time>
      </trkpt>
      <trkpt lat="43.26477" lon="5.95853">
        <ele>243</ele>
        <time>2012-11-18T07:43:17Z</time>
      </trkpt>
      <trkpt lat="43.2648" lon="5.95836">
        <ele>240</ele>
        <time>2012-11-18T07:43:19Z</time>
      </trkpt>
      <trkpt lat="43.26481" lon="5.95822">
        <ele>236</ele>
        <time>2012-11-18T07:43:21Z</time>
      </trkpt>
      <trkpt lat="43.26482" lon="5.95805">
        <ele>231</ele>
        <time>2012-11-18T07:43:24Z</time>
      </trkpt>
      <trkpt lat="43.26484" lon="5.95788">
        <ele>227</ele>
        <time>2012-11-18T07:43:27Z</time>
      </trkpt>
      <trkpt lat="43.26488" lon="5.95773">
        <ele>225</ele>
        <time>2012-11-18T07:43:30Z</time>
      </trkpt>
      <trkpt lat="43.26495" lon="5.9576">
        <ele>224</ele>
        <time>2012-11-18T07:43:34Z</time>
      </trkpt>
      <trkpt lat="43.26499" lon="5.95756">
        <ele>226</ele>
        <time>2012-11-18T07:43:36Z</time>
      </trkpt>
      <trkpt lat="43.26504" lon="5.95751">
        <ele>227</ele>
        <time>2012-11-18T07:43:38Z</time>
      </trkpt>
      <trkpt lat="43.26511" lon="5.95741">
        <ele>229</ele>
        <time>2012-11-18T07:43:41Z</time>
      </trkpt>
      <trkpt lat="43.26519" lon="5.9573">
        <ele>232</ele>
        <time>2012-11-18T07:43:44Z</time>
      </trkpt>
      <trkpt lat="43.26526" lon="5.9572">
        <ele>234</ele>
        <time>2012-11-18T07:43:46Z</time>
      </trkpt>
      <trkpt lat="43.26532" lon="5.9571">
        <ele>237</ele>
        <time>2012-11-18T07:43:49Z</time>
      </trkpt>
      <trkpt lat="43.26539" lon="5.95697">
        <ele>240</ele>
        <time>2012-11-18T07:43:52Z</time>
      </trkpt>
      <trkpt lat="43.26544" lon="5.95683">
        <ele>244</ele>
        <time>2012-11-18T07:43:55Z</time>
      </trkpt>
      <trkpt lat="43.26546" lon="5.9567">
        <ele>246</ele>
        <time>2012-11-18T07:43:58Z</time>
      </trkpt>
      <trkpt lat="43.26548" lon="5.95653">
        <ele>248</ele>
        <time>2012-11-18T07:44:01Z</time>
      </trkpt>
      <trkpt lat="43.26549" lon="5.95642">
        <ele>249</ele>
        <time>2012-11-18T07:44:03Z</time>
      </trkpt>
      <trkpt lat="43.26552" lon="5.95625">
        <ele>250</ele>
        <time>2012-11-18T07:44:06Z</time>
      </trkpt>
      <trkpt lat="43.26558" lon="5.9561">
        <ele>252</ele>
        <time>2012-11-18T07:44:09Z</time>
      </trkpt>
      <trkpt lat="43.26566" lon="5.95598">
        <ele>252</ele>
        <time>2012-11-18T07:44:12Z</time>
      </trkpt>
      <trkpt lat="43.26575" lon="5.95588">
        <ele>252</ele>
        <time>2012-11-18T07:44:15Z</time>
      </trkpt>
      <trkpt lat="43.26584" lon="5.9558">
        <ele>251</ele>
        <time>2012-11-18T07:44:18Z</time>
      </trkpt>
      <trkpt lat="43.26594" lon="5.95575">
        <ele>250</ele>
        <time>2012-11-18T07:44:21Z</time>
      </trkpt>
      <trkpt lat="43.26605" lon="5.95571">
        <ele>248</ele>
        <time>2012-11-18T07:44:24Z</time>
      </trkpt>
      <trkpt lat="43.26614" lon="5.95565">
        <ele>246</ele>
        <time>2012-11-18T07:44:27Z</time>
      </trkpt>
      <trkpt lat="43.26622" lon="5.95556">
        <ele>245</ele>
        <time>2012-11-18T07:44:30Z</time>
      </trkpt>
      <trkpt lat="43.26628" lon="5.95544">
        <ele>245</ele>
        <time>2012-11-18T07:44:33Z</time>
      </trkpt>
      <trkpt lat="43.26634" lon="5.95533">
        <ele>245</ele>
        <time>2012-11-18T07:44:36Z</time>
      </trkpt>
      <trkpt lat="43.26638" lon="5.95522">
        <ele>246</ele>
        <time>2012-11-18T07:44:39Z</time>
      </trkpt>
      <trkpt lat="43.26643" lon="5.9551">
        <ele>248</ele>
        <time>2012-11-18T07:44:43Z</time>
      </trkpt>
      <trkpt lat="43.26649" lon="5.95498">
        <ele>251</ele>
        <time>2012-11-18T07:44:48Z</time>
      </trkpt>
      <trkpt lat="43.26651" lon="5.95483">
        <ele>254</ele>
        <time>2012-11-18T07:44:52Z</time>
      </trkpt>
      <trkpt lat="43.26652" lon="5.95474">
        <ele>255</ele>
        <time>2012-11-18T07:44:54Z</time>
      </trkpt>
      <trkpt lat="43.26653" lon="5.95459">
        <ele>256</ele>
        <time>2012-11-18T07:44:57Z</time>
      </trkpt>
      <trkpt lat="43.26655" lon="5.95444">
        <ele>258</ele>
        <time>2012-11-18T07:45:00Z</time>
      </trkpt>
      <trkpt lat="43.26656" lon="5.95428">
        <ele>259</ele>
        <time>2012-11-18T07:45:03Z</time>
      </trkpt>
      <trkpt lat="43.26658" lon="5.95413">
        <ele>261</ele>
        <time>2012-11-18T07:45:06Z</time>
      </trkpt>
      <trkpt lat="43.26657" lon="5.95401">
        <ele>261</ele>
        <time>2012-11-18T07:45:09Z</time>
      </trkpt>
      <trkpt lat="43.26655" lon="5.95388">
        <ele>262</ele>
        <time>2012-11-18T07:45:12Z</time>
      </trkpt>
      <trkpt lat="43.26652" lon="5.95372">
        <ele>262</ele>
        <time>2012-11-18T07:45:15Z</time>
      </trkpt>
      <trkpt lat="43.26648" lon="5.95358">
        <ele>262</ele>
        <time>2012-11-18T07:45:18Z</time>
      </trkpt>
      <trkpt lat="43.26641" lon="5.95344">
        <ele>262</ele>
        <time>2012-11-18T07:45:21Z</time>
      </trkpt>
      <trkpt lat="43.26634" lon="5.95332">
        <ele>261</ele>
        <time>2012-11-18T07:45:24Z</time>
      </trkpt>
      <trkpt lat="43.26628" lon="5.95322">
        <ele>260</ele>
        <time>2012-11-18T07:45:27Z</time>
      </trkpt>
      <trkpt lat="43.26621" lon="5.95312">
        <ele>259</ele>
        <time>2012-11-18T07:45:30Z</time>
      </trkpt>
      <trkpt lat="43.26613" lon="5.95302">
        <ele>257</ele>
        <time>2012-11-18T07:45:33Z</time>
      </trkpt>
      <trkpt lat="43.26604" lon="5.95289">
        <ele>256</ele>
        <time>2012-11-18T07:45:36Z</time>
      </trkpt>
      <trkpt lat="43.26597" lon="5.95279">
        <ele>255</ele>
        <time>2012-11-18T07:45:38Z</time>
      </trkpt>
      <trkpt lat="43.26589" lon="5.95267">
        <ele>254</ele>
        <time>2012-11-18T07:45:41Z</time>
      </trkpt>
      <trkpt lat="43.26581" lon="5.95255">
        <ele>254</ele>
        <time>2012-11-18T07:45:44Z</time>
      </trkpt>
      <trkpt lat="43.26573" lon="5.95244">
        <ele>253</ele>
        <time>2012-11-18T07:45:47Z</time>
      </trkpt>
      <trkpt lat="43.26563" lon="5.95233">
        <ele>252</ele>
        <time>2012-11-18T07:45:50Z</time>
      </trkpt>
      <trkpt lat="43.26554" lon="5.95224">
        <ele>251</ele>
        <time>2012-11-18T07:45:53Z</time>
      </trkpt>
      <trkpt lat="43.26545" lon="5.95213">
        <ele>250</ele>
        <time>2012-11-18T07:45:56Z</time>
      </trkpt>
      <trkpt lat="43.2654" lon="5.95207">
        <ele>250</ele>
        <time>2012-11-18T07:45:58Z</time>
      </trkpt>
      <trkpt lat="43.26531" lon="5.95199">
        <ele>249</ele>
        <time>2012-11-18T07:46:01Z</time>
      </trkpt>
      <trkpt lat="43.26523" lon="5.95191">
        <ele>248</ele>
        <time>2012-11-18T07:46:04Z</time>
      </trkpt>
      <trkpt lat="43.26514" lon="5.95184">
        <ele>248</ele>
        <time>2012-11-18T07:46:07Z</time>
      </trkpt>
      <trkpt lat="43.26505" lon="5.95178">
        <ele>249</ele>
        <time>2012-11-18T07:46:10Z</time>
      </trkpt>
      <trkpt lat="43.26495" lon="5.95169">
        <ele>249</ele>
        <time>2012-11-18T07:46:13Z</time>
      </trkpt>
      <trkpt lat="43.26486" lon="5.9516">
        <ele>248</ele>
        <time>2012-11-18T07:46:16Z</time>
      </trkpt>
      <trkpt lat="43.26477" lon="5.9515">
        <ele>248</ele>
        <time>2012-11-18T07:46:19Z</time>
      </trkpt>
      <trkpt lat="43.26468" lon="5.95141">
        <ele>248</ele>
        <time>2012-11-18T07:46:22Z</time>
      </trkpt>
      <trkpt lat="43.2646" lon="5.95129">
        <ele>249</ele>
        <time>2012-11-18T07:46:25Z</time>
      </trkpt>
      <trkpt lat="43.26452" lon="5.95119">
        <ele>249</ele>
        <time>2012-11-18T07:46:28Z</time>
      </trkpt>
      <trkpt lat="43.26444" lon="5.95108">
        <ele>251</ele>
        <time>2012-11-18T07:46:31Z</time>
      </trkpt>
      <trkpt lat="43.26438" lon="5.95096">
        <ele>252</ele>
        <time>2012-11-18T07:46:34Z</time>
      </trkpt>
      <trkpt lat="43.26433" lon="5.95083">
        <ele>252</ele>
        <time>2012-11-18T07:46:37Z</time>
      </trkpt>
      <trkpt lat="43.26428" lon="5.9507">
        <ele>251</ele>
        <time>2012-11-18T07:46:40Z</time>
      </trkpt>
      <trkpt lat="43.26423" lon="5.95054">
        <ele>250</ele>
        <time>2012-11-18T07:46:43Z</time>
      </trkpt>
      <trkpt lat="43.2642" lon="5.95038">
        <ele>251</ele>
        <time>2012-11-18T07:46:46Z</time>
      </trkpt>
      <trkpt lat="43.26419" lon="5.95023">
        <ele>251</ele>
        <time>2012-11-18T07:46:49Z</time>
      </trkpt>
      <trkpt lat="43.26417" lon="5.9501">
        <ele>253</ele>
        <time>2012-11-18T07:46:52Z</time>
      </trkpt>
      <trkpt lat="43.26417" lon="5.94996">
        <ele>254</ele>
        <time>2012-11-18T07:46:55Z</time>
      </trkpt>
      <trkpt lat="43.26419" lon="5.94981">
        <ele>255</ele>
        <time>2012-11-18T07:46:58Z</time>
      </trkpt>
      <trkpt lat="43.26421" lon="5.94972">
        <ele>255</ele>
        <time>2012-11-18T07:47:00Z</time>
      </trkpt>
      <trkpt lat="43.26423" lon="5.94964">
        <ele>256</ele>
        <time>2012-11-18T07:47:02Z</time>
      </trkpt>
      <trkpt lat="43.26425" lon="5.94958">
        <ele>256</ele>
        <time>2012-11-18T07:47:04Z</time>
      </trkpt>
      <trkpt lat="43.26429" lon="5.94947">
        <ele>255</ele>
        <time>2012-11-18T07:47:07Z</time>
      </trkpt>
      <trkpt lat="43.26435" lon="5.94937">
        <ele>255</ele>
        <time>2012-11-18T07:47:10Z</time>
      </trkpt>
      <trkpt lat="43.26439" lon="5.94933">
        <ele>255</ele>
        <time>2012-11-18T07:47:12Z</time>
      </trkpt>
      <trkpt lat="43.26447" lon="5.94923">
        <ele>255</ele>
        <time>2012-11-18T07:47:16Z</time>
      </trkpt>
      <trkpt lat="43.26451" lon="5.94918">
        <ele>255</ele>
        <time>2012-11-18T07:47:18Z</time>
      </trkpt>
      <trkpt lat="43.26458" lon="5.94909">
        <ele>255</ele>
        <time>2012-11-18T07:47:21Z</time>
      </trkpt>
      <trkpt lat="43.26462" lon="5.94903">
        <ele>255</ele>
        <time>2012-11-18T07:47:23Z</time>
      </trkpt>
      <trkpt lat="43.26471" lon="5.9489">
        <ele>255</ele>
        <time>2012-11-18T07:47:27Z</time>
      </trkpt>
      <trkpt lat="43.26479" lon="5.94878">
        <ele>255</ele>
        <time>2012-11-18T07:47:30Z</time>
      </trkpt>
      <trkpt lat="43.26486" lon="5.94867">
        <ele>255</ele>
        <time>2012-11-18T07:47:33Z</time>
      </trkpt>
      <trkpt lat="43.26493" lon="5.94856">
        <ele>256</ele>
        <time>2012-11-18T07:47:36Z</time>
      </trkpt>
      <trkpt lat="43.26497" lon="5.94848">
        <ele>256</ele>
        <time>2012-11-18T07:47:38Z</time>
      </trkpt>
      <trkpt lat="43.26501" lon="5.94841">
        <ele>255</ele>
        <time>2012-11-18T07:47:40Z</time>
      </trkpt>
      <trkpt lat="43.26508" lon="5.94831">
        <ele>255</ele>
        <time>2012-11-18T07:47:43Z</time>
      </trkpt>
      <trkpt lat="43.26514" lon="5.94819">
        <ele>255</ele>
        <time>2012-11-18T07:47:46Z</time>
      </trkpt>
      <trkpt lat="43.2652" lon="5.94809">
        <ele>255</ele>
        <time>2012-11-18T07:47:49Z</time>
      </trkpt>
      <trkpt lat="43.26527" lon="5.94798">
        <ele>256</ele>
        <time>2012-11-18T07:47:52Z</time>
      </trkpt>
      <trkpt lat="43.26534" lon="5.94786">
        <ele>256</ele>
        <time>2012-11-18T07:47:55Z</time>
      </trkpt>
      <trkpt lat="43.2654" lon="5.94775">
        <ele>256</ele>
        <time>2012-11-18T07:47:58Z</time>
      </trkpt>
      <trkpt lat="43.26545" lon="5.94764">
        <ele>257</ele>
        <time>2012-11-18T07:48:01Z</time>
      </trkpt>
      <trkpt lat="43.2655" lon="5.94752">
        <ele>257</ele>
        <time>2012-11-18T07:48:05Z</time>
      </trkpt>
      <trkpt lat="43.26556" lon="5.94738">
        <ele>258</ele>
        <time>2012-11-18T07:48:09Z</time>
      </trkpt>
      <trkpt lat="43.26562" lon="5.94725">
        <ele>260</ele>
        <time>2012-11-18T07:48:12Z</time>
      </trkpt>
      <trkpt lat="43.26566" lon="5.94717">
        <ele>261</ele>
        <time>2012-11-18T07:48:14Z</time>
      </trkpt>
      <trkpt lat="43.2657" lon="5.94711">
        <ele>262</ele>
        <time>2012-11-18T07:48:16Z</time>
      </trkpt>
      <trkpt lat="43.26575" lon="5.94704">
        <ele>262</ele>
        <time>2012-11-18T07:48:18Z</time>
      </trkpt>
      <trkpt lat="43.2658" lon="5.94698">
        <ele>262</ele>
        <time>2012-11-18T07:48:20Z</time>
      </trkpt>
      <trkpt lat="43.26584" lon="5.94694">
        <ele>262</ele>
        <time>2012-11-18T07:48:22Z</time>
      </trkpt>
      <trkpt lat="43.2659" lon="5.94693">
        <ele>262</ele>
        <time>2012-11-18T07:48:24Z</time>
      </trkpt>
      <trkpt lat="43.26594" lon="5.94692">
        <ele>261</ele>
        <time>2012-11-18T07:48:26Z</time>
      </trkpt>
      <trkpt lat="43.26599" lon="5.94691">
        <ele>261</ele>
        <time>2012-11-18T07:48:28Z</time>
      </trkpt>
      <trkpt lat="43.26609" lon="5.94687">
        <ele>260</ele>
        <time>2012-11-18T07:48:32Z</time>
      </trkpt>
      <trkpt lat="43.2662" lon="5.94681">
        <ele>260</ele>
        <time>2012-11-18T07:48:36Z</time>
      </trkpt>
      <trkpt lat="43.26629" lon="5.9467">
        <ele>259</ele>
        <time>2012-11-18T07:48:40Z</time>
      </trkpt>
      <trkpt lat="43.26638" lon="5.94662">
        <ele>259</ele>
        <time>2012-11-18T07:48:43Z</time>
      </trkpt>
      <trkpt lat="43.26647" lon="5.94655">
        <ele>259</ele>
        <time>2012-11-18T07:48:46Z</time>
      </trkpt>
      <trkpt lat="43.26657" lon="5.9465">
        <ele>259</ele>
        <time>2012-11-18T07:48:49Z</time>
      </trkpt>
      <trkpt lat="43.26667" lon="5.94643">
        <ele>259</ele>
        <time>2012-11-18T07:48:53Z</time>
      </trkpt>
      <trkpt lat="43.26675" lon="5.94639">
        <ele>258</ele>
        <time>2012-11-18T07:48:56Z</time>
      </trkpt>
      <trkpt lat="43.26686" lon="5.94633">
        <ele>257</ele>
        <time>2012-11-18T07:49:00Z</time>
      </trkpt>
      <trkpt lat="43.26698" lon="5.94629">
        <ele>255</ele>
        <time>2012-11-18T07:49:04Z</time>
      </trkpt>
      <trkpt lat="43.26709" lon="5.94624">
        <ele>253</ele>
        <time>2012-11-18T07:49:07Z</time>
      </trkpt>
      <trkpt lat="43.26718" lon="5.9462">
        <ele>251</ele>
        <time>2012-11-18T07:49:10Z</time>
      </trkpt>
      <trkpt lat="43.26727" lon="5.94614">
        <ele>248</ele>
        <time>2012-11-18T07:49:14Z</time>
      </trkpt>
      <trkpt lat="43.26738" lon="5.9461">
        <ele>245</ele>
        <time>2012-11-18T07:49:18Z</time>
      </trkpt>
      <trkpt lat="43.26749" lon="5.94605">
        <ele>240</ele>
        <time>2012-11-18T07:49:22Z</time>
      </trkpt>
      <trkpt lat="43.2676" lon="5.94597">
        <ele>238</ele>
        <time>2012-11-18T07:49:26Z</time>
      </trkpt>
      <trkpt lat="43.26769" lon="5.94581">
        <ele>240</ele>
        <time>2012-11-18T07:49:29Z</time>
      </trkpt>
      <trkpt lat="43.26772" lon="5.94574">
        <ele>242</ele>
        <time>2012-11-18T07:49:30Z</time>
      </trkpt>
      <trkpt lat="43.26772" lon="5.94565">
        <ele>245</ele>
        <time>2012-11-18T07:49:32Z</time>
      </trkpt>
      <trkpt lat="43.26762" lon="5.94559">
        <ele>249</ele>
        <time>2012-11-18T07:49:35Z</time>
      </trkpt>
      <trkpt lat="43.26753" lon="5.94553">
        <ele>253</ele>
        <time>2012-11-18T07:49:38Z</time>
      </trkpt>
      <trkpt lat="43.26754" lon="5.9454">
        <ele>255</ele>
        <time>2012-11-18T07:49:41Z</time>
      </trkpt>
      <trkpt lat="43.26759" lon="5.94527">
        <ele>257</ele>
        <time>2012-11-18T07:49:45Z</time>
      </trkpt>
      <trkpt lat="43.26764" lon="5.94514">
        <ele>258</ele>
        <time>2012-11-18T07:49:48Z</time>
      </trkpt>
      <trkpt lat="43.2677" lon="5.94501">
        <ele>259</ele>
        <time>2012-11-18T07:49:51Z</time>
      </trkpt>
      <trkpt lat="43.26776" lon="5.94488">
        <ele>260</ele>
        <time>2012-11-18T07:49:54Z</time>
      </trkpt>
      <trkpt lat="43.26779" lon="5.94475">
        <ele>261</ele>
        <time>2012-11-18T07:49:57Z</time>
      </trkpt>
      <trkpt lat="43.26782" lon="5.94462">
        <ele>261</ele>
        <time>2012-11-18T07:50:00Z</time>
      </trkpt>
      <trkpt lat="43.26788" lon="5.94451">
        <ele>260</ele>
        <time>2012-11-18T07:50:04Z</time>
      </trkpt>
      <trkpt lat="43.26793" lon="5.94438">
        <ele>260</ele>
        <time>2012-11-18T07:50:08Z</time>
      </trkpt>
      <trkpt lat="43.26797" lon="5.94424">
        <ele>260</ele>
        <time>2012-11-18T07:50:12Z</time>
      </trkpt>
      <trkpt lat="43.26804" lon="5.94414">
        <ele>260</ele>
        <time>2012-11-18T07:50:15Z</time>
      </trkpt>
      <trkpt lat="43.26811" lon="5.94402">
        <ele>261</ele>
        <time>2012-11-18T07:50:19Z</time>
      </trkpt>
      <trkpt lat="43.26818" lon="5.94391">
        <ele>260</ele>
        <time>2012-11-18T07:50:23Z</time>
      </trkpt>
      <trkpt lat="43.26824" lon="5.9438">
        <ele>257</ele>
        <time>2012-11-18T07:50:26Z</time>
      </trkpt>
      <trkpt lat="43.2683" lon="5.94368">
        <ele>256</ele>
        <time>2012-11-18T07:50:29Z</time>
      </trkpt>
      <trkpt lat="43.26837" lon="5.94356">
        <ele>255</ele>
        <time>2012-11-18T07:50:31Z</time>
      </trkpt>
      <trkpt lat="43.26841" lon="5.94343">
        <ele>255</ele>
        <time>2012-11-18T07:50:34Z</time>
      </trkpt>
      <trkpt lat="43.26847" lon="5.94329">
        <ele>257</ele>
        <time>2012-11-18T07:50:43Z</time>
      </trkpt>
      <trkpt lat="43.26852" lon="5.94312">
        <ele>258</ele>
        <time>2012-11-18T07:50:47Z</time>
      </trkpt>
      <trkpt lat="43.26858" lon="5.94301">
        <ele>259</ele>
        <time>2012-11-18T07:50:50Z</time>
      </trkpt>
      <trkpt lat="43.26864" lon="5.94291">
        <ele>260</ele>
        <time>2012-11-18T07:50:53Z</time>
      </trkpt>
      <trkpt lat="43.26868" lon="5.9428">
        <ele>262</ele>
        <time>2012-11-18T07:50:57Z</time>
      </trkpt>
      <trkpt lat="43.26871" lon="5.94265">
        <ele>265</ele>
        <time>2012-11-18T07:51:03Z</time>
      </trkpt>
      <trkpt lat="43.26875" lon="5.94251">
        <ele>267</ele>
        <time>2012-11-18T07:51:09Z</time>
      </trkpt>
      <trkpt lat="43.26877" lon="5.94234">
        <ele>268</ele>
        <time>2012-11-18T07:51:13Z</time>
      </trkpt>
      <trkpt lat="43.26878" lon="5.94218">
        <ele>271</ele>
        <time>2012-11-18T07:51:16Z</time>
      </trkpt>
      <trkpt lat="43.26879" lon="5.94203">
        <ele>272</ele>
        <time>2012-11-18T07:51:19Z</time>
      </trkpt>
      <trkpt lat="43.26882" lon="5.94191">
        <ele>274</ele>
        <time>2012-11-18T07:51:22Z</time>
      </trkpt>
      <trkpt lat="43.26882" lon="5.94178">
        <ele>275</ele>
        <time>2012-11-18T07:51:27Z</time>
      </trkpt>
      <trkpt lat="43.26881" lon="5.94165">
        <ele>275</ele>
        <time>2012-11-18T07:51:31Z</time>
      </trkpt>
      <trkpt lat="43.26876" lon="5.94153">
        <ele>276</ele>
        <time>2012-11-18T07:51:36Z</time>
      </trkpt>
      <trkpt lat="43.26871" lon="5.94152">
        <ele>277</ele>
        <time>2012-11-18T07:51:43Z</time>
      </trkpt>
      <trkpt lat="43.26862" lon="5.94159">
        <ele>277</ele>
        <time>2012-11-18T07:51:48Z</time>
      </trkpt>
      <trkpt lat="43.26859" lon="5.94164">
        <ele>276</ele>
        <time>2012-11-18T07:51:51Z</time>
      </trkpt>
      <trkpt lat="43.26855" lon="5.94168">
        <ele>275</ele>
        <time>2012-11-18T07:51:54Z</time>
      </trkpt>
      <trkpt lat="43.26851" lon="5.94173">
        <ele>274</ele>
        <time>2012-11-18T07:51:57Z</time>
      </trkpt>
      <trkpt lat="43.26851" lon="5.9417">
        <ele>273</ele>
        <time>2012-11-18T07:52:21Z</time>
      </trkpt>
      <trkpt lat="43.26858" lon="5.94161">
        <ele>273</ele>
        <time>2012-11-18T07:52:26Z</time>
      </trkpt>
      <trkpt lat="43.26864" lon="5.9415">
        <ele>272</ele>
        <time>2012-11-18T07:52:31Z</time>
      </trkpt>
      <trkpt lat="43.26873" lon="5.94144">
        <ele>270</ele>
        <time>2012-11-18T07:52:34Z</time>
      </trkpt>
      <trkpt lat="43.26886" lon="5.94146">
        <ele>265</ele>
        <time>2012-11-18T07:52:51Z</time>
      </trkpt>
      <trkpt lat="43.26897" lon="5.9414">
        <ele>264</ele>
        <time>2012-11-18T07:53:00Z</time>
      </trkpt>
      <trkpt lat="43.269" lon="5.94126">
        <ele>263</ele>
        <time>2012-11-18T07:53:10Z</time>
      </trkpt>
      <trkpt lat="43.26909" lon="5.94117">
        <ele>265</ele>
        <time>2012-11-18T07:53:18Z</time>
      </trkpt>
      <trkpt lat="43.26907" lon="5.94095">
        <ele>266</ele>
        <time>2012-11-18T07:54:23Z</time>
      </trkpt>
      <trkpt lat="43.26907" lon="5.94079">
        <ele>266</ele>
        <time>2012-11-18T07:54:25Z</time>
      </trkpt>
      <trkpt lat="43.26908" lon="5.94064">
        <ele>266</ele>
        <time>2012-11-18T07:54:27Z</time>
      </trkpt>
      <trkpt lat="43.26911" lon="5.9405">
        <ele>265</ele>
        <time>2012-11-18T07:54:30Z</time>
      </trkpt>
      <trkpt lat="43.26909" lon="5.94033">
        <ele>265</ele>
        <time>2012-11-18T07:54:34Z</time>
      </trkpt>
      <trkpt lat="43.2691" lon="5.9402">
        <ele>264</ele>
        <time>2012-11-18T07:54:37Z</time>
      </trkpt>
      <trkpt lat="43.26909" lon="5.94008">
        <ele>265</ele>
        <time>2012-11-18T07:54:41Z</time>
      </trkpt>
      <trkpt lat="43.26906" lon="5.93994">
        <ele>265</ele>
        <time>2012-11-18T07:54:45Z</time>
      </trkpt>
      <trkpt lat="43.26903" lon="5.93982">
        <ele>265</ele>
        <time>2012-11-18T07:54:49Z</time>
      </trkpt>
      <trkpt lat="43.26898" lon="5.93969">
        <ele>264</ele>
        <time>2012-11-18T07:54:53Z</time>
      </trkpt>
      <trkpt lat="43.26892" lon="5.93954">
        <ele>264</ele>
        <time>2012-11-18T07:54:57Z</time>
      </trkpt>
      <trkpt lat="43.26889" lon="5.93941">
        <ele>265</ele>
        <time>2012-11-18T07:55:00Z</time>
      </trkpt>
      <trkpt lat="43.2689" lon="5.93925">
        <ele>266</ele>
        <time>2012-11-18T07:55:04Z</time>
      </trkpt>
      <trkpt lat="43.26892" lon="5.93912">
        <ele>266</ele>
        <time>2012-11-18T07:55:08Z</time>
      </trkpt>
      <trkpt lat="43.26895" lon="5.939">
        <ele>265</ele>
        <time>2012-11-18T07:55:14Z</time>
      </trkpt>
      <trkpt lat="43.26899" lon="5.93887">
        <ele>264</ele>
        <time>2012-11-18T07:55:23Z</time>
      </trkpt>
      <trkpt lat="43.26902" lon="5.93876">
        <ele>267</ele>
        <time>2012-11-18T07:55:30Z</time>
      </trkpt>
      <trkpt lat="43.26906" lon="5.93864">
        <ele>270</ele>
        <time>2012-11-18T07:55:38Z</time>
      </trkpt>
      <trkpt lat="43.26909" lon="5.9385">
        <ele>271</ele>
        <time>2012-11-18T07:55:43Z</time>
      </trkpt>
      <trkpt lat="43.26911" lon="5.93837">
        <ele>271</ele>
        <time>2012-11-18T07:55:47Z</time>
      </trkpt>
      <trkpt lat="43.26914" lon="5.93823">
        <ele>272</ele>
        <time>2012-11-18T07:55:50Z</time>
      </trkpt>
      <trkpt lat="43.26913" lon="5.93809">
        <ele>273</ele>
        <time>2012-11-18T07:55:54Z</time>
      </trkpt>
      <trkpt lat="43.26912" lon="5.93794">
        <ele>274</ele>
        <time>2012-11-18T07:55:59Z</time>
      </trkpt>
      <trkpt lat="43.2691" lon="5.93781">
        <ele>273</ele>
        <time>2012-11-18T07:56:02Z</time>
      </trkpt>
      <trkpt lat="43.26904" lon="5.93769">
        <ele>274</ele>
        <time>2012-11-18T07:56:06Z</time>
      </trkpt>
      <trkpt lat="43.26901" lon="5.93752">
        <ele>275</ele>
        <time>2012-11-18T07:56:12Z</time>
      </trkpt>
      <trkpt lat="43.26896" lon="5.93739">
        <ele>275</ele>
        <time>2012-11-18T07:56:18Z</time>
      </trkpt>
      <trkpt lat="43.26893" lon="5.93727">
        <ele>276</ele>
        <time>2012-11-18T07:56:22Z</time>
      </trkpt>
      <trkpt lat="43.26889" lon="5.93715">
        <ele>278</ele>
        <time>2012-11-18T07:56:26Z</time>
      </trkpt>
      <trkpt lat="43.26886" lon="5.93702">
        <ele>280</ele>
        <time>2012-11-18T07:56:30Z</time>
      </trkpt>
      <trkpt lat="43.2688" lon="5.93689">
        <ele>282</ele>
        <time>2012-11-18T07:56:34Z</time>
      </trkpt>
      <trkpt lat="43.26876" lon="5.93676">
        <ele>281</ele>
        <time>2012-11-18T07:56:38Z</time>
      </trkpt>
      <trkpt lat="43.26871" lon="5.93663">
        <ele>280</ele>
        <time>2012-11-18T07:56:42Z</time>
      </trkpt>
      <trkpt lat="43.26869" lon="5.9365">
        <ele>279</ele>
        <time>2012-11-18T07:56:47Z</time>
      </trkpt>
      <trkpt lat="43.26864" lon="5.93637">
        <ele>277</ele>
        <time>2012-11-18T07:56:52Z</time>
      </trkpt>
      <trkpt lat="43.2686" lon="5.93624">
        <ele>279</ele>
        <time>2012-11-18T07:56:56Z</time>
      </trkpt>
      <trkpt lat="43.26855" lon="5.93611">
        <ele>282</ele>
        <time>2012-11-18T07:57:00Z</time>
      </trkpt>
      <trkpt lat="43.26851" lon="5.93599">
        <ele>283</ele>
        <time>2012-11-18T07:57:05Z</time>
      </trkpt>
      <trkpt lat="43.26847" lon="5.93587">
        <ele>283</ele>
        <time>2012-11-18T07:57:12Z</time>
      </trkpt>
      <trkpt lat="43.26841" lon="5.93576">
        <ele>281</ele>
        <time>2012-11-18T07:57:17Z</time>
      </trkpt>
      <trkpt lat="43.26836" lon="5.93565">
        <ele>279</ele>
        <time>2012-11-18T07:57:22Z</time>
      </trkpt>
      <trkpt lat="43.26832" lon="5.93554">
        <ele>279</ele>
        <time>2012-11-18T07:57:27Z</time>
      </trkpt>
      <trkpt lat="43.26824" lon="5.93545">
        <ele>280</ele>
        <time>2012-11-18T07:57:33Z</time>
      </trkpt>
      <trkpt lat="43.26818" lon="5.93532">
        <ele>280</ele>
        <time>2012-11-18T07:57:38Z</time>
      </trkpt>
      <trkpt lat="43.26813" lon="5.93519">
        <ele>279</ele>
        <time>2012-11-18T07:57:43Z</time>
      </trkpt>
      <trkpt lat="43.26809" lon="5.93507">
        <ele>278</ele>
        <time>2012-11-18T07:57:47Z</time>
      </trkpt>
      <trkpt lat="43.26806" lon="5.93493">
        <ele>278</ele>
        <time>2012-11-18T07:57:52Z</time>
      </trkpt>
      <trkpt lat="43.26799" lon="5.93483">
        <ele>279</ele>
        <time>2012-11-18T07:57:57Z</time>
      </trkpt>
      <trkpt lat="43.26791" lon="5.93475">
        <ele>281</ele>
        <time>2012-11-18T07:58:01Z</time>
      </trkpt>
      <trkpt lat="43.26782" lon="5.9347">
        <ele>284</ele>
        <time>2012-11-18T07:58:05Z</time>
      </trkpt>
      <trkpt lat="43.26771" lon="5.93465">
        <ele>287</ele>
        <time>2012-11-18T07:58:08Z</time>
      </trkpt>
      <trkpt lat="43.26763" lon="5.93458">
        <ele>289</ele>
        <time>2012-11-18T07:58:11Z</time>
      </trkpt>
      <trkpt lat="43.26754" lon="5.9345">
        <ele>292</ele>
        <time>2012-11-18T07:58:15Z</time>
      </trkpt>
      <trkpt lat="43.26744" lon="5.93444">
        <ele>294</ele>
        <time>2012-11-18T07:58:19Z</time>
      </trkpt>
      <trkpt lat="43.26734" lon="5.93437">
        <ele>295</ele>
        <time>2012-11-18T07:58:23Z</time>
      </trkpt>
      <trkpt lat="43.26725" lon="5.93428">
        <ele>297</ele>
        <time>2012-11-18T07:58:27Z</time>
      </trkpt>
      <trkpt lat="43.26716" lon="5.93417">
        <ele>299</ele>
        <time>2012-11-18T07:58:31Z</time>
      </trkpt>
      <trkpt lat="43.26708" lon="5.93411">
        <ele>299</ele>
        <time>2012-11-18T07:58:34Z</time>
      </trkpt>
      <trkpt lat="43.267" lon="5.93404">
        <ele>299</ele>
        <time>2012-11-18T07:58:38Z</time>
      </trkpt>
      <trkpt lat="43.26692" lon="5.93397">
        <ele>298</ele>
        <time>2012-11-18T07:58:42Z</time>
      </trkpt>
      <trkpt lat="43.26682" lon="5.93392">
        <ele>297</ele>
        <time>2012-11-18T07:58:47Z</time>
      </trkpt>
      <trkpt lat="43.26674" lon="5.93384">
        <ele>296</ele>
        <time>2012-11-18T07:58:54Z</time>
      </trkpt>
      <trkpt lat="43.26666" lon="5.93375">
        <ele>296</ele>
        <time>2012-11-18T07:58:59Z</time>
      </trkpt>
      <trkpt lat="43.26655" lon="5.93364">
        <ele>293</ele>
        <time>2012-11-18T07:59:22Z</time>
      </trkpt>
      <trkpt lat="43.26644" lon="5.93368">
        <ele>296</ele>
        <time>2012-11-18T07:59:34Z</time>
      </trkpt>
      <trkpt lat="43.26631" lon="5.93371">
        <ele>296</ele>
        <time>2012-11-18T07:59:46Z</time>
      </trkpt>
      <trkpt lat="43.26628" lon="5.93375">
        <ele>294</ele>
        <time>2012-11-18T08:00:08Z</time>
      </trkpt>
      <trkpt lat="43.26621" lon="5.93373">
        <ele>299</ele>
        <time>2012-11-18T08:00:30Z</time>
      </trkpt>
      <trkpt lat="43.26627" lon="5.93363">
        <ele>301</ele>
        <time>2012-11-18T08:00:41Z</time>
      </trkpt>
      <trkpt lat="43.26629" lon="5.93349">
        <ele>300</ele>
        <time>2012-11-18T08:00:56Z</time>
      </trkpt>
      <trkpt lat="43.26633" lon="5.93337">
        <ele>297</ele>
        <time>2012-11-18T08:01:13Z</time>
      </trkpt>
      <trkpt lat="43.26636" lon="5.93319">
        <ele>297</ele>
        <time>2012-11-18T08:01:21Z</time>
      </trkpt>
      <trkpt lat="43.26642" lon="5.93304">
        <ele>301</ele>
        <time>2012-11-18T08:01:34Z</time>
      </trkpt>
      <trkpt lat="43.26644" lon="5.93289">
        <ele>305</ele>
        <time>2012-11-18T08:01:44Z</time>
      </trkpt>
      <trkpt lat="43.26646" lon="5.9328">
        <ele>307</ele>
        <time>2012-11-18T08:02:06Z</time>
      </trkpt>
      <trkpt lat="43.26645" lon="5.93267">
        <ele>306</ele>
        <time>2012-11-18T08:02:09Z</time>
      </trkpt>
      <trkpt lat="43.26643" lon="5.93247">
        <ele>299</ele>
        <time>2012-11-18T08:02:29Z</time>
      </trkpt>
      <trkpt lat="43.26638" lon="5.93236">
        <ele>295</ele>
        <time>2012-11-18T08:02:50Z</time>
      </trkpt>
      <trkpt lat="43.26636" lon="5.93221">
        <ele>294</ele>
        <time>2012-11-18T08:03:05Z</time>
      </trkpt>
      <trkpt lat="43.26627" lon="5.93207">
        <ele>294</ele>
        <time>2012-11-18T08:03:11Z</time>
      </trkpt>
      <trkpt lat="43.26635" lon="5.93201">
        <ele>292</ele>
        <time>2012-11-18T08:03:34Z</time>
      </trkpt>
      <trkpt lat="43.26644" lon="5.93193">
        <ele>291</ele>
        <time>2012-11-18T08:03:43Z</time>
      </trkpt>
      <trkpt lat="43.26652" lon="5.93181">
        <ele>292</ele>
        <time>2012-11-18T08:03:47Z</time>
      </trkpt>
      <trkpt lat="43.26662" lon="5.93164">
        <ele>292</ele>
        <time>2012-11-18T08:03:52Z</time>
      </trkpt>
      <trkpt lat="43.26668" lon="5.9315">
        <ele>292</ele>
        <time>2012-11-18T08:03:56Z</time>
      </trkpt>
      <trkpt lat="43.26672" lon="5.93138">
        <ele>293</ele>
        <time>2012-11-18T08:04:01Z</time>
      </trkpt>
      <trkpt lat="43.26676" lon="5.93126">
        <ele>292</ele>
        <time>2012-11-18T08:04:06Z</time>
      </trkpt>
      <trkpt lat="43.2668" lon="5.93113">
        <ele>292</ele>
        <time>2012-11-18T08:04:11Z</time>
      </trkpt>
      <trkpt lat="43.26683" lon="5.93099">
        <ele>293</ele>
        <time>2012-11-18T08:04:16Z</time>
      </trkpt>
      <trkpt lat="43.2671" lon="5.93068">
        <ele>293</ele>
        <time>2012-11-18T08:04:22Z</time>
      </trkpt>
      <trkpt lat="43.26722" lon="5.93059">
        <ele>295</ele>
        <time>2012-11-18T08:04:24Z</time>
      </trkpt>
      <trkpt lat="43.26734" lon="5.9305">
        <ele>297</ele>
        <time>2012-11-18T08:04:26Z</time>
      </trkpt>
      <trkpt lat="43.26742" lon="5.93043">
        <ele>298</ele>
        <time>2012-11-18T08:04:28Z</time>
      </trkpt>
      <trkpt lat="43.2675" lon="5.93034">
        <ele>299</ele>
        <time>2012-11-18T08:04:32Z</time>
      </trkpt>
      <trkpt lat="43.26757" lon="5.93024">
        <ele>299</ele>
        <time>2012-11-18T08:04:38Z</time>
      </trkpt>
      <trkpt lat="43.26763" lon="5.93011">
        <ele>296</ele>
        <time>2012-11-18T08:05:11Z</time>
      </trkpt>
      <trkpt lat="43.26773" lon="5.92999">
        <ele>296</ele>
        <time>2012-11-18T08:05:18Z</time>
      </trkpt>
      <trkpt lat="43.26779" lon="5.92987">
        <ele>296</ele>
        <time>2012-11-18T08:05:23Z</time>
      </trkpt>
      <trkpt lat="43.26786" lon="5.92976">
        <ele>296</ele>
        <time>2012-11-18T08:05:25Z</time>
      </trkpt>
      <trkpt lat="43.26791" lon="5.92962">
        <ele>297</ele>
        <time>2012-11-18T08:05:29Z</time>
      </trkpt>
      <trkpt lat="43.26792" lon="5.92948">
        <ele>296</ele>
        <time>2012-11-18T08:05:34Z</time>
      </trkpt>
      <trkpt lat="43.26792" lon="5.92934">
        <ele>295</ele>
        <time>2012-11-18T08:05:39Z</time>
      </trkpt>
      <trkpt lat="43.2679" lon="5.92921">
        <ele>298</ele>
        <time>2012-11-18T08:05:49Z</time>
      </trkpt>
      <trkpt lat="43.26796" lon="5.9291">
        <ele>304</ele>
        <time>2012-11-18T08:05:55Z</time>
      </trkpt>
      <trkpt lat="43.2679" lon="5.92893">
        <ele>312</ele>
        <time>2012-11-18T08:06:09Z</time>
      </trkpt>
      <trkpt lat="43.26782" lon="5.92881">
        <ele>314</ele>
        <time>2012-11-18T08:06:12Z</time>
      </trkpt>
      <trkpt lat="43.26774" lon="5.92873">
        <ele>316</ele>
        <time>2012-11-18T08:06:17Z</time>
      </trkpt>
      <trkpt lat="43.26765" lon="5.92868">
        <ele>318</ele>
        <time>2012-11-18T08:06:21Z</time>
      </trkpt>
      <trkpt lat="43.26756" lon="5.92859">
        <ele>319</ele>
        <time>2012-11-18T08:06:26Z</time>
      </trkpt>
      <trkpt lat="43.26754" lon="5.92846">
        <ele>320</ele>
        <time>2012-11-18T08:06:30Z</time>
      </trkpt>
      <trkpt lat="43.26754" lon="5.9283">
        <ele>321</ele>
        <time>2012-11-18T08:06:34Z</time>
      </trkpt>
      <trkpt lat="43.26753" lon="5.92817">
        <ele>324</ele>
        <time>2012-11-18T08:06:38Z</time>
      </trkpt>
      <trkpt lat="43.26755" lon="5.92804">
        <ele>326</ele>
        <time>2012-11-18T08:06:42Z</time>
      </trkpt>
      <trkpt lat="43.26761" lon="5.92793">
        <ele>328</ele>
        <time>2012-11-18T08:06:45Z</time>
      </trkpt>
      <trkpt lat="43.26763" lon="5.92781">
        <ele>328</ele>
        <time>2012-11-18T08:06:48Z</time>
      </trkpt>
      <trkpt lat="43.26766" lon="5.92767">
        <ele>329</ele>
        <time>2012-11-18T08:06:53Z</time>
      </trkpt>
      <trkpt lat="43.26771" lon="5.92752">
        <ele>331</ele>
        <time>2012-11-18T08:06:58Z</time>
      </trkpt>
      <trkpt lat="43.26777" lon="5.92737">
        <ele>334</ele>
        <time>2012-11-18T08:07:02Z</time>
      </trkpt>
      <trkpt lat="43.26782" lon="5.92724">
        <ele>340</ele>
        <time>2012-11-18T08:07:06Z</time>
      </trkpt>
      <trkpt lat="43.26788" lon="5.92714">
        <ele>341</ele>
        <time>2012-11-18T08:07:09Z</time>
      </trkpt>
      <trkpt lat="43.26796" lon="5.92703">
        <ele>341</ele>
        <time>2012-11-18T08:07:12Z</time>
      </trkpt>
      <trkpt lat="43.26803" lon="5.92692">
        <ele>340</ele>
        <time>2012-11-18T08:07:15Z</time>
      </trkpt>
      <trkpt lat="43.2681" lon="5.92679">
        <ele>339</ele>
        <time>2012-11-18T08:07:19Z</time>
      </trkpt>
      <trkpt lat="43.26814" lon="5.92667">
        <ele>340</ele>
        <time>2012-11-18T08:07:22Z</time>
      </trkpt>
      <trkpt lat="43.26818" lon="5.92652">
        <ele>340</ele>
        <time>2012-11-18T08:07:26Z</time>
      </trkpt>
      <trkpt lat="43.2682" lon="5.92639">
        <ele>342</ele>
        <time>2012-11-18T08:07:29Z</time>
      </trkpt>
      <trkpt lat="43.26826" lon="5.92624">
        <ele>343</ele>
        <time>2012-11-18T08:07:32Z</time>
      </trkpt>
      <trkpt lat="43.2683" lon="5.92608">
        <ele>343</ele>
        <time>2012-11-18T08:07:35Z</time>
      </trkpt>
      <trkpt lat="43.26833" lon="5.92594">
        <ele>342</ele>
        <time>2012-11-18T08:07:38Z</time>
      </trkpt>
      <trkpt lat="43.26838" lon="5.9258">
        <ele>341</ele>
        <time>2012-11-18T08:07:42Z</time>
      </trkpt>
      <trkpt lat="43.26838" lon="5.92567">
        <ele>341</ele>
        <time>2012-11-18T08:07:45Z</time>
      </trkpt>
      <trkpt lat="43.2684" lon="5.92554">
        <ele>341</ele>
        <time>2012-11-18T08:07:49Z</time>
      </trkpt>
      <trkpt lat="43.26842" lon="5.92541">
        <ele>341</ele>
        <time>2012-11-18T08:07:52Z</time>
      </trkpt>
      <trkpt lat="43.26844" lon="5.92527">
        <ele>342</ele>
        <time>2012-11-18T08:07:56Z</time>
      </trkpt>
      <trkpt lat="43.26847" lon="5.92514">
        <ele>344</ele>
        <time>2012-11-18T08:08:01Z</time>
      </trkpt>
      <trkpt lat="43.2685" lon="5.925">
        <ele>346</ele>
        <time>2012-11-18T08:08:05Z</time>
      </trkpt>
      <trkpt lat="43.26851" lon="5.92485">
        <ele>349</ele>
        <time>2012-11-18T08:08:09Z</time>
      </trkpt>
      <trkpt lat="43.26852" lon="5.92471">
        <ele>350</ele>
        <time>2012-11-18T08:08:13Z</time>
      </trkpt>
      <trkpt lat="43.26855" lon="5.92457">
        <ele>353</ele>
        <time>2012-11-18T08:08:18Z</time>
      </trkpt>
      <trkpt lat="43.26858" lon="5.92443">
        <ele>354</ele>
        <time>2012-11-18T08:08:23Z</time>
      </trkpt>
      <trkpt lat="43.26858" lon="5.9243">
        <ele>356</ele>
        <time>2012-11-18T08:08:27Z</time>
      </trkpt>
      <trkpt lat="43.26859" lon="5.92416">
        <ele>357</ele>
        <time>2012-11-18T08:08:31Z</time>
      </trkpt>
      <trkpt lat="43.26861" lon="5.92404">
        <ele>357</ele>
        <time>2012-11-18T08:08:34Z</time>
      </trkpt>
      <trkpt lat="43.26865" lon="5.92391">
        <ele>358</ele>
        <time>2012-11-18T08:08:39Z</time>
      </trkpt>
      <trkpt lat="43.26865" lon="5.92378">
        <ele>360</ele>
        <time>2012-11-18T08:08:43Z</time>
      </trkpt>
      <trkpt lat="43.26867" lon="5.92364">
        <ele>360</ele>
        <time>2012-11-18T08:08:47Z</time>
      </trkpt>
      <trkpt lat="43.2687" lon="5.9235">
        <ele>361</ele>
        <time>2012-11-18T08:08:52Z</time>
      </trkpt>
      <trkpt lat="43.26874" lon="5.92335">
        <ele>363</ele>
        <time>2012-11-18T08:08:57Z</time>
      </trkpt>
      <trkpt lat="43.26879" lon="5.92323">
        <ele>361</ele>
        <time>2012-11-18T08:09:01Z</time>
      </trkpt>
      <trkpt lat="43.2688" lon="5.9231">
        <ele>360</ele>
        <time>2012-11-18T08:09:05Z</time>
      </trkpt>
      <trkpt lat="43.26884" lon="5.92297">
        <ele>360</ele>
        <time>2012-11-18T08:09:09Z</time>
      </trkpt>
      <trkpt lat="43.26885" lon="5.92284">
        <ele>358</ele>
        <time>2012-11-18T08:09:18Z</time>
      </trkpt>
      <trkpt lat="43.26876" lon="5.92291">
        <ele>356</ele>
        <time>2012-11-18T08:09:26Z</time>
      </trkpt>
      <trkpt lat="43.26868" lon="5.92301">
        <ele>355</ele>
        <time>2012-11-18T08:09:31Z</time>
      </trkpt>
      <trkpt lat="43.26862" lon="5.92314">
        <ele>354</ele>
        <time>2012-11-18T08:09:35Z</time>
      </trkpt>
      <trkpt lat="43.26857" lon="5.92326">
        <ele>352</ele>
        <time>2012-11-18T08:09:39Z</time>
      </trkpt>
      <trkpt lat="43.2685" lon="5.92337">
        <ele>350</ele>
        <time>2012-11-18T08:09:45Z</time>
      </trkpt>
      <trkpt lat="43.26844" lon="5.92348">
        <ele>349</ele>
        <time>2012-11-18T08:09:50Z</time>
      </trkpt>
      <trkpt lat="43.26839" lon="5.92362">
        <ele>348</ele>
        <time>2012-11-18T08:09:55Z</time>
      </trkpt>
      <trkpt lat="43.26833" lon="5.92379">
        <ele>348</ele>
        <time>2012-11-18T08:10:01Z</time>
      </trkpt>
      <trkpt lat="43.26827" lon="5.92391">
        <ele>349</ele>
        <time>2012-11-18T08:10:05Z</time>
      </trkpt>
      <trkpt lat="43.2682" lon="5.92401">
        <ele>349</ele>
        <time>2012-11-18T08:10:09Z</time>
      </trkpt>
      <trkpt lat="43.26811" lon="5.92409">
        <ele>349</ele>
        <time>2012-11-18T08:10:16Z</time>
      </trkpt>
      <trkpt lat="43.26804" lon="5.92419">
        <ele>350</ele>
        <time>2012-11-18T08:10:22Z</time>
      </trkpt>
      <trkpt lat="43.26797" lon="5.92427">
        <ele>351</ele>
        <time>2012-11-18T08:10:29Z</time>
      </trkpt>
      <trkpt lat="43.26788" lon="5.92435">
        <ele>351</ele>
        <time>2012-11-18T08:10:37Z</time>
      </trkpt>
      <trkpt lat="43.26782" lon="5.92445">
        <ele>353</ele>
        <time>2012-11-18T08:10:41Z</time>
      </trkpt>
      <trkpt lat="43.26777" lon="5.92458">
        <ele>354</ele>
        <time>2012-11-18T08:10:45Z</time>
      </trkpt>
      <trkpt lat="43.26773" lon="5.92471">
        <ele>356</ele>
        <time>2012-11-18T08:10:49Z</time>
      </trkpt>
      <trkpt lat="43.26768" lon="5.92484">
        <ele>355</ele>
        <time>2012-11-18T08:10:54Z</time>
      </trkpt>
      <trkpt lat="43.26762" lon="5.92496">
        <ele>356</ele>
        <time>2012-11-18T08:10:59Z</time>
      </trkpt>
      <trkpt lat="43.26756" lon="5.92507">
        <ele>357</ele>
        <time>2012-11-18T08:11:03Z</time>
      </trkpt>
      <trkpt lat="43.26751" lon="5.9252">
        <ele>357</ele>
        <time>2012-11-18T08:11:09Z</time>
      </trkpt>
      <trkpt lat="43.26746" lon="5.9253">
        <ele>357</ele>
        <time>2012-11-18T08:11:14Z</time>
      </trkpt>
      <trkpt lat="43.26747" lon="5.92545">
        <ele>358</ele>
        <time>2012-11-18T08:11:19Z</time>
      </trkpt>
      <trkpt lat="43.26748" lon="5.92557">
        <ele>357</ele>
        <time>2012-11-18T08:11:23Z</time>
      </trkpt>
      <trkpt lat="43.26748" lon="5.92573">
        <ele>357</ele>
        <time>2012-11-18T08:11:27Z</time>
      </trkpt>
      <trkpt lat="43.26744" lon="5.92585">
        <ele>355</ele>
        <time>2012-11-18T08:11:33Z</time>
      </trkpt>
      <trkpt lat="43.2674" lon="5.92598">
        <ele>355</ele>
        <time>2012-11-18T08:11:40Z</time>
      </trkpt>
      <trkpt lat="43.26731" lon="5.92605">
        <ele>355</ele>
        <time>2012-11-18T08:11:47Z</time>
      </trkpt>
      <trkpt lat="43.26722" lon="5.9261">
        <ele>357</ele>
        <time>2012-11-18T08:11:55Z</time>
      </trkpt>
      <trkpt lat="43.26713" lon="5.92611">
        <ele>358</ele>
        <time>2012-11-18T08:12:04Z</time>
      </trkpt>
      <trkpt lat="43.26703" lon="5.92606">
        <ele>359</ele>
        <time>2012-11-18T08:12:12Z</time>
      </trkpt>
      <trkpt lat="43.26694" lon="5.92606">
        <ele>361</ele>
        <time>2012-11-18T08:12:20Z</time>
      </trkpt>
      <trkpt lat="43.26685" lon="5.92599">
        <ele>361</ele>
        <time>2012-11-18T08:12:26Z</time>
      </trkpt>
      <trkpt lat="43.26677" lon="5.92591">
        <ele>364</ele>
        <time>2012-11-18T08:12:31Z</time>
      </trkpt>
      <trkpt lat="43.26669" lon="5.92583">
        <ele>366</ele>
        <time>2012-11-18T08:12:35Z</time>
      </trkpt>
      <trkpt lat="43.26659" lon="5.92575">
        <ele>369</ele>
        <time>2012-11-18T08:12:39Z</time>
      </trkpt>
      <trkpt lat="43.2665" lon="5.92567">
        <ele>372</ele>
        <time>2012-11-18T08:12:43Z</time>
      </trkpt>
      <trkpt lat="43.26642" lon="5.92563">
        <ele>374</ele>
        <time>2012-11-18T08:12:47Z</time>
      </trkpt>
      <trkpt lat="43.26633" lon="5.92558">
        <ele>376</ele>
        <time>2012-11-18T08:12:51Z</time>
      </trkpt>
      <trkpt lat="43.26623" lon="5.92559">
        <ele>380</ele>
        <time>2012-11-18T08:12:56Z</time>
      </trkpt>
      <trkpt lat="43.26612" lon="5.92556">
        <ele>382</ele>
        <time>2012-11-18T08:13:01Z</time>
      </trkpt>
      <trkpt lat="43.26602" lon="5.9255">
        <ele>383</ele>
        <time>2012-11-18T08:13:04Z</time>
      </trkpt>
      <trkpt lat="43.26592" lon="5.92546">
        <ele>384</ele>
        <time>2012-11-18T08:13:06Z</time>
      </trkpt>
      <trkpt lat="43.26581" lon="5.92546">
        <ele>384</ele>
        <time>2012-11-18T08:13:08Z</time>
      </trkpt>
      <trkpt lat="43.26567" lon="5.92545">
        <ele>384</ele>
        <time>2012-11-18T08:13:10Z</time>
      </trkpt>
      <trkpt lat="43.26555" lon="5.92541">
        <ele>383</ele>
        <time>2012-11-18T08:13:12Z</time>
      </trkpt>
      <trkpt lat="43.26544" lon="5.9254">
        <ele>381</ele>
        <time>2012-11-18T08:13:15Z</time>
      </trkpt>
      <trkpt lat="43.26534" lon="5.92543">
        <ele>377</ele>
        <time>2012-11-18T08:13:24Z</time>
      </trkpt>
      <trkpt lat="43.26525" lon="5.92545">
        <ele>376</ele>
        <time>2012-11-18T08:13:27Z</time>
      </trkpt>
      <trkpt lat="43.26513" lon="5.92548">
        <ele>374</ele>
        <time>2012-11-18T08:13:31Z</time>
      </trkpt>
      <trkpt lat="43.26504" lon="5.92554">
        <ele>373</ele>
        <time>2012-11-18T08:13:34Z</time>
      </trkpt>
      <trkpt lat="43.26495" lon="5.92561">
        <ele>372</ele>
        <time>2012-11-18T08:13:37Z</time>
      </trkpt>
      <trkpt lat="43.26487" lon="5.92565">
        <ele>371</ele>
        <time>2012-11-18T08:13:41Z</time>
      </trkpt>
      <trkpt lat="43.26478" lon="5.92569">
        <ele>370</ele>
        <time>2012-11-18T08:13:45Z</time>
      </trkpt>
      <trkpt lat="43.2647" lon="5.92575">
        <ele>370</ele>
        <time>2012-11-18T08:13:49Z</time>
      </trkpt>
      <trkpt lat="43.26461" lon="5.92581">
        <ele>371</ele>
        <time>2012-11-18T08:13:54Z</time>
      </trkpt>
      <trkpt lat="43.2645" lon="5.92582">
        <ele>370</ele>
        <time>2012-11-18T08:13:59Z</time>
      </trkpt>
      <trkpt lat="43.26441" lon="5.92584">
        <ele>369</ele>
        <time>2012-11-18T08:14:03Z</time>
      </trkpt>
      <trkpt lat="43.2643" lon="5.92586">
        <ele>369</ele>
        <time>2012-11-18T08:14:09Z</time>
      </trkpt>
      <trkpt lat="43.2642" lon="5.92588">
        <ele>368</ele>
        <time>2012-11-18T08:14:15Z</time>
      </trkpt>
      <trkpt lat="43.26411" lon="5.92592">
        <ele>367</ele>
        <time>2012-11-18T08:14:19Z</time>
      </trkpt>
      <trkpt lat="43.26403" lon="5.92598">
        <ele>368</ele>
        <time>2012-11-18T08:14:23Z</time>
      </trkpt>
      <trkpt lat="43.26393" lon="5.92603">
        <ele>369</ele>
        <time>2012-11-18T08:14:33Z</time>
      </trkpt>
      <trkpt lat="43.26387" lon="5.92614">
        <ele>370</ele>
        <time>2012-11-18T08:14:38Z</time>
      </trkpt>
      <trkpt lat="43.26378" lon="5.92628">
        <ele>373</ele>
        <time>2012-11-18T08:14:44Z</time>
      </trkpt>
      <trkpt lat="43.26372" lon="5.92638">
        <ele>376</ele>
        <time>2012-11-18T08:14:48Z</time>
      </trkpt>
      <trkpt lat="43.26363" lon="5.92645">
        <ele>377</ele>
        <time>2012-11-18T08:14:52Z</time>
      </trkpt>
      <trkpt lat="43.26354" lon="5.92653">
        <ele>375</ele>
        <time>2012-11-18T08:14:58Z</time>
      </trkpt>
      <trkpt lat="43.26347" lon="5.9266">
        <ele>374</ele>
        <time>2012-11-18T08:15:03Z</time>
      </trkpt>
      <trkpt lat="43.26339" lon="5.92669">
        <ele>373</ele>
        <time>2012-11-18T08:15:08Z</time>
      </trkpt>
      <trkpt lat="43.26332" lon="5.92677">
        <ele>373</ele>
        <time>2012-11-18T08:15:13Z</time>
      </trkpt>
      <trkpt lat="43.26327" lon="5.92688">
        <ele>374</ele>
        <time>2012-11-18T08:15:18Z</time>
      </trkpt>
      <trkpt lat="43.26319" lon="5.92699">
        <ele>375</ele>
        <time>2012-11-18T08:15:23Z</time>
      </trkpt>
      <trkpt lat="43.26311" lon="5.92707">
        <ele>375</ele>
        <time>2012-11-18T08:15:28Z</time>
      </trkpt>
      <trkpt lat="43.26303" lon="5.92716">
        <ele>375</ele>
        <time>2012-11-18T08:15:33Z</time>
      </trkpt>
      <trkpt lat="43.26296" lon="5.92726">
        <ele>378</ele>
        <time>2012-11-18T08:15:37Z</time>
      </trkpt>
      <trkpt lat="43.26287" lon="5.92734">
        <ele>380</ele>
        <time>2012-11-18T08:15:41Z</time>
      </trkpt>
      <trkpt lat="43.26277" lon="5.9274">
        <ele>379</ele>
        <time>2012-11-18T08:15:45Z</time>
      </trkpt>
      <trkpt lat="43.26268" lon="5.92743">
        <ele>378</ele>
        <time>2012-11-18T08:15:48Z</time>
      </trkpt>
      <trkpt lat="43.26257" lon="5.92746">
        <ele>377</ele>
        <time>2012-11-18T08:15:52Z</time>
      </trkpt>
      <trkpt lat="43.26249" lon="5.92755">
        <ele>377</ele>
        <time>2012-11-18T08:15:56Z</time>
      </trkpt>
      <trkpt lat="43.26242" lon="5.92762">
        <ele>376</ele>
        <time>2012-11-18T08:15:59Z</time>
      </trkpt>
      <trkpt lat="43.26232" lon="5.9277">
        <ele>377</ele>
        <time>2012-11-18T08:16:04Z</time>
      </trkpt>
      <trkpt lat="43.26222" lon="5.92778">
        <ele>377</ele>
        <time>2012-11-18T08:16:08Z</time>
      </trkpt>
      <trkpt lat="43.26212" lon="5.92782">
        <ele>375</ele>
        <time>2012-11-18T08:16:13Z</time>
      </trkpt>
      <trkpt lat="43.26203" lon="5.92789">
        <ele>373</ele>
        <time>2012-11-18T08:16:17Z</time>
      </trkpt>
      <trkpt lat="43.26192" lon="5.92796">
        <ele>372</ele>
        <time>2012-11-18T08:16:22Z</time>
      </trkpt>
      <trkpt lat="43.26184" lon="5.92804">
        <ele>371</ele>
        <time>2012-11-18T08:16:27Z</time>
      </trkpt>
      <trkpt lat="43.26175" lon="5.92812">
        <ele>371</ele>
        <time>2012-11-18T08:16:31Z</time>
      </trkpt>
      <trkpt lat="43.26165" lon="5.9282">
        <ele>369</ele>
        <time>2012-11-18T08:16:35Z</time>
      </trkpt>
      <trkpt lat="43.26158" lon="5.9283">
        <ele>370</ele>
        <time>2012-11-18T08:16:39Z</time>
      </trkpt>
      <trkpt lat="43.26152" lon="5.92839">
        <ele>370</ele>
        <time>2012-11-18T08:16:42Z</time>
      </trkpt>
      <trkpt lat="43.26145" lon="5.92848">
        <ele>371</ele>
        <time>2012-11-18T08:16:47Z</time>
      </trkpt>
      <trkpt lat="43.26134" lon="5.92853">
        <ele>372</ele>
        <time>2012-11-18T08:16:52Z</time>
      </trkpt>
      <trkpt lat="43.26125" lon="5.92857">
        <ele>372</ele>
        <time>2012-11-18T08:16:55Z</time>
      </trkpt>
      <trkpt lat="43.26115" lon="5.92864">
        <ele>373</ele>
        <time>2012-11-18T08:16:59Z</time>
      </trkpt>
      <trkpt lat="43.26107" lon="5.92871">
        <ele>374</ele>
        <time>2012-11-18T08:17:03Z</time>
      </trkpt>
      <trkpt lat="43.26097" lon="5.92878">
        <ele>376</ele>
        <time>2012-11-18T08:17:07Z</time>
      </trkpt>
      <trkpt lat="43.26085" lon="5.92885">
        <ele>379</ele>
        <time>2012-11-18T08:17:13Z</time>
      </trkpt>
      <trkpt lat="43.26076" lon="5.92888">
        <ele>381</ele>
        <time>2012-11-18T08:17:18Z</time>
      </trkpt>
      <trkpt lat="43.26067" lon="5.92888">
        <ele>381</ele>
        <time>2012-11-18T08:17:22Z</time>
      </trkpt>
      <trkpt lat="43.26057" lon="5.92888">
        <ele>381</ele>
        <time>2012-11-18T08:17:26Z</time>
      </trkpt>
      <trkpt lat="43.26046" lon="5.92885">
        <ele>379</ele>
        <time>2012-11-18T08:17:31Z</time>
      </trkpt>
      <trkpt lat="43.26036" lon="5.92885">
        <ele>377</ele>
        <time>2012-11-18T08:17:37Z</time>
      </trkpt>
      <trkpt lat="43.26026" lon="5.92889">
        <ele>376</ele>
        <time>2012-11-18T08:17:41Z</time>
      </trkpt>
      <trkpt lat="43.26018" lon="5.92897">
        <ele>375</ele>
        <time>2012-11-18T08:17:48Z</time>
      </trkpt>
      <trkpt lat="43.2601" lon="5.92904">
        <ele>374</ele>
        <time>2012-11-18T08:17:53Z</time>
      </trkpt>
      <trkpt lat="43.26001" lon="5.92909">
        <ele>373</ele>
        <time>2012-11-18T08:17:59Z</time>
      </trkpt>
      <trkpt lat="43.2599" lon="5.9291">
        <ele>375</ele>
        <time>2012-11-18T08:18:04Z</time>
      </trkpt>
      <trkpt lat="43.2598" lon="5.92904">
        <ele>377</ele>
        <time>2012-11-18T08:18:09Z</time>
      </trkpt>
      <trkpt lat="43.25971" lon="5.929">
        <ele>380</ele>
        <time>2012-11-18T08:18:14Z</time>
      </trkpt>
      <trkpt lat="43.2596" lon="5.92901">
        <ele>383</ele>
        <time>2012-11-18T08:18:19Z</time>
      </trkpt>
      <trkpt lat="43.2595" lon="5.92896">
        <ele>384</ele>
        <time>2012-11-18T08:18:23Z</time>
      </trkpt>
      <trkpt lat="43.2594" lon="5.92892">
        <ele>385</ele>
        <time>2012-11-18T08:18:28Z</time>
      </trkpt>
      <trkpt lat="43.25929" lon="5.92891">
        <ele>386</ele>
        <time>2012-11-18T08:18:33Z</time>
      </trkpt>
      <trkpt lat="43.25919" lon="5.92893">
        <ele>386</ele>
        <time>2012-11-18T08:18:37Z</time>
      </trkpt>
      <trkpt lat="43.25908" lon="5.92896">
        <ele>387</ele>
        <time>2012-11-18T08:18:42Z</time>
      </trkpt>
      <trkpt lat="43.25898" lon="5.92901">
        <ele>388</ele>
        <time>2012-11-18T08:18:46Z</time>
      </trkpt>
      <trkpt lat="43.25889" lon="5.92906">
        <ele>386</ele>
        <time>2012-11-18T08:18:50Z</time>
      </trkpt>
      <trkpt lat="43.2588" lon="5.92914">
        <ele>386</ele>
        <time>2012-11-18T08:18:55Z</time>
      </trkpt>
      <trkpt lat="43.25872" lon="5.92924">
        <ele>386</ele>
        <time>2012-11-18T08:18:59Z</time>
      </trkpt>
      <trkpt lat="43.25863" lon="5.92933">
        <ele>385</ele>
        <time>2012-11-18T08:19:03Z</time>
      </trkpt>
      <trkpt lat="43.25855" lon="5.92942">
        <ele>386</ele>
        <time>2012-11-18T08:19:09Z</time>
      </trkpt>
      <trkpt lat="43.25846" lon="5.92949">
        <ele>388</ele>
        <time>2012-11-18T08:19:14Z</time>
      </trkpt>
      <trkpt lat="43.25837" lon="5.92953">
        <ele>389</ele>
        <time>2012-11-18T08:19:19Z</time>
      </trkpt>
      <trkpt lat="43.25827" lon="5.92961">
        <ele>389</ele>
        <time>2012-11-18T08:19:24Z</time>
      </trkpt>
      <trkpt lat="43.25821" lon="5.92972">
        <ele>389</ele>
        <time>2012-11-18T08:19:28Z</time>
      </trkpt>
      <trkpt lat="43.25816" lon="5.92983">
        <ele>388</ele>
        <time>2012-11-18T08:19:31Z</time>
      </trkpt>
      <trkpt lat="43.25811" lon="5.92993">
        <ele>387</ele>
        <time>2012-11-18T08:19:34Z</time>
      </trkpt>
      <trkpt lat="43.25803" lon="5.93002">
        <ele>385</ele>
        <time>2012-11-18T08:19:38Z</time>
      </trkpt>
      <trkpt lat="43.25794" lon="5.93009">
        <ele>386</ele>
        <time>2012-11-18T08:19:42Z</time>
      </trkpt>
      <trkpt lat="43.25784" lon="5.93014">
        <ele>386</ele>
        <time>2012-11-18T08:19:47Z</time>
      </trkpt>
      <trkpt lat="43.25774" lon="5.93019">
        <ele>387</ele>
        <time>2012-11-18T08:19:52Z</time>
      </trkpt>
      <trkpt lat="43.25764" lon="5.93022">
        <ele>388</ele>
        <time>2012-11-18T08:19:56Z</time>
      </trkpt>
      <trkpt lat="43.25752" lon="5.93029">
        <ele>388</ele>
        <time>2012-11-18T08:20:00Z</time>
      </trkpt>
      <trkpt lat="43.25742" lon="5.93036">
        <ele>388</ele>
        <time>2012-11-18T08:20:04Z</time>
      </trkpt>
      <trkpt lat="43.25733" lon="5.93042">
        <ele>387</ele>
        <time>2012-11-18T08:20:07Z</time>
      </trkpt>
      <trkpt lat="43.25724" lon="5.93047">
        <ele>387</ele>
        <time>2012-11-18T08:20:11Z</time>
      </trkpt>
      <trkpt lat="43.25714" lon="5.93051">
        <ele>387</ele>
        <time>2012-11-18T08:20:15Z</time>
      </trkpt>
      <trkpt lat="43.25703" lon="5.93054">
        <ele>389</ele>
        <time>2012-11-18T08:20:19Z</time>
      </trkpt>
      <trkpt lat="43.25693" lon="5.93058">
        <ele>389</ele>
        <time>2012-11-18T08:20:23Z</time>
      </trkpt>
      <trkpt lat="43.25683" lon="5.93062">
        <ele>389</ele>
        <time>2012-11-18T08:20:27Z</time>
      </trkpt>
      <trkpt lat="43.25673" lon="5.93065">
        <ele>388</ele>
        <time>2012-11-18T08:20:30Z</time>
      </trkpt>
      <trkpt lat="43.25663" lon="5.93068">
        <ele>388</ele>
        <time>2012-11-18T08:20:34Z</time>
      </trkpt>
      <trkpt lat="43.25652" lon="5.93069">
        <ele>388</ele>
        <time>2012-11-18T08:20:38Z</time>
      </trkpt>
      <trkpt lat="43.25642" lon="5.93069">
        <ele>387</ele>
        <time>2012-11-18T08:20:42Z</time>
      </trkpt>
      <trkpt lat="43.25632" lon="5.93069">
        <ele>387</ele>
        <time>2012-11-18T08:20:47Z</time>
      </trkpt>
      <trkpt lat="43.25621" lon="5.9307">
        <ele>387</ele>
        <time>2012-11-18T08:20:51Z</time>
      </trkpt>
      <trkpt lat="43.25612" lon="5.93072">
        <ele>387</ele>
        <time>2012-11-18T08:20:55Z</time>
      </trkpt>
      <trkpt lat="43.256" lon="5.93077">
        <ele>388</ele>
        <time>2012-11-18T08:20:59Z</time>
      </trkpt>
      <trkpt lat="43.2559" lon="5.93082">
        <ele>387</ele>
        <time>2012-11-18T08:21:02Z</time>
      </trkpt>
      <trkpt lat="43.25579" lon="5.93088">
        <ele>386</ele>
        <time>2012-11-18T08:21:05Z</time>
      </trkpt>
      <trkpt lat="43.2557" lon="5.9309">
        <ele>387</ele>
        <time>2012-11-18T08:21:08Z</time>
      </trkpt>
      <trkpt lat="43.25561" lon="5.93093">
        <ele>386</ele>
        <time>2012-11-18T08:21:11Z</time>
      </trkpt>
      <trkpt lat="43.2555" lon="5.93096">
        <ele>386</ele>
        <time>2012-11-18T08:21:15Z</time>
      </trkpt>
      <trkpt lat="43.2554" lon="5.93102">
        <ele>386</ele>
        <time>2012-11-18T08:21:18Z</time>
      </trkpt>
      <trkpt lat="43.25529" lon="5.93106">
        <ele>386</ele>
        <time>2012-11-18T08:21:22Z</time>
      </trkpt>
      <trkpt lat="43.25519" lon="5.93107">
        <ele>386</ele>
        <time>2012-11-18T08:21:26Z</time>
      </trkpt>
      <trkpt lat="43.25507" lon="5.93107">
        <ele>388</ele>
        <time>2012-11-18T08:21:30Z</time>
      </trkpt>
      <trkpt lat="43.25498" lon="5.93104">
        <ele>390</ele>
        <time>2012-11-18T08:21:34Z</time>
      </trkpt>
      <trkpt lat="43.25488" lon="5.93102">
        <ele>390</ele>
        <time>2012-11-18T08:21:38Z</time>
      </trkpt>
      <trkpt lat="43.25477" lon="5.93102">
        <ele>391</ele>
        <time>2012-11-18T08:21:43Z</time>
      </trkpt>
      <trkpt lat="43.25467" lon="5.931">
        <ele>392</ele>
        <time>2012-11-18T08:21:49Z</time>
      </trkpt>
      <trkpt lat="43.25457" lon="5.93098">
        <ele>393</ele>
        <time>2012-11-18T08:21:55Z</time>
      </trkpt>
      <trkpt lat="43.25447" lon="5.93097">
        <ele>393</ele>
        <time>2012-11-18T08:22:01Z</time>
      </trkpt>
      <trkpt lat="43.25439" lon="5.93092">
        <ele>394</ele>
        <time>2012-11-18T08:22:06Z</time>
      </trkpt>
      <trkpt lat="43.25428" lon="5.93089">
        <ele>396</ele>
        <time>2012-11-18T08:22:14Z</time>
      </trkpt>
      <trkpt lat="43.25418" lon="5.93091">
        <ele>396</ele>
        <time>2012-11-18T08:22:20Z</time>
      </trkpt>
      <trkpt lat="43.25408" lon="5.93092">
        <ele>398</ele>
        <time>2012-11-18T08:22:25Z</time>
      </trkpt>
      <trkpt lat="43.25398" lon="5.93097">
        <ele>399</ele>
        <time>2012-11-18T08:22:31Z</time>
      </trkpt>
      <trkpt lat="43.25386" lon="5.93102">
        <ele>400</ele>
        <time>2012-11-18T08:22:35Z</time>
      </trkpt>
      <trkpt lat="43.25375" lon="5.93107">
        <ele>399</ele>
        <time>2012-11-18T08:22:39Z</time>
      </trkpt>
      <trkpt lat="43.25366" lon="5.93108">
        <ele>398</ele>
        <time>2012-11-18T08:22:43Z</time>
      </trkpt>
      <trkpt lat="43.25357" lon="5.93111">
        <ele>397</ele>
        <time>2012-11-18T08:22:47Z</time>
      </trkpt>
      <trkpt lat="43.25348" lon="5.93113">
        <ele>397</ele>
        <time>2012-11-18T08:22:51Z</time>
      </trkpt>
      <trkpt lat="43.25338" lon="5.93113">
        <ele>399</ele>
        <time>2012-11-18T08:22:56Z</time>
      </trkpt>
      <trkpt lat="43.25327" lon="5.93114">
        <ele>401</ele>
        <time>2012-11-18T08:23:01Z</time>
      </trkpt>
      <trkpt lat="43.25316" lon="5.93113">
        <ele>402</ele>
        <time>2012-11-18T08:23:04Z</time>
      </trkpt>
      <trkpt lat="43.25305" lon="5.93112">
        <ele>402</ele>
        <time>2012-11-18T08:23:07Z</time>
      </trkpt>
      <trkpt lat="43.25294" lon="5.93112">
        <ele>402</ele>
        <time>2012-11-18T08:23:10Z</time>
      </trkpt>
      <trkpt lat="43.25284" lon="5.93114">
        <ele>401</ele>
        <time>2012-11-18T08:23:15Z</time>
      </trkpt>
      <trkpt lat="43.25274" lon="5.93119">
        <ele>400</ele>
        <time>2012-11-18T08:23:19Z</time>
      </trkpt>
      <trkpt lat="43.25265" lon="5.93123">
        <ele>400</ele>
        <time>2012-11-18T08:23:23Z</time>
      </trkpt>
      <trkpt lat="43.25255" lon="5.93126">
        <ele>401</ele>
        <time>2012-11-18T08:23:28Z</time>
      </trkpt>
      <trkpt lat="43.25226" lon="5.93132">
        <ele>401</ele>
        <time>2012-11-18T08:23:41Z</time>
      </trkpt>
      <trkpt lat="43.25199" lon="5.93131">
        <ele>403</ele>
        <time>2012-11-18T08:23:57Z</time>
      </trkpt>
      <trkpt lat="43.25188" lon="5.93129">
        <ele>404</ele>
        <time>2012-11-18T08:24:04Z</time>
      </trkpt>
      <trkpt lat="43.25177" lon="5.9313">
        <ele>403</ele>
        <time>2012-11-18T08:24:11Z</time>
      </trkpt>
      <trkpt lat="43.25168" lon="5.9313">
        <ele>404</ele>
        <time>2012-11-18T08:24:16Z</time>
      </trkpt>
      <trkpt lat="43.25158" lon="5.93126">
        <ele>405</ele>
        <time>2012-11-18T08:24:21Z</time>
      </trkpt>
      <trkpt lat="43.25147" lon="5.93122">
        <ele>406</ele>
        <time>2012-11-18T08:24:27Z</time>
      </trkpt>
      <trkpt lat="43.25138" lon="5.9312">
        <ele>405</ele>
        <time>2012-11-18T08:24:34Z</time>
      </trkpt>
      <trkpt lat="43.25128" lon="5.93117">
        <ele>404</ele>
        <time>2012-11-18T08:24:41Z</time>
      </trkpt>
      <trkpt lat="43.25118" lon="5.93116">
        <ele>402</ele>
        <time>2012-11-18T08:24:52Z</time>
      </trkpt>
      <trkpt lat="43.25107" lon="5.93114">
        <ele>402</ele>
        <time>2012-11-18T08:24:57Z</time>
      </trkpt>
      <trkpt lat="43.25097" lon="5.93112">
        <ele>405</ele>
        <time>2012-11-18T08:25:06Z</time>
      </trkpt>
      <trkpt lat="43.25088" lon="5.93105">
        <ele>406</ele>
        <time>2012-11-18T08:25:13Z</time>
      </trkpt>
      <trkpt lat="43.25081" lon="5.93091">
        <ele>409</ele>
        <time>2012-11-18T08:25:19Z</time>
      </trkpt>
      <trkpt lat="43.25077" lon="5.93079">
        <ele>409</ele>
        <time>2012-11-18T08:25:23Z</time>
      </trkpt>
      <trkpt lat="43.25071" lon="5.93069">
        <ele>409</ele>
        <time>2012-11-18T08:25:26Z</time>
      </trkpt>
      <trkpt lat="43.25061" lon="5.93063">
        <ele>410</ele>
        <time>2012-11-18T08:25:30Z</time>
      </trkpt>
      <trkpt lat="43.25051" lon="5.93058">
        <ele>410</ele>
        <time>2012-11-18T08:25:33Z</time>
      </trkpt>
      <trkpt lat="43.25042" lon="5.93053">
        <ele>410</ele>
        <time>2012-11-18T08:25:36Z</time>
      </trkpt>
      <trkpt lat="43.2503" lon="5.93049">
        <ele>410</ele>
        <time>2012-11-18T08:25:39Z</time>
      </trkpt>
      <trkpt lat="43.2502" lon="5.93048">
        <ele>411</ele>
        <time>2012-11-18T08:25:41Z</time>
      </trkpt>
      <trkpt lat="43.25008" lon="5.9305">
        <ele>413</ele>
        <time>2012-11-18T08:25:44Z</time>
      </trkpt>
      <trkpt lat="43.24998" lon="5.93053">
        <ele>414</ele>
        <time>2012-11-18T08:25:47Z</time>
      </trkpt>
      <trkpt lat="43.24988" lon="5.93057">
        <ele>417</ele>
        <time>2012-11-18T08:25:52Z</time>
      </trkpt>
      <trkpt lat="43.24979" lon="5.9306">
        <ele>418</ele>
        <time>2012-11-18T08:25:56Z</time>
      </trkpt>
      <trkpt lat="43.24968" lon="5.93064">
        <ele>418</ele>
        <time>2012-11-18T08:26:00Z</time>
      </trkpt>
      <trkpt lat="43.24958" lon="5.93068">
        <ele>418</ele>
        <time>2012-11-18T08:26:05Z</time>
      </trkpt>
      <trkpt lat="43.24955" lon="5.93081">
        <ele>418</ele>
        <time>2012-11-18T08:26:12Z</time>
      </trkpt>
      <trkpt lat="43.24947" lon="5.93088">
        <ele>418</ele>
        <time>2012-11-18T08:26:16Z</time>
      </trkpt>
      <trkpt lat="43.24939" lon="5.93096">
        <ele>418</ele>
        <time>2012-11-18T08:26:21Z</time>
      </trkpt>
      <trkpt lat="43.2493" lon="5.93105">
        <ele>417</ele>
        <time>2012-11-18T08:26:26Z</time>
      </trkpt>
      <trkpt lat="43.24922" lon="5.93115">
        <ele>417</ele>
        <time>2012-11-18T08:26:32Z</time>
      </trkpt>
      <trkpt lat="43.24916" lon="5.93127">
        <ele>417</ele>
        <time>2012-11-18T08:26:38Z</time>
      </trkpt>
      <trkpt lat="43.24909" lon="5.93136">
        <ele>417</ele>
        <time>2012-11-18T08:26:44Z</time>
      </trkpt>
      <trkpt lat="43.24899" lon="5.93133">
        <ele>416</ele>
        <time>2012-11-18T08:26:51Z</time>
      </trkpt>
      <trkpt lat="43.2489" lon="5.93131">
        <ele>416</ele>
        <time>2012-11-18T08:26:55Z</time>
      </trkpt>
      <trkpt lat="43.24879" lon="5.93127">
        <ele>419</ele>
        <time>2012-11-18T08:27:02Z</time>
      </trkpt>
      <trkpt lat="43.24869" lon="5.93125">
        <ele>423</ele>
        <time>2012-11-18T08:27:10Z</time>
      </trkpt>
      <trkpt lat="43.24857" lon="5.9312">
        <ele>425</ele>
        <time>2012-11-18T08:27:17Z</time>
      </trkpt>
      <trkpt lat="43.24846" lon="5.93118">
        <ele>427</ele>
        <time>2012-11-18T08:27:24Z</time>
      </trkpt>
      <trkpt lat="43.24838" lon="5.93111">
        <ele>430</ele>
        <time>2012-11-18T08:27:31Z</time>
      </trkpt>
      <trkpt lat="43.24829" lon="5.93105">
        <ele>433</ele>
        <time>2012-11-18T08:27:37Z</time>
      </trkpt>
      <trkpt lat="43.24821" lon="5.93098">
        <ele>436</ele>
        <time>2012-11-18T08:27:45Z</time>
      </trkpt>
      <trkpt lat="43.24816" lon="5.93096">
        <ele>440</ele>
        <time>2012-11-18T08:27:56Z</time>
      </trkpt>
      <trkpt lat="43.24812" lon="5.93093">
        <ele>440</ele>
        <time>2012-11-18T08:28:19Z</time>
      </trkpt>
      <trkpt lat="43.24807" lon="5.93104">
        <ele>438</ele>
        <time>2012-11-18T08:29:00Z</time>
      </trkpt>
      <trkpt lat="43.24805" lon="5.93117">
        <ele>439</ele>
        <time>2012-11-18T08:29:05Z</time>
      </trkpt>
      <trkpt lat="43.248" lon="5.93128">
        <ele>441</ele>
        <time>2012-11-18T08:29:10Z</time>
      </trkpt>
      <trkpt lat="43.24798" lon="5.9314">
        <ele>442</ele>
        <time>2012-11-18T08:29:14Z</time>
      </trkpt>
      <trkpt lat="43.24796" lon="5.93154">
        <ele>444</ele>
        <time>2012-11-18T08:29:18Z</time>
      </trkpt>
      <trkpt lat="43.24796" lon="5.93167">
        <ele>445</ele>
        <time>2012-11-18T08:29:23Z</time>
      </trkpt>
      <trkpt lat="43.24793" lon="5.93182">
        <ele>447</ele>
        <time>2012-11-18T08:29:28Z</time>
      </trkpt>
      <trkpt lat="43.24787" lon="5.93192">
        <ele>447</ele>
        <time>2012-11-18T08:29:31Z</time>
      </trkpt>
      <trkpt lat="43.24785" lon="5.93206">
        <ele>447</ele>
        <time>2012-11-18T08:29:37Z</time>
      </trkpt>
      <trkpt lat="43.24779" lon="5.93216">
        <ele>449</ele>
        <time>2012-11-18T08:29:42Z</time>
      </trkpt>
      <trkpt lat="43.24775" lon="5.93228">
        <ele>451</ele>
        <time>2012-11-18T08:29:48Z</time>
      </trkpt>
      <trkpt lat="43.24766" lon="5.93237">
        <ele>454</ele>
        <time>2012-11-18T08:29:54Z</time>
      </trkpt>
      <trkpt lat="43.24757" lon="5.93247">
        <ele>455</ele>
        <time>2012-11-18T08:29:59Z</time>
      </trkpt>
      <trkpt lat="43.24754" lon="5.9326">
        <ele>455</ele>
        <time>2012-11-18T08:30:03Z</time>
      </trkpt>
      <trkpt lat="43.24752" lon="5.93274">
        <ele>457</ele>
        <time>2012-11-18T08:30:09Z</time>
      </trkpt>
      <trkpt lat="43.24751" lon="5.93287">
        <ele>458</ele>
        <time>2012-11-18T08:30:13Z</time>
      </trkpt>
      <trkpt lat="43.24749" lon="5.93302">
        <ele>458</ele>
        <time>2012-11-18T08:30:18Z</time>
      </trkpt>
      <trkpt lat="43.24746" lon="5.93315">
        <ele>459</ele>
        <time>2012-11-18T08:30:22Z</time>
      </trkpt>
      <trkpt lat="43.24744" lon="5.93329">
        <ele>459</ele>
        <time>2012-11-18T08:30:26Z</time>
      </trkpt>
      <trkpt lat="43.24745" lon="5.93342">
        <ele>459</ele>
        <time>2012-11-18T08:30:31Z</time>
      </trkpt>
      <trkpt lat="43.24742" lon="5.93356">
        <ele>459</ele>
        <time>2012-11-18T08:30:36Z</time>
      </trkpt>
      <trkpt lat="43.24739" lon="5.93371">
        <ele>459</ele>
        <time>2012-11-18T08:30:41Z</time>
      </trkpt>
      <trkpt lat="43.24733" lon="5.93382">
        <ele>459</ele>
        <time>2012-11-18T08:30:45Z</time>
      </trkpt>
      <trkpt lat="43.24729" lon="5.93394">
        <ele>459</ele>
        <time>2012-11-18T08:30:49Z</time>
      </trkpt>
      <trkpt lat="43.24727" lon="5.93407">
        <ele>460</ele>
        <time>2012-11-18T08:30:54Z</time>
      </trkpt>
      <trkpt lat="43.24726" lon="5.9342">
        <ele>461</ele>
        <time>2012-11-18T08:30:59Z</time>
      </trkpt>
      <trkpt lat="43.2472" lon="5.93429">
        <ele>463</ele>
        <time>2012-11-18T08:31:04Z</time>
      </trkpt>
      <trkpt lat="43.24713" lon="5.93441">
        <ele>464</ele>
        <time>2012-11-18T08:31:09Z</time>
      </trkpt>
      <trkpt lat="43.24707" lon="5.93452">
        <ele>466</ele>
        <time>2012-11-18T08:31:14Z</time>
      </trkpt>
      <trkpt lat="43.24703" lon="5.93464">
        <ele>467</ele>
        <time>2012-11-18T08:31:18Z</time>
      </trkpt>
      <trkpt lat="43.24698" lon="5.93475">
        <ele>468</ele>
        <time>2012-11-18T08:31:23Z</time>
      </trkpt>
      <trkpt lat="43.24692" lon="5.93488">
        <ele>470</ele>
        <time>2012-11-18T08:31:29Z</time>
      </trkpt>
      <trkpt lat="43.24685" lon="5.93497">
        <ele>471</ele>
        <time>2012-11-18T08:31:33Z</time>
      </trkpt>
      <trkpt lat="43.24679" lon="5.93506">
        <ele>472</ele>
        <time>2012-11-18T08:31:37Z</time>
      </trkpt>
      <trkpt lat="43.24671" lon="5.93517">
        <ele>472</ele>
        <time>2012-11-18T08:31:42Z</time>
      </trkpt>
      <trkpt lat="43.24663" lon="5.93527">
        <ele>472</ele>
        <time>2012-11-18T08:31:47Z</time>
      </trkpt>
      <trkpt lat="43.24655" lon="5.93537">
        <ele>473</ele>
        <time>2012-11-18T08:31:51Z</time>
      </trkpt>
      <trkpt lat="43.2465" lon="5.93549">
        <ele>473</ele>
        <time>2012-11-18T08:31:56Z</time>
      </trkpt>
      <trkpt lat="43.24642" lon="5.93558">
        <ele>472</ele>
        <time>2012-11-18T08:32:01Z</time>
      </trkpt>
      <trkpt lat="43.24639" lon="5.93572">
        <ele>472</ele>
        <time>2012-11-18T08:32:06Z</time>
      </trkpt>
      <trkpt lat="43.24638" lon="5.93585">
        <ele>474</ele>
        <time>2012-11-18T08:32:10Z</time>
      </trkpt>
      <trkpt lat="43.24635" lon="5.93596">
        <ele>475</ele>
        <time>2012-11-18T08:32:15Z</time>
      </trkpt>
      <trkpt lat="43.24631" lon="5.9361">
        <ele>476</ele>
        <time>2012-11-18T08:32:21Z</time>
      </trkpt>
      <trkpt lat="43.24625" lon="5.93622">
        <ele>476</ele>
        <time>2012-11-18T08:32:26Z</time>
      </trkpt>
      <trkpt lat="43.24622" lon="5.93633">
        <ele>475</ele>
        <time>2012-11-18T08:32:31Z</time>
      </trkpt>
      <trkpt lat="43.24618" lon="5.93647">
        <ele>475</ele>
        <time>2012-11-18T08:32:36Z</time>
      </trkpt>
      <trkpt lat="43.24616" lon="5.93659">
        <ele>475</ele>
        <time>2012-11-18T08:32:40Z</time>
      </trkpt>
      <trkpt lat="43.24615" lon="5.93672">
        <ele>474</ele>
        <time>2012-11-18T08:32:44Z</time>
      </trkpt>
      <trkpt lat="43.24616" lon="5.93687">
        <ele>474</ele>
        <time>2012-11-18T08:32:49Z</time>
      </trkpt>
      <trkpt lat="43.24609" lon="5.93699">
        <ele>474</ele>
        <time>2012-11-18T08:32:53Z</time>
      </trkpt>
      <trkpt lat="43.24603" lon="5.93712">
        <ele>474</ele>
        <time>2012-11-18T08:32:58Z</time>
      </trkpt>
      <trkpt lat="43.24601" lon="5.93725">
        <ele>474</ele>
        <time>2012-11-18T08:33:02Z</time>
      </trkpt>
      <trkpt lat="43.24598" lon="5.93737">
        <ele>475</ele>
        <time>2012-11-18T08:33:06Z</time>
      </trkpt>
      <trkpt lat="43.24595" lon="5.93751">
        <ele>475</ele>
        <time>2012-11-18T08:33:11Z</time>
      </trkpt>
      <trkpt lat="43.24592" lon="5.93764">
        <ele>475</ele>
        <time>2012-11-18T08:33:17Z</time>
      </trkpt>
      <trkpt lat="43.24589" lon="5.93776">
        <ele>476</ele>
        <time>2012-11-18T08:33:22Z</time>
      </trkpt>
      <trkpt lat="43.24589" lon="5.93789">
        <ele>476</ele>
        <time>2012-11-18T08:33:26Z</time>
      </trkpt>
      <trkpt lat="43.24589" lon="5.93804">
        <ele>478</ele>
        <time>2012-11-18T08:33:31Z</time>
      </trkpt>
      <trkpt lat="43.24589" lon="5.93818">
        <ele>479</ele>
        <time>2012-11-18T08:33:36Z</time>
      </trkpt>
      <trkpt lat="43.24593" lon="5.93835">
        <ele>479</ele>
        <time>2012-11-18T08:33:42Z</time>
      </trkpt>
      <trkpt lat="43.24593" lon="5.93848">
        <ele>481</ele>
        <time>2012-11-18T08:33:48Z</time>
      </trkpt>
      <trkpt lat="43.24592" lon="5.93862">
        <ele>482</ele>
        <time>2012-11-18T08:33:53Z</time>
      </trkpt>
      <trkpt lat="43.24591" lon="5.93874">
        <ele>482</ele>
        <time>2012-11-18T08:33:58Z</time>
      </trkpt>
      <trkpt lat="43.24592" lon="5.93887">
        <ele>483</ele>
        <time>2012-11-18T08:34:04Z</time>
      </trkpt>
      <trkpt lat="43.24593" lon="5.93901">
        <ele>484</ele>
        <time>2012-11-18T08:34:09Z</time>
      </trkpt>
      <trkpt lat="43.24595" lon="5.93917">
        <ele>485</ele>
        <time>2012-11-18T08:34:15Z</time>
      </trkpt>
      <trkpt lat="43.24596" lon="5.93931">
        <ele>486</ele>
        <time>2012-11-18T08:34:19Z</time>
      </trkpt>
      <trkpt lat="43.24598" lon="5.93944">
        <ele>488</ele>
        <time>2012-11-18T08:34:24Z</time>
      </trkpt>
      <trkpt lat="43.24595" lon="5.93957">
        <ele>489</ele>
        <time>2012-11-18T08:34:29Z</time>
      </trkpt>
      <trkpt lat="43.24598" lon="5.93971">
        <ele>489</ele>
        <time>2012-11-18T08:34:35Z</time>
      </trkpt>
      <trkpt lat="43.24606" lon="5.93981">
        <ele>491</ele>
        <time>2012-11-18T08:34:41Z</time>
      </trkpt>
      <trkpt lat="43.24614" lon="5.9399">
        <ele>491</ele>
        <time>2012-11-18T08:34:47Z</time>
      </trkpt>
      <trkpt lat="43.24624" lon="5.94001">
        <ele>492</ele>
        <time>2012-11-18T08:34:54Z</time>
      </trkpt>
      <trkpt lat="43.24631" lon="5.9401">
        <ele>492</ele>
        <time>2012-11-18T08:35:01Z</time>
      </trkpt>
      <trkpt lat="43.24639" lon="5.94019">
        <ele>493</ele>
        <time>2012-11-18T08:35:06Z</time>
      </trkpt>
      <trkpt lat="43.24647" lon="5.94026">
        <ele>493</ele>
        <time>2012-11-18T08:35:11Z</time>
      </trkpt>
      <trkpt lat="43.24655" lon="5.9403">
        <ele>495</ele>
        <time>2012-11-18T08:35:16Z</time>
      </trkpt>
      <trkpt lat="43.24664" lon="5.94041">
        <ele>495</ele>
        <time>2012-11-18T08:35:22Z</time>
      </trkpt>
      <trkpt lat="43.2467" lon="5.94052">
        <ele>494</ele>
        <time>2012-11-18T08:35:26Z</time>
      </trkpt>
      <trkpt lat="43.24674" lon="5.94063">
        <ele>493</ele>
        <time>2012-11-18T08:35:32Z</time>
      </trkpt>
      <trkpt lat="43.24677" lon="5.94077">
        <ele>493</ele>
        <time>2012-11-18T08:35:38Z</time>
      </trkpt>
      <trkpt lat="43.24679" lon="5.94089">
        <ele>494</ele>
        <time>2012-11-18T08:35:43Z</time>
      </trkpt>
      <trkpt lat="43.24682" lon="5.94102">
        <ele>496</ele>
        <time>2012-11-18T08:35:48Z</time>
      </trkpt>
      <trkpt lat="43.24685" lon="5.94115">
        <ele>497</ele>
        <time>2012-11-18T08:35:55Z</time>
      </trkpt>
      <trkpt lat="43.24694" lon="5.94117">
        <ele>498</ele>
        <time>2012-11-18T08:36:08Z</time>
      </trkpt>
      <trkpt lat="43.24699" lon="5.94103">
        <ele>500</ele>
        <time>2012-11-18T08:36:17Z</time>
      </trkpt>
      <trkpt lat="43.24704" lon="5.94093">
        <ele>501</ele>
        <time>2012-11-18T08:36:24Z</time>
      </trkpt>
      <trkpt lat="43.24712" lon="5.94086">
        <ele>502</ele>
        <time>2012-11-18T08:36:30Z</time>
      </trkpt>
      <trkpt lat="43.24713" lon="5.94071">
        <ele>503</ele>
        <time>2012-11-18T08:36:36Z</time>
      </trkpt>
      <trkpt lat="43.24713" lon="5.94057">
        <ele>505</ele>
        <time>2012-11-18T08:36:42Z</time>
      </trkpt>
      <trkpt lat="43.2471" lon="5.94044">
        <ele>508</ele>
        <time>2012-11-18T08:36:48Z</time>
      </trkpt>
      <trkpt lat="43.24706" lon="5.94033">
        <ele>508</ele>
        <time>2012-11-18T08:36:52Z</time>
      </trkpt>
      <trkpt lat="43.24704" lon="5.94019">
        <ele>508</ele>
        <time>2012-11-18T08:36:57Z</time>
      </trkpt>
      <trkpt lat="43.24699" lon="5.94007">
        <ele>508</ele>
        <time>2012-11-18T08:37:01Z</time>
      </trkpt>
      <trkpt lat="43.24693" lon="5.93996">
        <ele>506</ele>
        <time>2012-11-18T08:37:05Z</time>
      </trkpt>
      <trkpt lat="43.24697" lon="5.93984">
        <ele>505</ele>
        <time>2012-11-18T08:37:11Z</time>
      </trkpt>
      <trkpt lat="43.24706" lon="5.93989">
        <ele>503</ele>
        <time>2012-11-18T08:37:17Z</time>
      </trkpt>
      <trkpt lat="43.24708" lon="5.93997">
        <ele>502</ele>
        <time>2012-11-18T08:37:21Z</time>
      </trkpt>
      <trkpt lat="43.24713" lon="5.94008">
        <ele>501</ele>
        <time>2012-11-18T08:37:26Z</time>
      </trkpt>
      <trkpt lat="43.24716" lon="5.94014">
        <ele>502</ele>
        <time>2012-11-18T08:37:28Z</time>
      </trkpt>
      <trkpt lat="43.24718" lon="5.94022">
        <ele>502</ele>
        <time>2012-11-18T08:37:30Z</time>
      </trkpt>
      <trkpt lat="43.24723" lon="5.94035">
        <ele>504</ele>
        <time>2012-11-18T08:37:35Z</time>
      </trkpt>
      <trkpt lat="43.2473" lon="5.94047">
        <ele>505</ele>
        <time>2012-11-18T08:37:40Z</time>
      </trkpt>
      <trkpt lat="43.24736" lon="5.94058">
        <ele>506</ele>
        <time>2012-11-18T08:37:45Z</time>
      </trkpt>
      <trkpt lat="43.24742" lon="5.9407">
        <ele>508</ele>
        <time>2012-11-18T08:37:49Z</time>
      </trkpt>
      <trkpt lat="43.24746" lon="5.94082">
        <ele>511</ele>
        <time>2012-11-18T08:37:55Z</time>
      </trkpt>
      <trkpt lat="43.24748" lon="5.94094">
        <ele>512</ele>
        <time>2012-11-18T08:38:00Z</time>
      </trkpt>
      <trkpt lat="43.24749" lon="5.94108">
        <ele>513</ele>
        <time>2012-11-18T08:38:06Z</time>
      </trkpt>
      <trkpt lat="43.2475" lon="5.94122">
        <ele>514</ele>
        <time>2012-11-18T08:38:11Z</time>
      </trkpt>
      <trkpt lat="43.24751" lon="5.94135">
        <ele>516</ele>
        <time>2012-11-18T08:38:16Z</time>
      </trkpt>
      <trkpt lat="43.24751" lon="5.94149">
        <ele>517</ele>
        <time>2012-11-18T08:38:21Z</time>
      </trkpt>
      <trkpt lat="43.24749" lon="5.94162">
        <ele>516</ele>
        <time>2012-11-18T08:38:27Z</time>
      </trkpt>
      <trkpt lat="43.24749" lon="5.94175">
        <ele>516</ele>
        <time>2012-11-18T08:38:34Z</time>
      </trkpt>
      <trkpt lat="43.24753" lon="5.94189">
        <ele>514</ele>
        <time>2012-11-18T08:38:40Z</time>
      </trkpt>
      <trkpt lat="43.24763" lon="5.94198">
        <ele>515</ele>
        <time>2012-11-18T08:38:45Z</time>
      </trkpt>
      <trkpt lat="43.24773" lon="5.942">
        <ele>516</ele>
        <time>2012-11-18T08:38:50Z</time>
      </trkpt>
      <trkpt lat="43.24782" lon="5.94205">
        <ele>518</ele>
        <time>2012-11-18T08:38:55Z</time>
      </trkpt>
      <trkpt lat="43.2479" lon="5.9421">
        <ele>520</ele>
        <time>2012-11-18T08:39:01Z</time>
      </trkpt>
      <trkpt lat="43.24799" lon="5.94216">
        <ele>522</ele>
        <time>2012-11-18T08:39:07Z</time>
      </trkpt>
      <trkpt lat="43.24809" lon="5.9422">
        <ele>524</ele>
        <time>2012-11-18T08:39:14Z</time>
      </trkpt>
      <trkpt lat="43.24819" lon="5.94223">
        <ele>523</ele>
        <time>2012-11-18T08:39:20Z</time>
      </trkpt>
      <trkpt lat="43.2483" lon="5.94222">
        <ele>522</ele>
        <time>2012-11-18T08:39:25Z</time>
      </trkpt>
      <trkpt lat="43.24839" lon="5.94219">
        <ele>521</ele>
        <time>2012-11-18T08:39:32Z</time>
      </trkpt>
      <trkpt lat="43.24849" lon="5.94216">
        <ele>521</ele>
        <time>2012-11-18T08:39:39Z</time>
      </trkpt>
      <trkpt lat="43.24855" lon="5.94217">
        <ele>520</ele>
        <time>2012-11-18T08:39:42Z</time>
      </trkpt>
      <trkpt lat="43.24859" lon="5.94222">
        <ele>520</ele>
        <time>2012-11-18T08:39:45Z</time>
      </trkpt>
      <trkpt lat="43.24863" lon="5.94229">
        <ele>520</ele>
        <time>2012-11-18T08:39:49Z</time>
      </trkpt>
      <trkpt lat="43.24865" lon="5.94235">
        <ele>521</ele>
        <time>2012-11-18T08:39:52Z</time>
      </trkpt>
      <trkpt lat="43.24867" lon="5.94241">
        <ele>522</ele>
        <time>2012-11-18T08:39:55Z</time>
      </trkpt>
      <trkpt lat="43.24865" lon="5.94255">
        <ele>523</ele>
        <time>2012-11-18T08:40:01Z</time>
      </trkpt>
      <trkpt lat="43.24858" lon="5.94263">
        <ele>524</ele>
        <time>2012-11-18T08:40:05Z</time>
      </trkpt>
      <trkpt lat="43.24852" lon="5.94273">
        <ele>524</ele>
        <time>2012-11-18T08:40:09Z</time>
      </trkpt>
      <trkpt lat="43.24845" lon="5.94281">
        <ele>525</ele>
        <time>2012-11-18T08:40:14Z</time>
      </trkpt>
      <trkpt lat="43.24838" lon="5.9429">
        <ele>526</ele>
        <time>2012-11-18T08:40:19Z</time>
      </trkpt>
      <trkpt lat="43.24828" lon="5.94298">
        <ele>528</ele>
        <time>2012-11-18T08:40:25Z</time>
      </trkpt>
      <trkpt lat="43.24819" lon="5.94302">
        <ele>528</ele>
        <time>2012-11-18T08:40:30Z</time>
      </trkpt>
      <trkpt lat="43.2481" lon="5.94304">
        <ele>527</ele>
        <time>2012-11-18T08:40:34Z</time>
      </trkpt>
      <trkpt lat="43.24799" lon="5.94308">
        <ele>528</ele>
        <time>2012-11-18T08:40:41Z</time>
      </trkpt>
      <trkpt lat="43.24787" lon="5.94312">
        <ele>532</ele>
        <time>2012-11-18T08:40:49Z</time>
      </trkpt>
      <trkpt lat="43.24777" lon="5.94317">
        <ele>531</ele>
        <time>2012-11-18T08:40:55Z</time>
      </trkpt>
      <trkpt lat="43.24771" lon="5.94327">
        <ele>532</ele>
        <time>2012-11-18T08:41:01Z</time>
      </trkpt>
      <trkpt lat="43.24766" lon="5.94337">
        <ele>533</ele>
        <time>2012-11-18T08:41:05Z</time>
      </trkpt>
      <trkpt lat="43.24762" lon="5.94349">
        <ele>536</ele>
        <time>2012-11-18T08:41:11Z</time>
      </trkpt>
      <trkpt lat="43.2476" lon="5.94362">
        <ele>537</ele>
        <time>2012-11-18T08:41:16Z</time>
      </trkpt>
      <trkpt lat="43.24757" lon="5.94374">
        <ele>538</ele>
        <time>2012-11-18T08:41:21Z</time>
      </trkpt>
      <trkpt lat="43.24753" lon="5.94387">
        <ele>539</ele>
        <time>2012-11-18T08:41:26Z</time>
      </trkpt>
      <trkpt lat="43.2475" lon="5.94401">
        <ele>541</ele>
        <time>2012-11-18T08:41:32Z</time>
      </trkpt>
      <trkpt lat="43.24743" lon="5.9441">
        <ele>541</ele>
        <time>2012-11-18T08:41:36Z</time>
      </trkpt>
      <trkpt lat="43.24734" lon="5.94411">
        <ele>541</ele>
        <time>2012-11-18T08:41:42Z</time>
      </trkpt>
      <trkpt lat="43.24724" lon="5.94404">
        <ele>541</ele>
        <time>2012-11-18T08:41:50Z</time>
      </trkpt>
      <trkpt lat="43.24715" lon="5.94404">
        <ele>541</ele>
        <time>2012-11-18T08:41:55Z</time>
      </trkpt>
      <trkpt lat="43.24702" lon="5.94409">
        <ele>544</ele>
        <time>2012-11-18T08:42:02Z</time>
      </trkpt>
      <trkpt lat="43.24692" lon="5.9441">
        <ele>544</ele>
        <time>2012-11-18T08:42:07Z</time>
      </trkpt>
      <trkpt lat="43.24681" lon="5.94413">
        <ele>544</ele>
        <time>2012-11-18T08:42:11Z</time>
      </trkpt>
      <trkpt lat="43.24672" lon="5.94413">
        <ele>544</ele>
        <time>2012-11-18T08:42:16Z</time>
      </trkpt>
      <trkpt lat="43.24663" lon="5.94413">
        <ele>543</ele>
        <time>2012-11-18T08:42:20Z</time>
      </trkpt>
      <trkpt lat="43.24652" lon="5.94418">
        <ele>544</ele>
        <time>2012-11-18T08:42:27Z</time>
      </trkpt>
      <trkpt lat="43.24646" lon="5.94428">
        <ele>544</ele>
        <time>2012-11-18T08:42:32Z</time>
      </trkpt>
      <trkpt lat="43.24641" lon="5.9444">
        <ele>542</ele>
        <time>2012-11-18T08:42:37Z</time>
      </trkpt>
      <trkpt lat="43.2464" lon="5.94452">
        <ele>542</ele>
        <time>2012-11-18T08:42:42Z</time>
      </trkpt>
      <trkpt lat="43.2464" lon="5.94466">
        <ele>541</ele>
        <time>2012-11-18T08:42:49Z</time>
      </trkpt>
      <trkpt lat="43.24639" lon="5.94478">
        <ele>541</ele>
        <time>2012-11-18T08:42:54Z</time>
      </trkpt>
      <trkpt lat="43.24637" lon="5.94492">
        <ele>542</ele>
        <time>2012-11-18T08:43:00Z</time>
      </trkpt>
      <trkpt lat="43.24637" lon="5.94506">
        <ele>541</ele>
        <time>2012-11-18T08:43:06Z</time>
      </trkpt>
      <trkpt lat="43.24637" lon="5.94518">
        <ele>542</ele>
        <time>2012-11-18T08:43:11Z</time>
      </trkpt>
      <trkpt lat="43.24634" lon="5.94532">
        <ele>543</ele>
        <time>2012-11-18T08:43:16Z</time>
      </trkpt>
      <trkpt lat="43.2463" lon="5.94544">
        <ele>543</ele>
        <time>2012-11-18T08:43:21Z</time>
      </trkpt>
      <trkpt lat="43.24622" lon="5.94553">
        <ele>545</ele>
        <time>2012-11-18T08:43:28Z</time>
      </trkpt>
      <trkpt lat="43.24613" lon="5.94563">
        <ele>548</ele>
        <time>2012-11-18T08:43:36Z</time>
      </trkpt>
      <trkpt lat="43.24607" lon="5.94572">
        <ele>551</ele>
        <time>2012-11-18T08:43:41Z</time>
      </trkpt>
      <trkpt lat="43.24599" lon="5.94582">
        <ele>552</ele>
        <time>2012-11-18T08:43:44Z</time>
      </trkpt>
      <trkpt lat="43.24592" lon="5.94594">
        <ele>552</ele>
        <time>2012-11-18T08:43:47Z</time>
      </trkpt>
      <trkpt lat="43.24585" lon="5.94603">
        <ele>553</ele>
        <time>2012-11-18T08:43:49Z</time>
      </trkpt>
      <trkpt lat="43.24579" lon="5.94612">
        <ele>555</ele>
        <time>2012-11-18T08:43:53Z</time>
      </trkpt>
      <trkpt lat="43.24575" lon="5.94628">
        <ele>553</ele>
        <time>2012-11-18T08:44:10Z</time>
      </trkpt>
      <trkpt lat="43.2458" lon="5.94628">
        <ele>555</ele>
        <time>2012-11-18T08:44:59Z</time>
      </trkpt>
      <trkpt lat="43.24579" lon="5.94634">
        <ele>556</ele>
        <time>2012-11-18T08:48:43Z</time>
      </trkpt>
      <trkpt lat="43.24569" lon="5.94631">
        <ele>556</ele>
        <time>2012-11-18T08:48:47Z</time>
      </trkpt>
      <trkpt lat="43.24558" lon="5.94634">
        <ele>555</ele>
        <time>2012-11-18T08:48:51Z</time>
      </trkpt>
      <trkpt lat="43.24549" lon="5.94638">
        <ele>555</ele>
        <time>2012-11-18T08:48:54Z</time>
      </trkpt>
      <trkpt lat="43.24539" lon="5.94645">
        <ele>556</ele>
        <time>2012-11-18T08:48:57Z</time>
      </trkpt>
      <trkpt lat="43.24532" lon="5.94654">
        <ele>558</ele>
        <time>2012-11-18T08:49:00Z</time>
      </trkpt>
      <trkpt lat="43.24524" lon="5.9466">
        <ele>559</ele>
        <time>2012-11-18T08:49:03Z</time>
      </trkpt>
      <trkpt lat="43.24516" lon="5.94666">
        <ele>559</ele>
        <time>2012-11-18T08:49:06Z</time>
      </trkpt>
      <trkpt lat="43.24508" lon="5.94677">
        <ele>560</ele>
        <time>2012-11-18T08:49:10Z</time>
      </trkpt>
      <trkpt lat="43.24503" lon="5.94689">
        <ele>559</ele>
        <time>2012-11-18T08:49:14Z</time>
      </trkpt>
      <trkpt lat="43.24495" lon="5.947">
        <ele>558</ele>
        <time>2012-11-18T08:49:18Z</time>
      </trkpt>
      <trkpt lat="43.24487" lon="5.94706">
        <ele>558</ele>
        <time>2012-11-18T08:49:21Z</time>
      </trkpt>
      <trkpt lat="43.24477" lon="5.94709">
        <ele>558</ele>
        <time>2012-11-18T08:49:26Z</time>
      </trkpt>
      <trkpt lat="43.24469" lon="5.94703">
        <ele>558</ele>
        <time>2012-11-18T08:49:31Z</time>
      </trkpt>
      <trkpt lat="43.2446" lon="5.94696">
        <ele>560</ele>
        <time>2012-11-18T08:49:36Z</time>
      </trkpt>
      <trkpt lat="43.24451" lon="5.94689">
        <ele>561</ele>
        <time>2012-11-18T08:49:42Z</time>
      </trkpt>
      <trkpt lat="43.24442" lon="5.94684">
        <ele>561</ele>
        <time>2012-11-18T08:49:47Z</time>
      </trkpt>
      <trkpt lat="43.24431" lon="5.94683">
        <ele>562</ele>
        <time>2012-11-18T08:49:52Z</time>
      </trkpt>
      <trkpt lat="43.24422" lon="5.94681">
        <ele>563</ele>
        <time>2012-11-18T08:49:57Z</time>
      </trkpt>
      <trkpt lat="43.24412" lon="5.94681">
        <ele>565</ele>
        <time>2012-11-18T08:50:02Z</time>
      </trkpt>
      <trkpt lat="43.24402" lon="5.9468">
        <ele>566</ele>
        <time>2012-11-18T08:50:07Z</time>
      </trkpt>
      <trkpt lat="43.24392" lon="5.94681">
        <ele>566</ele>
        <time>2012-11-18T08:50:12Z</time>
      </trkpt>
      <trkpt lat="43.24383" lon="5.94683">
        <ele>567</ele>
        <time>2012-11-18T08:50:16Z</time>
      </trkpt>
      <trkpt lat="43.24373" lon="5.94684">
        <ele>567</ele>
        <time>2012-11-18T08:50:20Z</time>
      </trkpt>
      <trkpt lat="43.24363" lon="5.94682">
        <ele>567</ele>
        <time>2012-11-18T08:50:24Z</time>
      </trkpt>
      <trkpt lat="43.24357" lon="5.94671">
        <ele>570</ele>
        <time>2012-11-18T08:50:32Z</time>
      </trkpt>
      <trkpt lat="43.24353" lon="5.94659">
        <ele>573</ele>
        <time>2012-11-18T08:50:40Z</time>
      </trkpt>
      <trkpt lat="43.24349" lon="5.94645">
        <ele>575</ele>
        <time>2012-11-18T08:50:46Z</time>
      </trkpt>
      <trkpt lat="43.24349" lon="5.94632">
        <ele>577</ele>
        <time>2012-11-18T08:50:52Z</time>
      </trkpt>
      <trkpt lat="43.24348" lon="5.94618">
        <ele>580</ele>
        <time>2012-11-18T08:50:58Z</time>
      </trkpt>
      <trkpt lat="43.24346" lon="5.94606">
        <ele>581</ele>
        <time>2012-11-18T08:51:04Z</time>
      </trkpt>
      <trkpt lat="43.2435" lon="5.94593">
        <ele>584</ele>
        <time>2012-11-18T08:51:11Z</time>
      </trkpt>
      <trkpt lat="43.24351" lon="5.9458">
        <ele>586</ele>
        <time>2012-11-18T08:51:18Z</time>
      </trkpt>
      <trkpt lat="43.24352" lon="5.94566">
        <ele>589</ele>
        <time>2012-11-18T08:51:24Z</time>
      </trkpt>
      <trkpt lat="43.24354" lon="5.94553">
        <ele>589</ele>
        <time>2012-11-18T08:51:31Z</time>
      </trkpt>
      <trkpt lat="43.24355" lon="5.9454">
        <ele>589</ele>
        <time>2012-11-18T08:51:37Z</time>
      </trkpt>
      <trkpt lat="43.24358" lon="5.94525">
        <ele>589</ele>
        <time>2012-11-18T08:51:44Z</time>
      </trkpt>
      <trkpt lat="43.24362" lon="5.94512">
        <ele>591</ele>
        <time>2012-11-18T08:51:50Z</time>
      </trkpt>
      <trkpt lat="43.24365" lon="5.94499">
        <ele>594</ele>
        <time>2012-11-18T08:51:56Z</time>
      </trkpt>
      <trkpt lat="43.24367" lon="5.94485">
        <ele>596</ele>
        <time>2012-11-18T08:52:03Z</time>
      </trkpt>
      <trkpt lat="43.24369" lon="5.94473">
        <ele>595</ele>
        <time>2012-11-18T08:52:09Z</time>
      </trkpt>
      <trkpt lat="43.2437" lon="5.9446">
        <ele>594</ele>
        <time>2012-11-18T08:52:14Z</time>
      </trkpt>
      <trkpt lat="43.24372" lon="5.94447">
        <ele>595</ele>
        <time>2012-11-18T08:52:20Z</time>
      </trkpt>
      <trkpt lat="43.24373" lon="5.94433">
        <ele>597</ele>
        <time>2012-11-18T08:52:27Z</time>
      </trkpt>
      <trkpt lat="43.24376" lon="5.9442">
        <ele>599</ele>
        <time>2012-11-18T08:52:32Z</time>
      </trkpt>
      <trkpt lat="43.24376" lon="5.94407">
        <ele>600</ele>
        <time>2012-11-18T08:52:38Z</time>
      </trkpt>
      <trkpt lat="43.24376" lon="5.94393">
        <ele>603</ele>
        <time>2012-11-18T08:52:44Z</time>
      </trkpt>
      <trkpt lat="43.24377" lon="5.94381">
        <ele>603</ele>
        <time>2012-11-18T08:52:50Z</time>
      </trkpt>
      <trkpt lat="43.24377" lon="5.94367">
        <ele>606</ele>
        <time>2012-11-18T08:52:55Z</time>
      </trkpt>
      <trkpt lat="43.24376" lon="5.94353">
        <ele>608</ele>
        <time>2012-11-18T08:53:00Z</time>
      </trkpt>
      <trkpt lat="43.24373" lon="5.94341">
        <ele>610</ele>
        <time>2012-11-18T08:53:05Z</time>
      </trkpt>
      <trkpt lat="43.2437" lon="5.94328">
        <ele>610</ele>
        <time>2012-11-18T08:53:10Z</time>
      </trkpt>
      <trkpt lat="43.24369" lon="5.94313">
        <ele>612</ele>
        <time>2012-11-18T08:53:15Z</time>
      </trkpt>
      <trkpt lat="43.2437" lon="5.94297">
        <ele>613</ele>
        <time>2012-11-18T08:53:20Z</time>
      </trkpt>
      <trkpt lat="43.2437" lon="5.94284">
        <ele>614</ele>
        <time>2012-11-18T08:53:24Z</time>
      </trkpt>
      <trkpt lat="43.2437" lon="5.9427">
        <ele>615</ele>
        <time>2012-11-18T08:53:29Z</time>
      </trkpt>
      <trkpt lat="43.2437" lon="5.94256">
        <ele>617</ele>
        <time>2012-11-18T08:53:34Z</time>
      </trkpt>
      <trkpt lat="43.24367" lon="5.94244">
        <ele>617</ele>
        <time>2012-11-18T08:53:40Z</time>
      </trkpt>
      <trkpt lat="43.24361" lon="5.94234">
        <ele>618</ele>
        <time>2012-11-18T08:53:46Z</time>
      </trkpt>
      <trkpt lat="43.24356" lon="5.94223">
        <ele>619</ele>
        <time>2012-11-18T08:53:51Z</time>
      </trkpt>
      <trkpt lat="43.24351" lon="5.94212">
        <ele>619</ele>
        <time>2012-11-18T08:53:56Z</time>
      </trkpt>
      <trkpt lat="43.24346" lon="5.94199">
        <ele>619</ele>
        <time>2012-11-18T08:54:01Z</time>
      </trkpt>
      <trkpt lat="43.24341" lon="5.94188">
        <ele>619</ele>
        <time>2012-11-18T08:54:06Z</time>
      </trkpt>
      <trkpt lat="43.24336" lon="5.94177">
        <ele>619</ele>
        <time>2012-11-18T08:54:11Z</time>
      </trkpt>
      <trkpt lat="43.2433" lon="5.94165">
        <ele>618</ele>
        <time>2012-11-18T08:54:17Z</time>
      </trkpt>
      <trkpt lat="43.24324" lon="5.94153">
        <ele>616</ele>
        <time>2012-11-18T08:54:23Z</time>
      </trkpt>
      <trkpt lat="43.24318" lon="5.94143">
        <ele>618</ele>
        <time>2012-11-18T08:54:28Z</time>
      </trkpt>
      <trkpt lat="43.24311" lon="5.94132">
        <ele>617</ele>
        <time>2012-11-18T08:54:33Z</time>
      </trkpt>
      <trkpt lat="43.24306" lon="5.94121">
        <ele>616</ele>
        <time>2012-11-18T08:54:39Z</time>
      </trkpt>
      <trkpt lat="43.24301" lon="5.9411">
        <ele>617</ele>
        <time>2012-11-18T08:54:44Z</time>
      </trkpt>
      <trkpt lat="43.24296" lon="5.94099">
        <ele>619</ele>
        <time>2012-11-18T08:54:49Z</time>
      </trkpt>
      <trkpt lat="43.2429" lon="5.94089">
        <ele>619</ele>
        <time>2012-11-18T08:54:54Z</time>
      </trkpt>
      <trkpt lat="43.24283" lon="5.94079">
        <ele>618</ele>
        <time>2012-11-18T08:54:59Z</time>
      </trkpt>
      <trkpt lat="43.24277" lon="5.94069">
        <ele>617</ele>
        <time>2012-11-18T08:55:03Z</time>
      </trkpt>
      <trkpt lat="43.2427" lon="5.94059">
        <ele>617</ele>
        <time>2012-11-18T08:55:08Z</time>
      </trkpt>
      <trkpt lat="43.24262" lon="5.94049">
        <ele>616</ele>
        <time>2012-11-18T08:55:13Z</time>
      </trkpt>
      <trkpt lat="43.24255" lon="5.94036">
        <ele>616</ele>
        <time>2012-11-18T08:55:18Z</time>
      </trkpt>
      <trkpt lat="43.24249" lon="5.94023">
        <ele>616</ele>
        <time>2012-11-18T08:55:22Z</time>
      </trkpt>
      <trkpt lat="43.24245" lon="5.94012">
        <ele>617</ele>
        <time>2012-11-18T08:55:25Z</time>
      </trkpt>
      <trkpt lat="43.24238" lon="5.93998">
        <ele>617</ele>
        <time>2012-11-18T08:55:29Z</time>
      </trkpt>
      <trkpt lat="43.24229" lon="5.93986">
        <ele>618</ele>
        <time>2012-11-18T08:55:32Z</time>
      </trkpt>
      <trkpt lat="43.24219" lon="5.93972">
        <ele>619</ele>
        <time>2012-11-18T08:55:35Z</time>
      </trkpt>
      <trkpt lat="43.24212" lon="5.9396">
        <ele>619</ele>
        <time>2012-11-18T08:55:38Z</time>
      </trkpt>
      <trkpt lat="43.24204" lon="5.93949">
        <ele>621</ele>
        <time>2012-11-18T08:55:41Z</time>
      </trkpt>
      <trkpt lat="43.24197" lon="5.93937">
        <ele>621</ele>
        <time>2012-11-18T08:55:44Z</time>
      </trkpt>
      <trkpt lat="43.24191" lon="5.93927">
        <ele>622</ele>
        <time>2012-11-18T08:55:46Z</time>
      </trkpt>
      <trkpt lat="43.24186" lon="5.93914">
        <ele>622</ele>
        <time>2012-11-18T08:55:49Z</time>
      </trkpt>
      <trkpt lat="43.24181" lon="5.93903">
        <ele>622</ele>
        <time>2012-11-18T08:55:52Z</time>
      </trkpt>
      <trkpt lat="43.24176" lon="5.93892">
        <ele>621</ele>
        <time>2012-11-18T08:55:55Z</time>
      </trkpt>
      <trkpt lat="43.24169" lon="5.93882">
        <ele>621</ele>
        <time>2012-11-18T08:55:58Z</time>
      </trkpt>
      <trkpt lat="43.24163" lon="5.9387">
        <ele>620</ele>
        <time>2012-11-18T08:56:02Z</time>
      </trkpt>
      <trkpt lat="43.24154" lon="5.93858">
        <ele>621</ele>
        <time>2012-11-18T08:56:06Z</time>
      </trkpt>
      <trkpt lat="43.24147" lon="5.93848">
        <ele>620</ele>
        <time>2012-11-18T08:56:09Z</time>
      </trkpt>
      <trkpt lat="43.24139" lon="5.93842">
        <ele>619</ele>
        <time>2012-11-18T08:56:12Z</time>
      </trkpt>
      <trkpt lat="43.2413" lon="5.93837">
        <ele>618</ele>
        <time>2012-11-18T08:56:17Z</time>
      </trkpt>
      <trkpt lat="43.24121" lon="5.93835">
        <ele>618</ele>
        <time>2012-11-18T08:56:22Z</time>
      </trkpt>
      <trkpt lat="43.24111" lon="5.93834">
        <ele>617</ele>
        <time>2012-11-18T08:56:27Z</time>
      </trkpt>
      <trkpt lat="43.24101" lon="5.93832">
        <ele>617</ele>
        <time>2012-11-18T08:56:32Z</time>
      </trkpt>
      <trkpt lat="43.2409" lon="5.93829">
        <ele>617</ele>
        <time>2012-11-18T08:56:37Z</time>
      </trkpt>
      <trkpt lat="43.24082" lon="5.9382">
        <ele>617</ele>
        <time>2012-11-18T08:56:43Z</time>
      </trkpt>
      <trkpt lat="43.24078" lon="5.93808">
        <ele>618</ele>
        <time>2012-11-18T08:56:48Z</time>
      </trkpt>
      <trkpt lat="43.24081" lon="5.93795">
        <ele>621</ele>
        <time>2012-11-18T08:56:54Z</time>
      </trkpt>
      <trkpt lat="43.24086" lon="5.93787">
        <ele>622</ele>
        <time>2012-11-18T08:56:57Z</time>
      </trkpt>
      <trkpt lat="43.24089" lon="5.93781">
        <ele>622</ele>
        <time>2012-11-18T08:57:00Z</time>
      </trkpt>
      <trkpt lat="43.24092" lon="5.93774">
        <ele>623</ele>
        <time>2012-11-18T08:57:03Z</time>
      </trkpt>
      <trkpt lat="43.24094" lon="5.93759">
        <ele>623</ele>
        <time>2012-11-18T08:57:09Z</time>
      </trkpt>
      <trkpt lat="43.24085" lon="5.93764">
        <ele>624</ele>
        <time>2012-11-18T08:57:20Z</time>
      </trkpt>
      <trkpt lat="43.24077" lon="5.93774">
        <ele>624</ele>
        <time>2012-11-18T08:57:26Z</time>
      </trkpt>
      <trkpt lat="43.24069" lon="5.9378">
        <ele>625</ele>
        <time>2012-11-18T08:57:32Z</time>
      </trkpt>
      <trkpt lat="43.24059" lon="5.93787">
        <ele>625</ele>
        <time>2012-11-18T08:57:37Z</time>
      </trkpt>
      <trkpt lat="43.24052" lon="5.93796">
        <ele>626</ele>
        <time>2012-11-18T08:57:42Z</time>
      </trkpt>
      <trkpt lat="43.24045" lon="5.93805">
        <ele>626</ele>
        <time>2012-11-18T08:57:47Z</time>
      </trkpt>
      <trkpt lat="43.24035" lon="5.9381">
        <ele>629</ele>
        <time>2012-11-18T08:57:53Z</time>
      </trkpt>
      <trkpt lat="43.24026" lon="5.93813">
        <ele>630</ele>
        <time>2012-11-18T08:57:58Z</time>
      </trkpt>
      <trkpt lat="43.24016" lon="5.93818">
        <ele>633</ele>
        <time>2012-11-18T08:58:04Z</time>
      </trkpt>
      <trkpt lat="43.24006" lon="5.93818">
        <ele>634</ele>
        <time>2012-11-18T08:58:09Z</time>
      </trkpt>
      <trkpt lat="43.23995" lon="5.93817">
        <ele>635</ele>
        <time>2012-11-18T08:58:14Z</time>
      </trkpt>
      <trkpt lat="43.23986" lon="5.9382">
        <ele>635</ele>
        <time>2012-11-18T08:58:18Z</time>
      </trkpt>
      <trkpt lat="43.23975" lon="5.9382">
        <ele>635</ele>
        <time>2012-11-18T08:58:22Z</time>
      </trkpt>
      <trkpt lat="43.23964" lon="5.93818">
        <ele>634</ele>
        <time>2012-11-18T08:58:27Z</time>
      </trkpt>
      <trkpt lat="43.23955" lon="5.93819">
        <ele>634</ele>
        <time>2012-11-18T08:58:31Z</time>
      </trkpt>
      <trkpt lat="43.2395" lon="5.9382">
        <ele>634</ele>
        <time>2012-11-18T08:58:33Z</time>
      </trkpt>
      <trkpt lat="43.23941" lon="5.93821">
        <ele>629</ele>
        <time>2012-11-18T08:58:48Z</time>
      </trkpt>
      <trkpt lat="43.23938" lon="5.93822">
        <ele>622</ele>
        <time>2012-11-18T08:59:26Z</time>
      </trkpt>
      <trkpt lat="43.23935" lon="5.93823">
        <ele>623</ele>
        <time>2012-11-18T08:59:43Z</time>
      </trkpt>
      <trkpt lat="43.2393" lon="5.93821">
        <ele>626</ele>
        <time>2012-11-18T09:00:32Z</time>
      </trkpt>
      <trkpt lat="43.23919" lon="5.93818">
        <ele>629</ele>
        <time>2012-11-18T09:00:55Z</time>
      </trkpt>
      <trkpt lat="43.23907" lon="5.93814">
        <ele>629</ele>
        <time>2012-11-18T09:00:59Z</time>
      </trkpt>
      <trkpt lat="43.23895" lon="5.93811">
        <ele>629</ele>
        <time>2012-11-18T09:01:02Z</time>
      </trkpt>
      <trkpt lat="43.23884" lon="5.93811">
        <ele>629</ele>
        <time>2012-11-18T09:01:05Z</time>
      </trkpt>
      <trkpt lat="43.23874" lon="5.93813">
        <ele>630</ele>
        <time>2012-11-18T09:01:10Z</time>
      </trkpt>
      <trkpt lat="43.23872" lon="5.93811">
        <ele>628</ele>
        <time>2012-11-18T09:01:16Z</time>
      </trkpt>
      <trkpt lat="43.23862" lon="5.93819">
        <ele>626</ele>
        <time>2012-11-18T09:03:51Z</time>
      </trkpt>
      <trkpt lat="43.23856" lon="5.93822">
        <ele>626</ele>
        <time>2012-11-18T09:03:53Z</time>
      </trkpt>
      <trkpt lat="43.23851" lon="5.93823">
        <ele>627</ele>
        <time>2012-11-18T09:03:55Z</time>
      </trkpt>
      <trkpt lat="43.23845" lon="5.93824">
        <ele>627</ele>
        <time>2012-11-18T09:03:57Z</time>
      </trkpt>
      <trkpt lat="43.23841" lon="5.93827">
        <ele>628</ele>
        <time>2012-11-18T09:03:59Z</time>
      </trkpt>
      <trkpt lat="43.23834" lon="5.9383">
        <ele>627</ele>
        <time>2012-11-18T09:04:02Z</time>
      </trkpt>
      <trkpt lat="43.23826" lon="5.93841">
        <ele>628</ele>
        <time>2012-11-18T09:04:06Z</time>
      </trkpt>
      <trkpt lat="43.2382" lon="5.93843">
        <ele>628</ele>
        <time>2012-11-18T09:04:08Z</time>
      </trkpt>
      <trkpt lat="43.23811" lon="5.93849">
        <ele>630</ele>
        <time>2012-11-18T09:04:12Z</time>
      </trkpt>
      <trkpt lat="43.23806" lon="5.93852">
        <ele>630</ele>
        <time>2012-11-18T09:04:14Z</time>
      </trkpt>
      <trkpt lat="43.23796" lon="5.93858">
        <ele>631</ele>
        <time>2012-11-18T09:04:18Z</time>
      </trkpt>
      <trkpt lat="43.23786" lon="5.93866">
        <ele>631</ele>
        <time>2012-11-18T09:04:22Z</time>
      </trkpt>
      <trkpt lat="43.23777" lon="5.93873">
        <ele>631</ele>
        <time>2012-11-18T09:04:26Z</time>
      </trkpt>
      <trkpt lat="43.23767" lon="5.93881">
        <ele>630</ele>
        <time>2012-11-18T09:04:30Z</time>
      </trkpt>
      <trkpt lat="43.23756" lon="5.93887">
        <ele>630</ele>
        <time>2012-11-18T09:04:33Z</time>
      </trkpt>
      <trkpt lat="43.23747" lon="5.93895">
        <ele>630</ele>
        <time>2012-11-18T09:04:36Z</time>
      </trkpt>
      <trkpt lat="43.23742" lon="5.939">
        <ele>630</ele>
        <time>2012-11-18T09:04:38Z</time>
      </trkpt>
      <trkpt lat="43.23734" lon="5.93906">
        <ele>631</ele>
        <time>2012-11-18T09:04:41Z</time>
      </trkpt>
      <trkpt lat="43.23729" lon="5.93909">
        <ele>631</ele>
        <time>2012-11-18T09:04:43Z</time>
      </trkpt>
      <trkpt lat="43.23724" lon="5.93912">
        <ele>631</ele>
        <time>2012-11-18T09:04:45Z</time>
      </trkpt>
      <trkpt lat="43.23717" lon="5.93921">
        <ele>630</ele>
        <time>2012-11-18T09:04:48Z</time>
      </trkpt>
      <trkpt lat="43.23713" lon="5.93928">
        <ele>630</ele>
        <time>2012-11-18T09:04:50Z</time>
      </trkpt>
      <trkpt lat="43.23709" lon="5.93939">
        <ele>629</ele>
        <time>2012-11-18T09:04:54Z</time>
      </trkpt>
      <trkpt lat="43.23706" lon="5.93947">
        <ele>629</ele>
        <time>2012-11-18T09:04:57Z</time>
      </trkpt>
      <trkpt lat="43.23703" lon="5.93955">
        <ele>630</ele>
        <time>2012-11-18T09:05:00Z</time>
      </trkpt>
      <trkpt lat="43.23701" lon="5.93964">
        <ele>630</ele>
        <time>2012-11-18T09:05:03Z</time>
      </trkpt>
      <trkpt lat="43.23699" lon="5.9397">
        <ele>631</ele>
        <time>2012-11-18T09:05:05Z</time>
      </trkpt>
      <trkpt lat="43.23698" lon="5.93976">
        <ele>631</ele>
        <time>2012-11-18T09:05:07Z</time>
      </trkpt>
      <trkpt lat="43.23697" lon="5.93982">
        <ele>631</ele>
        <time>2012-11-18T09:05:09Z</time>
      </trkpt>
      <trkpt lat="43.23693" lon="5.93995">
        <ele>632</ele>
        <time>2012-11-18T09:05:13Z</time>
      </trkpt>
      <trkpt lat="43.23692" lon="5.94001">
        <ele>632</ele>
        <time>2012-11-18T09:05:15Z</time>
      </trkpt>
      <trkpt lat="43.2369" lon="5.94008">
        <ele>632</ele>
        <time>2012-11-18T09:05:17Z</time>
      </trkpt>
      <trkpt lat="43.23687" lon="5.94013">
        <ele>633</ele>
        <time>2012-11-18T09:05:19Z</time>
      </trkpt>
      <trkpt lat="43.23684" lon="5.94018">
        <ele>633</ele>
        <time>2012-11-18T09:05:21Z</time>
      </trkpt>
      <trkpt lat="43.23675" lon="5.94027">
        <ele>633</ele>
        <time>2012-11-18T09:05:25Z</time>
      </trkpt>
      <trkpt lat="43.2367" lon="5.94032">
        <ele>634</ele>
        <time>2012-11-18T09:05:27Z</time>
      </trkpt>
      <trkpt lat="43.23663" lon="5.94041">
        <ele>634</ele>
        <time>2012-11-18T09:05:31Z</time>
      </trkpt>
      <trkpt lat="43.23659" lon="5.94046">
        <ele>634</ele>
        <time>2012-11-18T09:05:33Z</time>
      </trkpt>
      <trkpt lat="43.23655" lon="5.94051">
        <ele>634</ele>
        <time>2012-11-18T09:05:35Z</time>
      </trkpt>
      <trkpt lat="43.23651" lon="5.94056">
        <ele>634</ele>
        <time>2012-11-18T09:05:37Z</time>
      </trkpt>
      <trkpt lat="43.23643" lon="5.94067">
        <ele>634</ele>
        <time>2012-11-18T09:05:41Z</time>
      </trkpt>
      <trkpt lat="43.23635" lon="5.94076">
        <ele>635</ele>
        <time>2012-11-18T09:05:45Z</time>
      </trkpt>
      <trkpt lat="43.23627" lon="5.94085">
        <ele>634</ele>
        <time>2012-11-18T09:05:48Z</time>
      </trkpt>
      <trkpt lat="43.23623" lon="5.9409">
        <ele>633</ele>
        <time>2012-11-18T09:05:50Z</time>
      </trkpt>
      <trkpt lat="43.23614" lon="5.94099">
        <ele>632</ele>
        <time>2012-11-18T09:05:53Z</time>
      </trkpt>
      <trkpt lat="43.23609" lon="5.94106">
        <ele>632</ele>
        <time>2012-11-18T09:05:55Z</time>
      </trkpt>
      <trkpt lat="43.23603" lon="5.94112">
        <ele>631</ele>
        <time>2012-11-18T09:05:57Z</time>
      </trkpt>
      <trkpt lat="43.23593" lon="5.94119">
        <ele>631</ele>
        <time>2012-11-18T09:06:00Z</time>
      </trkpt>
      <trkpt lat="43.23584" lon="5.94129">
        <ele>631</ele>
        <time>2012-11-18T09:06:04Z</time>
      </trkpt>
      <trkpt lat="43.23576" lon="5.94136">
        <ele>631</ele>
        <time>2012-11-18T09:06:07Z</time>
      </trkpt>
      <trkpt lat="43.23571" lon="5.94141">
        <ele>632</ele>
        <time>2012-11-18T09:06:09Z</time>
      </trkpt>
      <trkpt lat="43.23563" lon="5.94148">
        <ele>632</ele>
        <time>2012-11-18T09:06:12Z</time>
      </trkpt>
      <trkpt lat="43.23553" lon="5.94154">
        <ele>632</ele>
        <time>2012-11-18T09:06:15Z</time>
      </trkpt>
      <trkpt lat="43.23542" lon="5.94162">
        <ele>632</ele>
        <time>2012-11-18T09:06:18Z</time>
      </trkpt>
      <trkpt lat="43.23537" lon="5.94167">
        <ele>632</ele>
        <time>2012-11-18T09:06:20Z</time>
      </trkpt>
      <trkpt lat="43.23533" lon="5.94172">
        <ele>632</ele>
        <time>2012-11-18T09:06:22Z</time>
      </trkpt>
      <trkpt lat="43.23524" lon="5.94181">
        <ele>633</ele>
        <time>2012-11-18T09:06:26Z</time>
      </trkpt>
      <trkpt lat="43.23515" lon="5.9419">
        <ele>635</ele>
        <time>2012-11-18T09:06:30Z</time>
      </trkpt>
      <trkpt lat="43.2351" lon="5.94195">
        <ele>636</ele>
        <time>2012-11-18T09:06:32Z</time>
      </trkpt>
      <trkpt lat="43.23505" lon="5.942">
        <ele>637</ele>
        <time>2012-11-18T09:06:34Z</time>
      </trkpt>
      <trkpt lat="43.235" lon="5.94205">
        <ele>638</ele>
        <time>2012-11-18T09:06:36Z</time>
      </trkpt>
      <trkpt lat="43.23496" lon="5.94209">
        <ele>638</ele>
        <time>2012-11-18T09:06:38Z</time>
      </trkpt>
      <trkpt lat="43.23491" lon="5.94213">
        <ele>639</ele>
        <time>2012-11-18T09:06:40Z</time>
      </trkpt>
      <trkpt lat="43.23482" lon="5.9422">
        <ele>640</ele>
        <time>2012-11-18T09:06:43Z</time>
      </trkpt>
      <trkpt lat="43.23477" lon="5.94225">
        <ele>640</ele>
        <time>2012-11-18T09:06:45Z</time>
      </trkpt>
      <trkpt lat="43.2347" lon="5.94231">
        <ele>641</ele>
        <time>2012-11-18T09:06:47Z</time>
      </trkpt>
      <trkpt lat="43.23465" lon="5.94235">
        <ele>642</ele>
        <time>2012-11-18T09:06:49Z</time>
      </trkpt>
      <trkpt lat="43.23458" lon="5.94243">
        <ele>642</ele>
        <time>2012-11-18T09:06:52Z</time>
      </trkpt>
      <trkpt lat="43.23449" lon="5.94252">
        <ele>643</ele>
        <time>2012-11-18T09:06:56Z</time>
      </trkpt>
      <trkpt lat="43.2344" lon="5.94259">
        <ele>643</ele>
        <time>2012-11-18T09:06:59Z</time>
      </trkpt>
      <trkpt lat="43.23434" lon="5.94264">
        <ele>643</ele>
        <time>2012-11-18T09:07:01Z</time>
      </trkpt>
      <trkpt lat="43.23428" lon="5.94268">
        <ele>643</ele>
        <time>2012-11-18T09:07:03Z</time>
      </trkpt>
      <trkpt lat="43.2342" lon="5.94274">
        <ele>643</ele>
        <time>2012-11-18T09:07:06Z</time>
      </trkpt>
      <trkpt lat="43.23414" lon="5.94278">
        <ele>642</ele>
        <time>2012-11-18T09:07:08Z</time>
      </trkpt>
      <trkpt lat="43.23407" lon="5.94283">
        <ele>642</ele>
        <time>2012-11-18T09:07:10Z</time>
      </trkpt>
      <trkpt lat="43.23401" lon="5.94287">
        <ele>642</ele>
        <time>2012-11-18T09:07:12Z</time>
      </trkpt>
      <trkpt lat="43.23397" lon="5.94293">
        <ele>642</ele>
        <time>2012-11-18T09:07:15Z</time>
      </trkpt>
      <trkpt lat="43.23403" lon="5.94303">
        <ele>642</ele>
        <time>2012-11-18T09:07:22Z</time>
      </trkpt>
      <trkpt lat="43.23412" lon="5.94307">
        <ele>642</ele>
        <time>2012-11-18T09:07:26Z</time>
      </trkpt>
      <trkpt lat="43.23422" lon="5.94313">
        <ele>643</ele>
        <time>2012-11-18T09:07:32Z</time>
      </trkpt>
      <trkpt lat="43.23429" lon="5.94314">
        <ele>644</ele>
        <time>2012-11-18T09:07:36Z</time>
      </trkpt>
      <trkpt lat="43.23434" lon="5.94315">
        <ele>645</ele>
        <time>2012-11-18T09:07:39Z</time>
      </trkpt>
      <trkpt lat="43.23444" lon="5.94316">
        <ele>647</ele>
        <time>2012-11-18T09:07:44Z</time>
      </trkpt>
      <trkpt lat="43.23452" lon="5.9432">
        <ele>648</ele>
        <time>2012-11-18T09:07:49Z</time>
      </trkpt>
      <trkpt lat="43.23457" lon="5.94323">
        <ele>648</ele>
        <time>2012-11-18T09:07:52Z</time>
      </trkpt>
      <trkpt lat="43.23466" lon="5.94329">
        <ele>650</ele>
        <time>2012-11-18T09:07:58Z</time>
      </trkpt>
      <trkpt lat="43.23474" lon="5.94336">
        <ele>652</ele>
        <time>2012-11-18T09:08:05Z</time>
      </trkpt>
      <trkpt lat="43.23479" lon="5.94346">
        <ele>652</ele>
        <time>2012-11-18T09:08:17Z</time>
      </trkpt>
      <trkpt lat="43.23483" lon="5.94355">
        <ele>653</ele>
        <time>2012-11-18T09:08:34Z</time>
      </trkpt>
      <trkpt lat="43.23483" lon="5.94361">
        <ele>656</ele>
        <time>2012-11-18T09:08:56Z</time>
      </trkpt>
      <trkpt lat="43.23483" lon="5.94372">
        <ele>658</ele>
        <time>2012-11-18T09:09:24Z</time>
      </trkpt>
      <trkpt lat="43.23486" lon="5.94391">
        <ele>666</ele>
        <time>2012-11-18T09:09:50Z</time>
      </trkpt>
      <trkpt lat="43.23492" lon="5.94406">
        <ele>667</ele>
        <time>2012-11-18T09:10:22Z</time>
      </trkpt>
      <trkpt lat="43.23496" lon="5.94417">
        <ele>670</ele>
        <time>2012-11-18T09:10:40Z</time>
      </trkpt>
      <trkpt lat="43.23505" lon="5.9443">
        <ele>672</ele>
        <time>2012-11-18T09:10:59Z</time>
      </trkpt>
      <trkpt lat="43.2351" lon="5.94441">
        <ele>673</ele>
        <time>2012-11-18T09:11:15Z</time>
      </trkpt>
      <trkpt lat="43.23515" lon="5.94452">
        <ele>675</ele>
        <time>2012-11-18T09:11:28Z</time>
      </trkpt>
      <trkpt lat="43.23518" lon="5.94457">
        <ele>676</ele>
        <time>2012-11-18T09:11:40Z</time>
      </trkpt>
      <trkpt lat="43.23523" lon="5.94469">
        <ele>678</ele>
        <time>2012-11-18T09:11:54Z</time>
      </trkpt>
      <trkpt lat="43.2353" lon="5.94478">
        <ele>680</ele>
        <time>2012-11-18T09:12:03Z</time>
      </trkpt>
      <trkpt lat="43.23535" lon="5.94491">
        <ele>681</ele>
        <time>2012-11-18T09:12:13Z</time>
      </trkpt>
      <trkpt lat="43.23539" lon="5.94504">
        <ele>684</ele>
        <time>2012-11-18T09:12:21Z</time>
      </trkpt>
      <trkpt lat="43.2354" lon="5.94517">
        <ele>685</ele>
        <time>2012-11-18T09:12:29Z</time>
      </trkpt>
      <trkpt lat="43.23542" lon="5.94527">
        <ele>686</ele>
        <time>2012-11-18T09:12:35Z</time>
      </trkpt>
      <trkpt lat="43.23543" lon="5.94534">
        <ele>689</ele>
        <time>2012-11-18T09:12:42Z</time>
      </trkpt>
      <trkpt lat="43.23545" lon="5.94542">
        <ele>691</ele>
        <time>2012-11-18T09:12:45Z</time>
      </trkpt>
      <trkpt lat="43.23546" lon="5.94551">
        <ele>693</ele>
        <time>2012-11-18T09:12:51Z</time>
      </trkpt>
      <trkpt lat="43.23547" lon="5.94558">
        <ele>693</ele>
        <time>2012-11-18T09:12:55Z</time>
      </trkpt>
      <trkpt lat="43.23549" lon="5.94571">
        <ele>692</ele>
        <time>2012-11-18T09:13:02Z</time>
      </trkpt>
      <trkpt lat="43.23551" lon="5.94584">
        <ele>693</ele>
        <time>2012-11-18T09:13:10Z</time>
      </trkpt>
      <trkpt lat="43.2355" lon="5.94592">
        <ele>694</ele>
        <time>2012-11-18T09:13:16Z</time>
      </trkpt>
      <trkpt lat="43.23551" lon="5.94599">
        <ele>695</ele>
        <time>2012-11-18T09:13:20Z</time>
      </trkpt>
      <trkpt lat="43.23548" lon="5.94606">
        <ele>696</ele>
        <time>2012-11-18T09:13:24Z</time>
      </trkpt>
      <trkpt lat="43.23546" lon="5.94612">
        <ele>697</ele>
        <time>2012-11-18T09:13:27Z</time>
      </trkpt>
      <trkpt lat="43.23544" lon="5.9462">
        <ele>697</ele>
        <time>2012-11-18T09:13:30Z</time>
      </trkpt>
      <trkpt lat="43.2354" lon="5.94633">
        <ele>698</ele>
        <time>2012-11-18T09:13:33Z</time>
      </trkpt>
      <trkpt lat="43.23535" lon="5.94642">
        <ele>697</ele>
        <time>2012-11-18T09:13:36Z</time>
      </trkpt>
      <trkpt lat="43.23532" lon="5.94648">
        <ele>698</ele>
        <time>2012-11-18T09:13:38Z</time>
      </trkpt>
      <trkpt lat="43.2353" lon="5.9466">
        <ele>697</ele>
        <time>2012-11-18T09:13:41Z</time>
      </trkpt>
      <trkpt lat="43.23532" lon="5.94675">
        <ele>696</ele>
        <time>2012-11-18T09:13:47Z</time>
      </trkpt>
      <trkpt lat="43.23535" lon="5.9468">
        <ele>697</ele>
        <time>2012-11-18T09:13:51Z</time>
      </trkpt>
      <trkpt lat="43.23542" lon="5.9469">
        <ele>697</ele>
        <time>2012-11-18T09:13:58Z</time>
      </trkpt>
      <trkpt lat="43.23545" lon="5.94703">
        <ele>698</ele>
        <time>2012-11-18T09:14:04Z</time>
      </trkpt>
      <trkpt lat="43.23551" lon="5.94712">
        <ele>699</ele>
        <time>2012-11-18T09:14:08Z</time>
      </trkpt>
      <trkpt lat="43.23556" lon="5.94723">
        <ele>699</ele>
        <time>2012-11-18T09:14:15Z</time>
      </trkpt>
      <trkpt lat="43.2356" lon="5.9473">
        <ele>700</ele>
        <time>2012-11-18T09:14:24Z</time>
      </trkpt>
      <trkpt lat="43.23562" lon="5.94736">
        <ele>701</ele>
        <time>2012-11-18T09:14:26Z</time>
      </trkpt>
      <trkpt lat="43.23568" lon="5.94745">
        <ele>702</ele>
        <time>2012-11-18T09:14:33Z</time>
      </trkpt>
      <trkpt lat="43.23572" lon="5.94757">
        <ele>704</ele>
        <time>2012-11-18T09:14:42Z</time>
      </trkpt>
      <trkpt lat="43.23575" lon="5.94763">
        <ele>705</ele>
        <time>2012-11-18T09:14:46Z</time>
      </trkpt>
      <trkpt lat="43.23577" lon="5.94772">
        <ele>706</ele>
        <time>2012-11-18T09:14:52Z</time>
      </trkpt>
      <trkpt lat="43.2358" lon="5.94778">
        <ele>708</ele>
        <time>2012-11-18T09:14:55Z</time>
      </trkpt>
      <trkpt lat="43.23585" lon="5.94788">
        <ele>709</ele>
        <time>2012-11-18T09:15:03Z</time>
      </trkpt>
      <trkpt lat="43.23589" lon="5.94801">
        <ele>710</ele>
        <time>2012-11-18T09:15:10Z</time>
      </trkpt>
      <trkpt lat="43.23591" lon="5.94808">
        <ele>710</ele>
        <time>2012-11-18T09:15:13Z</time>
      </trkpt>
      <trkpt lat="43.23594" lon="5.94815">
        <ele>711</ele>
        <time>2012-11-18T09:15:17Z</time>
      </trkpt>
      <trkpt lat="43.23594" lon="5.94823">
        <ele>711</ele>
        <time>2012-11-18T09:15:21Z</time>
      </trkpt>
      <trkpt lat="43.23594" lon="5.9483">
        <ele>712</ele>
        <time>2012-11-18T09:15:25Z</time>
      </trkpt>
      <trkpt lat="43.23594" lon="5.94837">
        <ele>712</ele>
        <time>2012-11-18T09:15:29Z</time>
      </trkpt>
      <trkpt lat="43.23596" lon="5.94845">
        <ele>713</ele>
        <time>2012-11-18T09:15:33Z</time>
      </trkpt>
      <trkpt lat="43.23597" lon="5.94851">
        <ele>714</ele>
        <time>2012-11-18T09:15:36Z</time>
      </trkpt>
      <trkpt lat="43.236" lon="5.94858">
        <ele>715</ele>
        <time>2012-11-18T09:15:44Z</time>
      </trkpt>
      <trkpt lat="43.23601" lon="5.94864">
        <ele>715</ele>
        <time>2012-11-18T09:15:47Z</time>
      </trkpt>
      <trkpt lat="43.23602" lon="5.94873">
        <ele>715</ele>
        <time>2012-11-18T09:15:50Z</time>
      </trkpt>
      <trkpt lat="43.23605" lon="5.94886">
        <ele>715</ele>
        <time>2012-11-18T09:15:54Z</time>
      </trkpt>
      <trkpt lat="43.23607" lon="5.94893">
        <ele>715</ele>
        <time>2012-11-18T09:15:56Z</time>
      </trkpt>
      <trkpt lat="43.23609" lon="5.94901">
        <ele>716</ele>
        <time>2012-11-18T09:15:58Z</time>
      </trkpt>
      <trkpt lat="43.23612" lon="5.94905">
        <ele>716</ele>
        <time>2012-11-18T09:16:00Z</time>
      </trkpt>
      <trkpt lat="43.23615" lon="5.94914">
        <ele>715</ele>
        <time>2012-11-18T09:16:03Z</time>
      </trkpt>
      <trkpt lat="43.23618" lon="5.94924">
        <ele>715</ele>
        <time>2012-11-18T09:16:05Z</time>
      </trkpt>
      <trkpt lat="43.23622" lon="5.94938">
        <ele>716</ele>
        <time>2012-11-18T09:16:07Z</time>
      </trkpt>
      <trkpt lat="43.23624" lon="5.94952">
        <ele>715</ele>
        <time>2012-11-18T09:16:09Z</time>
      </trkpt>
      <trkpt lat="43.23629" lon="5.94963">
        <ele>715</ele>
        <time>2012-11-18T09:16:11Z</time>
      </trkpt>
      <trkpt lat="43.23633" lon="5.94978">
        <ele>715</ele>
        <time>2012-11-18T09:16:14Z</time>
      </trkpt>
      <trkpt lat="43.23635" lon="5.94991">
        <ele>716</ele>
        <time>2012-11-18T09:16:17Z</time>
      </trkpt>
      <trkpt lat="43.23638" lon="5.94997">
        <ele>716</ele>
        <time>2012-11-18T09:16:22Z</time>
      </trkpt>
      <trkpt lat="43.23641" lon="5.95003">
        <ele>716</ele>
        <time>2012-11-18T09:16:26Z</time>
      </trkpt>
      <trkpt lat="43.23642" lon="5.95009">
        <ele>716</ele>
        <time>2012-11-18T09:16:28Z</time>
      </trkpt>
      <trkpt lat="43.23643" lon="5.95015">
        <ele>716</ele>
        <time>2012-11-18T09:16:30Z</time>
      </trkpt>
      <trkpt lat="43.23648" lon="5.95025">
        <ele>716</ele>
        <time>2012-11-18T09:16:33Z</time>
      </trkpt>
      <trkpt lat="43.2365" lon="5.95031">
        <ele>716</ele>
        <time>2012-11-18T09:16:35Z</time>
      </trkpt>
      <trkpt lat="43.23653" lon="5.95038">
        <ele>717</ele>
        <time>2012-11-18T09:16:37Z</time>
      </trkpt>
      <trkpt lat="43.23656" lon="5.95044">
        <ele>717</ele>
        <time>2012-11-18T09:16:39Z</time>
      </trkpt>
      <trkpt lat="43.23659" lon="5.9505">
        <ele>717</ele>
        <time>2012-11-18T09:16:42Z</time>
      </trkpt>
      <trkpt lat="43.23666" lon="5.95061">
        <ele>716</ele>
        <time>2012-11-18T09:16:46Z</time>
      </trkpt>
      <trkpt lat="43.2367" lon="5.95066">
        <ele>716</ele>
        <time>2012-11-18T09:16:48Z</time>
      </trkpt>
      <trkpt lat="43.23673" lon="5.95073">
        <ele>716</ele>
        <time>2012-11-18T09:16:52Z</time>
      </trkpt>
      <trkpt lat="43.23674" lon="5.95081">
        <ele>716</ele>
        <time>2012-11-18T09:16:55Z</time>
      </trkpt>
      <trkpt lat="43.23677" lon="5.9509">
        <ele>716</ele>
        <time>2012-11-18T09:16:57Z</time>
      </trkpt>
      <trkpt lat="43.23683" lon="5.95101">
        <ele>716</ele>
        <time>2012-11-18T09:16:59Z</time>
      </trkpt>
      <trkpt lat="43.23688" lon="5.95114">
        <ele>716</ele>
        <time>2012-11-18T09:17:01Z</time>
      </trkpt>
      <trkpt lat="43.23693" lon="5.95124">
        <ele>716</ele>
        <time>2012-11-18T09:17:03Z</time>
      </trkpt>
      <trkpt lat="43.23701" lon="5.95136">
        <ele>717</ele>
        <time>2012-11-18T09:17:06Z</time>
      </trkpt>
      <trkpt lat="43.23707" lon="5.95146">
        <ele>719</ele>
        <time>2012-11-18T09:17:11Z</time>
      </trkpt>
      <trkpt lat="43.23713" lon="5.95151">
        <ele>719</ele>
        <time>2012-11-18T09:17:14Z</time>
      </trkpt>
      <trkpt lat="43.23719" lon="5.95153">
        <ele>719</ele>
        <time>2012-11-18T09:17:17Z</time>
      </trkpt>
      <trkpt lat="43.23723" lon="5.95156">
        <ele>718</ele>
        <time>2012-11-18T09:17:20Z</time>
      </trkpt>
      <trkpt lat="43.23728" lon="5.95158">
        <ele>717</ele>
        <time>2012-11-18T09:17:24Z</time>
      </trkpt>
      <trkpt lat="43.23733" lon="5.95162">
        <ele>716</ele>
        <time>2012-11-18T09:17:28Z</time>
      </trkpt>
      <trkpt lat="43.23739" lon="5.95168">
        <ele>716</ele>
        <time>2012-11-18T09:17:33Z</time>
      </trkpt>
      <trkpt lat="43.23744" lon="5.95171">
        <ele>717</ele>
        <time>2012-11-18T09:17:36Z</time>
      </trkpt>
      <trkpt lat="43.23749" lon="5.95172">
        <ele>718</ele>
        <time>2012-11-18T09:17:39Z</time>
      </trkpt>
      <trkpt lat="43.23754" lon="5.95174">
        <ele>719</ele>
        <time>2012-11-18T09:17:42Z</time>
      </trkpt>
      <trkpt lat="43.23759" lon="5.95178">
        <ele>719</ele>
        <time>2012-11-18T09:17:47Z</time>
      </trkpt>
      <trkpt lat="43.23764" lon="5.95183">
        <ele>718</ele>
        <time>2012-11-18T09:17:52Z</time>
      </trkpt>
      <trkpt lat="43.23768" lon="5.9519">
        <ele>719</ele>
        <time>2012-11-18T09:17:59Z</time>
      </trkpt>
      <trkpt lat="43.23771" lon="5.95195">
        <ele>720</ele>
        <time>2012-11-18T09:18:03Z</time>
      </trkpt>
      <trkpt lat="43.23775" lon="5.952">
        <ele>721</ele>
        <time>2012-11-18T09:18:07Z</time>
      </trkpt>
      <trkpt lat="43.23779" lon="5.95205">
        <ele>722</ele>
        <time>2012-11-18T09:18:11Z</time>
      </trkpt>
      <trkpt lat="43.23783" lon="5.9521">
        <ele>722</ele>
        <time>2012-11-18T09:18:15Z</time>
      </trkpt>
      <trkpt lat="43.23787" lon="5.95215">
        <ele>723</ele>
        <time>2012-11-18T09:18:18Z</time>
      </trkpt>
      <trkpt lat="43.23792" lon="5.95219">
        <ele>724</ele>
        <time>2012-11-18T09:18:22Z</time>
      </trkpt>
      <trkpt lat="43.23796" lon="5.95223">
        <ele>725</ele>
        <time>2012-11-18T09:18:25Z</time>
      </trkpt>
      <trkpt lat="43.23801" lon="5.95223">
        <ele>725</ele>
        <time>2012-11-18T09:18:29Z</time>
      </trkpt>
      <trkpt lat="43.23805" lon="5.95225">
        <ele>726</ele>
        <time>2012-11-18T09:18:32Z</time>
      </trkpt>
      <trkpt lat="43.2381" lon="5.95226">
        <ele>727</ele>
        <time>2012-11-18T09:18:37Z</time>
      </trkpt>
      <trkpt lat="43.23815" lon="5.95229">
        <ele>729</ele>
        <time>2012-11-18T09:18:41Z</time>
      </trkpt>
      <trkpt lat="43.23819" lon="5.95231">
        <ele>729</ele>
        <time>2012-11-18T09:18:44Z</time>
      </trkpt>
      <trkpt lat="43.23826" lon="5.95233">
        <ele>729</ele>
        <time>2012-11-18T09:18:49Z</time>
      </trkpt>
      <trkpt lat="43.23835" lon="5.95236">
        <ele>731</ele>
        <time>2012-11-18T09:18:56Z</time>
      </trkpt>
      <trkpt lat="43.2384" lon="5.95239">
        <ele>733</ele>
        <time>2012-11-18T09:19:00Z</time>
      </trkpt>
      <trkpt lat="43.23845" lon="5.9524">
        <ele>733</ele>
        <time>2012-11-18T09:19:03Z</time>
      </trkpt>
      <trkpt lat="43.2385" lon="5.95241">
        <ele>734</ele>
        <time>2012-11-18T09:19:09Z</time>
      </trkpt>
      <trkpt lat="43.23859" lon="5.95247">
        <ele>736</ele>
        <time>2012-11-18T09:19:17Z</time>
      </trkpt>
      <trkpt lat="43.23868" lon="5.95252">
        <ele>739</ele>
        <time>2012-11-18T09:19:25Z</time>
      </trkpt>
      <trkpt lat="43.23877" lon="5.95258">
        <ele>741</ele>
        <time>2012-11-18T09:19:34Z</time>
      </trkpt>
      <trkpt lat="43.23885" lon="5.95265">
        <ele>741</ele>
        <time>2012-11-18T09:19:42Z</time>
      </trkpt>
      <trkpt lat="43.2389" lon="5.9527">
        <ele>742</ele>
        <time>2012-11-18T09:19:48Z</time>
      </trkpt>
      <trkpt lat="43.23894" lon="5.95274">
        <ele>742</ele>
        <time>2012-11-18T09:19:51Z</time>
      </trkpt>
      <trkpt lat="43.23902" lon="5.95278">
        <ele>744</ele>
        <time>2012-11-18T09:19:56Z</time>
      </trkpt>
      <trkpt lat="43.23906" lon="5.95282">
        <ele>744</ele>
        <time>2012-11-18T09:20:02Z</time>
      </trkpt>
      <trkpt lat="43.2391" lon="5.95286">
        <ele>744</ele>
        <time>2012-11-18T09:20:06Z</time>
      </trkpt>
      <trkpt lat="43.23915" lon="5.95288">
        <ele>744</ele>
        <time>2012-11-18T09:20:09Z</time>
      </trkpt>
      <trkpt lat="43.23919" lon="5.95291">
        <ele>746</ele>
        <time>2012-11-18T09:20:12Z</time>
      </trkpt>
      <trkpt lat="43.23922" lon="5.95295">
        <ele>747</ele>
        <time>2012-11-18T09:20:15Z</time>
      </trkpt>
      <trkpt lat="43.23926" lon="5.95301">
        <ele>749</ele>
        <time>2012-11-18T09:20:21Z</time>
      </trkpt>
      <trkpt lat="43.23928" lon="5.95303">
        <ele>749</ele>
        <time>2012-11-18T09:20:27Z</time>
      </trkpt>
      <trkpt lat="43.23931" lon="5.95304">
        <ele>748</ele>
        <time>2012-11-18T09:20:40Z</time>
      </trkpt>
      <trkpt lat="43.23937" lon="5.95307">
        <ele>746</ele>
        <time>2012-11-18T09:20:58Z</time>
      </trkpt>
      <trkpt lat="43.23938" lon="5.9531">
        <ele>746</ele>
        <time>2012-11-18T09:24:42Z</time>
      </trkpt>
      <trkpt lat="43.23939" lon="5.95313">
        <ele>746</ele>
        <time>2012-11-18T09:25:04Z</time>
      </trkpt>
      <trkpt lat="43.2394" lon="5.95321">
        <ele>746</ele>
        <time>2012-11-18T09:25:07Z</time>
      </trkpt>
      <trkpt lat="43.23938" lon="5.95338">
        <ele>746</ele>
        <time>2012-11-18T09:25:11Z</time>
      </trkpt>
      <trkpt lat="43.23936" lon="5.95352">
        <ele>746</ele>
        <time>2012-11-18T09:25:13Z</time>
      </trkpt>
      <trkpt lat="43.23936" lon="5.95368">
        <ele>746</ele>
        <time>2012-11-18T09:25:15Z</time>
      </trkpt>
      <trkpt lat="43.23937" lon="5.95384">
        <ele>746</ele>
        <time>2012-11-18T09:25:17Z</time>
      </trkpt>
      <trkpt lat="43.23937" lon="5.95402">
        <ele>745</ele>
        <time>2012-11-18T09:25:20Z</time>
      </trkpt>
      <trkpt lat="43.23936" lon="5.95415">
        <ele>745</ele>
        <time>2012-11-18T09:25:22Z</time>
      </trkpt>
      <trkpt lat="43.23936" lon="5.9543">
        <ele>743</ele>
        <time>2012-11-18T09:25:26Z</time>
      </trkpt>
      <trkpt lat="43.23934" lon="5.95442">
        <ele>742</ele>
        <time>2012-11-18T09:25:29Z</time>
      </trkpt>
      <trkpt lat="43.23934" lon="5.95455">
        <ele>741</ele>
        <time>2012-11-18T09:25:32Z</time>
      </trkpt>
      <trkpt lat="43.23935" lon="5.95469">
        <ele>741</ele>
        <time>2012-11-18T09:25:34Z</time>
      </trkpt>
      <trkpt lat="43.23935" lon="5.95482">
        <ele>740</ele>
        <time>2012-11-18T09:25:36Z</time>
      </trkpt>
      <trkpt lat="43.23934" lon="5.95496">
        <ele>739</ele>
        <time>2012-11-18T09:25:38Z</time>
      </trkpt>
      <trkpt lat="43.23932" lon="5.95509">
        <ele>736</ele>
        <time>2012-11-18T09:25:45Z</time>
      </trkpt>
      <trkpt lat="43.23936" lon="5.95525">
        <ele>735</ele>
        <time>2012-11-18T09:25:48Z</time>
      </trkpt>
      <trkpt lat="43.23936" lon="5.95541">
        <ele>732</ele>
        <time>2012-11-18T09:25:52Z</time>
      </trkpt>
      <trkpt lat="43.23941" lon="5.95558">
        <ele>730</ele>
        <time>2012-11-18T09:25:55Z</time>
      </trkpt>
      <trkpt lat="43.23951" lon="5.95567">
        <ele>729</ele>
        <time>2012-11-18T09:25:58Z</time>
      </trkpt>
      <trkpt lat="43.23957" lon="5.95571">
        <ele>728</ele>
        <time>2012-11-18T09:26:00Z</time>
      </trkpt>
      <trkpt lat="43.2396" lon="5.95578">
        <ele>727</ele>
        <time>2012-11-18T09:26:02Z</time>
      </trkpt>
      <trkpt lat="43.23962" lon="5.95586">
        <ele>726</ele>
        <time>2012-11-18T09:26:04Z</time>
      </trkpt>
      <trkpt lat="43.23964" lon="5.95595">
        <ele>724</ele>
        <time>2012-11-18T09:26:06Z</time>
      </trkpt>
      <trkpt lat="43.23967" lon="5.95609">
        <ele>723</ele>
        <time>2012-11-18T09:26:10Z</time>
      </trkpt>
      <trkpt lat="43.23966" lon="5.95616">
        <ele>721</ele>
        <time>2012-11-18T09:26:20Z</time>
      </trkpt>
      <trkpt lat="43.23968" lon="5.95625">
        <ele>720</ele>
        <time>2012-11-18T09:26:23Z</time>
      </trkpt>
      <trkpt lat="43.2397" lon="5.95631">
        <ele>720</ele>
        <time>2012-11-18T09:26:25Z</time>
      </trkpt>
      <trkpt lat="43.23974" lon="5.95637">
        <ele>718</ele>
        <time>2012-11-18T09:26:29Z</time>
      </trkpt>
      <trkpt lat="43.2397" lon="5.95637">
        <ele>717</ele>
        <time>2012-11-18T09:26:39Z</time>
      </trkpt>
      <trkpt lat="43.23967" lon="5.95637">
        <ele>718</ele>
        <time>2012-11-18T09:27:29Z</time>
      </trkpt>
      <trkpt lat="43.23965" lon="5.95651">
        <ele>716</ele>
        <time>2012-11-18T09:28:52Z</time>
      </trkpt>
      <trkpt lat="43.23963" lon="5.9567">
        <ele>716</ele>
        <time>2012-11-18T09:28:55Z</time>
      </trkpt>
      <trkpt lat="43.23959" lon="5.95683">
        <ele>715</ele>
        <time>2012-11-18T09:28:57Z</time>
      </trkpt>
      <trkpt lat="43.23958" lon="5.957">
        <ele>714</ele>
        <time>2012-11-18T09:29:00Z</time>
      </trkpt>
      <trkpt lat="43.23956" lon="5.95712">
        <ele>713</ele>
        <time>2012-11-18T09:29:02Z</time>
      </trkpt>
      <trkpt lat="43.23956" lon="5.95719">
        <ele>713</ele>
        <time>2012-11-18T09:29:03Z</time>
      </trkpt>
      <trkpt lat="43.23954" lon="5.95731">
        <ele>711</ele>
        <time>2012-11-18T09:29:10Z</time>
      </trkpt>
      <trkpt lat="43.23953" lon="5.95738">
        <ele>712</ele>
        <time>2012-11-18T09:29:15Z</time>
      </trkpt>
      <trkpt lat="43.23954" lon="5.95746">
        <ele>712</ele>
        <time>2012-11-18T09:29:19Z</time>
      </trkpt>
      <trkpt lat="43.23954" lon="5.95754">
        <ele>713</ele>
        <time>2012-11-18T09:29:22Z</time>
      </trkpt>
      <trkpt lat="43.23955" lon="5.95762">
        <ele>714</ele>
        <time>2012-11-18T09:29:24Z</time>
      </trkpt>
      <trkpt lat="43.23955" lon="5.95773">
        <ele>714</ele>
        <time>2012-11-18T09:29:27Z</time>
      </trkpt>
      <trkpt lat="43.23957" lon="5.9578">
        <ele>715</ele>
        <time>2012-11-18T09:29:29Z</time>
      </trkpt>
      <trkpt lat="43.23958" lon="5.95787">
        <ele>715</ele>
        <time>2012-11-18T09:29:31Z</time>
      </trkpt>
      <trkpt lat="43.23958" lon="5.95795">
        <ele>716</ele>
        <time>2012-11-18T09:29:34Z</time>
      </trkpt>
      <trkpt lat="43.23954" lon="5.95806">
        <ele>716</ele>
        <time>2012-11-18T09:29:39Z</time>
      </trkpt>
      <trkpt lat="43.23951" lon="5.95812">
        <ele>716</ele>
        <time>2012-11-18T09:29:41Z</time>
      </trkpt>
      <trkpt lat="43.23947" lon="5.95817">
        <ele>716</ele>
        <time>2012-11-18T09:29:48Z</time>
      </trkpt>
      <trkpt lat="43.23946" lon="5.95824">
        <ele>716</ele>
        <time>2012-11-18T09:29:58Z</time>
      </trkpt>
      <trkpt lat="43.23941" lon="5.95829">
        <ele>715</ele>
        <time>2012-11-18T09:30:03Z</time>
      </trkpt>
      <trkpt lat="43.23935" lon="5.95838">
        <ele>714</ele>
        <time>2012-11-18T09:30:07Z</time>
      </trkpt>
      <trkpt lat="43.23935" lon="5.95844">
        <ele>715</ele>
        <time>2012-11-18T09:30:17Z</time>
      </trkpt>
      <trkpt lat="43.23936" lon="5.95853">
        <ele>717</ele>
        <time>2012-11-18T09:30:29Z</time>
      </trkpt>
      <trkpt lat="43.23937" lon="5.95859">
        <ele>717</ele>
        <time>2012-11-18T09:30:33Z</time>
      </trkpt>
      <trkpt lat="43.23936" lon="5.95863">
        <ele>718</ele>
        <time>2012-11-18T09:30:40Z</time>
      </trkpt>
      <trkpt lat="43.23936" lon="5.95867">
        <ele>714</ele>
        <time>2012-11-18T09:31:35Z</time>
      </trkpt>
      <trkpt lat="43.23934" lon="5.9587">
        <ele>714</ele>
        <time>2012-11-18T09:31:45Z</time>
      </trkpt>
      <trkpt lat="43.23933" lon="5.95875">
        <ele>709</ele>
        <time>2012-11-18T09:31:57Z</time>
      </trkpt>
      <trkpt lat="43.23934" lon="5.9588">
        <ele>709</ele>
        <time>2012-11-18T09:32:08Z</time>
      </trkpt>
      <trkpt lat="43.23939" lon="5.95881">
        <ele>709</ele>
        <time>2012-11-18T09:32:31Z</time>
      </trkpt>
      <trkpt lat="43.23937" lon="5.95883">
        <ele>708</ele>
        <time>2012-11-18T09:33:10Z</time>
      </trkpt>
      <trkpt lat="43.2393" lon="5.95893">
        <ele>706</ele>
        <time>2012-11-18T09:33:15Z</time>
      </trkpt>
      <trkpt lat="43.23931" lon="5.959">
        <ele>705</ele>
        <time>2012-11-18T09:33:18Z</time>
      </trkpt>
      <trkpt lat="43.23934" lon="5.95898">
        <ele>701</ele>
        <time>2012-11-18T09:33:47Z</time>
      </trkpt>
      <trkpt lat="43.23931" lon="5.95891">
        <ele>700</ele>
        <time>2012-11-18T09:34:02Z</time>
      </trkpt>
      <trkpt lat="43.23933" lon="5.95887">
        <ele>701</ele>
        <time>2012-11-18T09:34:14Z</time>
      </trkpt>
      <trkpt lat="43.23937" lon="5.95885">
        <ele>704</ele>
        <time>2012-11-18T09:34:26Z</time>
      </trkpt>
      <trkpt lat="43.23937" lon="5.95881">
        <ele>704</ele>
        <time>2012-11-18T09:34:37Z</time>
      </trkpt>
      <trkpt lat="43.23935" lon="5.95879">
        <ele>704</ele>
        <time>2012-11-18T09:34:43Z</time>
      </trkpt>
      <trkpt lat="43.23933" lon="5.95873">
        <ele>704</ele>
        <time>2012-11-18T09:34:53Z</time>
      </trkpt>
      <trkpt lat="43.23934" lon="5.95865">
        <ele>707</ele>
        <time>2012-11-18T09:35:38Z</time>
      </trkpt>
      <trkpt lat="43.23935" lon="5.95862">
        <ele>709</ele>
        <time>2012-11-18T09:35:55Z</time>
      </trkpt>
      <trkpt lat="43.23934" lon="5.95856">
        <ele>710</ele>
        <time>2012-11-18T09:36:03Z</time>
      </trkpt>
      <trkpt lat="43.23935" lon="5.95852">
        <ele>711</ele>
        <time>2012-11-18T09:36:14Z</time>
      </trkpt>
      <trkpt lat="43.23934" lon="5.95848">
        <ele>711</ele>
        <time>2012-11-18T09:36:31Z</time>
      </trkpt>
      <trkpt lat="43.23937" lon="5.95836">
        <ele>712</ele>
        <time>2012-11-18T09:36:39Z</time>
      </trkpt>
      <trkpt lat="43.23945" lon="5.9583">
        <ele>713</ele>
        <time>2012-11-18T09:36:45Z</time>
      </trkpt>
      <trkpt lat="43.23947" lon="5.95823">
        <ele>713</ele>
        <time>2012-11-18T09:36:49Z</time>
      </trkpt>
      <trkpt lat="43.23945" lon="5.95817">
        <ele>712</ele>
        <time>2012-11-18T09:36:54Z</time>
      </trkpt>
      <trkpt lat="43.23952" lon="5.95806">
        <ele>713</ele>
        <time>2012-11-18T09:37:06Z</time>
      </trkpt>
      <trkpt lat="43.23955" lon="5.95797">
        <ele>714</ele>
        <time>2012-11-18T09:37:11Z</time>
      </trkpt>
      <trkpt lat="43.23955" lon="5.95784">
        <ele>713</ele>
        <time>2012-11-18T09:37:15Z</time>
      </trkpt>
      <trkpt lat="43.23954" lon="5.95776">
        <ele>712</ele>
        <time>2012-11-18T09:37:18Z</time>
      </trkpt>
      <trkpt lat="43.23954" lon="5.95762">
        <ele>711</ele>
        <time>2012-11-18T09:37:23Z</time>
      </trkpt>
      <trkpt lat="43.23954" lon="5.95749">
        <ele>710</ele>
        <time>2012-11-18T09:37:30Z</time>
      </trkpt>
      <trkpt lat="43.23951" lon="5.95736">
        <ele>709</ele>
        <time>2012-11-18T09:37:42Z</time>
      </trkpt>
      <trkpt lat="43.23949" lon="5.9573">
        <ele>709</ele>
        <time>2012-11-18T09:37:50Z</time>
      </trkpt>
      <trkpt lat="43.23942" lon="5.95731">
        <ele>709</ele>
        <time>2012-11-18T09:38:06Z</time>
      </trkpt>
      <trkpt lat="43.23938" lon="5.95743">
        <ele>715</ele>
        <time>2012-11-18T09:38:17Z</time>
      </trkpt>
      <trkpt lat="43.23932" lon="5.95747">
        <ele>719</ele>
        <time>2012-11-18T09:38:35Z</time>
      </trkpt>
      <trkpt lat="43.23928" lon="5.9575">
        <ele>720</ele>
        <time>2012-11-18T09:38:43Z</time>
      </trkpt>
      <trkpt lat="43.23921" lon="5.95761">
        <ele>719</ele>
        <time>2012-11-18T09:38:53Z</time>
      </trkpt>
      <trkpt lat="43.23913" lon="5.95766">
        <ele>719</ele>
        <time>2012-11-18T09:39:00Z</time>
      </trkpt>
      <trkpt lat="43.23904" lon="5.95766">
        <ele>720</ele>
        <time>2012-11-18T09:39:06Z</time>
      </trkpt>
      <trkpt lat="43.23895" lon="5.95762">
        <ele>720</ele>
        <time>2012-11-18T09:39:18Z</time>
      </trkpt>
      <trkpt lat="43.23892" lon="5.95761">
        <ele>720</ele>
        <time>2012-11-18T09:39:29Z</time>
      </trkpt>
      <trkpt lat="43.23888" lon="5.95762">
        <ele>720</ele>
        <time>2012-11-18T09:39:35Z</time>
      </trkpt>
      <trkpt lat="43.23876" lon="5.95755">
        <ele>724</ele>
        <time>2012-11-18T09:39:52Z</time>
      </trkpt>
      <trkpt lat="43.23867" lon="5.95747">
        <ele>724</ele>
        <time>2012-11-18T09:39:56Z</time>
      </trkpt>
      <trkpt lat="43.23859" lon="5.9574">
        <ele>725</ele>
        <time>2012-11-18T09:39:59Z</time>
      </trkpt>
      <trkpt lat="43.23846" lon="5.95733">
        <ele>725</ele>
        <time>2012-11-18T09:40:02Z</time>
      </trkpt>
      <trkpt lat="43.23837" lon="5.95728">
        <ele>726</ele>
        <time>2012-11-18T09:40:07Z</time>
      </trkpt>
      <trkpt lat="43.23825" lon="5.95732">
        <ele>725</ele>
        <time>2012-11-18T09:40:14Z</time>
      </trkpt>
      <trkpt lat="43.23816" lon="5.95739">
        <ele>725</ele>
        <time>2012-11-18T09:40:18Z</time>
      </trkpt>
      <trkpt lat="43.23808" lon="5.95747">
        <ele>723</ele>
        <time>2012-11-18T09:40:23Z</time>
      </trkpt>
      <trkpt lat="43.238" lon="5.95756">
        <ele>722</ele>
        <time>2012-11-18T09:40:29Z</time>
      </trkpt>
      <trkpt lat="43.23793" lon="5.95765">
        <ele>721</ele>
        <time>2012-11-18T09:40:35Z</time>
      </trkpt>
      <trkpt lat="43.23785" lon="5.95774">
        <ele>721</ele>
        <time>2012-11-18T09:40:42Z</time>
      </trkpt>
      <trkpt lat="43.23777" lon="5.95783">
        <ele>720</ele>
        <time>2012-11-18T09:40:47Z</time>
      </trkpt>
      <trkpt lat="43.23768" lon="5.95787">
        <ele>719</ele>
        <time>2012-11-18T09:40:52Z</time>
      </trkpt>
      <trkpt lat="43.23761" lon="5.95796">
        <ele>719</ele>
        <time>2012-11-18T09:40:59Z</time>
      </trkpt>
      <trkpt lat="43.2375" lon="5.95796">
        <ele>720</ele>
        <time>2012-11-18T09:41:05Z</time>
      </trkpt>
      <trkpt lat="43.23739" lon="5.95795">
        <ele>721</ele>
        <time>2012-11-18T09:41:08Z</time>
      </trkpt>
      <trkpt lat="43.23727" lon="5.95797">
        <ele>722</ele>
        <time>2012-11-18T09:41:11Z</time>
      </trkpt>
      <trkpt lat="43.23717" lon="5.95797">
        <ele>723</ele>
        <time>2012-11-18T09:41:14Z</time>
      </trkpt>
      <trkpt lat="43.23709" lon="5.95802">
        <ele>724</ele>
        <time>2012-11-18T09:41:17Z</time>
      </trkpt>
      <trkpt lat="43.237" lon="5.95809">
        <ele>724</ele>
        <time>2012-11-18T09:41:20Z</time>
      </trkpt>
      <trkpt lat="43.23692" lon="5.95812">
        <ele>724</ele>
        <time>2012-11-18T09:41:23Z</time>
      </trkpt>
      <trkpt lat="43.2368" lon="5.95817">
        <ele>724</ele>
        <time>2012-11-18T09:41:27Z</time>
      </trkpt>
      <trkpt lat="43.23669" lon="5.95819">
        <ele>724</ele>
        <time>2012-11-18T09:41:30Z</time>
      </trkpt>
      <trkpt lat="43.23663" lon="5.95822">
        <ele>723</ele>
        <time>2012-11-18T09:41:32Z</time>
      </trkpt>
      <trkpt lat="43.23655" lon="5.95831">
        <ele>723</ele>
        <time>2012-11-18T09:41:36Z</time>
      </trkpt>
      <trkpt lat="43.23658" lon="5.95844">
        <ele>721</ele>
        <time>2012-11-18T09:41:42Z</time>
      </trkpt>
      <trkpt lat="43.23666" lon="5.95851">
        <ele>719</ele>
        <time>2012-11-18T09:41:50Z</time>
      </trkpt>
      <trkpt lat="43.23671" lon="5.95864">
        <ele>717</ele>
        <time>2012-11-18T09:42:01Z</time>
      </trkpt>
      <trkpt lat="43.23673" lon="5.95872">
        <ele>717</ele>
        <time>2012-11-18T09:42:04Z</time>
      </trkpt>
      <trkpt lat="43.23674" lon="5.95878">
        <ele>718</ele>
        <time>2012-11-18T09:42:08Z</time>
      </trkpt>
      <trkpt lat="43.23676" lon="5.9589">
        <ele>718</ele>
        <time>2012-11-18T09:42:16Z</time>
      </trkpt>
      <trkpt lat="43.23682" lon="5.95903">
        <ele>718</ele>
        <time>2012-11-18T09:42:23Z</time>
      </trkpt>
      <trkpt lat="43.23687" lon="5.95914">
        <ele>720</ele>
        <time>2012-11-18T09:42:30Z</time>
      </trkpt>
      <trkpt lat="43.23692" lon="5.95928">
        <ele>719</ele>
        <time>2012-11-18T09:42:37Z</time>
      </trkpt>
      <trkpt lat="43.23698" lon="5.95937">
        <ele>719</ele>
        <time>2012-11-18T09:42:44Z</time>
      </trkpt>
      <trkpt lat="43.23702" lon="5.95945">
        <ele>717</ele>
        <time>2012-11-18T09:42:51Z</time>
      </trkpt>
      <trkpt lat="43.23707" lon="5.95956">
        <ele>718</ele>
        <time>2012-11-18T09:42:57Z</time>
      </trkpt>
      <trkpt lat="43.23709" lon="5.95967">
        <ele>717</ele>
        <time>2012-11-18T09:43:22Z</time>
      </trkpt>
      <trkpt lat="43.23714" lon="5.95972">
        <ele>721</ele>
        <time>2012-11-18T09:44:00Z</time>
      </trkpt>
      <trkpt lat="43.23718" lon="5.95979">
        <ele>727</ele>
        <time>2012-11-18T09:44:30Z</time>
      </trkpt>
      <trkpt lat="43.23723" lon="5.95991">
        <ele>728</ele>
        <time>2012-11-18T09:44:37Z</time>
      </trkpt>
      <trkpt lat="43.23729" lon="5.96003">
        <ele>728</ele>
        <time>2012-11-18T09:44:40Z</time>
      </trkpt>
      <trkpt lat="43.23736" lon="5.96015">
        <ele>728</ele>
        <time>2012-11-18T09:44:42Z</time>
      </trkpt>
      <trkpt lat="43.2374" lon="5.96028">
        <ele>727</ele>
        <time>2012-11-18T09:44:44Z</time>
      </trkpt>
      <trkpt lat="43.23746" lon="5.96038">
        <ele>726</ele>
        <time>2012-11-18T09:44:46Z</time>
      </trkpt>
      <trkpt lat="43.23748" lon="5.96057">
        <ele>724</ele>
        <time>2012-11-18T09:44:49Z</time>
      </trkpt>
      <trkpt lat="43.23751" lon="5.9607">
        <ele>723</ele>
        <time>2012-11-18T09:44:51Z</time>
      </trkpt>
      <trkpt lat="43.23758" lon="5.96082">
        <ele>721</ele>
        <time>2012-11-18T09:44:55Z</time>
      </trkpt>
      <trkpt lat="43.23763" lon="5.96094">
        <ele>718</ele>
        <time>2012-11-18T09:44:58Z</time>
      </trkpt>
      <trkpt lat="43.23767" lon="5.96106">
        <ele>717</ele>
        <time>2012-11-18T09:45:00Z</time>
      </trkpt>
      <trkpt lat="43.23772" lon="5.96117">
        <ele>715</ele>
        <time>2012-11-18T09:45:02Z</time>
      </trkpt>
      <trkpt lat="43.23779" lon="5.96128">
        <ele>714</ele>
        <time>2012-11-18T09:45:04Z</time>
      </trkpt>
      <trkpt lat="43.23784" lon="5.9614">
        <ele>711</ele>
        <time>2012-11-18T09:45:06Z</time>
      </trkpt>
      <trkpt lat="43.2379" lon="5.96152">
        <ele>708</ele>
        <time>2012-11-18T09:45:08Z</time>
      </trkpt>
      <trkpt lat="43.23796" lon="5.96167">
        <ele>704</ele>
        <time>2012-11-18T09:45:11Z</time>
      </trkpt>
      <trkpt lat="43.238" lon="5.9618">
        <ele>702</ele>
        <time>2012-11-18T09:45:13Z</time>
      </trkpt>
      <trkpt lat="43.23802" lon="5.96193">
        <ele>700</ele>
        <time>2012-11-18T09:45:15Z</time>
      </trkpt>
      <trkpt lat="43.23808" lon="5.96205">
        <ele>697</ele>
        <time>2012-11-18T09:45:18Z</time>
      </trkpt>
      <trkpt lat="43.23814" lon="5.96214">
        <ele>695</ele>
        <time>2012-11-18T09:45:20Z</time>
      </trkpt>
      <trkpt lat="43.23822" lon="5.9622">
        <ele>694</ele>
        <time>2012-11-18T09:45:22Z</time>
      </trkpt>
      <trkpt lat="43.23828" lon="5.96229">
        <ele>693</ele>
        <time>2012-11-18T09:45:24Z</time>
      </trkpt>
      <trkpt lat="43.23839" lon="5.9624">
        <ele>690</ele>
        <time>2012-11-18T09:45:28Z</time>
      </trkpt>
      <trkpt lat="43.2385" lon="5.96251">
        <ele>689</ele>
        <time>2012-11-18T09:45:31Z</time>
      </trkpt>
      <trkpt lat="43.23857" lon="5.96263">
        <ele>686</ele>
        <time>2012-11-18T09:45:34Z</time>
      </trkpt>
      <trkpt lat="43.23865" lon="5.96273">
        <ele>684</ele>
        <time>2012-11-18T09:45:37Z</time>
      </trkpt>
      <trkpt lat="43.23874" lon="5.96277">
        <ele>682</ele>
        <time>2012-11-18T09:45:40Z</time>
      </trkpt>
      <trkpt lat="43.23883" lon="5.96283">
        <ele>680</ele>
        <time>2012-11-18T09:45:43Z</time>
      </trkpt>
      <trkpt lat="43.23892" lon="5.96289">
        <ele>678</ele>
        <time>2012-11-18T09:45:46Z</time>
      </trkpt>
      <trkpt lat="43.23897" lon="5.96302">
        <ele>677</ele>
        <time>2012-11-18T09:45:49Z</time>
      </trkpt>
      <trkpt lat="43.23903" lon="5.96313">
        <ele>675</ele>
        <time>2012-11-18T09:45:53Z</time>
      </trkpt>
      <trkpt lat="43.23908" lon="5.96325">
        <ele>673</ele>
        <time>2012-11-18T09:45:56Z</time>
      </trkpt>
      <trkpt lat="43.2391" lon="5.96337">
        <ele>671</ele>
        <time>2012-11-18T09:45:58Z</time>
      </trkpt>
      <trkpt lat="43.23913" lon="5.96351">
        <ele>669</ele>
        <time>2012-11-18T09:46:00Z</time>
      </trkpt>
      <trkpt lat="43.23917" lon="5.96365">
        <ele>665</ele>
        <time>2012-11-18T09:46:04Z</time>
      </trkpt>
      <trkpt lat="43.23922" lon="5.96376">
        <ele>660</ele>
        <time>2012-11-18T09:46:08Z</time>
      </trkpt>
      <trkpt lat="43.23922" lon="5.96391">
        <ele>657</ele>
        <time>2012-11-18T09:46:11Z</time>
      </trkpt>
      <trkpt lat="43.23929" lon="5.964">
        <ele>654</ele>
        <time>2012-11-18T09:46:14Z</time>
      </trkpt>
      <trkpt lat="43.23937" lon="5.96413">
        <ele>652</ele>
        <time>2012-11-18T09:46:17Z</time>
      </trkpt>
      <trkpt lat="43.23944" lon="5.96428">
        <ele>650</ele>
        <time>2012-11-18T09:46:20Z</time>
      </trkpt>
      <trkpt lat="43.23945" lon="5.96441">
        <ele>648</ele>
        <time>2012-11-18T09:46:22Z</time>
      </trkpt>
      <trkpt lat="43.23945" lon="5.96453">
        <ele>646</ele>
        <time>2012-11-18T09:46:24Z</time>
      </trkpt>
      <trkpt lat="43.23942" lon="5.96471">
        <ele>643</ele>
        <time>2012-11-18T09:46:27Z</time>
      </trkpt>
      <trkpt lat="43.2394" lon="5.96478">
        <ele>639</ele>
        <time>2012-11-18T09:46:38Z</time>
      </trkpt>
      <trkpt lat="43.23941" lon="5.96481">
        <ele>634</ele>
        <time>2012-11-18T09:47:22Z</time>
      </trkpt>
      <trkpt lat="43.23933" lon="5.96495">
        <ele>634</ele>
        <time>2012-11-18T09:48:39Z</time>
      </trkpt>
      <trkpt lat="43.23936" lon="5.96507">
        <ele>633</ele>
        <time>2012-11-18T09:48:41Z</time>
      </trkpt>
      <trkpt lat="43.23941" lon="5.96517">
        <ele>631</ele>
        <time>2012-11-18T09:48:44Z</time>
      </trkpt>
      <trkpt lat="43.23948" lon="5.9653">
        <ele>629</ele>
        <time>2012-11-18T09:48:48Z</time>
      </trkpt>
      <trkpt lat="43.23949" lon="5.96542">
        <ele>625</ele>
        <time>2012-11-18T09:48:54Z</time>
      </trkpt>
      <trkpt lat="43.23955" lon="5.96553">
        <ele>623</ele>
        <time>2012-11-18T09:49:01Z</time>
      </trkpt>
      <trkpt lat="43.23961" lon="5.96565">
        <ele>617</ele>
        <time>2012-11-18T09:49:16Z</time>
      </trkpt>
      <trkpt lat="43.23968" lon="5.96576">
        <ele>615</ele>
        <time>2012-11-18T09:49:21Z</time>
      </trkpt>
      <trkpt lat="43.23975" lon="5.96586">
        <ele>614</ele>
        <time>2012-11-18T09:49:24Z</time>
      </trkpt>
      <trkpt lat="43.23982" lon="5.96598">
        <ele>612</ele>
        <time>2012-11-18T09:49:28Z</time>
      </trkpt>
      <trkpt lat="43.23987" lon="5.96609">
        <ele>612</ele>
        <time>2012-11-18T09:49:31Z</time>
      </trkpt>
      <trkpt lat="43.23992" lon="5.96622">
        <ele>611</ele>
        <time>2012-11-18T09:49:34Z</time>
      </trkpt>
      <trkpt lat="43.23995" lon="5.96634">
        <ele>610</ele>
        <time>2012-11-18T09:49:38Z</time>
      </trkpt>
      <trkpt lat="43.24006" lon="5.9664">
        <ele>609</ele>
        <time>2012-11-18T09:49:49Z</time>
      </trkpt>
      <trkpt lat="43.24016" lon="5.96641">
        <ele>608</ele>
        <time>2012-11-18T09:49:52Z</time>
      </trkpt>
      <trkpt lat="43.24025" lon="5.96644">
        <ele>608</ele>
        <time>2012-11-18T09:49:55Z</time>
      </trkpt>
      <trkpt lat="43.24033" lon="5.96652">
        <ele>608</ele>
        <time>2012-11-18T09:49:59Z</time>
      </trkpt>
      <trkpt lat="43.24034" lon="5.96654">
        <ele>596</ele>
        <time>2012-11-18T09:50:38Z</time>
      </trkpt>
      <trkpt lat="43.24029" lon="5.96659">
        <ele>594</ele>
        <time>2012-11-18T09:52:08Z</time>
      </trkpt>
      <trkpt lat="43.24028" lon="5.96666">
        <ele>594</ele>
        <time>2012-11-18T09:52:14Z</time>
      </trkpt>
      <trkpt lat="43.24028" lon="5.96673">
        <ele>595</ele>
        <time>2012-11-18T09:52:17Z</time>
      </trkpt>
      <trkpt lat="43.24027" lon="5.9668">
        <ele>596</ele>
        <time>2012-11-18T09:52:19Z</time>
      </trkpt>
      <trkpt lat="43.2403" lon="5.96697">
        <ele>596</ele>
        <time>2012-11-18T09:52:22Z</time>
      </trkpt>
      <trkpt lat="43.24039" lon="5.967">
        <ele>595</ele>
        <time>2012-11-18T09:52:28Z</time>
      </trkpt>
      <trkpt lat="43.24043" lon="5.96707">
        <ele>594</ele>
        <time>2012-11-18T09:52:31Z</time>
      </trkpt>
      <trkpt lat="43.24051" lon="5.96714">
        <ele>593</ele>
        <time>2012-11-18T09:52:36Z</time>
      </trkpt>
      <trkpt lat="43.24063" lon="5.96716">
        <ele>592</ele>
        <time>2012-11-18T09:52:39Z</time>
      </trkpt>
      <trkpt lat="43.24064" lon="5.96712">
        <ele>580</ele>
        <time>2012-11-18T09:54:40Z</time>
      </trkpt>
      <trkpt lat="43.24067" lon="5.96697">
        <ele>580</ele>
        <time>2012-11-18T09:54:44Z</time>
      </trkpt>
      <trkpt lat="43.24071" lon="5.96685">
        <ele>579</ele>
        <time>2012-11-18T09:54:46Z</time>
      </trkpt>
      <trkpt lat="43.24078" lon="5.96674">
        <ele>578</ele>
        <time>2012-11-18T09:54:50Z</time>
      </trkpt>
      <trkpt lat="43.24087" lon="5.96666">
        <ele>579</ele>
        <time>2012-11-18T09:54:54Z</time>
      </trkpt>
      <trkpt lat="43.24085" lon="5.96659">
        <ele>579</ele>
        <time>2012-11-18T09:55:00Z</time>
      </trkpt>
      <trkpt lat="43.24089" lon="5.96652">
        <ele>580</ele>
        <time>2012-11-18T09:55:05Z</time>
      </trkpt>
      <trkpt lat="43.24093" lon="5.96648">
        <ele>581</ele>
        <time>2012-11-18T09:55:08Z</time>
      </trkpt>
      <trkpt lat="43.24096" lon="5.96641">
        <ele>581</ele>
        <time>2012-11-18T09:55:11Z</time>
      </trkpt>
      <trkpt lat="43.24101" lon="5.96629">
        <ele>579</ele>
        <time>2012-11-18T09:55:15Z</time>
      </trkpt>
      <trkpt lat="43.24104" lon="5.96621">
        <ele>579</ele>
        <time>2012-11-18T09:55:18Z</time>
      </trkpt>
      <trkpt lat="43.24107" lon="5.96614">
        <ele>581</ele>
        <time>2012-11-18T09:55:21Z</time>
      </trkpt>
      <trkpt lat="43.24112" lon="5.96611">
        <ele>582</ele>
        <time>2012-11-18T09:55:23Z</time>
      </trkpt>
      <trkpt lat="43.24115" lon="5.96606">
        <ele>583</ele>
        <time>2012-11-18T09:55:25Z</time>
      </trkpt>
      <trkpt lat="43.24118" lon="5.96598">
        <ele>584</ele>
        <time>2012-11-18T09:55:27Z</time>
      </trkpt>
      <trkpt lat="43.2412" lon="5.96592">
        <ele>585</ele>
        <time>2012-11-18T09:55:29Z</time>
      </trkpt>
      <trkpt lat="43.24122" lon="5.96586">
        <ele>585</ele>
        <time>2012-11-18T09:55:31Z</time>
      </trkpt>
      <trkpt lat="43.24124" lon="5.96578">
        <ele>586</ele>
        <time>2012-11-18T09:55:33Z</time>
      </trkpt>
      <trkpt lat="43.24127" lon="5.9657">
        <ele>587</ele>
        <time>2012-11-18T09:55:35Z</time>
      </trkpt>
      <trkpt lat="43.24128" lon="5.96561">
        <ele>588</ele>
        <time>2012-11-18T09:55:37Z</time>
      </trkpt>
      <trkpt lat="43.24129" lon="5.96554">
        <ele>588</ele>
        <time>2012-11-18T09:55:39Z</time>
      </trkpt>
      <trkpt lat="43.24131" lon="5.96546">
        <ele>588</ele>
        <time>2012-11-18T09:55:41Z</time>
      </trkpt>
      <trkpt lat="43.24133" lon="5.96538">
        <ele>588</ele>
        <time>2012-11-18T09:55:43Z</time>
      </trkpt>
      <trkpt lat="43.24133" lon="5.96531">
        <ele>587</ele>
        <time>2012-11-18T09:55:45Z</time>
      </trkpt>
      <trkpt lat="43.24135" lon="5.96524">
        <ele>585</ele>
        <time>2012-11-18T09:55:48Z</time>
      </trkpt>
      <trkpt lat="43.24139" lon="5.96512">
        <ele>584</ele>
        <time>2012-11-18T09:55:51Z</time>
      </trkpt>
      <trkpt lat="43.24143" lon="5.96499">
        <ele>583</ele>
        <time>2012-11-18T09:55:54Z</time>
      </trkpt>
      <trkpt lat="43.24145" lon="5.9649">
        <ele>583</ele>
        <time>2012-11-18T09:55:56Z</time>
      </trkpt>
      <trkpt lat="43.24149" lon="5.96481">
        <ele>583</ele>
        <time>2012-11-18T09:55:58Z</time>
      </trkpt>
      <trkpt lat="43.24153" lon="5.96469">
        <ele>583</ele>
        <time>2012-11-18T09:56:00Z</time>
      </trkpt>
      <trkpt lat="43.24155" lon="5.96457">
        <ele>582</ele>
        <time>2012-11-18T09:56:02Z</time>
      </trkpt>
      <trkpt lat="43.24156" lon="5.96445">
        <ele>582</ele>
        <time>2012-11-18T09:56:04Z</time>
      </trkpt>
      <trkpt lat="43.24157" lon="5.96439">
        <ele>581</ele>
        <time>2012-11-18T09:56:05Z</time>
      </trkpt>
      <trkpt lat="43.24158" lon="5.96432">
        <ele>581</ele>
        <time>2012-11-18T09:56:06Z</time>
      </trkpt>
      <trkpt lat="43.24162" lon="5.96415">
        <ele>580</ele>
        <time>2012-11-18T09:56:09Z</time>
      </trkpt>
      <trkpt lat="43.24164" lon="5.964">
        <ele>580</ele>
        <time>2012-11-18T09:56:11Z</time>
      </trkpt>
      <trkpt lat="43.24164" lon="5.96393">
        <ele>580</ele>
        <time>2012-11-18T09:56:12Z</time>
      </trkpt>
      <trkpt lat="43.24165" lon="5.96386">
        <ele>580</ele>
        <time>2012-11-18T09:56:13Z</time>
      </trkpt>
      <trkpt lat="43.24164" lon="5.9637">
        <ele>580</ele>
        <time>2012-11-18T09:56:15Z</time>
      </trkpt>
      <trkpt lat="43.24165" lon="5.96353">
        <ele>580</ele>
        <time>2012-11-18T09:56:17Z</time>
      </trkpt>
      <trkpt lat="43.24165" lon="5.96346">
        <ele>579</ele>
        <time>2012-11-18T09:56:18Z</time>
      </trkpt>
      <trkpt lat="43.24165" lon="5.96339">
        <ele>579</ele>
        <time>2012-11-18T09:56:19Z</time>
      </trkpt>
      <trkpt lat="43.24164" lon="5.96326">
        <ele>579</ele>
        <time>2012-11-18T09:56:21Z</time>
      </trkpt>
      <trkpt lat="43.24164" lon="5.96319">
        <ele>579</ele>
        <time>2012-11-18T09:56:22Z</time>
      </trkpt>
      <trkpt lat="43.24163" lon="5.9631">
        <ele>578</ele>
        <time>2012-11-18T09:56:24Z</time>
      </trkpt>
      <trkpt lat="43.24164" lon="5.963">
        <ele>577</ele>
        <time>2012-11-18T09:56:26Z</time>
      </trkpt>
      <trkpt lat="43.24165" lon="5.96288">
        <ele>576</ele>
        <time>2012-11-18T09:56:28Z</time>
      </trkpt>
      <trkpt lat="43.24165" lon="5.9627">
        <ele>574</ele>
        <time>2012-11-18T09:56:31Z</time>
      </trkpt>
      <trkpt lat="43.24167" lon="5.96258">
        <ele>574</ele>
        <time>2012-11-18T09:56:33Z</time>
      </trkpt>
      <trkpt lat="43.24169" lon="5.9624">
        <ele>573</ele>
        <time>2012-11-18T09:56:36Z</time>
      </trkpt>
      <trkpt lat="43.24176" lon="5.96224">
        <ele>573</ele>
        <time>2012-11-18T09:56:39Z</time>
      </trkpt>
      <trkpt lat="43.24182" lon="5.96213">
        <ele>574</ele>
        <time>2012-11-18T09:56:41Z</time>
      </trkpt>
      <trkpt lat="43.24186" lon="5.96205">
        <ele>574</ele>
        <time>2012-11-18T09:56:43Z</time>
      </trkpt>
      <trkpt lat="43.24187" lon="5.96197">
        <ele>574</ele>
        <time>2012-11-18T09:56:46Z</time>
      </trkpt>
      <trkpt lat="43.24185" lon="5.96189">
        <ele>575</ele>
        <time>2012-11-18T09:56:49Z</time>
      </trkpt>
      <trkpt lat="43.24185" lon="5.9618">
        <ele>576</ele>
        <time>2012-11-18T09:56:52Z</time>
      </trkpt>
      <trkpt lat="43.24184" lon="5.96172">
        <ele>577</ele>
        <time>2012-11-18T09:56:55Z</time>
      </trkpt>
      <trkpt lat="43.24184" lon="5.96163">
        <ele>578</ele>
        <time>2012-11-18T09:56:58Z</time>
      </trkpt>
      <trkpt lat="43.24183" lon="5.96156">
        <ele>578</ele>
        <time>2012-11-18T09:57:00Z</time>
      </trkpt>
      <trkpt lat="43.24182" lon="5.96148">
        <ele>579</ele>
        <time>2012-11-18T09:57:02Z</time>
      </trkpt>
      <trkpt lat="43.24186" lon="5.96138">
        <ele>579</ele>
        <time>2012-11-18T09:57:04Z</time>
      </trkpt>
      <trkpt lat="43.2419" lon="5.96134">
        <ele>579</ele>
        <time>2012-11-18T09:57:05Z</time>
      </trkpt>
      <trkpt lat="43.24199" lon="5.96126">
        <ele>580</ele>
        <time>2012-11-18T09:57:07Z</time>
      </trkpt>
      <trkpt lat="43.24207" lon="5.96115">
        <ele>580</ele>
        <time>2012-11-18T09:57:09Z</time>
      </trkpt>
      <trkpt lat="43.2421" lon="5.96109">
        <ele>579</ele>
        <time>2012-11-18T09:57:10Z</time>
      </trkpt>
      <trkpt lat="43.24213" lon="5.96103">
        <ele>579</ele>
        <time>2012-11-18T09:57:11Z</time>
      </trkpt>
      <trkpt lat="43.24216" lon="5.96097">
        <ele>579</ele>
        <time>2012-11-18T09:57:12Z</time>
      </trkpt>
      <trkpt lat="43.24219" lon="5.96091">
        <ele>579</ele>
        <time>2012-11-18T09:57:13Z</time>
      </trkpt>
      <trkpt lat="43.24222" lon="5.96086">
        <ele>579</ele>
        <time>2012-11-18T09:57:14Z</time>
      </trkpt>
      <trkpt lat="43.2423" lon="5.96075">
        <ele>578</ele>
        <time>2012-11-18T09:57:17Z</time>
      </trkpt>
      <trkpt lat="43.24239" lon="5.96067">
        <ele>577</ele>
        <time>2012-11-18T09:57:22Z</time>
      </trkpt>
      <trkpt lat="43.24242" lon="5.96064">
        <ele>575</ele>
        <time>2012-11-18T09:57:32Z</time>
      </trkpt>
      <trkpt lat="43.24246" lon="5.96056">
        <ele>578</ele>
        <time>2012-11-18T09:58:07Z</time>
      </trkpt>
      <trkpt lat="43.24252" lon="5.96048">
        <ele>578</ele>
        <time>2012-11-18T09:58:09Z</time>
      </trkpt>
      <trkpt lat="43.24257" lon="5.96036">
        <ele>577</ele>
        <time>2012-11-18T09:58:11Z</time>
      </trkpt>
      <trkpt lat="43.24263" lon="5.96027">
        <ele>576</ele>
        <time>2012-11-18T09:58:13Z</time>
      </trkpt>
      <trkpt lat="43.24265" lon="5.96019">
        <ele>576</ele>
        <time>2012-11-18T09:58:14Z</time>
      </trkpt>
      <trkpt lat="43.24267" lon="5.96012">
        <ele>575</ele>
        <time>2012-11-18T09:58:15Z</time>
      </trkpt>
      <trkpt lat="43.24269" lon="5.96005">
        <ele>575</ele>
        <time>2012-11-18T09:58:16Z</time>
      </trkpt>
      <trkpt lat="43.24271" lon="5.95998">
        <ele>575</ele>
        <time>2012-11-18T09:58:17Z</time>
      </trkpt>
      <trkpt lat="43.24275" lon="5.95992">
        <ele>574</ele>
        <time>2012-11-18T09:58:18Z</time>
      </trkpt>
      <trkpt lat="43.24278" lon="5.95985">
        <ele>574</ele>
        <time>2012-11-18T09:58:19Z</time>
      </trkpt>
      <trkpt lat="43.24282" lon="5.95979">
        <ele>573</ele>
        <time>2012-11-18T09:58:20Z</time>
      </trkpt>
      <trkpt lat="43.24285" lon="5.95973">
        <ele>572</ele>
        <time>2012-11-18T09:58:21Z</time>
      </trkpt>
      <trkpt lat="43.24286" lon="5.95966">
        <ele>572</ele>
        <time>2012-11-18T09:58:22Z</time>
      </trkpt>
      <trkpt lat="43.24289" lon="5.95959">
        <ele>571</ele>
        <time>2012-11-18T09:58:23Z</time>
      </trkpt>
      <trkpt lat="43.24291" lon="5.95953">
        <ele>570</ele>
        <time>2012-11-18T09:58:24Z</time>
      </trkpt>
      <trkpt lat="43.24293" lon="5.95947">
        <ele>569</ele>
        <time>2012-11-18T09:58:25Z</time>
      </trkpt>
      <trkpt lat="43.24296" lon="5.95941">
        <ele>568</ele>
        <time>2012-11-18T09:58:26Z</time>
      </trkpt>
      <trkpt lat="43.24297" lon="5.95934">
        <ele>567</ele>
        <time>2012-11-18T09:58:27Z</time>
      </trkpt>
      <trkpt lat="43.24298" lon="5.95927">
        <ele>567</ele>
        <time>2012-11-18T09:58:28Z</time>
      </trkpt>
      <trkpt lat="43.24299" lon="5.9592">
        <ele>566</ele>
        <time>2012-11-18T09:58:29Z</time>
      </trkpt>
      <trkpt lat="43.24301" lon="5.95912">
        <ele>566</ele>
        <time>2012-11-18T09:58:30Z</time>
      </trkpt>
      <trkpt lat="43.24303" lon="5.95905">
        <ele>566</ele>
        <time>2012-11-18T09:58:31Z</time>
      </trkpt>
      <trkpt lat="43.24305" lon="5.95897">
        <ele>566</ele>
        <time>2012-11-18T09:58:32Z</time>
      </trkpt>
      <trkpt lat="43.24306" lon="5.95888">
        <ele>566</ele>
        <time>2012-11-18T09:58:33Z</time>
      </trkpt>
      <trkpt lat="43.24305" lon="5.95882">
        <ele>566</ele>
        <time>2012-11-18T09:58:34Z</time>
      </trkpt>
      <trkpt lat="43.24307" lon="5.95872">
        <ele>566</ele>
        <time>2012-11-18T09:58:36Z</time>
      </trkpt>
      <trkpt lat="43.24311" lon="5.95861">
        <ele>566</ele>
        <time>2012-11-18T09:58:38Z</time>
      </trkpt>
      <trkpt lat="43.24312" lon="5.95855">
        <ele>566</ele>
        <time>2012-11-18T09:58:39Z</time>
      </trkpt>
      <trkpt lat="43.24315" lon="5.95849">
        <ele>566</ele>
        <time>2012-11-18T09:58:40Z</time>
      </trkpt>
      <trkpt lat="43.24317" lon="5.95842">
        <ele>566</ele>
        <time>2012-11-18T09:58:41Z</time>
      </trkpt>
      <trkpt lat="43.2432" lon="5.95835">
        <ele>565</ele>
        <time>2012-11-18T09:58:42Z</time>
      </trkpt>
      <trkpt lat="43.24318" lon="5.95823">
        <ele>565</ele>
        <time>2012-11-18T09:58:44Z</time>
      </trkpt>
      <trkpt lat="43.24317" lon="5.95816">
        <ele>565</ele>
        <time>2012-11-18T09:58:45Z</time>
      </trkpt>
      <trkpt lat="43.24316" lon="5.9581">
        <ele>564</ele>
        <time>2012-11-18T09:58:46Z</time>
      </trkpt>
      <trkpt lat="43.24316" lon="5.95802">
        <ele>564</ele>
        <time>2012-11-18T09:58:47Z</time>
      </trkpt>
      <trkpt lat="43.24318" lon="5.95794">
        <ele>564</ele>
        <time>2012-11-18T09:58:48Z</time>
      </trkpt>
      <trkpt lat="43.2432" lon="5.95786">
        <ele>564</ele>
        <time>2012-11-18T09:58:49Z</time>
      </trkpt>
      <trkpt lat="43.24322" lon="5.9578">
        <ele>564</ele>
        <time>2012-11-18T09:58:50Z</time>
      </trkpt>
      <trkpt lat="43.24325" lon="5.95773">
        <ele>564</ele>
        <time>2012-11-18T09:58:51Z</time>
      </trkpt>
      <trkpt lat="43.24329" lon="5.95768">
        <ele>564</ele>
        <time>2012-11-18T09:58:52Z</time>
      </trkpt>
      <trkpt lat="43.24331" lon="5.95762">
        <ele>564</ele>
        <time>2012-11-18T09:58:53Z</time>
      </trkpt>
      <trkpt lat="43.24331" lon="5.95755">
        <ele>564</ele>
        <time>2012-11-18T09:58:54Z</time>
      </trkpt>
      <trkpt lat="43.24332" lon="5.95746">
        <ele>564</ele>
        <time>2012-11-18T09:58:55Z</time>
      </trkpt>
      <trkpt lat="43.24334" lon="5.95737">
        <ele>564</ele>
        <time>2012-11-18T09:58:56Z</time>
      </trkpt>
      <trkpt lat="43.24337" lon="5.95729">
        <ele>564</ele>
        <time>2012-11-18T09:58:57Z</time>
      </trkpt>
      <trkpt lat="43.24341" lon="5.95723">
        <ele>563</ele>
        <time>2012-11-18T09:58:58Z</time>
      </trkpt>
      <trkpt lat="43.24343" lon="5.95716">
        <ele>563</ele>
        <time>2012-11-18T09:58:59Z</time>
      </trkpt>
      <trkpt lat="43.2435" lon="5.95702">
        <ele>562</ele>
        <time>2012-11-18T09:59:01Z</time>
      </trkpt>
      <trkpt lat="43.24355" lon="5.95691">
        <ele>560</ele>
        <time>2012-11-18T09:59:04Z</time>
      </trkpt>
      <trkpt lat="43.24358" lon="5.9568">
        <ele>558</ele>
        <time>2012-11-18T09:59:08Z</time>
      </trkpt>
      <trkpt lat="43.24359" lon="5.95674">
        <ele>557</ele>
        <time>2012-11-18T09:59:11Z</time>
      </trkpt>
      <trkpt lat="43.24359" lon="5.95667">
        <ele>555</ele>
        <time>2012-11-18T09:59:17Z</time>
      </trkpt>
      <trkpt lat="43.24359" lon="5.95659">
        <ele>556</ele>
        <time>2012-11-18T09:59:22Z</time>
      </trkpt>
      <trkpt lat="43.24361" lon="5.9565">
        <ele>556</ele>
        <time>2012-11-18T09:59:25Z</time>
      </trkpt>
      <trkpt lat="43.24362" lon="5.95643">
        <ele>556</ele>
        <time>2012-11-18T09:59:27Z</time>
      </trkpt>
      <trkpt lat="43.24364" lon="5.95628">
        <ele>557</ele>
        <time>2012-11-18T09:59:32Z</time>
      </trkpt>
      <trkpt lat="43.24367" lon="5.95614">
        <ele>558</ele>
        <time>2012-11-18T09:59:35Z</time>
      </trkpt>
      <trkpt lat="43.24374" lon="5.95602">
        <ele>561</ele>
        <time>2012-11-18T09:59:38Z</time>
      </trkpt>
      <trkpt lat="43.24379" lon="5.95597">
        <ele>563</ele>
        <time>2012-11-18T09:59:40Z</time>
      </trkpt>
      <trkpt lat="43.24389" lon="5.95585">
        <ele>565</ele>
        <time>2012-11-18T09:59:43Z</time>
      </trkpt>
      <trkpt lat="43.24392" lon="5.95575">
        <ele>567</ele>
        <time>2012-11-18T09:59:45Z</time>
      </trkpt>
      <trkpt lat="43.24393" lon="5.95566">
        <ele>568</ele>
        <time>2012-11-18T09:59:47Z</time>
      </trkpt>
      <trkpt lat="43.24394" lon="5.95558">
        <ele>568</ele>
        <time>2012-11-18T09:59:49Z</time>
      </trkpt>
      <trkpt lat="43.24396" lon="5.95544">
        <ele>569</ele>
        <time>2012-11-18T09:59:52Z</time>
      </trkpt>
      <trkpt lat="43.24397" lon="5.95536">
        <ele>568</ele>
        <time>2012-11-18T09:59:55Z</time>
      </trkpt>
      <trkpt lat="43.24399" lon="5.95529">
        <ele>567</ele>
        <time>2012-11-18T09:59:57Z</time>
      </trkpt>
      <trkpt lat="43.24399" lon="5.95521">
        <ele>566</ele>
        <time>2012-11-18T10:00:00Z</time>
      </trkpt>
      <trkpt lat="43.24398" lon="5.95514">
        <ele>567</ele>
        <time>2012-11-18T10:00:03Z</time>
      </trkpt>
      <trkpt lat="43.24397" lon="5.95505">
        <ele>568</ele>
        <time>2012-11-18T10:00:06Z</time>
      </trkpt>
      <trkpt lat="43.24398" lon="5.95495">
        <ele>568</ele>
        <time>2012-11-18T10:00:09Z</time>
      </trkpt>
      <trkpt lat="43.24399" lon="5.95489">
        <ele>568</ele>
        <time>2012-11-18T10:00:11Z</time>
      </trkpt>
      <trkpt lat="43.24399" lon="5.95478">
        <ele>568</ele>
        <time>2012-11-18T10:00:14Z</time>
      </trkpt>
      <trkpt lat="43.244" lon="5.95467">
        <ele>568</ele>
        <time>2012-11-18T10:00:16Z</time>
      </trkpt>
      <trkpt lat="43.24401" lon="5.95457">
        <ele>569</ele>
        <time>2012-11-18T10:00:18Z</time>
      </trkpt>
      <trkpt lat="43.24401" lon="5.95449">
        <ele>569</ele>
        <time>2012-11-18T10:00:20Z</time>
      </trkpt>
      <trkpt lat="43.24402" lon="5.95438">
        <ele>569</ele>
        <time>2012-11-18T10:00:22Z</time>
      </trkpt>
      <trkpt lat="43.24404" lon="5.95431">
        <ele>570</ele>
        <time>2012-11-18T10:00:24Z</time>
      </trkpt>
      <trkpt lat="43.24405" lon="5.95424">
        <ele>570</ele>
        <time>2012-11-18T10:00:26Z</time>
      </trkpt>
      <trkpt lat="43.24406" lon="5.95417">
        <ele>569</ele>
        <time>2012-11-18T10:00:28Z</time>
      </trkpt>
      <trkpt lat="43.24407" lon="5.9541">
        <ele>568</ele>
        <time>2012-11-18T10:00:30Z</time>
      </trkpt>
      <trkpt lat="43.24409" lon="5.95403">
        <ele>568</ele>
        <time>2012-11-18T10:00:32Z</time>
      </trkpt>
      <trkpt lat="43.24412" lon="5.95396">
        <ele>567</ele>
        <time>2012-11-18T10:00:44Z</time>
      </trkpt>
      <trkpt lat="43.24412" lon="5.95387">
        <ele>565</ele>
        <time>2012-11-18T10:01:23Z</time>
      </trkpt>
      <trkpt lat="43.24415" lon="5.95381">
        <ele>566</ele>
        <time>2012-11-18T10:01:29Z</time>
      </trkpt>
      <trkpt lat="43.24417" lon="5.95375">
        <ele>566</ele>
        <time>2012-11-18T10:01:33Z</time>
      </trkpt>
      <trkpt lat="43.24419" lon="5.95367">
        <ele>567</ele>
        <time>2012-11-18T10:01:36Z</time>
      </trkpt>
      <trkpt lat="43.2442" lon="5.95359">
        <ele>568</ele>
        <time>2012-11-18T10:01:38Z</time>
      </trkpt>
      <trkpt lat="43.2442" lon="5.95351">
        <ele>568</ele>
        <time>2012-11-18T10:01:42Z</time>
      </trkpt>
      <trkpt lat="43.2442" lon="5.95345">
        <ele>568</ele>
        <time>2012-11-18T10:01:45Z</time>
      </trkpt>
      <trkpt lat="43.24422" lon="5.95337">
        <ele>568</ele>
        <time>2012-11-18T10:01:48Z</time>
      </trkpt>
      <trkpt lat="43.24424" lon="5.95323">
        <ele>568</ele>
        <time>2012-11-18T10:01:54Z</time>
      </trkpt>
      <trkpt lat="43.24425" lon="5.95317">
        <ele>569</ele>
        <time>2012-11-18T10:01:56Z</time>
      </trkpt>
      <trkpt lat="43.24427" lon="5.95308">
        <ele>569</ele>
        <time>2012-11-18T10:02:00Z</time>
      </trkpt>
      <trkpt lat="43.24429" lon="5.953">
        <ele>569</ele>
        <time>2012-11-18T10:02:03Z</time>
      </trkpt>
      <trkpt lat="43.24431" lon="5.95294">
        <ele>569</ele>
        <time>2012-11-18T10:02:06Z</time>
      </trkpt>
      <trkpt lat="43.24434" lon="5.95287">
        <ele>569</ele>
        <time>2012-11-18T10:02:09Z</time>
      </trkpt>
      <trkpt lat="43.24437" lon="5.95278">
        <ele>570</ele>
        <time>2012-11-18T10:02:12Z</time>
      </trkpt>
      <trkpt lat="43.24438" lon="5.95272">
        <ele>570</ele>
        <time>2012-11-18T10:02:14Z</time>
      </trkpt>
      <trkpt lat="43.24439" lon="5.95264">
        <ele>571</ele>
        <time>2012-11-18T10:02:16Z</time>
      </trkpt>
      <trkpt lat="43.24439" lon="5.95257">
        <ele>571</ele>
        <time>2012-11-18T10:02:18Z</time>
      </trkpt>
      <trkpt lat="43.24439" lon="5.95249">
        <ele>572</ele>
        <time>2012-11-18T10:02:21Z</time>
      </trkpt>
      <trkpt lat="43.2444" lon="5.95241">
        <ele>572</ele>
        <time>2012-11-18T10:02:24Z</time>
      </trkpt>
      <trkpt lat="43.24439" lon="5.95234">
        <ele>572</ele>
        <time>2012-11-18T10:02:26Z</time>
      </trkpt>
      <trkpt lat="43.24437" lon="5.95227">
        <ele>572</ele>
        <time>2012-11-18T10:02:29Z</time>
      </trkpt>
      <trkpt lat="43.24435" lon="5.95218">
        <ele>572</ele>
        <time>2012-11-18T10:02:32Z</time>
      </trkpt>
      <trkpt lat="43.24433" lon="5.95211">
        <ele>571</ele>
        <time>2012-11-18T10:02:35Z</time>
      </trkpt>
      <trkpt lat="43.2443" lon="5.95204">
        <ele>570</ele>
        <time>2012-11-18T10:02:38Z</time>
      </trkpt>
      <trkpt lat="43.24428" lon="5.95199">
        <ele>570</ele>
        <time>2012-11-18T10:02:41Z</time>
      </trkpt>
      <trkpt lat="43.24425" lon="5.95193">
        <ele>571</ele>
        <time>2012-11-18T10:02:44Z</time>
      </trkpt>
      <trkpt lat="43.24422" lon="5.95188">
        <ele>571</ele>
        <time>2012-11-18T10:02:48Z</time>
      </trkpt>
      <trkpt lat="43.24419" lon="5.95181">
        <ele>572</ele>
        <time>2012-11-18T10:02:52Z</time>
      </trkpt>
      <trkpt lat="43.24418" lon="5.95175">
        <ele>573</ele>
        <time>2012-11-18T10:02:55Z</time>
      </trkpt>
      <trkpt lat="43.24415" lon="5.95169">
        <ele>572</ele>
        <time>2012-11-18T10:02:58Z</time>
      </trkpt>
      <trkpt lat="43.24411" lon="5.95164">
        <ele>571</ele>
        <time>2012-11-18T10:03:02Z</time>
      </trkpt>
      <trkpt lat="43.24408" lon="5.9516">
        <ele>571</ele>
        <time>2012-11-18T10:03:05Z</time>
      </trkpt>
      <trkpt lat="43.24404" lon="5.95154">
        <ele>571</ele>
        <time>2012-11-18T10:03:08Z</time>
      </trkpt>
      <trkpt lat="43.244" lon="5.95149">
        <ele>571</ele>
        <time>2012-11-18T10:03:11Z</time>
      </trkpt>
      <trkpt lat="43.24396" lon="5.95144">
        <ele>571</ele>
        <time>2012-11-18T10:03:14Z</time>
      </trkpt>
      <trkpt lat="43.24393" lon="5.95138">
        <ele>571</ele>
        <time>2012-11-18T10:03:17Z</time>
      </trkpt>
      <trkpt lat="43.24389" lon="5.95133">
        <ele>571</ele>
        <time>2012-11-18T10:03:20Z</time>
      </trkpt>
      <trkpt lat="43.24387" lon="5.95129">
        <ele>572</ele>
        <time>2012-11-18T10:03:22Z</time>
      </trkpt>
      <trkpt lat="43.24383" lon="5.95123">
        <ele>572</ele>
        <time>2012-11-18T10:03:25Z</time>
      </trkpt>
      <trkpt lat="43.24379" lon="5.95119">
        <ele>573</ele>
        <time>2012-11-18T10:03:28Z</time>
      </trkpt>
      <trkpt lat="43.24374" lon="5.95114">
        <ele>574</ele>
        <time>2012-11-18T10:03:32Z</time>
      </trkpt>
      <trkpt lat="43.24371" lon="5.95108">
        <ele>574</ele>
        <time>2012-11-18T10:03:35Z</time>
      </trkpt>
      <trkpt lat="43.24367" lon="5.95103">
        <ele>574</ele>
        <time>2012-11-18T10:03:37Z</time>
      </trkpt>
      <trkpt lat="43.24361" lon="5.95096">
        <ele>575</ele>
        <time>2012-11-18T10:03:39Z</time>
      </trkpt>
      <trkpt lat="43.24357" lon="5.95089">
        <ele>575</ele>
        <time>2012-11-18T10:03:41Z</time>
      </trkpt>
      <trkpt lat="43.24353" lon="5.95083">
        <ele>575</ele>
        <time>2012-11-18T10:03:43Z</time>
      </trkpt>
      <trkpt lat="43.24349" lon="5.95076">
        <ele>575</ele>
        <time>2012-11-18T10:03:45Z</time>
      </trkpt>
      <trkpt lat="43.24347" lon="5.95067">
        <ele>576</ele>
        <time>2012-11-18T10:03:47Z</time>
      </trkpt>
      <trkpt lat="43.24346" lon="5.95058">
        <ele>576</ele>
        <time>2012-11-18T10:03:49Z</time>
      </trkpt>
      <trkpt lat="43.24343" lon="5.95051">
        <ele>576</ele>
        <time>2012-11-18T10:03:51Z</time>
      </trkpt>
      <trkpt lat="43.24342" lon="5.9504">
        <ele>576</ele>
        <time>2012-11-18T10:03:54Z</time>
      </trkpt>
      <trkpt lat="43.24341" lon="5.95034">
        <ele>576</ele>
        <time>2012-11-18T10:03:56Z</time>
      </trkpt>
      <trkpt lat="43.24341" lon="5.95027">
        <ele>577</ele>
        <time>2012-11-18T10:03:58Z</time>
      </trkpt>
      <trkpt lat="43.24341" lon="5.95019">
        <ele>578</ele>
        <time>2012-11-18T10:04:00Z</time>
      </trkpt>
      <trkpt lat="43.24342" lon="5.95012">
        <ele>578</ele>
        <time>2012-11-18T10:04:02Z</time>
      </trkpt>
      <trkpt lat="43.24342" lon="5.95006">
        <ele>578</ele>
        <time>2012-11-18T10:04:04Z</time>
      </trkpt>
      <trkpt lat="43.24341" lon="5.94996">
        <ele>578</ele>
        <time>2012-11-18T10:04:07Z</time>
      </trkpt>
      <trkpt lat="43.24342" lon="5.9499">
        <ele>578</ele>
        <time>2012-11-18T10:04:09Z</time>
      </trkpt>
      <trkpt lat="43.24343" lon="5.94984">
        <ele>579</ele>
        <time>2012-11-18T10:04:11Z</time>
      </trkpt>
      <trkpt lat="43.24343" lon="5.94976">
        <ele>579</ele>
        <time>2012-11-18T10:04:13Z</time>
      </trkpt>
      <trkpt lat="43.24341" lon="5.94968">
        <ele>578</ele>
        <time>2012-11-18T10:04:16Z</time>
      </trkpt>
      <trkpt lat="43.24341" lon="5.94961">
        <ele>578</ele>
        <time>2012-11-18T10:04:18Z</time>
      </trkpt>
      <trkpt lat="43.24341" lon="5.94953">
        <ele>578</ele>
        <time>2012-11-18T10:04:21Z</time>
      </trkpt>
      <trkpt lat="43.24342" lon="5.94946">
        <ele>578</ele>
        <time>2012-11-18T10:04:24Z</time>
      </trkpt>
      <trkpt lat="43.24343" lon="5.94938">
        <ele>578</ele>
        <time>2012-11-18T10:04:27Z</time>
      </trkpt>
      <trkpt lat="43.24344" lon="5.94932">
        <ele>578</ele>
        <time>2012-11-18T10:04:37Z</time>
      </trkpt>
      <trkpt lat="43.24346" lon="5.94932">
        <ele>577</ele>
        <time>2012-11-18T10:05:49Z</time>
      </trkpt>
      <trkpt lat="43.24348" lon="5.94927">
        <ele>577</ele>
        <time>2012-11-18T10:05:55Z</time>
      </trkpt>
      <trkpt lat="43.24347" lon="5.94913">
        <ele>576</ele>
        <time>2012-11-18T10:05:58Z</time>
      </trkpt>
      <trkpt lat="43.24345" lon="5.94904">
        <ele>576</ele>
        <time>2012-11-18T10:06:00Z</time>
      </trkpt>
      <trkpt lat="43.24344" lon="5.94894">
        <ele>577</ele>
        <time>2012-11-18T10:06:02Z</time>
      </trkpt>
      <trkpt lat="43.24344" lon="5.94883">
        <ele>578</ele>
        <time>2012-11-18T10:06:04Z</time>
      </trkpt>
      <trkpt lat="43.24342" lon="5.94863">
        <ele>578</ele>
        <time>2012-11-18T10:06:07Z</time>
      </trkpt>
      <trkpt lat="43.24342" lon="5.9485">
        <ele>578</ele>
        <time>2012-11-18T10:06:09Z</time>
      </trkpt>
      <trkpt lat="43.24343" lon="5.94844">
        <ele>578</ele>
        <time>2012-11-18T10:06:10Z</time>
      </trkpt>
      <trkpt lat="43.24345" lon="5.94832">
        <ele>578</ele>
        <time>2012-11-18T10:06:12Z</time>
      </trkpt>
      <trkpt lat="43.24348" lon="5.94826">
        <ele>578</ele>
        <time>2012-11-18T10:06:13Z</time>
      </trkpt>
      <trkpt lat="43.24351" lon="5.94819">
        <ele>578</ele>
        <time>2012-11-18T10:06:14Z</time>
      </trkpt>
      <trkpt lat="43.24353" lon="5.94812">
        <ele>578</ele>
        <time>2012-11-18T10:06:15Z</time>
      </trkpt>
      <trkpt lat="43.24355" lon="5.94805">
        <ele>577</ele>
        <time>2012-11-18T10:06:16Z</time>
      </trkpt>
      <trkpt lat="43.24356" lon="5.94797">
        <ele>577</ele>
        <time>2012-11-18T10:06:17Z</time>
      </trkpt>
      <trkpt lat="43.24356" lon="5.9479">
        <ele>577</ele>
        <time>2012-11-18T10:06:18Z</time>
      </trkpt>
      <trkpt lat="43.24356" lon="5.94782">
        <ele>577</ele>
        <time>2012-11-18T10:06:19Z</time>
      </trkpt>
      <trkpt lat="43.24357" lon="5.94774">
        <ele>577</ele>
        <time>2012-11-18T10:06:20Z</time>
      </trkpt>
      <trkpt lat="43.24357" lon="5.94765">
        <ele>577</ele>
        <time>2012-11-18T10:06:21Z</time>
      </trkpt>
      <trkpt lat="43.24359" lon="5.94756">
        <ele>576</ele>
        <time>2012-11-18T10:06:22Z</time>
      </trkpt>
      <trkpt lat="43.24361" lon="5.94747">
        <ele>576</ele>
        <time>2012-11-18T10:06:23Z</time>
      </trkpt>
      <trkpt lat="43.24362" lon="5.94739">
        <ele>576</ele>
        <time>2012-11-18T10:06:24Z</time>
      </trkpt>
      <trkpt lat="43.24362" lon="5.9473">
        <ele>576</ele>
        <time>2012-11-18T10:06:25Z</time>
      </trkpt>
      <trkpt lat="43.24363" lon="5.9472">
        <ele>576</ele>
        <time>2012-11-18T10:06:26Z</time>
      </trkpt>
      <trkpt lat="43.24363" lon="5.94709">
        <ele>576</ele>
        <time>2012-11-18T10:06:27Z</time>
      </trkpt>
      <trkpt lat="43.24364" lon="5.94701">
        <ele>575</ele>
        <time>2012-11-18T10:06:28Z</time>
      </trkpt>
      <trkpt lat="43.24369" lon="5.94685">
        <ele>575</ele>
        <time>2012-11-18T10:06:30Z</time>
      </trkpt>
      <trkpt lat="43.24373" lon="5.94679">
        <ele>575</ele>
        <time>2012-11-18T10:06:31Z</time>
      </trkpt>
      <trkpt lat="43.24382" lon="5.94677">
        <ele>575</ele>
        <time>2012-11-18T10:06:33Z</time>
      </trkpt>
      <trkpt lat="43.24387" lon="5.94676">
        <ele>575</ele>
        <time>2012-11-18T10:06:34Z</time>
      </trkpt>
      <trkpt lat="43.24392" lon="5.94674">
        <ele>574</ele>
        <time>2012-11-18T10:06:35Z</time>
      </trkpt>
      <trkpt lat="43.24398" lon="5.94673">
        <ele>574</ele>
        <time>2012-11-18T10:06:36Z</time>
      </trkpt>
      <trkpt lat="43.24404" lon="5.94673">
        <ele>573</ele>
        <time>2012-11-18T10:06:37Z</time>
      </trkpt>
      <trkpt lat="43.2441" lon="5.94673">
        <ele>573</ele>
        <time>2012-11-18T10:06:38Z</time>
      </trkpt>
      <trkpt lat="43.24416" lon="5.94674">
        <ele>572</ele>
        <time>2012-11-18T10:06:39Z</time>
      </trkpt>
      <trkpt lat="43.24423" lon="5.94675">
        <ele>572</ele>
        <time>2012-11-18T10:06:40Z</time>
      </trkpt>
      <trkpt lat="43.24429" lon="5.94677">
        <ele>572</ele>
        <time>2012-11-18T10:06:41Z</time>
      </trkpt>
      <trkpt lat="43.24438" lon="5.94681">
        <ele>571</ele>
        <time>2012-11-18T10:06:43Z</time>
      </trkpt>
      <trkpt lat="43.24449" lon="5.94687">
        <ele>570</ele>
        <time>2012-11-18T10:06:45Z</time>
      </trkpt>
      <trkpt lat="43.24454" lon="5.94691">
        <ele>569</ele>
        <time>2012-11-18T10:06:46Z</time>
      </trkpt>
      <trkpt lat="43.24459" lon="5.94694">
        <ele>568</ele>
        <time>2012-11-18T10:06:47Z</time>
      </trkpt>
      <trkpt lat="43.24464" lon="5.94697">
        <ele>567</ele>
        <time>2012-11-18T10:06:48Z</time>
      </trkpt>
      <trkpt lat="43.2447" lon="5.94699">
        <ele>566</ele>
        <time>2012-11-18T10:06:49Z</time>
      </trkpt>
      <trkpt lat="43.24477" lon="5.94701">
        <ele>566</ele>
        <time>2012-11-18T10:06:50Z</time>
      </trkpt>
      <trkpt lat="43.24482" lon="5.94701">
        <ele>565</ele>
        <time>2012-11-18T10:06:51Z</time>
      </trkpt>
      <trkpt lat="43.24487" lon="5.94699">
        <ele>564</ele>
        <time>2012-11-18T10:06:52Z</time>
      </trkpt>
      <trkpt lat="43.24492" lon="5.94695">
        <ele>564</ele>
        <time>2012-11-18T10:06:53Z</time>
      </trkpt>
      <trkpt lat="43.24497" lon="5.9469">
        <ele>563</ele>
        <time>2012-11-18T10:06:54Z</time>
      </trkpt>
      <trkpt lat="43.24501" lon="5.94683">
        <ele>563</ele>
        <time>2012-11-18T10:06:55Z</time>
      </trkpt>
      <trkpt lat="43.24506" lon="5.94675">
        <ele>562</ele>
        <time>2012-11-18T10:06:56Z</time>
      </trkpt>
      <trkpt lat="43.24516" lon="5.94662">
        <ele>561</ele>
        <time>2012-11-18T10:06:58Z</time>
      </trkpt>
      <trkpt lat="43.24527" lon="5.94647">
        <ele>560</ele>
        <time>2012-11-18T10:07:00Z</time>
      </trkpt>
      <trkpt lat="43.24532" lon="5.9464">
        <ele>559</ele>
        <time>2012-11-18T10:07:01Z</time>
      </trkpt>
      <trkpt lat="43.24538" lon="5.94633">
        <ele>558</ele>
        <time>2012-11-18T10:07:02Z</time>
      </trkpt>
      <trkpt lat="43.24545" lon="5.94629">
        <ele>557</ele>
        <time>2012-11-18T10:07:03Z</time>
      </trkpt>
      <trkpt lat="43.24551" lon="5.94624">
        <ele>557</ele>
        <time>2012-11-18T10:07:04Z</time>
      </trkpt>
      <trkpt lat="43.24563" lon="5.94618">
        <ele>556</ele>
        <time>2012-11-18T10:07:06Z</time>
      </trkpt>
      <trkpt lat="43.24575" lon="5.94615">
        <ele>556</ele>
        <time>2012-11-18T10:07:08Z</time>
      </trkpt>
      <trkpt lat="43.24585" lon="5.94609">
        <ele>556</ele>
        <time>2012-11-18T10:07:10Z</time>
      </trkpt>
      <trkpt lat="43.24593" lon="5.94599">
        <ele>557</ele>
        <time>2012-11-18T10:07:12Z</time>
      </trkpt>
      <trkpt lat="43.24597" lon="5.94594">
        <ele>557</ele>
        <time>2012-11-18T10:07:13Z</time>
      </trkpt>
      <trkpt lat="43.24601" lon="5.94587">
        <ele>557</ele>
        <time>2012-11-18T10:07:14Z</time>
      </trkpt>
      <trkpt lat="43.24604" lon="5.94581">
        <ele>557</ele>
        <time>2012-11-18T10:07:15Z</time>
      </trkpt>
      <trkpt lat="43.24608" lon="5.94574">
        <ele>557</ele>
        <time>2012-11-18T10:07:16Z</time>
      </trkpt>
      <trkpt lat="43.24611" lon="5.94567">
        <ele>557</ele>
        <time>2012-11-18T10:07:17Z</time>
      </trkpt>
      <trkpt lat="43.24614" lon="5.94561">
        <ele>557</ele>
        <time>2012-11-18T10:07:18Z</time>
      </trkpt>
      <trkpt lat="43.2462" lon="5.9455">
        <ele>556</ele>
        <time>2012-11-18T10:07:20Z</time>
      </trkpt>
      <trkpt lat="43.24623" lon="5.94545">
        <ele>556</ele>
        <time>2012-11-18T10:07:21Z</time>
      </trkpt>
      <trkpt lat="43.24628" lon="5.94535">
        <ele>555</ele>
        <time>2012-11-18T10:07:23Z</time>
      </trkpt>
      <trkpt lat="43.24629" lon="5.94528">
        <ele>555</ele>
        <time>2012-11-18T10:07:24Z</time>
      </trkpt>
      <trkpt lat="43.24631" lon="5.94517">
        <ele>555</ele>
        <time>2012-11-18T10:07:26Z</time>
      </trkpt>
      <trkpt lat="43.24631" lon="5.94502">
        <ele>555</ele>
        <time>2012-11-18T10:07:28Z</time>
      </trkpt>
      <trkpt lat="43.24631" lon="5.94488">
        <ele>555</ele>
        <time>2012-11-18T10:07:30Z</time>
      </trkpt>
      <trkpt lat="43.24631" lon="5.94476">
        <ele>552</ele>
        <time>2012-11-18T10:07:50Z</time>
      </trkpt>
      <trkpt lat="43.24636" lon="5.94474">
        <ele>551</ele>
        <time>2012-11-18T10:09:45Z</time>
      </trkpt>
      <trkpt lat="43.24632" lon="5.94478">
        <ele>556</ele>
        <time>2012-11-18T10:15:24Z</time>
      </trkpt>
      <trkpt lat="43.2463" lon="5.94472">
        <ele>556</ele>
        <time>2012-11-18T10:15:43Z</time>
      </trkpt>
      <trkpt lat="43.24627" lon="5.94462">
        <ele>556</ele>
        <time>2012-11-18T10:15:46Z</time>
      </trkpt>
      <trkpt lat="43.24626" lon="5.94453">
        <ele>556</ele>
        <time>2012-11-18T10:15:48Z</time>
      </trkpt>
      <trkpt lat="43.24625" lon="5.94442">
        <ele>556</ele>
        <time>2012-11-18T10:15:50Z</time>
      </trkpt>
      <trkpt lat="43.24624" lon="5.94436">
        <ele>556</ele>
        <time>2012-11-18T10:15:51Z</time>
      </trkpt>
      <trkpt lat="43.24623" lon="5.94429">
        <ele>556</ele>
        <time>2012-11-18T10:15:52Z</time>
      </trkpt>
      <trkpt lat="43.24623" lon="5.94422">
        <ele>556</ele>
        <time>2012-11-18T10:15:53Z</time>
      </trkpt>
      <trkpt lat="43.24621" lon="5.94413">
        <ele>556</ele>
        <time>2012-11-18T10:15:54Z</time>
      </trkpt>
      <trkpt lat="43.2462" lon="5.94402">
        <ele>556</ele>
        <time>2012-11-18T10:15:55Z</time>
      </trkpt>
      <trkpt lat="43.24618" lon="5.94391">
        <ele>556</ele>
        <time>2012-11-18T10:15:56Z</time>
      </trkpt>
      <trkpt lat="43.24616" lon="5.94381">
        <ele>557</ele>
        <time>2012-11-18T10:15:57Z</time>
      </trkpt>
      <trkpt lat="43.24617" lon="5.94372">
        <ele>556</ele>
        <time>2012-11-18T10:15:58Z</time>
      </trkpt>
      <trkpt lat="43.24617" lon="5.94365">
        <ele>556</ele>
        <time>2012-11-18T10:15:59Z</time>
      </trkpt>
      <trkpt lat="43.24616" lon="5.94358">
        <ele>556</ele>
        <time>2012-11-18T10:16:01Z</time>
      </trkpt>
      <trkpt lat="43.24616" lon="5.94351">
        <ele>555</ele>
        <time>2012-11-18T10:16:03Z</time>
      </trkpt>
      <trkpt lat="43.2462" lon="5.94345">
        <ele>553</ele>
        <time>2012-11-18T10:16:05Z</time>
      </trkpt>
      <trkpt lat="43.24623" lon="5.94328">
        <ele>551</ele>
        <time>2012-11-18T10:16:08Z</time>
      </trkpt>
      <trkpt lat="43.24624" lon="5.94311">
        <ele>551</ele>
        <time>2012-11-18T10:16:10Z</time>
      </trkpt>
      <trkpt lat="43.24625" lon="5.94302">
        <ele>550</ele>
        <time>2012-11-18T10:16:11Z</time>
      </trkpt>
      <trkpt lat="43.24625" lon="5.94294">
        <ele>549</ele>
        <time>2012-11-18T10:16:12Z</time>
      </trkpt>
      <trkpt lat="43.24625" lon="5.94287">
        <ele>549</ele>
        <time>2012-11-18T10:16:13Z</time>
      </trkpt>
      <trkpt lat="43.24625" lon="5.94271">
        <ele>547</ele>
        <time>2012-11-18T10:16:17Z</time>
      </trkpt>
      <trkpt lat="43.24624" lon="5.94262">
        <ele>546</ele>
        <time>2012-11-18T10:16:19Z</time>
      </trkpt>
      <trkpt lat="43.24624" lon="5.94255">
        <ele>546</ele>
        <time>2012-11-18T10:16:20Z</time>
      </trkpt>
      <trkpt lat="43.24626" lon="5.94246">
        <ele>545</ele>
        <time>2012-11-18T10:16:22Z</time>
      </trkpt>
      <trkpt lat="43.2463" lon="5.94249">
        <ele>543</ele>
        <time>2012-11-18T10:16:25Z</time>
      </trkpt>
      <trkpt lat="43.24637" lon="5.94257">
        <ele>542</ele>
        <time>2012-11-18T10:16:27Z</time>
      </trkpt>
      <trkpt lat="43.24646" lon="5.94267">
        <ele>541</ele>
        <time>2012-11-18T10:16:29Z</time>
      </trkpt>
      <trkpt lat="43.24655" lon="5.94277">
        <ele>540</ele>
        <time>2012-11-18T10:16:31Z</time>
      </trkpt>
      <trkpt lat="43.24659" lon="5.94281">
        <ele>540</ele>
        <time>2012-11-18T10:16:32Z</time>
      </trkpt>
      <trkpt lat="43.24663" lon="5.94285">
        <ele>540</ele>
        <time>2012-11-18T10:16:33Z</time>
      </trkpt>
      <trkpt lat="43.24667" lon="5.94291">
        <ele>539</ele>
        <time>2012-11-18T10:16:34Z</time>
      </trkpt>
      <trkpt lat="43.24671" lon="5.94297">
        <ele>538</ele>
        <time>2012-11-18T10:16:35Z</time>
      </trkpt>
      <trkpt lat="43.24676" lon="5.94303">
        <ele>537</ele>
        <time>2012-11-18T10:16:36Z</time>
      </trkpt>
      <trkpt lat="43.24682" lon="5.94306">
        <ele>536</ele>
        <time>2012-11-18T10:16:37Z</time>
      </trkpt>
      <trkpt lat="43.24687" lon="5.94307">
        <ele>535</ele>
        <time>2012-11-18T10:16:38Z</time>
      </trkpt>
      <trkpt lat="43.24693" lon="5.94304">
        <ele>535</ele>
        <time>2012-11-18T10:16:39Z</time>
      </trkpt>
      <trkpt lat="43.24697" lon="5.94299">
        <ele>534</ele>
        <time>2012-11-18T10:16:40Z</time>
      </trkpt>
      <trkpt lat="43.24698" lon="5.94284">
        <ele>532</ele>
        <time>2012-11-18T10:16:43Z</time>
      </trkpt>
      <trkpt lat="43.24697" lon="5.94278">
        <ele>531</ele>
        <time>2012-11-18T10:16:44Z</time>
      </trkpt>
      <trkpt lat="43.24696" lon="5.94271">
        <ele>530</ele>
        <time>2012-11-18T10:16:45Z</time>
      </trkpt>
      <trkpt lat="43.24695" lon="5.94265">
        <ele>530</ele>
        <time>2012-11-18T10:16:46Z</time>
      </trkpt>
      <trkpt lat="43.24694" lon="5.94259">
        <ele>529</ele>
        <time>2012-11-18T10:16:47Z</time>
      </trkpt>
      <trkpt lat="43.24692" lon="5.94247">
        <ele>527</ele>
        <time>2012-11-18T10:16:49Z</time>
      </trkpt>
      <trkpt lat="43.2469" lon="5.94235">
        <ele>525</ele>
        <time>2012-11-18T10:16:53Z</time>
      </trkpt>
      <trkpt lat="43.24688" lon="5.94223">
        <ele>524</ele>
        <time>2012-11-18T10:16:55Z</time>
      </trkpt>
      <trkpt lat="43.24682" lon="5.94205">
        <ele>522</ele>
        <time>2012-11-18T10:16:58Z</time>
      </trkpt>
      <trkpt lat="43.24679" lon="5.94189">
        <ele>520</ele>
        <time>2012-11-18T10:17:00Z</time>
      </trkpt>
      <trkpt lat="43.24676" lon="5.94179">
        <ele>518</ele>
        <time>2012-11-18T10:17:02Z</time>
      </trkpt>
      <trkpt lat="43.24674" lon="5.94173">
        <ele>517</ele>
        <time>2012-11-18T10:17:03Z</time>
      </trkpt>
      <trkpt lat="43.24672" lon="5.94167">
        <ele>516</ele>
        <time>2012-11-18T10:17:04Z</time>
      </trkpt>
      <trkpt lat="43.24671" lon="5.94161">
        <ele>516</ele>
        <time>2012-11-18T10:17:05Z</time>
      </trkpt>
      <trkpt lat="43.24669" lon="5.94148">
        <ele>514</ele>
        <time>2012-11-18T10:17:07Z</time>
      </trkpt>
      <trkpt lat="43.24667" lon="5.94132">
        <ele>512</ele>
        <time>2012-11-18T10:17:09Z</time>
      </trkpt>
      <trkpt lat="43.24665" lon="5.94117">
        <ele>510</ele>
        <time>2012-11-18T10:17:11Z</time>
      </trkpt>
      <trkpt lat="43.24674" lon="5.94122">
        <ele>506</ele>
        <time>2012-11-18T10:17:15Z</time>
      </trkpt>
      <trkpt lat="43.24676" lon="5.94129">
        <ele>504</ele>
        <time>2012-11-18T10:17:17Z</time>
      </trkpt>
      <trkpt lat="43.24679" lon="5.94131">
        <ele>501</ele>
        <time>2012-11-18T10:17:25Z</time>
      </trkpt>
      <trkpt lat="43.24683" lon="5.94131">
        <ele>499</ele>
        <time>2012-11-18T10:17:32Z</time>
      </trkpt>
      <trkpt lat="43.24678" lon="5.94122">
        <ele>497</ele>
        <time>2012-11-18T10:18:01Z</time>
      </trkpt>
      <trkpt lat="43.24677" lon="5.9411">
        <ele>497</ele>
        <time>2012-11-18T10:18:03Z</time>
      </trkpt>
      <trkpt lat="43.24676" lon="5.94094">
        <ele>498</ele>
        <time>2012-11-18T10:18:05Z</time>
      </trkpt>
      <trkpt lat="43.24676" lon="5.94085">
        <ele>498</ele>
        <time>2012-11-18T10:18:06Z</time>
      </trkpt>
      <trkpt lat="43.24675" lon="5.94076">
        <ele>498</ele>
        <time>2012-11-18T10:18:07Z</time>
      </trkpt>
      <trkpt lat="43.24674" lon="5.94067">
        <ele>498</ele>
        <time>2012-11-18T10:18:08Z</time>
      </trkpt>
      <trkpt lat="43.2467" lon="5.94059">
        <ele>498</ele>
        <time>2012-11-18T10:18:09Z</time>
      </trkpt>
      <trkpt lat="43.24665" lon="5.94053">
        <ele>498</ele>
        <time>2012-11-18T10:18:10Z</time>
      </trkpt>
      <trkpt lat="43.24659" lon="5.9405">
        <ele>497</ele>
        <time>2012-11-18T10:18:11Z</time>
      </trkpt>
      <trkpt lat="43.24653" lon="5.94046">
        <ele>497</ele>
        <time>2012-11-18T10:18:12Z</time>
      </trkpt>
      <trkpt lat="43.24645" lon="5.94042">
        <ele>496</ele>
        <time>2012-11-18T10:18:13Z</time>
      </trkpt>
      <trkpt lat="43.24639" lon="5.94036">
        <ele>495</ele>
        <time>2012-11-18T10:18:14Z</time>
      </trkpt>
      <trkpt lat="43.24633" lon="5.94029">
        <ele>495</ele>
        <time>2012-11-18T10:18:15Z</time>
      </trkpt>
      <trkpt lat="43.24626" lon="5.94021">
        <ele>494</ele>
        <time>2012-11-18T10:18:16Z</time>
      </trkpt>
      <trkpt lat="43.2462" lon="5.94014">
        <ele>493</ele>
        <time>2012-11-18T10:18:17Z</time>
      </trkpt>
      <trkpt lat="43.24613" lon="5.94007">
        <ele>492</ele>
        <time>2012-11-18T10:18:18Z</time>
      </trkpt>
      <trkpt lat="43.24606" lon="5.94001">
        <ele>492</ele>
        <time>2012-11-18T10:18:19Z</time>
      </trkpt>
      <trkpt lat="43.24599" lon="5.93995">
        <ele>491</ele>
        <time>2012-11-18T10:18:20Z</time>
      </trkpt>
      <trkpt lat="43.24593" lon="5.9399">
        <ele>491</ele>
        <time>2012-11-18T10:18:21Z</time>
      </trkpt>
      <trkpt lat="43.24589" lon="5.93981">
        <ele>490</ele>
        <time>2012-11-18T10:18:22Z</time>
      </trkpt>
      <trkpt lat="43.24588" lon="5.93973">
        <ele>490</ele>
        <time>2012-11-18T10:18:23Z</time>
      </trkpt>
      <trkpt lat="43.24589" lon="5.93963">
        <ele>489</ele>
        <time>2012-11-18T10:18:24Z</time>
      </trkpt>
      <trkpt lat="43.2459" lon="5.93952">
        <ele>489</ele>
        <time>2012-11-18T10:18:25Z</time>
      </trkpt>
      <trkpt lat="43.24588" lon="5.93942">
        <ele>489</ele>
        <time>2012-11-18T10:18:26Z</time>
      </trkpt>
      <trkpt lat="43.24586" lon="5.93932">
        <ele>488</ele>
        <time>2012-11-18T10:18:27Z</time>
      </trkpt>
      <trkpt lat="43.24584" lon="5.93922">
        <ele>488</ele>
        <time>2012-11-18T10:18:28Z</time>
      </trkpt>
      <trkpt lat="43.24583" lon="5.93913">
        <ele>488</ele>
        <time>2012-11-18T10:18:29Z</time>
      </trkpt>
      <trkpt lat="43.24582" lon="5.93902">
        <ele>488</ele>
        <time>2012-11-18T10:18:30Z</time>
      </trkpt>
      <trkpt lat="43.24583" lon="5.93892">
        <ele>487</ele>
        <time>2012-11-18T10:18:31Z</time>
      </trkpt>
      <trkpt lat="43.24585" lon="5.93882">
        <ele>487</ele>
        <time>2012-11-18T10:18:32Z</time>
      </trkpt>
      <trkpt lat="43.24588" lon="5.93871">
        <ele>487</ele>
        <time>2012-11-18T10:18:33Z</time>
      </trkpt>
      <trkpt lat="43.2459" lon="5.9386">
        <ele>487</ele>
        <time>2012-11-18T10:18:34Z</time>
      </trkpt>
      <trkpt lat="43.2459" lon="5.9385">
        <ele>487</ele>
        <time>2012-11-18T10:18:35Z</time>
      </trkpt>
      <trkpt lat="43.24589" lon="5.9384">
        <ele>487</ele>
        <time>2012-11-18T10:18:36Z</time>
      </trkpt>
      <trkpt lat="43.24588" lon="5.93829">
        <ele>486</ele>
        <time>2012-11-18T10:18:37Z</time>
      </trkpt>
      <trkpt lat="43.24588" lon="5.93818">
        <ele>486</ele>
        <time>2012-11-18T10:18:38Z</time>
      </trkpt>
      <trkpt lat="43.24588" lon="5.93809">
        <ele>486</ele>
        <time>2012-11-18T10:18:39Z</time>
      </trkpt>
      <trkpt lat="43.24589" lon="5.938">
        <ele>485</ele>
        <time>2012-11-18T10:18:40Z</time>
      </trkpt>
      <trkpt lat="43.24591" lon="5.9379">
        <ele>485</ele>
        <time>2012-11-18T10:18:41Z</time>
      </trkpt>
      <trkpt lat="43.24593" lon="5.93781">
        <ele>485</ele>
        <time>2012-11-18T10:18:42Z</time>
      </trkpt>
      <trkpt lat="43.24595" lon="5.9377">
        <ele>485</ele>
        <time>2012-11-18T10:18:43Z</time>
      </trkpt>
      <trkpt lat="43.24596" lon="5.9376">
        <ele>485</ele>
        <time>2012-11-18T10:18:44Z</time>
      </trkpt>
      <trkpt lat="43.24597" lon="5.93749">
        <ele>484</ele>
        <time>2012-11-18T10:18:45Z</time>
      </trkpt>
      <trkpt lat="43.24598" lon="5.93737">
        <ele>484</ele>
        <time>2012-11-18T10:18:46Z</time>
      </trkpt>
      <trkpt lat="43.246" lon="5.93726">
        <ele>483</ele>
        <time>2012-11-18T10:18:47Z</time>
      </trkpt>
      <trkpt lat="43.24603" lon="5.93716">
        <ele>483</ele>
        <time>2012-11-18T10:18:48Z</time>
      </trkpt>
      <trkpt lat="43.24607" lon="5.93704">
        <ele>482</ele>
        <time>2012-11-18T10:18:49Z</time>
      </trkpt>
      <trkpt lat="43.24611" lon="5.93696">
        <ele>482</ele>
        <time>2012-11-18T10:18:50Z</time>
      </trkpt>
      <trkpt lat="43.24611" lon="5.93686">
        <ele>481</ele>
        <time>2012-11-18T10:18:51Z</time>
      </trkpt>
      <trkpt lat="43.24612" lon="5.93677">
        <ele>481</ele>
        <time>2012-11-18T10:18:52Z</time>
      </trkpt>
      <trkpt lat="43.24614" lon="5.93655">
        <ele>479</ele>
        <time>2012-11-18T10:18:54Z</time>
      </trkpt>
      <trkpt lat="43.24615" lon="5.93645">
        <ele>479</ele>
        <time>2012-11-18T10:18:55Z</time>
      </trkpt>
      <trkpt lat="43.24616" lon="5.93638">
        <ele>478</ele>
        <time>2012-11-18T10:18:56Z</time>
      </trkpt>
      <trkpt lat="43.24621" lon="5.93623">
        <ele>477</ele>
        <time>2012-11-18T10:18:58Z</time>
      </trkpt>
      <trkpt lat="43.24626" lon="5.93612">
        <ele>475</ele>
        <time>2012-11-18T10:19:00Z</time>
      </trkpt>
      <trkpt lat="43.24631" lon="5.93603">
        <ele>474</ele>
        <time>2012-11-18T10:19:02Z</time>
      </trkpt>
      <trkpt lat="43.24634" lon="5.93597">
        <ele>473</ele>
        <time>2012-11-18T10:19:03Z</time>
      </trkpt>
      <trkpt lat="43.24637" lon="5.93588">
        <ele>472</ele>
        <time>2012-11-18T10:19:05Z</time>
      </trkpt>
      <trkpt lat="43.2464" lon="5.93579">
        <ele>470</ele>
        <time>2012-11-18T10:19:07Z</time>
      </trkpt>
      <trkpt lat="43.24643" lon="5.93567">
        <ele>468</ele>
        <time>2012-11-18T10:19:09Z</time>
      </trkpt>
      <trkpt lat="43.24645" lon="5.93559">
        <ele>467</ele>
        <time>2012-11-18T10:19:10Z</time>
      </trkpt>
      <trkpt lat="43.24647" lon="5.93552">
        <ele>466</ele>
        <time>2012-11-18T10:19:11Z</time>
      </trkpt>
      <trkpt lat="43.24652" lon="5.93539">
        <ele>465</ele>
        <time>2012-11-18T10:19:13Z</time>
      </trkpt>
      <trkpt lat="43.24658" lon="5.93527">
        <ele>464</ele>
        <time>2012-11-18T10:19:15Z</time>
      </trkpt>
      <trkpt lat="43.24662" lon="5.93519">
        <ele>463</ele>
        <time>2012-11-18T10:19:16Z</time>
      </trkpt>
      <trkpt lat="43.24665" lon="5.93513">
        <ele>463</ele>
        <time>2012-11-18T10:19:17Z</time>
      </trkpt>
      <trkpt lat="43.24669" lon="5.93505">
        <ele>463</ele>
        <time>2012-11-18T10:19:18Z</time>
      </trkpt>
      <trkpt lat="43.24672" lon="5.93498">
        <ele>463</ele>
        <time>2012-11-18T10:19:19Z</time>
      </trkpt>
      <trkpt lat="43.24675" lon="5.93491">
        <ele>463</ele>
        <time>2012-11-18T10:19:20Z</time>
      </trkpt>
      <trkpt lat="43.24683" lon="5.93475">
        <ele>463</ele>
        <time>2012-11-18T10:19:22Z</time>
      </trkpt>
      <trkpt lat="43.24689" lon="5.93459">
        <ele>463</ele>
        <time>2012-11-18T10:19:24Z</time>
      </trkpt>
      <trkpt lat="43.24692" lon="5.93453">
        <ele>463</ele>
        <time>2012-11-18T10:19:25Z</time>
      </trkpt>
      <trkpt lat="43.24696" lon="5.93444">
        <ele>462</ele>
        <time>2012-11-18T10:19:26Z</time>
      </trkpt>
      <trkpt lat="43.247" lon="5.93436">
        <ele>462</ele>
        <time>2012-11-18T10:19:27Z</time>
      </trkpt>
      <trkpt lat="43.24705" lon="5.93428">
        <ele>462</ele>
        <time>2012-11-18T10:19:28Z</time>
      </trkpt>
      <trkpt lat="43.24713" lon="5.93412">
        <ele>461</ele>
        <time>2012-11-18T10:19:30Z</time>
      </trkpt>
      <trkpt lat="43.24721" lon="5.93393">
        <ele>461</ele>
        <time>2012-11-18T10:19:32Z</time>
      </trkpt>
      <trkpt lat="43.24725" lon="5.93384">
        <ele>460</ele>
        <time>2012-11-18T10:19:33Z</time>
      </trkpt>
      <trkpt lat="43.24728" lon="5.93373">
        <ele>460</ele>
        <time>2012-11-18T10:19:34Z</time>
      </trkpt>
      <trkpt lat="43.24734" lon="5.93354">
        <ele>459</ele>
        <time>2012-11-18T10:19:36Z</time>
      </trkpt>
      <trkpt lat="43.24739" lon="5.93334">
        <ele>458</ele>
        <time>2012-11-18T10:19:38Z</time>
      </trkpt>
      <trkpt lat="43.24742" lon="5.93325">
        <ele>457</ele>
        <time>2012-11-18T10:19:39Z</time>
      </trkpt>
      <trkpt lat="43.24744" lon="5.93316">
        <ele>456</ele>
        <time>2012-11-18T10:19:40Z</time>
      </trkpt>
      <trkpt lat="43.24746" lon="5.93306">
        <ele>456</ele>
        <time>2012-11-18T10:19:41Z</time>
      </trkpt>
      <trkpt lat="43.24748" lon="5.93296">
        <ele>455</ele>
        <time>2012-11-18T10:19:42Z</time>
      </trkpt>
      <trkpt lat="43.24748" lon="5.93285">
        <ele>455</ele>
        <time>2012-11-18T10:19:43Z</time>
      </trkpt>
      <trkpt lat="43.24748" lon="5.93274">
        <ele>454</ele>
        <time>2012-11-18T10:19:44Z</time>
      </trkpt>
      <trkpt lat="43.2475" lon="5.93265">
        <ele>454</ele>
        <time>2012-11-18T10:19:45Z</time>
      </trkpt>
      <trkpt lat="43.24758" lon="5.93246">
        <ele>454</ele>
        <time>2012-11-18T10:19:47Z</time>
      </trkpt>
      <trkpt lat="43.24762" lon="5.93239">
        <ele>453</ele>
        <time>2012-11-18T10:19:48Z</time>
      </trkpt>
      <trkpt lat="43.24764" lon="5.9324">
        <ele>449</ele>
        <time>2012-11-18T10:19:55Z</time>
      </trkpt>
      <trkpt lat="43.24764" lon="5.93246">
        <ele>450</ele>
        <time>2012-11-18T10:19:59Z</time>
      </trkpt>
      <trkpt lat="43.24769" lon="5.93252">
        <ele>450</ele>
        <time>2012-11-18T10:20:01Z</time>
      </trkpt>
      <trkpt lat="43.24777" lon="5.93259">
        <ele>450</ele>
        <time>2012-11-18T10:20:03Z</time>
      </trkpt>
      <trkpt lat="43.24781" lon="5.93265">
        <ele>450</ele>
        <time>2012-11-18T10:20:04Z</time>
      </trkpt>
      <trkpt lat="43.24784" lon="5.93273">
        <ele>450</ele>
        <time>2012-11-18T10:20:05Z</time>
      </trkpt>
      <trkpt lat="43.24785" lon="5.9328">
        <ele>450</ele>
        <time>2012-11-18T10:20:06Z</time>
      </trkpt>
      <trkpt lat="43.2479" lon="5.9329">
        <ele>449</ele>
        <time>2012-11-18T10:20:10Z</time>
      </trkpt>
      <trkpt lat="43.24797" lon="5.93292">
        <ele>449</ele>
        <time>2012-11-18T10:20:12Z</time>
      </trkpt>
      <trkpt lat="43.24801" lon="5.93297">
        <ele>448</ele>
        <time>2012-11-18T10:20:14Z</time>
      </trkpt>
      <trkpt lat="43.24805" lon="5.93304">
        <ele>448</ele>
        <time>2012-11-18T10:20:16Z</time>
      </trkpt>
      <trkpt lat="43.24812" lon="5.93312">
        <ele>446</ele>
        <time>2012-11-18T10:20:18Z</time>
      </trkpt>
      <trkpt lat="43.24819" lon="5.93317">
        <ele>445</ele>
        <time>2012-11-18T10:20:20Z</time>
      </trkpt>
      <trkpt lat="43.24824" lon="5.93316">
        <ele>444</ele>
        <time>2012-11-18T10:20:22Z</time>
      </trkpt>
      <trkpt lat="43.24829" lon="5.93321">
        <ele>443</ele>
        <time>2012-11-18T10:20:24Z</time>
      </trkpt>
      <trkpt lat="43.24832" lon="5.93328">
        <ele>442</ele>
        <time>2012-11-18T10:20:26Z</time>
      </trkpt>
      <trkpt lat="43.24836" lon="5.93331">
        <ele>441</ele>
        <time>2012-11-18T10:20:28Z</time>
      </trkpt>
      <trkpt lat="43.24843" lon="5.93329">
        <ele>440</ele>
        <time>2012-11-18T10:20:30Z</time>
      </trkpt>
      <trkpt lat="43.24849" lon="5.93327">
        <ele>439</ele>
        <time>2012-11-18T10:20:32Z</time>
      </trkpt>
      <trkpt lat="43.24854" lon="5.93326">
        <ele>439</ele>
        <time>2012-11-18T10:20:33Z</time>
      </trkpt>
      <trkpt lat="43.2486" lon="5.93325">
        <ele>438</ele>
        <time>2012-11-18T10:20:34Z</time>
      </trkpt>
      <trkpt lat="43.24865" lon="5.93322">
        <ele>437</ele>
        <time>2012-11-18T10:20:35Z</time>
      </trkpt>
      <trkpt lat="43.24875" lon="5.93314">
        <ele>436</ele>
        <time>2012-11-18T10:20:37Z</time>
      </trkpt>
      <trkpt lat="43.24886" lon="5.93305">
        <ele>435</ele>
        <time>2012-11-18T10:20:39Z</time>
      </trkpt>
      <trkpt lat="43.24893" lon="5.93301">
        <ele>435</ele>
        <time>2012-11-18T10:20:40Z</time>
      </trkpt>
      <trkpt lat="43.249" lon="5.93299">
        <ele>434</ele>
        <time>2012-11-18T10:20:41Z</time>
      </trkpt>
      <trkpt lat="43.24907" lon="5.93297">
        <ele>434</ele>
        <time>2012-11-18T10:20:42Z</time>
      </trkpt>
      <trkpt lat="43.24913" lon="5.93295">
        <ele>433</ele>
        <time>2012-11-18T10:20:43Z</time>
      </trkpt>
      <trkpt lat="43.24927" lon="5.93296">
        <ele>432</ele>
        <time>2012-11-18T10:20:45Z</time>
      </trkpt>
      <trkpt lat="43.24932" lon="5.93297">
        <ele>432</ele>
        <time>2012-11-18T10:20:46Z</time>
      </trkpt>
      <trkpt lat="43.24937" lon="5.93295">
        <ele>432</ele>
        <time>2012-11-18T10:20:47Z</time>
      </trkpt>
      <trkpt lat="43.24942" lon="5.93293">
        <ele>431</ele>
        <time>2012-11-18T10:20:48Z</time>
      </trkpt>
      <trkpt lat="43.24949" lon="5.93291">
        <ele>431</ele>
        <time>2012-11-18T10:20:49Z</time>
      </trkpt>
      <trkpt lat="43.24954" lon="5.9329">
        <ele>430</ele>
        <time>2012-11-18T10:20:50Z</time>
      </trkpt>
      <trkpt lat="43.24959" lon="5.93289">
        <ele>430</ele>
        <time>2012-11-18T10:20:51Z</time>
      </trkpt>
      <trkpt lat="43.24963" lon="5.93287">
        <ele>429</ele>
        <time>2012-11-18T10:20:52Z</time>
      </trkpt>
      <trkpt lat="43.24969" lon="5.93288">
        <ele>429</ele>
        <time>2012-11-18T10:20:53Z</time>
      </trkpt>
      <trkpt lat="43.24974" lon="5.93289">
        <ele>429</ele>
        <time>2012-11-18T10:20:54Z</time>
      </trkpt>
      <trkpt lat="43.2498" lon="5.93289">
        <ele>428</ele>
        <time>2012-11-18T10:20:55Z</time>
      </trkpt>
      <trkpt lat="43.24985" lon="5.93289">
        <ele>428</ele>
        <time>2012-11-18T10:20:56Z</time>
      </trkpt>
      <trkpt lat="43.24991" lon="5.9329">
        <ele>428</ele>
        <time>2012-11-18T10:20:57Z</time>
      </trkpt>
      <trkpt lat="43.24996" lon="5.9329">
        <ele>428</ele>
        <time>2012-11-18T10:20:58Z</time>
      </trkpt>
      <trkpt lat="43.25003" lon="5.93291">
        <ele>428</ele>
        <time>2012-11-18T10:20:59Z</time>
      </trkpt>
      <trkpt lat="43.25009" lon="5.93291">
        <ele>428</ele>
        <time>2012-11-18T10:21:00Z</time>
      </trkpt>
      <trkpt lat="43.25014" lon="5.93289">
        <ele>428</ele>
        <time>2012-11-18T10:21:01Z</time>
      </trkpt>
      <trkpt lat="43.25021" lon="5.93286">
        <ele>428</ele>
        <time>2012-11-18T10:21:02Z</time>
      </trkpt>
      <trkpt lat="43.25027" lon="5.93284">
        <ele>428</ele>
        <time>2012-11-18T10:21:03Z</time>
      </trkpt>
      <trkpt lat="43.25032" lon="5.93283">
        <ele>428</ele>
        <time>2012-11-18T10:21:04Z</time>
      </trkpt>
      <trkpt lat="43.25044" lon="5.93281">
        <ele>428</ele>
        <time>2012-11-18T10:21:07Z</time>
      </trkpt>
      <trkpt lat="43.25054" lon="5.93284">
        <ele>428</ele>
        <time>2012-11-18T10:21:10Z</time>
      </trkpt>
      <trkpt lat="43.2506" lon="5.93287">
        <ele>428</ele>
        <time>2012-11-18T10:21:12Z</time>
      </trkpt>
      <trkpt lat="43.25064" lon="5.9329">
        <ele>429</ele>
        <time>2012-11-18T10:21:14Z</time>
      </trkpt>
      <trkpt lat="43.25069" lon="5.93292">
        <ele>429</ele>
        <time>2012-11-18T10:21:16Z</time>
      </trkpt>
      <trkpt lat="43.25075" lon="5.93295">
        <ele>429</ele>
        <time>2012-11-18T10:21:18Z</time>
      </trkpt>
      <trkpt lat="43.25084" lon="5.93295">
        <ele>429</ele>
        <time>2012-11-18T10:21:20Z</time>
      </trkpt>
      <trkpt lat="43.2509" lon="5.93294">
        <ele>429</ele>
        <time>2012-11-18T10:21:21Z</time>
      </trkpt>
      <trkpt lat="43.25102" lon="5.93294">
        <ele>429</ele>
        <time>2012-11-18T10:21:23Z</time>
      </trkpt>
      <trkpt lat="43.25106" lon="5.93291">
        <ele>428</ele>
        <time>2012-11-18T10:21:24Z</time>
      </trkpt>
      <trkpt lat="43.2511" lon="5.93281">
        <ele>427</ele>
        <time>2012-11-18T10:21:26Z</time>
      </trkpt>
      <trkpt lat="43.25112" lon="5.93275">
        <ele>427</ele>
        <time>2012-11-18T10:21:27Z</time>
      </trkpt>
      <trkpt lat="43.25117" lon="5.93265">
        <ele>426</ele>
        <time>2012-11-18T10:21:29Z</time>
      </trkpt>
      <trkpt lat="43.25124" lon="5.9326">
        <ele>425</ele>
        <time>2012-11-18T10:21:31Z</time>
      </trkpt>
      <trkpt lat="43.25129" lon="5.93258">
        <ele>424</ele>
        <time>2012-11-18T10:21:32Z</time>
      </trkpt>
      <trkpt lat="43.25134" lon="5.93259">
        <ele>424</ele>
        <time>2012-11-18T10:21:33Z</time>
      </trkpt>
      <trkpt lat="43.2514" lon="5.9326">
        <ele>423</ele>
        <time>2012-11-18T10:21:34Z</time>
      </trkpt>
      <trkpt lat="43.25145" lon="5.93259">
        <ele>423</ele>
        <time>2012-11-18T10:21:35Z</time>
      </trkpt>
      <trkpt lat="43.2515" lon="5.93259">
        <ele>422</ele>
        <time>2012-11-18T10:21:36Z</time>
      </trkpt>
      <trkpt lat="43.25156" lon="5.9326">
        <ele>421</ele>
        <time>2012-11-18T10:21:37Z</time>
      </trkpt>
      <trkpt lat="43.25161" lon="5.93262">
        <ele>421</ele>
        <time>2012-11-18T10:21:38Z</time>
      </trkpt>
      <trkpt lat="43.25167" lon="5.93264">
        <ele>420</ele>
        <time>2012-11-18T10:21:39Z</time>
      </trkpt>
      <trkpt lat="43.25173" lon="5.93263">
        <ele>420</ele>
        <time>2012-11-18T10:21:40Z</time>
      </trkpt>
      <trkpt lat="43.25179" lon="5.93262">
        <ele>419</ele>
        <time>2012-11-18T10:21:41Z</time>
      </trkpt>
      <trkpt lat="43.25186" lon="5.93263">
        <ele>419</ele>
        <time>2012-11-18T10:21:42Z</time>
      </trkpt>
      <trkpt lat="43.25192" lon="5.93264">
        <ele>419</ele>
        <time>2012-11-18T10:21:43Z</time>
      </trkpt>
      <trkpt lat="43.25201" lon="5.9326">
        <ele>418</ele>
        <time>2012-11-18T10:21:46Z</time>
      </trkpt>
      <trkpt lat="43.2521" lon="5.93256">
        <ele>418</ele>
        <time>2012-11-18T10:21:48Z</time>
      </trkpt>
      <trkpt lat="43.25216" lon="5.93255">
        <ele>417</ele>
        <time>2012-11-18T10:21:49Z</time>
      </trkpt>
      <trkpt lat="43.25222" lon="5.93254">
        <ele>417</ele>
        <time>2012-11-18T10:21:50Z</time>
      </trkpt>
      <trkpt lat="43.25228" lon="5.93256">
        <ele>414</ele>
        <time>2012-11-18T10:21:59Z</time>
      </trkpt>
      <trkpt lat="43.25236" lon="5.93254">
        <ele>413</ele>
        <time>2012-11-18T10:22:01Z</time>
      </trkpt>
      <trkpt lat="43.25247" lon="5.93249">
        <ele>412</ele>
        <time>2012-11-18T10:22:03Z</time>
      </trkpt>
      <trkpt lat="43.25259" lon="5.93243">
        <ele>411</ele>
        <time>2012-11-18T10:22:05Z</time>
      </trkpt>
      <trkpt lat="43.25264" lon="5.9324">
        <ele>411</ele>
        <time>2012-11-18T10:22:06Z</time>
      </trkpt>
      <trkpt lat="43.2527" lon="5.93238">
        <ele>410</ele>
        <time>2012-11-18T10:22:07Z</time>
      </trkpt>
      <trkpt lat="43.25275" lon="5.93235">
        <ele>410</ele>
        <time>2012-11-18T10:22:08Z</time>
      </trkpt>
      <trkpt lat="43.25281" lon="5.93232">
        <ele>410</ele>
        <time>2012-11-18T10:22:09Z</time>
      </trkpt>
      <trkpt lat="43.25288" lon="5.9323">
        <ele>409</ele>
        <time>2012-11-18T10:22:10Z</time>
      </trkpt>
      <trkpt lat="43.25296" lon="5.93221">
        <ele>409</ele>
        <time>2012-11-18T10:22:12Z</time>
      </trkpt>
      <trkpt lat="43.25307" lon="5.93213">
        <ele>407</ele>
        <time>2012-11-18T10:22:14Z</time>
      </trkpt>
      <trkpt lat="43.25312" lon="5.93211">
        <ele>407</ele>
        <time>2012-11-18T10:22:15Z</time>
      </trkpt>
      <trkpt lat="43.25323" lon="5.93213">
        <ele>406</ele>
        <time>2012-11-18T10:22:17Z</time>
      </trkpt>
      <trkpt lat="43.25336" lon="5.93213">
        <ele>405</ele>
        <time>2012-11-18T10:22:19Z</time>
      </trkpt>
      <trkpt lat="43.25342" lon="5.93212">
        <ele>404</ele>
        <time>2012-11-18T10:22:20Z</time>
      </trkpt>
      <trkpt lat="43.25347" lon="5.93208">
        <ele>404</ele>
        <time>2012-11-18T10:22:21Z</time>
      </trkpt>
      <trkpt lat="43.25352" lon="5.93205">
        <ele>403</ele>
        <time>2012-11-18T10:22:22Z</time>
      </trkpt>
      <trkpt lat="43.25358" lon="5.93201">
        <ele>403</ele>
        <time>2012-11-18T10:22:23Z</time>
      </trkpt>
      <trkpt lat="43.25364" lon="5.93198">
        <ele>402</ele>
        <time>2012-11-18T10:22:24Z</time>
      </trkpt>
      <trkpt lat="43.2537" lon="5.93196">
        <ele>402</ele>
        <time>2012-11-18T10:22:25Z</time>
      </trkpt>
      <trkpt lat="43.25376" lon="5.93194">
        <ele>402</ele>
        <time>2012-11-18T10:22:26Z</time>
      </trkpt>
      <trkpt lat="43.25384" lon="5.93192">
        <ele>402</ele>
        <time>2012-11-18T10:22:27Z</time>
      </trkpt>
      <trkpt lat="43.25391" lon="5.93191">
        <ele>402</ele>
        <time>2012-11-18T10:22:28Z</time>
      </trkpt>
      <trkpt lat="43.25398" lon="5.9319">
        <ele>402</ele>
        <time>2012-11-18T10:22:29Z</time>
      </trkpt>
      <trkpt lat="43.25404" lon="5.9319">
        <ele>402</ele>
        <time>2012-11-18T10:22:30Z</time>
      </trkpt>
      <trkpt lat="43.25411" lon="5.9319">
        <ele>402</ele>
        <time>2012-11-18T10:22:31Z</time>
      </trkpt>
      <trkpt lat="43.25417" lon="5.93192">
        <ele>402</ele>
        <time>2012-11-18T10:22:32Z</time>
      </trkpt>
      <trkpt lat="43.25423" lon="5.93194">
        <ele>402</ele>
        <time>2012-11-18T10:22:33Z</time>
      </trkpt>
      <trkpt lat="43.25429" lon="5.93197">
        <ele>402</ele>
        <time>2012-11-18T10:22:34Z</time>
      </trkpt>
      <trkpt lat="43.25435" lon="5.93199">
        <ele>402</ele>
        <time>2012-11-18T10:22:35Z</time>
      </trkpt>
      <trkpt lat="43.2544" lon="5.93201">
        <ele>402</ele>
        <time>2012-11-18T10:22:36Z</time>
      </trkpt>
      <trkpt lat="43.25444" lon="5.93203">
        <ele>402</ele>
        <time>2012-11-18T10:22:37Z</time>
      </trkpt>
      <trkpt lat="43.25449" lon="5.93204">
        <ele>402</ele>
        <time>2012-11-18T10:22:38Z</time>
      </trkpt>
      <trkpt lat="43.25457" lon="5.93205">
        <ele>402</ele>
        <time>2012-11-18T10:22:40Z</time>
      </trkpt>
      <trkpt lat="43.25462" lon="5.93205">
        <ele>402</ele>
        <time>2012-11-18T10:22:41Z</time>
      </trkpt>
      <trkpt lat="43.25467" lon="5.93205">
        <ele>402</ele>
        <time>2012-11-18T10:22:42Z</time>
      </trkpt>
      <trkpt lat="43.25479" lon="5.93205">
        <ele>401</ele>
        <time>2012-11-18T10:22:44Z</time>
      </trkpt>
      <trkpt lat="43.25484" lon="5.93205">
        <ele>401</ele>
        <time>2012-11-18T10:22:45Z</time>
      </trkpt>
      <trkpt lat="43.25491" lon="5.93206">
        <ele>400</ele>
        <time>2012-11-18T10:22:47Z</time>
      </trkpt>
      <trkpt lat="43.255" lon="5.93208">
        <ele>400</ele>
        <time>2012-11-18T10:22:49Z</time>
      </trkpt>
      <trkpt lat="43.25504" lon="5.93209">
        <ele>399</ele>
        <time>2012-11-18T10:22:50Z</time>
      </trkpt>
      <trkpt lat="43.25509" lon="5.93211">
        <ele>399</ele>
        <time>2012-11-18T10:22:51Z</time>
      </trkpt>
      <trkpt lat="43.25519" lon="5.93217">
        <ele>399</ele>
        <time>2012-11-18T10:22:54Z</time>
      </trkpt>
      <trkpt lat="43.25524" lon="5.93217">
        <ele>400</ele>
        <time>2012-11-18T10:22:56Z</time>
      </trkpt>
      <trkpt lat="43.25536" lon="5.93218">
        <ele>399</ele>
        <time>2012-11-18T10:23:01Z</time>
      </trkpt>
      <trkpt lat="43.25541" lon="5.9322">
        <ele>399</ele>
        <time>2012-11-18T10:23:03Z</time>
      </trkpt>
      <trkpt lat="43.25546" lon="5.93223">
        <ele>398</ele>
        <time>2012-11-18T10:23:05Z</time>
      </trkpt>
      <trkpt lat="43.25557" lon="5.93225">
        <ele>398</ele>
        <time>2012-11-18T10:23:09Z</time>
      </trkpt>
      <trkpt lat="43.25562" lon="5.93228">
        <ele>398</ele>
        <time>2012-11-18T10:23:11Z</time>
      </trkpt>
      <trkpt lat="43.2557" lon="5.93233">
        <ele>399</ele>
        <time>2012-11-18T10:23:14Z</time>
      </trkpt>
      <trkpt lat="43.25576" lon="5.93238">
        <ele>400</ele>
        <time>2012-11-18T10:23:16Z</time>
      </trkpt>
      <trkpt lat="43.25582" lon="5.93243">
        <ele>400</ele>
        <time>2012-11-18T10:23:18Z</time>
      </trkpt>
      <trkpt lat="43.25587" lon="5.93249">
        <ele>400</ele>
        <time>2012-11-18T10:23:20Z</time>
      </trkpt>
      <trkpt lat="43.25593" lon="5.93254">
        <ele>401</ele>
        <time>2012-11-18T10:23:22Z</time>
      </trkpt>
      <trkpt lat="43.25598" lon="5.93258">
        <ele>401</ele>
        <time>2012-11-18T10:23:24Z</time>
      </trkpt>
      <trkpt lat="43.25603" lon="5.93261">
        <ele>402</ele>
        <time>2012-11-18T10:23:26Z</time>
      </trkpt>
      <trkpt lat="43.2561" lon="5.93265">
        <ele>402</ele>
        <time>2012-11-18T10:23:28Z</time>
      </trkpt>
      <trkpt lat="43.25616" lon="5.93268">
        <ele>402</ele>
        <time>2012-11-18T10:23:30Z</time>
      </trkpt>
      <trkpt lat="43.25626" lon="5.93268">
        <ele>400</ele>
        <time>2012-11-18T10:23:34Z</time>
      </trkpt>
      <trkpt lat="43.25632" lon="5.93267">
        <ele>400</ele>
        <time>2012-11-18T10:23:36Z</time>
      </trkpt>
      <trkpt lat="43.25638" lon="5.93266">
        <ele>399</ele>
        <time>2012-11-18T10:23:38Z</time>
      </trkpt>
      <trkpt lat="43.25645" lon="5.93267">
        <ele>398</ele>
        <time>2012-11-18T10:23:40Z</time>
      </trkpt>
      <trkpt lat="43.25653" lon="5.93269">
        <ele>398</ele>
        <time>2012-11-18T10:23:42Z</time>
      </trkpt>
      <trkpt lat="43.25658" lon="5.93272">
        <ele>397</ele>
        <time>2012-11-18T10:23:44Z</time>
      </trkpt>
      <trkpt lat="43.25663" lon="5.93275">
        <ele>397</ele>
        <time>2012-11-18T10:23:46Z</time>
      </trkpt>
      <trkpt lat="43.25672" lon="5.93278">
        <ele>397</ele>
        <time>2012-11-18T10:23:49Z</time>
      </trkpt>
      <trkpt lat="43.25677" lon="5.93279">
        <ele>396</ele>
        <time>2012-11-18T10:23:51Z</time>
      </trkpt>
      <trkpt lat="43.25688" lon="5.93278">
        <ele>397</ele>
        <time>2012-11-18T10:23:55Z</time>
      </trkpt>
      <trkpt lat="43.25694" lon="5.93278">
        <ele>396</ele>
        <time>2012-11-18T10:23:57Z</time>
      </trkpt>
      <trkpt lat="43.25701" lon="5.93278">
        <ele>396</ele>
        <time>2012-11-18T10:23:59Z</time>
      </trkpt>
      <trkpt lat="43.25707" lon="5.93278">
        <ele>396</ele>
        <time>2012-11-18T10:24:01Z</time>
      </trkpt>
      <trkpt lat="43.25713" lon="5.93278">
        <ele>395</ele>
        <time>2012-11-18T10:24:03Z</time>
      </trkpt>
      <trkpt lat="43.25723" lon="5.93282">
        <ele>396</ele>
        <time>2012-11-18T10:24:07Z</time>
      </trkpt>
      <trkpt lat="43.25731" lon="5.93286">
        <ele>397</ele>
        <time>2012-11-18T10:24:10Z</time>
      </trkpt>
      <trkpt lat="43.25742" lon="5.9329">
        <ele>397</ele>
        <time>2012-11-18T10:24:14Z</time>
      </trkpt>
      <trkpt lat="43.25752" lon="5.93294">
        <ele>398</ele>
        <time>2012-11-18T10:24:17Z</time>
      </trkpt>
      <trkpt lat="43.25758" lon="5.93297">
        <ele>397</ele>
        <time>2012-11-18T10:24:19Z</time>
      </trkpt>
      <trkpt lat="43.25763" lon="5.933">
        <ele>397</ele>
        <time>2012-11-18T10:24:21Z</time>
      </trkpt>
      <trkpt lat="43.25769" lon="5.93304">
        <ele>399</ele>
        <time>2012-11-18T10:24:24Z</time>
      </trkpt>
      <trkpt lat="43.25774" lon="5.93307">
        <ele>401</ele>
        <time>2012-11-18T10:24:26Z</time>
      </trkpt>
      <trkpt lat="43.25779" lon="5.9331">
        <ele>402</ele>
        <time>2012-11-18T10:24:28Z</time>
      </trkpt>
      <trkpt lat="43.25784" lon="5.93314">
        <ele>404</ele>
        <time>2012-11-18T10:24:30Z</time>
      </trkpt>
      <trkpt lat="43.25788" lon="5.93318">
        <ele>405</ele>
        <time>2012-11-18T10:24:32Z</time>
      </trkpt>
      <trkpt lat="43.25792" lon="5.93325">
        <ele>406</ele>
        <time>2012-11-18T10:24:34Z</time>
      </trkpt>
      <trkpt lat="43.25796" lon="5.93333">
        <ele>407</ele>
        <time>2012-11-18T10:24:36Z</time>
      </trkpt>
      <trkpt lat="43.25799" lon="5.93339">
        <ele>407</ele>
        <time>2012-11-18T10:24:38Z</time>
      </trkpt>
      <trkpt lat="43.25803" lon="5.93342">
        <ele>408</ele>
        <time>2012-11-18T10:24:40Z</time>
      </trkpt>
      <trkpt lat="43.25808" lon="5.93344">
        <ele>409</ele>
        <time>2012-11-18T10:24:42Z</time>
      </trkpt>
      <trkpt lat="43.25816" lon="5.93344">
        <ele>409</ele>
        <time>2012-11-18T10:24:45Z</time>
      </trkpt>
      <trkpt lat="43.25821" lon="5.93344">
        <ele>410</ele>
        <time>2012-11-18T10:24:47Z</time>
      </trkpt>
      <trkpt lat="43.25828" lon="5.93345">
        <ele>410</ele>
        <time>2012-11-18T10:24:49Z</time>
      </trkpt>
      <trkpt lat="43.25834" lon="5.93348">
        <ele>410</ele>
        <time>2012-11-18T10:24:51Z</time>
      </trkpt>
      <trkpt lat="43.2584" lon="5.9335">
        <ele>410</ele>
        <time>2012-11-18T10:24:53Z</time>
      </trkpt>
      <trkpt lat="43.25845" lon="5.93354">
        <ele>410</ele>
        <time>2012-11-18T10:24:55Z</time>
      </trkpt>
      <trkpt lat="43.25849" lon="5.93361">
        <ele>411</ele>
        <time>2012-11-18T10:24:58Z</time>
      </trkpt>
      <trkpt lat="43.25853" lon="5.9337">
        <ele>411</ele>
        <time>2012-11-18T10:25:00Z</time>
      </trkpt>
      <trkpt lat="43.25854" lon="5.93379">
        <ele>411</ele>
        <time>2012-11-18T10:25:02Z</time>
      </trkpt>
      <trkpt lat="43.25854" lon="5.93388">
        <ele>411</ele>
        <time>2012-11-18T10:25:04Z</time>
      </trkpt>
      <trkpt lat="43.25855" lon="5.93397">
        <ele>411</ele>
        <time>2012-11-18T10:25:06Z</time>
      </trkpt>
      <trkpt lat="43.25855" lon="5.93405">
        <ele>411</ele>
        <time>2012-11-18T10:25:08Z</time>
      </trkpt>
      <trkpt lat="43.25855" lon="5.93411">
        <ele>411</ele>
        <time>2012-11-18T10:25:10Z</time>
      </trkpt>
      <trkpt lat="43.25855" lon="5.9342">
        <ele>410</ele>
        <time>2012-11-18T10:25:12Z</time>
      </trkpt>
      <trkpt lat="43.25855" lon="5.93428">
        <ele>410</ele>
        <time>2012-11-18T10:25:14Z</time>
      </trkpt>
      <trkpt lat="43.25855" lon="5.93437">
        <ele>409</ele>
        <time>2012-11-18T10:25:16Z</time>
      </trkpt>
      <trkpt lat="43.25856" lon="5.9345">
        <ele>409</ele>
        <time>2012-11-18T10:25:20Z</time>
      </trkpt>
      <trkpt lat="43.25856" lon="5.93457">
        <ele>409</ele>
        <time>2012-11-18T10:25:22Z</time>
      </trkpt>
      <trkpt lat="43.25857" lon="5.93471">
        <ele>408</ele>
        <time>2012-11-18T10:25:26Z</time>
      </trkpt>
      <trkpt lat="43.25863" lon="5.93481">
        <ele>408</ele>
        <time>2012-11-18T10:25:30Z</time>
      </trkpt>
      <trkpt lat="43.25869" lon="5.93484">
        <ele>409</ele>
        <time>2012-11-18T10:25:33Z</time>
      </trkpt>
      <trkpt lat="43.25875" lon="5.93484">
        <ele>409</ele>
        <time>2012-11-18T10:25:35Z</time>
      </trkpt>
      <trkpt lat="43.25882" lon="5.93486">
        <ele>410</ele>
        <time>2012-11-18T10:25:38Z</time>
      </trkpt>
      <trkpt lat="43.25887" lon="5.93491">
        <ele>410</ele>
        <time>2012-11-18T10:25:40Z</time>
      </trkpt>
      <trkpt lat="43.25892" lon="5.93496">
        <ele>410</ele>
        <time>2012-11-18T10:25:42Z</time>
      </trkpt>
      <trkpt lat="43.25896" lon="5.93503">
        <ele>410</ele>
        <time>2012-11-18T10:25:44Z</time>
      </trkpt>
      <trkpt lat="43.259" lon="5.9351">
        <ele>411</ele>
        <time>2012-11-18T10:25:46Z</time>
      </trkpt>
      <trkpt lat="43.25903" lon="5.93517">
        <ele>412</ele>
        <time>2012-11-18T10:25:48Z</time>
      </trkpt>
      <trkpt lat="43.25905" lon="5.93524">
        <ele>411</ele>
        <time>2012-11-18T10:25:50Z</time>
      </trkpt>
      <trkpt lat="43.25909" lon="5.93536">
        <ele>411</ele>
        <time>2012-11-18T10:25:53Z</time>
      </trkpt>
      <trkpt lat="43.25909" lon="5.93544">
        <ele>411</ele>
        <time>2012-11-18T10:25:55Z</time>
      </trkpt>
      <trkpt lat="43.2591" lon="5.93551">
        <ele>411</ele>
        <time>2012-11-18T10:25:57Z</time>
      </trkpt>
      <trkpt lat="43.25911" lon="5.9356">
        <ele>411</ele>
        <time>2012-11-18T10:26:00Z</time>
      </trkpt>
      <trkpt lat="43.25916" lon="5.9357">
        <ele>411</ele>
        <time>2012-11-18T10:26:03Z</time>
      </trkpt>
      <trkpt lat="43.2592" lon="5.93576">
        <ele>412</ele>
        <time>2012-11-18T10:26:05Z</time>
      </trkpt>
      <trkpt lat="43.25925" lon="5.93582">
        <ele>412</ele>
        <time>2012-11-18T10:26:07Z</time>
      </trkpt>
      <trkpt lat="43.2593" lon="5.93587">
        <ele>413</ele>
        <time>2012-11-18T10:26:09Z</time>
      </trkpt>
      <trkpt lat="43.25935" lon="5.93589">
        <ele>413</ele>
        <time>2012-11-18T10:26:11Z</time>
      </trkpt>
      <trkpt lat="43.25944" lon="5.93586">
        <ele>414</ele>
        <time>2012-11-18T10:26:14Z</time>
      </trkpt>
      <trkpt lat="43.25953" lon="5.93583">
        <ele>414</ele>
        <time>2012-11-18T10:27:15Z</time>
      </trkpt>
      <trkpt lat="43.25964" lon="5.93579">
        <ele>414</ele>
        <time>2012-11-18T10:27:19Z</time>
      </trkpt>
      <trkpt lat="43.25973" lon="5.93576">
        <ele>413</ele>
        <time>2012-11-18T10:27:22Z</time>
      </trkpt>
      <trkpt lat="43.25983" lon="5.9357">
        <ele>412</ele>
        <time>2012-11-18T10:27:25Z</time>
      </trkpt>
      <trkpt lat="43.25992" lon="5.93563">
        <ele>413</ele>
        <time>2012-11-18T10:27:28Z</time>
      </trkpt>
      <trkpt lat="43.25997" lon="5.93558">
        <ele>413</ele>
        <time>2012-11-18T10:27:30Z</time>
      </trkpt>
      <trkpt lat="43.26003" lon="5.93555">
        <ele>413</ele>
        <time>2012-11-18T10:27:32Z</time>
      </trkpt>
      <trkpt lat="43.2601" lon="5.93554">
        <ele>413</ele>
        <time>2012-11-18T10:27:34Z</time>
      </trkpt>
      <trkpt lat="43.26016" lon="5.93555">
        <ele>414</ele>
        <time>2012-11-18T10:27:36Z</time>
      </trkpt>
      <trkpt lat="43.26021" lon="5.93558">
        <ele>415</ele>
        <time>2012-11-18T10:27:38Z</time>
      </trkpt>
      <trkpt lat="43.26025" lon="5.93561">
        <ele>415</ele>
        <time>2012-11-18T10:27:40Z</time>
      </trkpt>
      <trkpt lat="43.26031" lon="5.93564">
        <ele>416</ele>
        <time>2012-11-18T10:27:42Z</time>
      </trkpt>
      <trkpt lat="43.26042" lon="5.93569">
        <ele>418</ele>
        <time>2012-11-18T10:27:45Z</time>
      </trkpt>
      <trkpt lat="43.26048" lon="5.93572">
        <ele>418</ele>
        <time>2012-11-18T10:27:47Z</time>
      </trkpt>
      <trkpt lat="43.26053" lon="5.93575">
        <ele>419</ele>
        <time>2012-11-18T10:27:49Z</time>
      </trkpt>
      <trkpt lat="43.26059" lon="5.93578">
        <ele>419</ele>
        <time>2012-11-18T10:27:51Z</time>
      </trkpt>
      <trkpt lat="43.26064" lon="5.93582">
        <ele>420</ele>
        <time>2012-11-18T10:27:53Z</time>
      </trkpt>
      <trkpt lat="43.26069" lon="5.93586">
        <ele>420</ele>
        <time>2012-11-18T10:27:55Z</time>
      </trkpt>
      <trkpt lat="43.26075" lon="5.9359">
        <ele>421</ele>
        <time>2012-11-18T10:27:57Z</time>
      </trkpt>
      <trkpt lat="43.26081" lon="5.93593">
        <ele>422</ele>
        <time>2012-11-18T10:27:59Z</time>
      </trkpt>
      <trkpt lat="43.26086" lon="5.93598">
        <ele>422</ele>
        <time>2012-11-18T10:28:01Z</time>
      </trkpt>
      <trkpt lat="43.26092" lon="5.93604">
        <ele>422</ele>
        <time>2012-11-18T10:28:03Z</time>
      </trkpt>
      <trkpt lat="43.26096" lon="5.9361">
        <ele>423</ele>
        <time>2012-11-18T10:28:05Z</time>
      </trkpt>
      <trkpt lat="43.261" lon="5.93616">
        <ele>422</ele>
        <time>2012-11-18T10:28:07Z</time>
      </trkpt>
      <trkpt lat="43.26104" lon="5.93622">
        <ele>423</ele>
        <time>2012-11-18T10:28:09Z</time>
      </trkpt>
      <trkpt lat="43.26109" lon="5.93628">
        <ele>423</ele>
        <time>2012-11-18T10:28:11Z</time>
      </trkpt>
      <trkpt lat="43.26113" lon="5.93636">
        <ele>423</ele>
        <time>2012-11-18T10:28:13Z</time>
      </trkpt>
      <trkpt lat="43.26118" lon="5.93642">
        <ele>423</ele>
        <time>2012-11-18T10:28:15Z</time>
      </trkpt>
      <trkpt lat="43.26122" lon="5.93647">
        <ele>423</ele>
        <time>2012-11-18T10:28:17Z</time>
      </trkpt>
      <trkpt lat="43.26125" lon="5.93654">
        <ele>423</ele>
        <time>2012-11-18T10:28:19Z</time>
      </trkpt>
      <trkpt lat="43.26129" lon="5.9366">
        <ele>423</ele>
        <time>2012-11-18T10:28:21Z</time>
      </trkpt>
      <trkpt lat="43.26133" lon="5.93665">
        <ele>423</ele>
        <time>2012-11-18T10:28:23Z</time>
      </trkpt>
      <trkpt lat="43.26137" lon="5.9367">
        <ele>423</ele>
        <time>2012-11-18T10:28:25Z</time>
      </trkpt>
      <trkpt lat="43.26142" lon="5.93675">
        <ele>423</ele>
        <time>2012-11-18T10:28:27Z</time>
      </trkpt>
      <trkpt lat="43.26147" lon="5.93681">
        <ele>424</ele>
        <time>2012-11-18T10:28:29Z</time>
      </trkpt>
      <trkpt lat="43.26156" lon="5.93687">
        <ele>424</ele>
        <time>2012-11-18T10:28:32Z</time>
      </trkpt>
      <trkpt lat="43.26161" lon="5.9369">
        <ele>425</ele>
        <time>2012-11-18T10:28:34Z</time>
      </trkpt>
      <trkpt lat="43.26166" lon="5.93695">
        <ele>425</ele>
        <time>2012-11-18T10:28:36Z</time>
      </trkpt>
      <trkpt lat="43.2617" lon="5.93702">
        <ele>425</ele>
        <time>2012-11-18T10:28:38Z</time>
      </trkpt>
      <trkpt lat="43.26175" lon="5.93709">
        <ele>425</ele>
        <time>2012-11-18T10:28:40Z</time>
      </trkpt>
      <trkpt lat="43.26179" lon="5.93716">
        <ele>425</ele>
        <time>2012-11-18T10:28:42Z</time>
      </trkpt>
      <trkpt lat="43.26183" lon="5.93722">
        <ele>425</ele>
        <time>2012-11-18T10:28:44Z</time>
      </trkpt>
      <trkpt lat="43.26188" lon="5.93731">
        <ele>425</ele>
        <time>2012-11-18T10:28:46Z</time>
      </trkpt>
      <trkpt lat="43.26191" lon="5.93738">
        <ele>425</ele>
        <time>2012-11-18T10:28:48Z</time>
      </trkpt>
      <trkpt lat="43.26194" lon="5.93745">
        <ele>426</ele>
        <time>2012-11-18T10:28:50Z</time>
      </trkpt>
      <trkpt lat="43.26197" lon="5.93752">
        <ele>426</ele>
        <time>2012-11-18T10:28:52Z</time>
      </trkpt>
      <trkpt lat="43.262" lon="5.93759">
        <ele>426</ele>
        <time>2012-11-18T10:28:54Z</time>
      </trkpt>
      <trkpt lat="43.26202" lon="5.93767">
        <ele>426</ele>
        <time>2012-11-18T10:28:56Z</time>
      </trkpt>
      <trkpt lat="43.26205" lon="5.93776">
        <ele>426</ele>
        <time>2012-11-18T10:28:58Z</time>
      </trkpt>
      <trkpt lat="43.26207" lon="5.93784">
        <ele>426</ele>
        <time>2012-11-18T10:29:00Z</time>
      </trkpt>
      <trkpt lat="43.2621" lon="5.93793">
        <ele>426</ele>
        <time>2012-11-18T10:29:02Z</time>
      </trkpt>
      <trkpt lat="43.26212" lon="5.938">
        <ele>426</ele>
        <time>2012-11-18T10:29:04Z</time>
      </trkpt>
      <trkpt lat="43.26214" lon="5.93807">
        <ele>426</ele>
        <time>2012-11-18T10:29:06Z</time>
      </trkpt>
      <trkpt lat="43.26217" lon="5.93814">
        <ele>426</ele>
        <time>2012-11-18T10:29:08Z</time>
      </trkpt>
      <trkpt lat="43.2622" lon="5.93823">
        <ele>427</ele>
        <time>2012-11-18T10:29:10Z</time>
      </trkpt>
      <trkpt lat="43.26223" lon="5.93832">
        <ele>427</ele>
        <time>2012-11-18T10:29:12Z</time>
      </trkpt>
      <trkpt lat="43.26225" lon="5.9384">
        <ele>427</ele>
        <time>2012-11-18T10:29:14Z</time>
      </trkpt>
      <trkpt lat="43.26226" lon="5.93852">
        <ele>427</ele>
        <time>2012-11-18T10:29:17Z</time>
      </trkpt>
      <trkpt lat="43.26227" lon="5.9386">
        <ele>427</ele>
        <time>2012-11-18T10:29:20Z</time>
      </trkpt>
      <trkpt lat="43.26228" lon="5.93866">
        <ele>427</ele>
        <time>2012-11-18T10:29:23Z</time>
      </trkpt>
      <trkpt lat="43.2623" lon="5.93873">
        <ele>428</ele>
        <time>2012-11-18T10:29:26Z</time>
      </trkpt>
      <trkpt lat="43.2623" lon="5.93881">
        <ele>428</ele>
        <time>2012-11-18T10:29:29Z</time>
      </trkpt>
      <trkpt lat="43.26231" lon="5.93889">
        <ele>428</ele>
        <time>2012-11-18T10:29:32Z</time>
      </trkpt>
      <trkpt lat="43.26231" lon="5.93896">
        <ele>428</ele>
        <time>2012-11-18T10:29:34Z</time>
      </trkpt>
      <trkpt lat="43.26232" lon="5.93906">
        <ele>428</ele>
        <time>2012-11-18T10:29:36Z</time>
      </trkpt>
      <trkpt lat="43.26236" lon="5.93915">
        <ele>427</ele>
        <time>2012-11-18T10:29:38Z</time>
      </trkpt>
      <trkpt lat="43.26237" lon="5.93924">
        <ele>427</ele>
        <time>2012-11-18T10:29:40Z</time>
      </trkpt>
      <trkpt lat="43.26238" lon="5.93932">
        <ele>427</ele>
        <time>2012-11-18T10:29:42Z</time>
      </trkpt>
      <trkpt lat="43.26243" lon="5.93939">
        <ele>427</ele>
        <time>2012-11-18T10:29:44Z</time>
      </trkpt>
      <trkpt lat="43.26244" lon="5.93952">
        <ele>427</ele>
        <time>2012-11-18T10:29:46Z</time>
      </trkpt>
      <trkpt lat="43.26241" lon="5.93959">
        <ele>427</ele>
        <time>2012-11-18T10:29:47Z</time>
      </trkpt>
      <trkpt lat="43.26239" lon="5.93965">
        <ele>427</ele>
        <time>2012-11-18T10:29:48Z</time>
      </trkpt>
      <trkpt lat="43.26235" lon="5.93975">
        <ele>427</ele>
        <time>2012-11-18T10:29:50Z</time>
      </trkpt>
      <trkpt lat="43.26232" lon="5.93984">
        <ele>427</ele>
        <time>2012-11-18T10:29:52Z</time>
      </trkpt>
      <trkpt lat="43.26229" lon="5.93993">
        <ele>426</ele>
        <time>2012-11-18T10:29:54Z</time>
      </trkpt>
      <trkpt lat="43.26227" lon="5.94">
        <ele>427</ele>
        <time>2012-11-18T10:29:56Z</time>
      </trkpt>
      <trkpt lat="43.26224" lon="5.94008">
        <ele>427</ele>
        <time>2012-11-18T10:29:58Z</time>
      </trkpt>
      <trkpt lat="43.26222" lon="5.94014">
        <ele>428</ele>
        <time>2012-11-18T10:30:00Z</time>
      </trkpt>
      <trkpt lat="43.26221" lon="5.94021">
        <ele>428</ele>
        <time>2012-11-18T10:30:02Z</time>
      </trkpt>
      <trkpt lat="43.26218" lon="5.94029">
        <ele>429</ele>
        <time>2012-11-18T10:30:04Z</time>
      </trkpt>
      <trkpt lat="43.26216" lon="5.94036">
        <ele>429</ele>
        <time>2012-11-18T10:30:06Z</time>
      </trkpt>
      <trkpt lat="43.26215" lon="5.94042">
        <ele>429</ele>
        <time>2012-11-18T10:30:08Z</time>
      </trkpt>
      <trkpt lat="43.26214" lon="5.9405">
        <ele>429</ele>
        <time>2012-11-18T10:30:11Z</time>
      </trkpt>
      <trkpt lat="43.26212" lon="5.94057">
        <ele>429</ele>
        <time>2012-11-18T10:30:14Z</time>
      </trkpt>
      <trkpt lat="43.26211" lon="5.94065">
        <ele>430</ele>
        <time>2012-11-18T10:30:17Z</time>
      </trkpt>
      <trkpt lat="43.26212" lon="5.94072">
        <ele>430</ele>
        <time>2012-11-18T10:30:20Z</time>
      </trkpt>
      <trkpt lat="43.26211" lon="5.9408">
        <ele>430</ele>
        <time>2012-11-18T10:30:23Z</time>
      </trkpt>
      <trkpt lat="43.2621" lon="5.94088">
        <ele>430</ele>
        <time>2012-11-18T10:30:26Z</time>
      </trkpt>
      <trkpt lat="43.26208" lon="5.94097">
        <ele>431</ele>
        <time>2012-11-18T10:30:29Z</time>
      </trkpt>
      <trkpt lat="43.26206" lon="5.94104">
        <ele>431</ele>
        <time>2012-11-18T10:30:32Z</time>
      </trkpt>
      <trkpt lat="43.26201" lon="5.94109">
        <ele>432</ele>
        <time>2012-11-18T10:30:35Z</time>
      </trkpt>
      <trkpt lat="43.26197" lon="5.94113">
        <ele>432</ele>
        <time>2012-11-18T10:30:37Z</time>
      </trkpt>
      <trkpt lat="43.26194" lon="5.94117">
        <ele>432</ele>
        <time>2012-11-18T10:30:40Z</time>
      </trkpt>
      <trkpt lat="43.26191" lon="5.94121">
        <ele>433</ele>
        <time>2012-11-18T10:30:43Z</time>
      </trkpt>
      <trkpt lat="43.26188" lon="5.94127">
        <ele>433</ele>
        <time>2012-11-18T10:30:46Z</time>
      </trkpt>
      <trkpt lat="43.26187" lon="5.94134">
        <ele>433</ele>
        <time>2012-11-18T10:30:49Z</time>
      </trkpt>
      <trkpt lat="43.26186" lon="5.94142">
        <ele>434</ele>
        <time>2012-11-18T10:30:52Z</time>
      </trkpt>
      <trkpt lat="43.26184" lon="5.9415">
        <ele>435</ele>
        <time>2012-11-18T10:30:55Z</time>
      </trkpt>
      <trkpt lat="43.26183" lon="5.9416">
        <ele>436</ele>
        <time>2012-11-18T10:30:58Z</time>
      </trkpt>
      <trkpt lat="43.26182" lon="5.94166">
        <ele>436</ele>
        <time>2012-11-18T10:31:00Z</time>
      </trkpt>
      <trkpt lat="43.26182" lon="5.94172">
        <ele>437</ele>
        <time>2012-11-18T10:31:02Z</time>
      </trkpt>
      <trkpt lat="43.26181" lon="5.94179">
        <ele>437</ele>
        <time>2012-11-18T10:31:04Z</time>
      </trkpt>
      <trkpt lat="43.2618" lon="5.94186">
        <ele>438</ele>
        <time>2012-11-18T10:31:06Z</time>
      </trkpt>
      <trkpt lat="43.26179" lon="5.94195">
        <ele>438</ele>
        <time>2012-11-18T10:31:08Z</time>
      </trkpt>
      <trkpt lat="43.26176" lon="5.94202">
        <ele>438</ele>
        <time>2012-11-18T10:31:10Z</time>
      </trkpt>
      <trkpt lat="43.26172" lon="5.94207">
        <ele>439</ele>
        <time>2012-11-18T10:31:12Z</time>
      </trkpt>
      <trkpt lat="43.26169" lon="5.94213">
        <ele>439</ele>
        <time>2012-11-18T10:31:14Z</time>
      </trkpt>
      <trkpt lat="43.26166" lon="5.94219">
        <ele>439</ele>
        <time>2012-11-18T10:31:16Z</time>
      </trkpt>
      <trkpt lat="43.26162" lon="5.94224">
        <ele>439</ele>
        <time>2012-11-18T10:31:18Z</time>
      </trkpt>
      <trkpt lat="43.26159" lon="5.94234">
        <ele>439</ele>
        <time>2012-11-18T10:31:20Z</time>
      </trkpt>
      <trkpt lat="43.26154" lon="5.9424">
        <ele>439</ele>
        <time>2012-11-18T10:31:22Z</time>
      </trkpt>
      <trkpt lat="43.26152" lon="5.9425">
        <ele>439</ele>
        <time>2012-11-18T10:31:24Z</time>
      </trkpt>
      <trkpt lat="43.26152" lon="5.9426">
        <ele>439</ele>
        <time>2012-11-18T10:31:26Z</time>
      </trkpt>
      <trkpt lat="43.26152" lon="5.9427">
        <ele>440</ele>
        <time>2012-11-18T10:31:28Z</time>
      </trkpt>
      <trkpt lat="43.2615" lon="5.94283">
        <ele>440</ele>
        <time>2012-11-18T10:31:30Z</time>
      </trkpt>
      <trkpt lat="43.26149" lon="5.94293">
        <ele>440</ele>
        <time>2012-11-18T10:31:32Z</time>
      </trkpt>
      <trkpt lat="43.26144" lon="5.94303">
        <ele>441</ele>
        <time>2012-11-18T10:31:34Z</time>
      </trkpt>
      <trkpt lat="43.26142" lon="5.94309">
        <ele>441</ele>
        <time>2012-11-18T10:31:35Z</time>
      </trkpt>
      <trkpt lat="43.26141" lon="5.94319">
        <ele>441</ele>
        <time>2012-11-18T10:31:37Z</time>
      </trkpt>
      <trkpt lat="43.26143" lon="5.94327">
        <ele>441</ele>
        <time>2012-11-18T10:31:39Z</time>
      </trkpt>
      <trkpt lat="43.26144" lon="5.94334">
        <ele>441</ele>
        <time>2012-11-18T10:31:40Z</time>
      </trkpt>
      <trkpt lat="43.26145" lon="5.94342">
        <ele>441</ele>
        <time>2012-11-18T10:31:41Z</time>
      </trkpt>
      <trkpt lat="43.26145" lon="5.94352">
        <ele>441</ele>
        <time>2012-11-18T10:31:42Z</time>
      </trkpt>
      <trkpt lat="43.26146" lon="5.94362">
        <ele>441</ele>
        <time>2012-11-18T10:31:43Z</time>
      </trkpt>
      <trkpt lat="43.26146" lon="5.9437">
        <ele>441</ele>
        <time>2012-11-18T10:31:44Z</time>
      </trkpt>
      <trkpt lat="43.26145" lon="5.94377">
        <ele>441</ele>
        <time>2012-11-18T10:31:45Z</time>
      </trkpt>
      <trkpt lat="43.26145" lon="5.94392">
        <ele>441</ele>
        <time>2012-11-18T10:31:48Z</time>
      </trkpt>
      <trkpt lat="43.26143" lon="5.94401">
        <ele>440</ele>
        <time>2012-11-18T10:31:50Z</time>
      </trkpt>
      <trkpt lat="43.26138" lon="5.94409">
        <ele>439</ele>
        <time>2012-11-18T10:31:52Z</time>
      </trkpt>
      <trkpt lat="43.26131" lon="5.94417">
        <ele>438</ele>
        <time>2012-11-18T10:31:54Z</time>
      </trkpt>
      <trkpt lat="43.26123" lon="5.94424">
        <ele>438</ele>
        <time>2012-11-18T10:31:56Z</time>
      </trkpt>
      <trkpt lat="43.26118" lon="5.94427">
        <ele>438</ele>
        <time>2012-11-18T10:31:57Z</time>
      </trkpt>
      <trkpt lat="43.26114" lon="5.9443">
        <ele>438</ele>
        <time>2012-11-18T10:31:58Z</time>
      </trkpt>
      <trkpt lat="43.26106" lon="5.94435">
        <ele>438</ele>
        <time>2012-11-18T10:32:00Z</time>
      </trkpt>
      <trkpt lat="43.26102" lon="5.94438">
        <ele>438</ele>
        <time>2012-11-18T10:32:01Z</time>
      </trkpt>
      <trkpt lat="43.26093" lon="5.94441">
        <ele>437</ele>
        <time>2012-11-18T10:32:03Z</time>
      </trkpt>
      <trkpt lat="43.26085" lon="5.94448">
        <ele>437</ele>
        <time>2012-11-18T10:32:05Z</time>
      </trkpt>
      <trkpt lat="43.26082" lon="5.94453">
        <ele>437</ele>
        <time>2012-11-18T10:32:06Z</time>
      </trkpt>
      <trkpt lat="43.26078" lon="5.94457">
        <ele>437</ele>
        <time>2012-11-18T10:32:07Z</time>
      </trkpt>
      <trkpt lat="43.26074" lon="5.94461">
        <ele>436</ele>
        <time>2012-11-18T10:32:08Z</time>
      </trkpt>
      <trkpt lat="43.26073" lon="5.94472">
        <ele>436</ele>
        <time>2012-11-18T10:32:10Z</time>
      </trkpt>
      <trkpt lat="43.26075" lon="5.94479">
        <ele>435</ele>
        <time>2012-11-18T10:32:11Z</time>
      </trkpt>
      <trkpt lat="43.26078" lon="5.94486">
        <ele>435</ele>
        <time>2012-11-18T10:32:12Z</time>
      </trkpt>
      <trkpt lat="43.2608" lon="5.94494">
        <ele>435</ele>
        <time>2012-11-18T10:32:13Z</time>
      </trkpt>
      <trkpt lat="43.26085" lon="5.94513">
        <ele>434</ele>
        <time>2012-11-18T10:32:15Z</time>
      </trkpt>
      <trkpt lat="43.26088" lon="5.94526">
        <ele>433</ele>
        <time>2012-11-18T10:32:17Z</time>
      </trkpt>
      <trkpt lat="43.26086" lon="5.94539">
        <ele>432</ele>
        <time>2012-11-18T10:32:19Z</time>
      </trkpt>
      <trkpt lat="43.26085" lon="5.94546">
        <ele>432</ele>
        <time>2012-11-18T10:32:20Z</time>
      </trkpt>
      <trkpt lat="43.26082" lon="5.94553">
        <ele>431</ele>
        <time>2012-11-18T10:32:21Z</time>
      </trkpt>
      <trkpt lat="43.26079" lon="5.9456">
        <ele>430</ele>
        <time>2012-11-18T10:32:22Z</time>
      </trkpt>
      <trkpt lat="43.26076" lon="5.94568">
        <ele>429</ele>
        <time>2012-11-18T10:32:23Z</time>
      </trkpt>
      <trkpt lat="43.26072" lon="5.94574">
        <ele>429</ele>
        <time>2012-11-18T10:32:24Z</time>
      </trkpt>
      <trkpt lat="43.26067" lon="5.94582">
        <ele>428</ele>
        <time>2012-11-18T10:32:26Z</time>
      </trkpt>
      <trkpt lat="43.26065" lon="5.94595">
        <ele>426</ele>
        <time>2012-11-18T10:32:29Z</time>
      </trkpt>
      <trkpt lat="43.26066" lon="5.94606">
        <ele>425</ele>
        <time>2012-11-18T10:32:31Z</time>
      </trkpt>
      <trkpt lat="43.26066" lon="5.94612">
        <ele>424</ele>
        <time>2012-11-18T10:32:32Z</time>
      </trkpt>
      <trkpt lat="43.26062" lon="5.94628">
        <ele>422</ele>
        <time>2012-11-18T10:32:36Z</time>
      </trkpt>
      <trkpt lat="43.26061" lon="5.94643">
        <ele>421</ele>
        <time>2012-11-18T10:32:40Z</time>
      </trkpt>
      <trkpt lat="43.2606" lon="5.94658">
        <ele>420</ele>
        <time>2012-11-18T10:33:01Z</time>
      </trkpt>
      <trkpt lat="43.26058" lon="5.9467">
        <ele>420</ele>
        <time>2012-11-18T10:33:04Z</time>
      </trkpt>
      <trkpt lat="43.26056" lon="5.94679">
        <ele>420</ele>
        <time>2012-11-18T10:33:06Z</time>
      </trkpt>
      <trkpt lat="43.26055" lon="5.94688">
        <ele>420</ele>
        <time>2012-11-18T10:33:08Z</time>
      </trkpt>
      <trkpt lat="43.26051" lon="5.94698">
        <ele>420</ele>
        <time>2012-11-18T10:33:10Z</time>
      </trkpt>
      <trkpt lat="43.26048" lon="5.94707">
        <ele>420</ele>
        <time>2012-11-18T10:33:12Z</time>
      </trkpt>
      <trkpt lat="43.26043" lon="5.94717">
        <ele>420</ele>
        <time>2012-11-18T10:33:14Z</time>
      </trkpt>
      <trkpt lat="43.26039" lon="5.94726">
        <ele>420</ele>
        <time>2012-11-18T10:33:16Z</time>
      </trkpt>
      <trkpt lat="43.26037" lon="5.94732">
        <ele>420</ele>
        <time>2012-11-18T10:33:17Z</time>
      </trkpt>
      <trkpt lat="43.26032" lon="5.94739">
        <ele>420</ele>
        <time>2012-11-18T10:33:19Z</time>
      </trkpt>
      <trkpt lat="43.26026" lon="5.94741">
        <ele>419</ele>
        <time>2012-11-18T10:33:21Z</time>
      </trkpt>
      <trkpt lat="43.26023" lon="5.94749">
        <ele>419</ele>
        <time>2012-11-18T10:33:24Z</time>
      </trkpt>
      <trkpt lat="43.26014" lon="5.9476">
        <ele>419</ele>
        <time>2012-11-18T10:33:27Z</time>
      </trkpt>
      <trkpt lat="43.2601" lon="5.94764">
        <ele>419</ele>
        <time>2012-11-18T10:33:28Z</time>
      </trkpt>
      <trkpt lat="43.26002" lon="5.94773">
        <ele>418</ele>
        <time>2012-11-18T10:33:30Z</time>
      </trkpt>
      <trkpt lat="43.25994" lon="5.94782">
        <ele>418</ele>
        <time>2012-11-18T10:33:32Z</time>
      </trkpt>
      <trkpt lat="43.25989" lon="5.94785">
        <ele>417</ele>
        <time>2012-11-18T10:33:33Z</time>
      </trkpt>
      <trkpt lat="43.25985" lon="5.94787">
        <ele>417</ele>
        <time>2012-11-18T10:33:34Z</time>
      </trkpt>
      <trkpt lat="43.2598" lon="5.9479">
        <ele>416</ele>
        <time>2012-11-18T10:33:35Z</time>
      </trkpt>
      <trkpt lat="43.25976" lon="5.94792">
        <ele>416</ele>
        <time>2012-11-18T10:33:36Z</time>
      </trkpt>
      <trkpt lat="43.25971" lon="5.94795">
        <ele>416</ele>
        <time>2012-11-18T10:33:37Z</time>
      </trkpt>
      <trkpt lat="43.2596" lon="5.94798">
        <ele>416</ele>
        <time>2012-11-18T10:33:41Z</time>
      </trkpt>
      <trkpt lat="43.25955" lon="5.94808">
        <ele>415</ele>
        <time>2012-11-18T10:33:44Z</time>
      </trkpt>
      <trkpt lat="43.25952" lon="5.94823">
        <ele>414</ele>
        <time>2012-11-18T10:33:47Z</time>
      </trkpt>
      <trkpt lat="43.25948" lon="5.94839">
        <ele>413</ele>
        <time>2012-11-18T10:33:50Z</time>
      </trkpt>
      <trkpt lat="43.25945" lon="5.94846">
        <ele>413</ele>
        <time>2012-11-18T10:33:52Z</time>
      </trkpt>
      <trkpt lat="43.25939" lon="5.9486">
        <ele>412</ele>
        <time>2012-11-18T10:33:56Z</time>
      </trkpt>
      <trkpt lat="43.25932" lon="5.94869">
        <ele>411</ele>
        <time>2012-11-18T10:33:58Z</time>
      </trkpt>
      <trkpt lat="43.25926" lon="5.94884">
        <ele>409</ele>
        <time>2012-11-18T10:34:01Z</time>
      </trkpt>
      <trkpt lat="43.25922" lon="5.94897">
        <ele>408</ele>
        <time>2012-11-18T10:34:03Z</time>
      </trkpt>
      <trkpt lat="43.25918" lon="5.94903">
        <ele>407</ele>
        <time>2012-11-18T10:34:04Z</time>
      </trkpt>
      <trkpt lat="43.25915" lon="5.94907">
        <ele>407</ele>
        <time>2012-11-18T10:34:05Z</time>
      </trkpt>
      <trkpt lat="43.25912" lon="5.94912">
        <ele>407</ele>
        <time>2012-11-18T10:34:06Z</time>
      </trkpt>
      <trkpt lat="43.25907" lon="5.94928">
        <ele>406</ele>
        <time>2012-11-18T10:34:09Z</time>
      </trkpt>
      <trkpt lat="43.25904" lon="5.94942">
        <ele>406</ele>
        <time>2012-11-18T10:34:13Z</time>
      </trkpt>
      <trkpt lat="43.25901" lon="5.94952">
        <ele>406</ele>
        <time>2012-11-18T10:34:16Z</time>
      </trkpt>
      <trkpt lat="43.25898" lon="5.94957">
        <ele>406</ele>
        <time>2012-11-18T10:34:19Z</time>
      </trkpt>
      <trkpt lat="43.25898" lon="5.94968">
        <ele>406</ele>
        <time>2012-11-18T10:34:30Z</time>
      </trkpt>
      <trkpt lat="43.25898" lon="5.94988">
        <ele>406</ele>
        <time>2012-11-18T10:34:33Z</time>
      </trkpt>
      <trkpt lat="43.25895" lon="5.95001">
        <ele>406</ele>
        <time>2012-11-18T10:34:35Z</time>
      </trkpt>
      <trkpt lat="43.25889" lon="5.95012">
        <ele>406</ele>
        <time>2012-11-18T10:34:37Z</time>
      </trkpt>
      <trkpt lat="43.25883" lon="5.95022">
        <ele>406</ele>
        <time>2012-11-18T10:34:39Z</time>
      </trkpt>
      <trkpt lat="43.25878" lon="5.95025">
        <ele>405</ele>
        <time>2012-11-18T10:34:40Z</time>
      </trkpt>
      <trkpt lat="43.2587" lon="5.95027">
        <ele>405</ele>
        <time>2012-11-18T10:34:42Z</time>
      </trkpt>
      <trkpt lat="43.25862" lon="5.95034">
        <ele>405</ele>
        <time>2012-11-18T10:34:44Z</time>
      </trkpt>
      <trkpt lat="43.25853" lon="5.95039">
        <ele>405</ele>
        <time>2012-11-18T10:34:46Z</time>
      </trkpt>
      <trkpt lat="43.25848" lon="5.95042">
        <ele>405</ele>
        <time>2012-11-18T10:34:47Z</time>
      </trkpt>
      <trkpt lat="43.25844" lon="5.95045">
        <ele>405</ele>
        <time>2012-11-18T10:34:48Z</time>
      </trkpt>
      <trkpt lat="43.25841" lon="5.9505">
        <ele>405</ele>
        <time>2012-11-18T10:34:49Z</time>
      </trkpt>
      <trkpt lat="43.25837" lon="5.95061">
        <ele>405</ele>
        <time>2012-11-18T10:34:51Z</time>
      </trkpt>
      <trkpt lat="43.25835" lon="5.95069">
        <ele>405</ele>
        <time>2012-11-18T10:34:52Z</time>
      </trkpt>
      <trkpt lat="43.25837" lon="5.95075">
        <ele>405</ele>
        <time>2012-11-18T10:34:53Z</time>
      </trkpt>
      <trkpt lat="43.25846" lon="5.95083">
        <ele>403</ele>
        <time>2012-11-18T10:34:56Z</time>
      </trkpt>
      <trkpt lat="43.25857" lon="5.95091">
        <ele>402</ele>
        <time>2012-11-18T10:34:59Z</time>
      </trkpt>
      <trkpt lat="43.25865" lon="5.95103">
        <ele>400</ele>
        <time>2012-11-18T10:35:01Z</time>
      </trkpt>
      <trkpt lat="43.25872" lon="5.95116">
        <ele>400</ele>
        <time>2012-11-18T10:35:03Z</time>
      </trkpt>
      <trkpt lat="43.25871" lon="5.9513">
        <ele>398</ele>
        <time>2012-11-18T10:35:05Z</time>
      </trkpt>
      <trkpt lat="43.25873" lon="5.95144">
        <ele>397</ele>
        <time>2012-11-18T10:35:09Z</time>
      </trkpt>
      <trkpt lat="43.25877" lon="5.95147">
        <ele>397</ele>
        <time>2012-11-18T10:35:13Z</time>
      </trkpt>
      <trkpt lat="43.25883" lon="5.95148">
        <ele>397</ele>
        <time>2012-11-18T10:35:16Z</time>
      </trkpt>
      <trkpt lat="43.25888" lon="5.9515">
        <ele>396</ele>
        <time>2012-11-18T10:35:19Z</time>
      </trkpt>
      <trkpt lat="43.25894" lon="5.95151">
        <ele>397</ele>
        <time>2012-11-18T10:35:49Z</time>
      </trkpt>
      <trkpt lat="43.25897" lon="5.95154">
        <ele>397</ele>
        <time>2012-11-18T10:35:58Z</time>
      </trkpt>
      <trkpt lat="43.25903" lon="5.95163">
        <ele>394</ele>
        <time>2012-11-18T10:36:29Z</time>
      </trkpt>
      <trkpt lat="43.25906" lon="5.95169">
        <ele>393</ele>
        <time>2012-11-18T10:36:31Z</time>
      </trkpt>
      <trkpt lat="43.25908" lon="5.95178">
        <ele>393</ele>
        <time>2012-11-18T10:36:34Z</time>
      </trkpt>
      <trkpt lat="43.2591" lon="5.95185">
        <ele>394</ele>
        <time>2012-11-18T10:36:37Z</time>
      </trkpt>
      <trkpt lat="43.25911" lon="5.95192">
        <ele>394</ele>
        <time>2012-11-18T10:36:41Z</time>
      </trkpt>
      <trkpt lat="43.25912" lon="5.9521">
        <ele>394</ele>
        <time>2012-11-18T10:36:44Z</time>
      </trkpt>
      <trkpt lat="43.25914" lon="5.95228">
        <ele>395</ele>
        <time>2012-11-18T10:36:47Z</time>
      </trkpt>
      <trkpt lat="43.25915" lon="5.95234">
        <ele>394</ele>
        <time>2012-11-18T10:36:48Z</time>
      </trkpt>
      <trkpt lat="43.25915" lon="5.95246">
        <ele>394</ele>
        <time>2012-11-18T10:36:50Z</time>
      </trkpt>
      <trkpt lat="43.25914" lon="5.95252">
        <ele>395</ele>
        <time>2012-11-18T10:36:51Z</time>
      </trkpt>
      <trkpt lat="43.25913" lon="5.95259">
        <ele>395</ele>
        <time>2012-11-18T10:36:52Z</time>
      </trkpt>
      <trkpt lat="43.25911" lon="5.95265">
        <ele>395</ele>
        <time>2012-11-18T10:36:53Z</time>
      </trkpt>
      <trkpt lat="43.25911" lon="5.95277">
        <ele>396</ele>
        <time>2012-11-18T10:36:55Z</time>
      </trkpt>
      <trkpt lat="43.25911" lon="5.95289">
        <ele>396</ele>
        <time>2012-11-18T10:36:57Z</time>
      </trkpt>
      <trkpt lat="43.25911" lon="5.95296">
        <ele>395</ele>
        <time>2012-11-18T10:36:58Z</time>
      </trkpt>
      <trkpt lat="43.25911" lon="5.95304">
        <ele>395</ele>
        <time>2012-11-18T10:36:59Z</time>
      </trkpt>
      <trkpt lat="43.25915" lon="5.95323">
        <ele>395</ele>
        <time>2012-11-18T10:37:02Z</time>
      </trkpt>
      <trkpt lat="43.25918" lon="5.9534">
        <ele>395</ele>
        <time>2012-11-18T10:37:04Z</time>
      </trkpt>
      <trkpt lat="43.25922" lon="5.95355">
        <ele>394</ele>
        <time>2012-11-18T10:37:06Z</time>
      </trkpt>
      <trkpt lat="43.25922" lon="5.95364">
        <ele>393</ele>
        <time>2012-11-18T10:37:07Z</time>
      </trkpt>
      <trkpt lat="43.25923" lon="5.95374">
        <ele>393</ele>
        <time>2012-11-18T10:37:08Z</time>
      </trkpt>
      <trkpt lat="43.25923" lon="5.95386">
        <ele>392</ele>
        <time>2012-11-18T10:37:09Z</time>
      </trkpt>
      <trkpt lat="43.25921" lon="5.95398">
        <ele>392</ele>
        <time>2012-11-18T10:37:10Z</time>
      </trkpt>
      <trkpt lat="43.2592" lon="5.95409">
        <ele>392</ele>
        <time>2012-11-18T10:37:11Z</time>
      </trkpt>
      <trkpt lat="43.25919" lon="5.9542">
        <ele>391</ele>
        <time>2012-11-18T10:37:12Z</time>
      </trkpt>
      <trkpt lat="43.25915" lon="5.95429">
        <ele>390</ele>
        <time>2012-11-18T10:37:13Z</time>
      </trkpt>
      <trkpt lat="43.2591" lon="5.95437">
        <ele>389</ele>
        <time>2012-11-18T10:37:14Z</time>
      </trkpt>
      <trkpt lat="43.25901" lon="5.95447">
        <ele>387</ele>
        <time>2012-11-18T10:37:16Z</time>
      </trkpt>
      <trkpt lat="43.25897" lon="5.95459">
        <ele>385</ele>
        <time>2012-11-18T10:37:19Z</time>
      </trkpt>
      <trkpt lat="43.25898" lon="5.95477">
        <ele>383</ele>
        <time>2012-11-18T10:37:22Z</time>
      </trkpt>
      <trkpt lat="43.25898" lon="5.95485">
        <ele>383</ele>
        <time>2012-11-18T10:37:23Z</time>
      </trkpt>
      <trkpt lat="43.25897" lon="5.95492">
        <ele>382</ele>
        <time>2012-11-18T10:37:24Z</time>
      </trkpt>
      <trkpt lat="43.25897" lon="5.955">
        <ele>381</ele>
        <time>2012-11-18T10:37:25Z</time>
      </trkpt>
      <trkpt lat="43.25897" lon="5.95509">
        <ele>380</ele>
        <time>2012-11-18T10:37:26Z</time>
      </trkpt>
      <trkpt lat="43.25899" lon="5.95517">
        <ele>379</ele>
        <time>2012-11-18T10:37:27Z</time>
      </trkpt>
      <trkpt lat="43.25896" lon="5.95533">
        <ele>377</ele>
        <time>2012-11-18T10:37:30Z</time>
      </trkpt>
      <trkpt lat="43.25893" lon="5.95548">
        <ele>375</ele>
        <time>2012-11-18T10:37:33Z</time>
      </trkpt>
      <trkpt lat="43.2589" lon="5.95556">
        <ele>374</ele>
        <time>2012-11-18T10:37:35Z</time>
      </trkpt>
      <trkpt lat="43.25884" lon="5.95564">
        <ele>373</ele>
        <time>2012-11-18T10:37:37Z</time>
      </trkpt>
      <trkpt lat="43.25874" lon="5.95571">
        <ele>373</ele>
        <time>2012-11-18T10:37:40Z</time>
      </trkpt>
      <trkpt lat="43.25867" lon="5.95574">
        <ele>372</ele>
        <time>2012-11-18T10:37:43Z</time>
      </trkpt>
      <trkpt lat="43.25862" lon="5.95576">
        <ele>372</ele>
        <time>2012-11-18T10:37:45Z</time>
      </trkpt>
      <trkpt lat="43.25854" lon="5.95578">
        <ele>372</ele>
        <time>2012-11-18T10:37:47Z</time>
      </trkpt>
      <trkpt lat="43.2585" lon="5.95579">
        <ele>372</ele>
        <time>2012-11-18T10:37:48Z</time>
      </trkpt>
      <trkpt lat="43.25843" lon="5.95581">
        <ele>372</ele>
        <time>2012-11-18T10:37:50Z</time>
      </trkpt>
      <trkpt lat="43.25836" lon="5.95589">
        <ele>371</ele>
        <time>2012-11-18T10:37:54Z</time>
      </trkpt>
      <trkpt lat="43.25833" lon="5.95595">
        <ele>370</ele>
        <time>2012-11-18T10:37:57Z</time>
      </trkpt>
      <trkpt lat="43.25829" lon="5.95601">
        <ele>370</ele>
        <time>2012-11-18T10:37:59Z</time>
      </trkpt>
      <trkpt lat="43.25824" lon="5.95605">
        <ele>371</ele>
        <time>2012-11-18T10:38:01Z</time>
      </trkpt>
      <trkpt lat="43.2582" lon="5.9561">
        <ele>372</ele>
        <time>2012-11-18T10:38:03Z</time>
      </trkpt>
      <trkpt lat="43.25815" lon="5.95614">
        <ele>372</ele>
        <time>2012-11-18T10:38:05Z</time>
      </trkpt>
      <trkpt lat="43.2581" lon="5.95618">
        <ele>372</ele>
        <time>2012-11-18T10:38:08Z</time>
      </trkpt>
      <trkpt lat="43.25804" lon="5.9562">
        <ele>374</ele>
        <time>2012-11-18T10:38:11Z</time>
      </trkpt>
      <trkpt lat="43.25795" lon="5.95623">
        <ele>375</ele>
        <time>2012-11-18T10:38:15Z</time>
      </trkpt>
      <trkpt lat="43.25784" lon="5.95628">
        <ele>375</ele>
        <time>2012-11-18T10:38:20Z</time>
      </trkpt>
      <trkpt lat="43.25778" lon="5.95633">
        <ele>375</ele>
        <time>2012-11-18T10:38:24Z</time>
      </trkpt>
      <trkpt lat="43.25771" lon="5.95643">
        <ele>375</ele>
        <time>2012-11-18T10:38:30Z</time>
      </trkpt>
      <trkpt lat="43.2577" lon="5.95651">
        <ele>375</ele>
        <time>2012-11-18T10:38:33Z</time>
      </trkpt>
      <trkpt lat="43.25768" lon="5.95658">
        <ele>376</ele>
        <time>2012-11-18T10:38:36Z</time>
      </trkpt>
      <trkpt lat="43.25767" lon="5.95666">
        <ele>376</ele>
        <time>2012-11-18T10:38:39Z</time>
      </trkpt>
      <trkpt lat="43.25764" lon="5.95672">
        <ele>377</ele>
        <time>2012-11-18T10:38:42Z</time>
      </trkpt>
      <trkpt lat="43.25761" lon="5.95679">
        <ele>378</ele>
        <time>2012-11-18T10:38:46Z</time>
      </trkpt>
      <trkpt lat="43.25758" lon="5.95688">
        <ele>378</ele>
        <time>2012-11-18T10:38:49Z</time>
      </trkpt>
      <trkpt lat="43.25754" lon="5.95694">
        <ele>378</ele>
        <time>2012-11-18T10:38:51Z</time>
      </trkpt>
      <trkpt lat="43.2575" lon="5.95699">
        <ele>378</ele>
        <time>2012-11-18T10:38:53Z</time>
      </trkpt>
      <trkpt lat="43.25747" lon="5.95706">
        <ele>378</ele>
        <time>2012-11-18T10:38:56Z</time>
      </trkpt>
      <trkpt lat="43.25747" lon="5.95714">
        <ele>378</ele>
        <time>2012-11-18T10:38:58Z</time>
      </trkpt>
      <trkpt lat="43.25747" lon="5.95723">
        <ele>378</ele>
        <time>2012-11-18T10:39:01Z</time>
      </trkpt>
      <trkpt lat="43.25747" lon="5.9573">
        <ele>378</ele>
        <time>2012-11-18T10:39:03Z</time>
      </trkpt>
      <trkpt lat="43.25746" lon="5.95737">
        <ele>378</ele>
        <time>2012-11-18T10:39:05Z</time>
      </trkpt>
      <trkpt lat="43.25743" lon="5.95743">
        <ele>378</ele>
        <time>2012-11-18T10:39:07Z</time>
      </trkpt>
      <trkpt lat="43.25739" lon="5.95749">
        <ele>379</ele>
        <time>2012-11-18T10:39:09Z</time>
      </trkpt>
      <trkpt lat="43.25736" lon="5.95754">
        <ele>380</ele>
        <time>2012-11-18T10:39:11Z</time>
      </trkpt>
      <trkpt lat="43.25732" lon="5.95759">
        <ele>380</ele>
        <time>2012-11-18T10:39:14Z</time>
      </trkpt>
      <trkpt lat="43.25728" lon="5.95766">
        <ele>382</ele>
        <time>2012-11-18T10:39:17Z</time>
      </trkpt>
      <trkpt lat="43.25725" lon="5.95771">
        <ele>382</ele>
        <time>2012-11-18T10:39:19Z</time>
      </trkpt>
      <trkpt lat="43.25718" lon="5.9578">
        <ele>382</ele>
        <time>2012-11-18T10:39:23Z</time>
      </trkpt>
      <trkpt lat="43.25714" lon="5.95784">
        <ele>382</ele>
        <time>2012-11-18T10:39:25Z</time>
      </trkpt>
      <trkpt lat="43.25706" lon="5.95789">
        <ele>382</ele>
        <time>2012-11-18T10:39:29Z</time>
      </trkpt>
      <trkpt lat="43.25701" lon="5.95791">
        <ele>382</ele>
        <time>2012-11-18T10:39:31Z</time>
      </trkpt>
      <trkpt lat="43.25695" lon="5.95794">
        <ele>381</ele>
        <time>2012-11-18T10:39:34Z</time>
      </trkpt>
      <trkpt lat="43.2569" lon="5.95798">
        <ele>381</ele>
        <time>2012-11-18T10:39:37Z</time>
      </trkpt>
      <trkpt lat="43.25685" lon="5.95805">
        <ele>382</ele>
        <time>2012-11-18T10:39:40Z</time>
      </trkpt>
      <trkpt lat="43.25683" lon="5.95813">
        <ele>382</ele>
        <time>2012-11-18T10:39:42Z</time>
      </trkpt>
      <trkpt lat="43.25684" lon="5.95819">
        <ele>382</ele>
        <time>2012-11-18T10:39:43Z</time>
      </trkpt>
      <trkpt lat="43.25684" lon="5.95825">
        <ele>382</ele>
        <time>2012-11-18T10:39:44Z</time>
      </trkpt>
      <trkpt lat="43.25684" lon="5.95833">
        <ele>383</ele>
        <time>2012-11-18T10:39:46Z</time>
      </trkpt>
      <trkpt lat="43.25682" lon="5.95841">
        <ele>384</ele>
        <time>2012-11-18T10:39:48Z</time>
      </trkpt>
      <trkpt lat="43.25681" lon="5.9585">
        <ele>384</ele>
        <time>2012-11-18T10:39:50Z</time>
      </trkpt>
      <trkpt lat="43.25678" lon="5.9586">
        <ele>385</ele>
        <time>2012-11-18T10:39:52Z</time>
      </trkpt>
      <trkpt lat="43.25671" lon="5.95871">
        <ele>385</ele>
        <time>2012-11-18T10:39:54Z</time>
      </trkpt>
      <trkpt lat="43.25661" lon="5.9588">
        <ele>385</ele>
        <time>2012-11-18T10:39:56Z</time>
      </trkpt>
      <trkpt lat="43.25656" lon="5.95888">
        <ele>385</ele>
        <time>2012-11-18T10:39:58Z</time>
      </trkpt>
      <trkpt lat="43.25654" lon="5.95897">
        <ele>385</ele>
        <time>2012-11-18T10:40:00Z</time>
      </trkpt>
      <trkpt lat="43.25655" lon="5.95904">
        <ele>385</ele>
        <time>2012-11-18T10:40:02Z</time>
      </trkpt>
      <trkpt lat="43.25658" lon="5.95919">
        <ele>386</ele>
        <time>2012-11-18T10:40:06Z</time>
      </trkpt>
      <trkpt lat="43.25657" lon="5.95931">
        <ele>386</ele>
        <time>2012-11-18T10:40:08Z</time>
      </trkpt>
      <trkpt lat="43.25654" lon="5.95937">
        <ele>386</ele>
        <time>2012-11-18T10:40:09Z</time>
      </trkpt>
      <trkpt lat="43.25643" lon="5.95947">
        <ele>385</ele>
        <time>2012-11-18T10:40:12Z</time>
      </trkpt>
      <trkpt lat="43.25638" lon="5.9595">
        <ele>385</ele>
        <time>2012-11-18T10:40:13Z</time>
      </trkpt>
      <trkpt lat="43.25632" lon="5.95955">
        <ele>385</ele>
        <time>2012-11-18T10:40:14Z</time>
      </trkpt>
      <trkpt lat="43.25628" lon="5.95958">
        <ele>385</ele>
        <time>2012-11-18T10:40:15Z</time>
      </trkpt>
      <trkpt lat="43.25621" lon="5.9596">
        <ele>384</ele>
        <time>2012-11-18T10:40:16Z</time>
      </trkpt>
      <trkpt lat="43.25608" lon="5.95963">
        <ele>384</ele>
        <time>2012-11-18T10:40:18Z</time>
      </trkpt>
      <trkpt lat="43.25604" lon="5.95964">
        <ele>383</ele>
        <time>2012-11-18T10:40:19Z</time>
      </trkpt>
      <trkpt lat="43.25593" lon="5.9597">
        <ele>383</ele>
        <time>2012-11-18T10:40:22Z</time>
      </trkpt>
      <trkpt lat="43.25585" lon="5.95974">
        <ele>382</ele>
        <time>2012-11-18T10:40:24Z</time>
      </trkpt>
      <trkpt lat="43.2558" lon="5.95981">
        <ele>381</ele>
        <time>2012-11-18T10:40:26Z</time>
      </trkpt>
      <trkpt lat="43.25577" lon="5.95985">
        <ele>381</ele>
        <time>2012-11-18T10:40:27Z</time>
      </trkpt>
      <trkpt lat="43.25572" lon="5.95993">
        <ele>380</ele>
        <time>2012-11-18T10:40:29Z</time>
      </trkpt>
      <trkpt lat="43.25569" lon="5.96007">
        <ele>379</ele>
        <time>2012-11-18T10:40:33Z</time>
      </trkpt>
      <trkpt lat="43.25567" lon="5.9601">
        <ele>378</ele>
        <time>2012-11-18T10:40:51Z</time>
      </trkpt>
      <trkpt lat="43.25562" lon="5.96009">
        <ele>378</ele>
        <time>2012-11-18T10:42:25Z</time>
      </trkpt>
      <trkpt lat="43.25562" lon="5.95994">
        <ele>383</ele>
        <time>2012-11-18T10:45:49Z</time>
      </trkpt>
      <trkpt lat="43.25559" lon="5.95988">
        <ele>383</ele>
        <time>2012-11-18T10:45:52Z</time>
      </trkpt>
      <trkpt lat="43.25557" lon="5.95977">
        <ele>383</ele>
        <time>2012-11-18T10:45:57Z</time>
      </trkpt>
      <trkpt lat="43.25557" lon="5.9597">
        <ele>384</ele>
        <time>2012-11-18T10:46:00Z</time>
      </trkpt>
      <trkpt lat="43.25556" lon="5.95963">
        <ele>385</ele>
        <time>2012-11-18T10:46:03Z</time>
      </trkpt>
      <trkpt lat="43.25556" lon="5.95955">
        <ele>386</ele>
        <time>2012-11-18T10:46:06Z</time>
      </trkpt>
      <trkpt lat="43.25555" lon="5.95947">
        <ele>387</ele>
        <time>2012-11-18T10:46:09Z</time>
      </trkpt>
      <trkpt lat="43.25553" lon="5.95941">
        <ele>387</ele>
        <time>2012-11-18T10:46:12Z</time>
      </trkpt>
      <trkpt lat="43.25548" lon="5.95935">
        <ele>385</ele>
        <time>2012-11-18T10:46:16Z</time>
      </trkpt>
      <trkpt lat="43.25542" lon="5.95934">
        <ele>383</ele>
        <time>2012-11-18T10:46:20Z</time>
      </trkpt>
      <trkpt lat="43.25538" lon="5.95939">
        <ele>383</ele>
        <time>2012-11-18T10:46:23Z</time>
      </trkpt>
      <trkpt lat="43.25536" lon="5.95946">
        <ele>384</ele>
        <time>2012-11-18T10:46:26Z</time>
      </trkpt>
      <trkpt lat="43.25534" lon="5.95952">
        <ele>385</ele>
        <time>2012-11-18T10:46:29Z</time>
      </trkpt>
      <trkpt lat="43.25532" lon="5.95958">
        <ele>386</ele>
        <time>2012-11-18T10:46:32Z</time>
      </trkpt>
      <trkpt lat="43.2553" lon="5.95965">
        <ele>387</ele>
        <time>2012-11-18T10:46:35Z</time>
      </trkpt>
      <trkpt lat="43.25527" lon="5.95973">
        <ele>389</ele>
        <time>2012-11-18T10:46:38Z</time>
      </trkpt>
      <trkpt lat="43.25523" lon="5.95979">
        <ele>390</ele>
        <time>2012-11-18T10:46:41Z</time>
      </trkpt>
      <trkpt lat="43.25519" lon="5.95985">
        <ele>390</ele>
        <time>2012-11-18T10:46:44Z</time>
      </trkpt>
      <trkpt lat="43.25515" lon="5.9599">
        <ele>391</ele>
        <time>2012-11-18T10:46:48Z</time>
      </trkpt>
      <trkpt lat="43.2551" lon="5.95991">
        <ele>392</ele>
        <time>2012-11-18T10:46:52Z</time>
      </trkpt>
      <trkpt lat="43.25505" lon="5.95989">
        <ele>392</ele>
        <time>2012-11-18T10:46:55Z</time>
      </trkpt>
      <trkpt lat="43.25501" lon="5.95986">
        <ele>392</ele>
        <time>2012-11-18T10:46:58Z</time>
      </trkpt>
      <trkpt lat="43.25496" lon="5.95985">
        <ele>393</ele>
        <time>2012-11-18T10:47:01Z</time>
      </trkpt>
      <trkpt lat="43.2549" lon="5.95985">
        <ele>392</ele>
        <time>2012-11-18T10:47:04Z</time>
      </trkpt>
      <trkpt lat="43.25485" lon="5.95987">
        <ele>392</ele>
        <time>2012-11-18T10:47:06Z</time>
      </trkpt>
      <trkpt lat="43.2548" lon="5.95991">
        <ele>391</ele>
        <time>2012-11-18T10:47:08Z</time>
      </trkpt>
      <trkpt lat="43.25476" lon="5.95996">
        <ele>391</ele>
        <time>2012-11-18T10:47:10Z</time>
      </trkpt>
      <trkpt lat="43.25472" lon="5.96">
        <ele>391</ele>
        <time>2012-11-18T10:47:12Z</time>
      </trkpt>
      <trkpt lat="43.25463" lon="5.96004">
        <ele>391</ele>
        <time>2012-11-18T10:47:17Z</time>
      </trkpt>
      <trkpt lat="43.25456" lon="5.96002">
        <ele>391</ele>
        <time>2012-11-18T10:47:21Z</time>
      </trkpt>
      <trkpt lat="43.25449" lon="5.95999">
        <ele>391</ele>
        <time>2012-11-18T10:47:24Z</time>
      </trkpt>
      <trkpt lat="43.25441" lon="5.95993">
        <ele>391</ele>
        <time>2012-11-18T10:47:27Z</time>
      </trkpt>
      <trkpt lat="43.25431" lon="5.95989">
        <ele>390</ele>
        <time>2012-11-18T10:47:32Z</time>
      </trkpt>
      <trkpt lat="43.25424" lon="5.95998">
        <ele>391</ele>
        <time>2012-11-18T10:47:39Z</time>
      </trkpt>
      <trkpt lat="43.25421" lon="5.96012">
        <ele>392</ele>
        <time>2012-11-18T10:47:46Z</time>
      </trkpt>
      <trkpt lat="43.25419" lon="5.96026">
        <ele>392</ele>
        <time>2012-11-18T10:47:51Z</time>
      </trkpt>
      <trkpt lat="43.25415" lon="5.96037">
        <ele>394</ele>
        <time>2012-11-18T10:47:56Z</time>
      </trkpt>
      <trkpt lat="43.2541" lon="5.96045">
        <ele>395</ele>
        <time>2012-11-18T10:48:00Z</time>
      </trkpt>
      <trkpt lat="43.25401" lon="5.96052">
        <ele>397</ele>
        <time>2012-11-18T10:48:06Z</time>
      </trkpt>
      <trkpt lat="43.25392" lon="5.96057">
        <ele>398</ele>
        <time>2012-11-18T10:48:11Z</time>
      </trkpt>
      <trkpt lat="43.25388" lon="5.9606">
        <ele>398</ele>
        <time>2012-11-18T10:48:14Z</time>
      </trkpt>
      <trkpt lat="43.25379" lon="5.96065">
        <ele>398</ele>
        <time>2012-11-18T10:48:20Z</time>
      </trkpt>
      <trkpt lat="43.2537" lon="5.9607">
        <ele>397</ele>
        <time>2012-11-18T10:48:26Z</time>
      </trkpt>
      <trkpt lat="43.25362" lon="5.96077">
        <ele>397</ele>
        <time>2012-11-18T10:48:33Z</time>
      </trkpt>
      <trkpt lat="43.25358" lon="5.96089">
        <ele>398</ele>
        <time>2012-11-18T10:48:41Z</time>
      </trkpt>
      <trkpt lat="43.25362" lon="5.96101">
        <ele>401</ele>
        <time>2012-11-18T10:48:48Z</time>
      </trkpt>
      <trkpt lat="43.25365" lon="5.96106">
        <ele>401</ele>
        <time>2012-11-18T10:48:51Z</time>
      </trkpt>
      <trkpt lat="43.25369" lon="5.96111">
        <ele>402</ele>
        <time>2012-11-18T10:48:54Z</time>
      </trkpt>
      <trkpt lat="43.25374" lon="5.96123">
        <ele>402</ele>
        <time>2012-11-18T10:48:59Z</time>
      </trkpt>
      <trkpt lat="43.25378" lon="5.96136">
        <ele>403</ele>
        <time>2012-11-18T10:49:03Z</time>
      </trkpt>
      <trkpt lat="43.25383" lon="5.96148">
        <ele>404</ele>
        <time>2012-11-18T10:49:08Z</time>
      </trkpt>
      <trkpt lat="43.25387" lon="5.9616">
        <ele>404</ele>
        <time>2012-11-18T10:49:13Z</time>
      </trkpt>
      <trkpt lat="43.25387" lon="5.96174">
        <ele>405</ele>
        <time>2012-11-18T10:49:18Z</time>
      </trkpt>
      <trkpt lat="43.25385" lon="5.96188">
        <ele>406</ele>
        <time>2012-11-18T10:49:23Z</time>
      </trkpt>
      <trkpt lat="43.25381" lon="5.96201">
        <ele>408</ele>
        <time>2012-11-18T10:49:28Z</time>
      </trkpt>
      <trkpt lat="43.25374" lon="5.96212">
        <ele>410</ele>
        <time>2012-11-18T10:49:32Z</time>
      </trkpt>
      <trkpt lat="43.25367" lon="5.96225">
        <ele>410</ele>
        <time>2012-11-18T10:49:37Z</time>
      </trkpt>
      <trkpt lat="43.25365" lon="5.96233">
        <ele>411</ele>
        <time>2012-11-18T10:49:41Z</time>
      </trkpt>
      <trkpt lat="43.25363" lon="5.96242">
        <ele>411</ele>
        <time>2012-11-18T10:49:44Z</time>
      </trkpt>
      <trkpt lat="43.25359" lon="5.9625">
        <ele>411</ele>
        <time>2012-11-18T10:49:47Z</time>
      </trkpt>
      <trkpt lat="43.25352" lon="5.96261">
        <ele>411</ele>
        <time>2012-11-18T10:49:51Z</time>
      </trkpt>
      <trkpt lat="43.25347" lon="5.96266">
        <ele>410</ele>
        <time>2012-11-18T10:49:53Z</time>
      </trkpt>
      <trkpt lat="43.25338" lon="5.96271">
        <ele>410</ele>
        <time>2012-11-18T10:49:57Z</time>
      </trkpt>
      <trkpt lat="43.25328" lon="5.96273">
        <ele>409</ele>
        <time>2012-11-18T10:50:01Z</time>
      </trkpt>
      <trkpt lat="43.25318" lon="5.96277">
        <ele>409</ele>
        <time>2012-11-18T10:50:04Z</time>
      </trkpt>
      <trkpt lat="43.25309" lon="5.96281">
        <ele>409</ele>
        <time>2012-11-18T10:50:07Z</time>
      </trkpt>
      <trkpt lat="43.253" lon="5.96285">
        <ele>409</ele>
        <time>2012-11-18T10:50:11Z</time>
      </trkpt>
      <trkpt lat="43.2529" lon="5.96291">
        <ele>410</ele>
        <time>2012-11-18T10:50:16Z</time>
      </trkpt>
      <trkpt lat="43.25281" lon="5.96297">
        <ele>412</ele>
        <time>2012-11-18T10:50:22Z</time>
      </trkpt>
      <trkpt lat="43.25273" lon="5.96307">
        <ele>414</ele>
        <time>2012-11-18T10:50:28Z</time>
      </trkpt>
      <trkpt lat="43.25269" lon="5.96318">
        <ele>416</ele>
        <time>2012-11-18T10:50:34Z</time>
      </trkpt>
      <trkpt lat="43.25272" lon="5.96331">
        <ele>417</ele>
        <time>2012-11-18T10:50:41Z</time>
      </trkpt>
      <trkpt lat="43.25278" lon="5.96344">
        <ele>417</ele>
        <time>2012-11-18T10:50:48Z</time>
      </trkpt>
      <trkpt lat="43.25281" lon="5.96351">
        <ele>417</ele>
        <time>2012-11-18T10:50:51Z</time>
      </trkpt>
      <trkpt lat="43.25284" lon="5.96358">
        <ele>418</ele>
        <time>2012-11-18T10:50:54Z</time>
      </trkpt>
      <trkpt lat="43.25285" lon="5.96365">
        <ele>419</ele>
        <time>2012-11-18T10:50:57Z</time>
      </trkpt>
      <trkpt lat="43.25288" lon="5.96379">
        <ele>420</ele>
        <time>2012-11-18T10:51:02Z</time>
      </trkpt>
      <trkpt lat="43.25288" lon="5.96386">
        <ele>421</ele>
        <time>2012-11-18T10:51:04Z</time>
      </trkpt>
      <trkpt lat="43.25289" lon="5.96392">
        <ele>421</ele>
        <time>2012-11-18T10:51:06Z</time>
      </trkpt>
      <trkpt lat="43.2529" lon="5.96398">
        <ele>421</ele>
        <time>2012-11-18T10:51:08Z</time>
      </trkpt>
      <trkpt lat="43.25291" lon="5.96405">
        <ele>421</ele>
        <time>2012-11-18T10:51:10Z</time>
      </trkpt>
      <trkpt lat="43.25292" lon="5.96417">
        <ele>421</ele>
        <time>2012-11-18T10:51:14Z</time>
      </trkpt>
      <trkpt lat="43.25291" lon="5.9643">
        <ele>421</ele>
        <time>2012-11-18T10:51:18Z</time>
      </trkpt>
      <trkpt lat="43.25289" lon="5.96442">
        <ele>422</ele>
        <time>2012-11-18T10:51:23Z</time>
      </trkpt>
      <trkpt lat="43.25291" lon="5.96457">
        <ele>422</ele>
        <time>2012-11-18T10:51:28Z</time>
      </trkpt>
      <trkpt lat="43.25294" lon="5.96465">
        <ele>421</ele>
        <time>2012-11-18T10:51:31Z</time>
      </trkpt>
      <trkpt lat="43.25295" lon="5.96472">
        <ele>421</ele>
        <time>2012-11-18T10:51:33Z</time>
      </trkpt>
      <trkpt lat="43.25298" lon="5.96486">
        <ele>421</ele>
        <time>2012-11-18T10:51:38Z</time>
      </trkpt>
      <trkpt lat="43.253" lon="5.96494">
        <ele>420</ele>
        <time>2012-11-18T10:51:41Z</time>
      </trkpt>
      <trkpt lat="43.25301" lon="5.96502">
        <ele>420</ele>
        <time>2012-11-18T10:51:44Z</time>
      </trkpt>
      <trkpt lat="43.25302" lon="5.9651">
        <ele>421</ele>
        <time>2012-11-18T10:51:47Z</time>
      </trkpt>
      <trkpt lat="43.25302" lon="5.96518">
        <ele>421</ele>
        <time>2012-11-18T10:51:50Z</time>
      </trkpt>
      <trkpt lat="43.25303" lon="5.96526">
        <ele>421</ele>
        <time>2012-11-18T10:51:53Z</time>
      </trkpt>
      <trkpt lat="43.25302" lon="5.96532">
        <ele>421</ele>
        <time>2012-11-18T10:51:56Z</time>
      </trkpt>
      <trkpt lat="43.253" lon="5.96539">
        <ele>422</ele>
        <time>2012-11-18T10:51:59Z</time>
      </trkpt>
      <trkpt lat="43.25299" lon="5.96547">
        <ele>423</ele>
        <time>2012-11-18T10:52:02Z</time>
      </trkpt>
      <trkpt lat="43.25297" lon="5.9656">
        <ele>425</ele>
        <time>2012-11-18T10:52:07Z</time>
      </trkpt>
      <trkpt lat="43.25294" lon="5.96573">
        <ele>425</ele>
        <time>2012-11-18T10:52:11Z</time>
      </trkpt>
      <trkpt lat="43.25291" lon="5.96584">
        <ele>425</ele>
        <time>2012-11-18T10:52:15Z</time>
      </trkpt>
      <trkpt lat="43.25288" lon="5.96591">
        <ele>425</ele>
        <time>2012-11-18T10:52:18Z</time>
      </trkpt>
      <trkpt lat="43.25285" lon="5.96597">
        <ele>426</ele>
        <time>2012-11-18T10:52:21Z</time>
      </trkpt>
      <trkpt lat="43.25282" lon="5.96605">
        <ele>426</ele>
        <time>2012-11-18T10:52:25Z</time>
      </trkpt>
      <trkpt lat="43.25279" lon="5.9661">
        <ele>425</ele>
        <time>2012-11-18T10:52:28Z</time>
      </trkpt>
      <trkpt lat="43.25275" lon="5.96613">
        <ele>425</ele>
        <time>2012-11-18T10:52:31Z</time>
      </trkpt>
      <trkpt lat="43.2527" lon="5.96615">
        <ele>426</ele>
        <time>2012-11-18T10:52:34Z</time>
      </trkpt>
      <trkpt lat="43.25265" lon="5.96615">
        <ele>426</ele>
        <time>2012-11-18T10:52:37Z</time>
      </trkpt>
      <trkpt lat="43.25259" lon="5.96614">
        <ele>426</ele>
        <time>2012-11-18T10:52:40Z</time>
      </trkpt>
      <trkpt lat="43.25254" lon="5.96611">
        <ele>426</ele>
        <time>2012-11-18T10:52:43Z</time>
      </trkpt>
      <trkpt lat="43.25248" lon="5.96607">
        <ele>426</ele>
        <time>2012-11-18T10:52:46Z</time>
      </trkpt>
      <trkpt lat="43.25244" lon="5.96602">
        <ele>427</ele>
        <time>2012-11-18T10:52:49Z</time>
      </trkpt>
      <trkpt lat="43.2524" lon="5.96598">
        <ele>427</ele>
        <time>2012-11-18T10:52:52Z</time>
      </trkpt>
      <trkpt lat="43.25235" lon="5.96593">
        <ele>426</ele>
        <time>2012-11-18T10:52:56Z</time>
      </trkpt>
      <trkpt lat="43.2523" lon="5.9659">
        <ele>426</ele>
        <time>2012-11-18T10:52:59Z</time>
      </trkpt>
      <trkpt lat="43.25225" lon="5.96588">
        <ele>427</ele>
        <time>2012-11-18T10:53:03Z</time>
      </trkpt>
      <trkpt lat="43.25219" lon="5.96587">
        <ele>428</ele>
        <time>2012-11-18T10:53:07Z</time>
      </trkpt>
      <trkpt lat="43.25212" lon="5.96585">
        <ele>429</ele>
        <time>2012-11-18T10:53:11Z</time>
      </trkpt>
      <trkpt lat="43.25207" lon="5.96584">
        <ele>430</ele>
        <time>2012-11-18T10:53:14Z</time>
      </trkpt>
      <trkpt lat="43.25198" lon="5.96585">
        <ele>431</ele>
        <time>2012-11-18T10:53:19Z</time>
      </trkpt>
      <trkpt lat="43.25189" lon="5.96589">
        <ele>433</ele>
        <time>2012-11-18T10:53:24Z</time>
      </trkpt>
      <trkpt lat="43.25184" lon="5.96592">
        <ele>434</ele>
        <time>2012-11-18T10:53:27Z</time>
      </trkpt>
      <trkpt lat="43.25177" lon="5.96602">
        <ele>435</ele>
        <time>2012-11-18T10:53:34Z</time>
      </trkpt>
      <trkpt lat="43.25171" lon="5.96612">
        <ele>436</ele>
        <time>2012-11-18T10:53:40Z</time>
      </trkpt>
      <trkpt lat="43.25167" lon="5.96625">
        <ele>438</ele>
        <time>2012-11-18T10:53:49Z</time>
      </trkpt>
      <trkpt lat="43.25164" lon="5.96638">
        <ele>439</ele>
        <time>2012-11-18T10:53:56Z</time>
      </trkpt>
      <trkpt lat="43.25159" lon="5.96647">
        <ele>440</ele>
        <time>2012-11-18T10:54:03Z</time>
      </trkpt>
      <trkpt lat="43.25154" lon="5.96649">
        <ele>440</ele>
        <time>2012-11-18T10:54:07Z</time>
      </trkpt>
      <trkpt lat="43.25149" lon="5.96649">
        <ele>439</ele>
        <time>2012-11-18T10:54:11Z</time>
      </trkpt>
      <trkpt lat="43.25143" lon="5.96649">
        <ele>438</ele>
        <time>2012-11-18T10:54:15Z</time>
      </trkpt>
      <trkpt lat="43.25138" lon="5.96647">
        <ele>438</ele>
        <time>2012-11-18T10:54:20Z</time>
      </trkpt>
      <trkpt lat="43.25133" lon="5.96645">
        <ele>438</ele>
        <time>2012-11-18T10:54:24Z</time>
      </trkpt>
      <trkpt lat="43.25127" lon="5.96643">
        <ele>438</ele>
        <time>2012-11-18T10:54:29Z</time>
      </trkpt>
      <trkpt lat="43.25122" lon="5.96641">
        <ele>439</ele>
        <time>2012-11-18T10:54:35Z</time>
      </trkpt>
      <trkpt lat="43.25114" lon="5.96635">
        <ele>439</ele>
        <time>2012-11-18T10:54:45Z</time>
      </trkpt>
      <trkpt lat="43.25105" lon="5.96639">
        <ele>439</ele>
        <time>2012-11-18T10:54:52Z</time>
      </trkpt>
      <trkpt lat="43.25097" lon="5.96648">
        <ele>442</ele>
        <time>2012-11-18T10:54:58Z</time>
      </trkpt>
      <trkpt lat="43.25092" lon="5.96659">
        <ele>445</ele>
        <time>2012-11-18T10:55:05Z</time>
      </trkpt>
      <trkpt lat="43.25097" lon="5.96671">
        <ele>448</ele>
        <time>2012-11-18T10:55:15Z</time>
      </trkpt>
      <trkpt lat="43.25101" lon="5.96684">
        <ele>452</ele>
        <time>2012-11-18T10:55:23Z</time>
      </trkpt>
      <trkpt lat="43.25102" lon="5.96696">
        <ele>452</ele>
        <time>2012-11-18T10:55:29Z</time>
      </trkpt>
      <trkpt lat="43.25103" lon="5.96709">
        <ele>452</ele>
        <time>2012-11-18T10:55:34Z</time>
      </trkpt>
      <trkpt lat="43.25104" lon="5.96717">
        <ele>452</ele>
        <time>2012-11-18T10:55:37Z</time>
      </trkpt>
      <trkpt lat="43.25104" lon="5.96732">
        <ele>452</ele>
        <time>2012-11-18T10:55:42Z</time>
      </trkpt>
      <trkpt lat="43.25103" lon="5.96738">
        <ele>452</ele>
        <time>2012-11-18T10:55:44Z</time>
      </trkpt>
      <trkpt lat="43.25101" lon="5.96746">
        <ele>452</ele>
        <time>2012-11-18T10:55:47Z</time>
      </trkpt>
      <trkpt lat="43.25098" lon="5.96753">
        <ele>451</ele>
        <time>2012-11-18T10:55:50Z</time>
      </trkpt>
      <trkpt lat="43.25095" lon="5.96759">
        <ele>450</ele>
        <time>2012-11-18T10:55:53Z</time>
      </trkpt>
      <trkpt lat="43.25092" lon="5.96765">
        <ele>450</ele>
        <time>2012-11-18T10:55:56Z</time>
      </trkpt>
      <trkpt lat="43.25091" lon="5.96771">
        <ele>450</ele>
        <time>2012-11-18T10:55:59Z</time>
      </trkpt>
      <trkpt lat="43.25091" lon="5.96784">
        <ele>451</ele>
        <time>2012-11-18T10:56:05Z</time>
      </trkpt>
      <trkpt lat="43.25097" lon="5.96795">
        <ele>451</ele>
        <time>2012-11-18T10:56:11Z</time>
      </trkpt>
      <trkpt lat="43.25107" lon="5.96797">
        <ele>452</ele>
        <time>2012-11-18T10:56:17Z</time>
      </trkpt>
      <trkpt lat="43.25116" lon="5.96794">
        <ele>454</ele>
        <time>2012-11-18T10:56:22Z</time>
      </trkpt>
      <trkpt lat="43.25124" lon="5.96793">
        <ele>455</ele>
        <time>2012-11-18T10:56:26Z</time>
      </trkpt>
      <trkpt lat="43.25134" lon="5.9679">
        <ele>455</ele>
        <time>2012-11-18T10:56:31Z</time>
      </trkpt>
      <trkpt lat="43.25141" lon="5.96789">
        <ele>456</ele>
        <time>2012-11-18T10:56:35Z</time>
      </trkpt>
      <trkpt lat="43.25145" lon="5.96791">
        <ele>456</ele>
        <time>2012-11-18T10:56:38Z</time>
      </trkpt>
      <trkpt lat="43.25149" lon="5.96794">
        <ele>457</ele>
        <time>2012-11-18T10:56:41Z</time>
      </trkpt>
      <trkpt lat="43.25153" lon="5.96799">
        <ele>457</ele>
        <time>2012-11-18T10:56:44Z</time>
      </trkpt>
      <trkpt lat="43.25155" lon="5.96805">
        <ele>457</ele>
        <time>2012-11-18T10:56:48Z</time>
      </trkpt>
      <trkpt lat="43.25157" lon="5.96812">
        <ele>457</ele>
        <time>2012-11-18T10:56:51Z</time>
      </trkpt>
      <trkpt lat="43.25158" lon="5.96818">
        <ele>457</ele>
        <time>2012-11-18T10:56:54Z</time>
      </trkpt>
      <trkpt lat="43.2516" lon="5.96824">
        <ele>458</ele>
        <time>2012-11-18T10:56:58Z</time>
      </trkpt>
      <trkpt lat="43.2516" lon="5.96832">
        <ele>458</ele>
        <time>2012-11-18T10:57:02Z</time>
      </trkpt>
      <trkpt lat="43.25159" lon="5.96839">
        <ele>458</ele>
        <time>2012-11-18T10:57:06Z</time>
      </trkpt>
      <trkpt lat="43.25158" lon="5.96843">
        <ele>458</ele>
        <time>2012-11-18T10:57:15Z</time>
      </trkpt>
      <trkpt lat="43.25159" lon="5.96848">
        <ele>462</ele>
        <time>2012-11-18T10:58:42Z</time>
      </trkpt>
      <trkpt lat="43.25153" lon="5.96862">
        <ele>460</ele>
        <time>2012-11-18T10:58:46Z</time>
      </trkpt>
      <trkpt lat="43.25152" lon="5.96873">
        <ele>459</ele>
        <time>2012-11-18T10:58:48Z</time>
      </trkpt>
      <trkpt lat="43.25151" lon="5.96883">
        <ele>459</ele>
        <time>2012-11-18T10:58:50Z</time>
      </trkpt>
      <trkpt lat="43.25149" lon="5.96901">
        <ele>458</ele>
        <time>2012-11-18T10:58:53Z</time>
      </trkpt>
      <trkpt lat="43.25159" lon="5.96913">
        <ele>458</ele>
        <time>2012-11-18T10:58:56Z</time>
      </trkpt>
      <trkpt lat="43.25166" lon="5.96924">
        <ele>458</ele>
        <time>2012-11-18T10:58:58Z</time>
      </trkpt>
      <trkpt lat="43.25171" lon="5.96937">
        <ele>458</ele>
        <time>2012-11-18T10:59:00Z</time>
      </trkpt>
      <trkpt lat="43.25176" lon="5.96948">
        <ele>457</ele>
        <time>2012-11-18T10:59:02Z</time>
      </trkpt>
      <trkpt lat="43.25184" lon="5.96953">
        <ele>457</ele>
        <time>2012-11-18T10:59:04Z</time>
      </trkpt>
      <trkpt lat="43.25194" lon="5.96953">
        <ele>458</ele>
        <time>2012-11-18T10:59:07Z</time>
      </trkpt>
      <trkpt lat="43.25201" lon="5.96952">
        <ele>458</ele>
        <time>2012-11-18T10:59:09Z</time>
      </trkpt>
      <trkpt lat="43.25211" lon="5.96951">
        <ele>458</ele>
        <time>2012-11-18T10:59:12Z</time>
      </trkpt>
      <trkpt lat="43.25223" lon="5.9695">
        <ele>457</ele>
        <time>2012-11-18T10:59:16Z</time>
      </trkpt>
      <trkpt lat="43.25229" lon="5.96952">
        <ele>456</ele>
        <time>2012-11-18T10:59:18Z</time>
      </trkpt>
      <trkpt lat="43.25233" lon="5.96949">
        <ele>456</ele>
        <time>2012-11-18T10:59:20Z</time>
      </trkpt>
      <trkpt lat="43.25237" lon="5.96943">
        <ele>455</ele>
        <time>2012-11-18T10:59:22Z</time>
      </trkpt>
      <trkpt lat="43.25241" lon="5.96938">
        <ele>454</ele>
        <time>2012-11-18T10:59:24Z</time>
      </trkpt>
      <trkpt lat="43.25246" lon="5.96934">
        <ele>453</ele>
        <time>2012-11-18T10:59:26Z</time>
      </trkpt>
      <trkpt lat="43.25256" lon="5.96922">
        <ele>452</ele>
        <time>2012-11-18T10:59:29Z</time>
      </trkpt>
      <trkpt lat="43.25266" lon="5.96911">
        <ele>450</ele>
        <time>2012-11-18T10:59:32Z</time>
      </trkpt>
      <trkpt lat="43.25271" lon="5.96906">
        <ele>449</ele>
        <time>2012-11-18T10:59:34Z</time>
      </trkpt>
      <trkpt lat="43.25278" lon="5.96903">
        <ele>448</ele>
        <time>2012-11-18T10:59:36Z</time>
      </trkpt>
      <trkpt lat="43.25281" lon="5.96913">
        <ele>444</ele>
        <time>2012-11-18T10:59:46Z</time>
      </trkpt>
      <trkpt lat="43.25281" lon="5.96921">
        <ele>441</ele>
        <time>2012-11-18T10:59:49Z</time>
      </trkpt>
      <trkpt lat="43.25284" lon="5.96928">
        <ele>440</ele>
        <time>2012-11-18T10:59:52Z</time>
      </trkpt>
      <trkpt lat="43.25286" lon="5.96937">
        <ele>439</ele>
        <time>2012-11-18T10:59:54Z</time>
      </trkpt>
      <trkpt lat="43.25286" lon="5.9695">
        <ele>438</ele>
        <time>2012-11-18T10:59:56Z</time>
      </trkpt>
      <trkpt lat="43.25286" lon="5.96957">
        <ele>438</ele>
        <time>2012-11-18T10:59:57Z</time>
      </trkpt>
      <trkpt lat="43.25284" lon="5.96964">
        <ele>437</ele>
        <time>2012-11-18T10:59:58Z</time>
      </trkpt>
      <trkpt lat="43.25284" lon="5.96973">
        <ele>437</ele>
        <time>2012-11-18T10:59:59Z</time>
      </trkpt>
      <trkpt lat="43.25284" lon="5.96981">
        <ele>437</ele>
        <time>2012-11-18T11:00:00Z</time>
      </trkpt>
      <trkpt lat="43.25286" lon="5.96988">
        <ele>437</ele>
        <time>2012-11-18T11:00:01Z</time>
      </trkpt>
      <trkpt lat="43.25294" lon="5.96996">
        <ele>436</ele>
        <time>2012-11-18T11:00:04Z</time>
      </trkpt>
      <trkpt lat="43.25304" lon="5.96991">
        <ele>436</ele>
        <time>2012-11-18T11:00:06Z</time>
      </trkpt>
      <trkpt lat="43.25308" lon="5.96987">
        <ele>436</ele>
        <time>2012-11-18T11:00:07Z</time>
      </trkpt>
      <trkpt lat="43.25313" lon="5.96987">
        <ele>436</ele>
        <time>2012-11-18T11:00:08Z</time>
      </trkpt>
      <trkpt lat="43.25318" lon="5.96989">
        <ele>437</ele>
        <time>2012-11-18T11:00:09Z</time>
      </trkpt>
      <trkpt lat="43.25322" lon="5.96991">
        <ele>437</ele>
        <time>2012-11-18T11:00:10Z</time>
      </trkpt>
      <trkpt lat="43.25328" lon="5.96992">
        <ele>437</ele>
        <time>2012-11-18T11:00:11Z</time>
      </trkpt>
      <trkpt lat="43.25333" lon="5.9699">
        <ele>436</ele>
        <time>2012-11-18T11:00:12Z</time>
      </trkpt>
      <trkpt lat="43.25337" lon="5.96986">
        <ele>435</ele>
        <time>2012-11-18T11:00:13Z</time>
      </trkpt>
      <trkpt lat="43.2534" lon="5.96979">
        <ele>435</ele>
        <time>2012-11-18T11:00:14Z</time>
      </trkpt>
      <trkpt lat="43.25344" lon="5.96973">
        <ele>434</ele>
        <time>2012-11-18T11:00:15Z</time>
      </trkpt>
      <trkpt lat="43.25348" lon="5.96966">
        <ele>433</ele>
        <time>2012-11-18T11:00:16Z</time>
      </trkpt>
      <trkpt lat="43.25353" lon="5.9696">
        <ele>433</ele>
        <time>2012-11-18T11:00:17Z</time>
      </trkpt>
      <trkpt lat="43.2536" lon="5.96955">
        <ele>432</ele>
        <time>2012-11-18T11:00:18Z</time>
      </trkpt>
      <trkpt lat="43.25367" lon="5.96952">
        <ele>431</ele>
        <time>2012-11-18T11:00:19Z</time>
      </trkpt>
      <trkpt lat="43.25373" lon="5.96952">
        <ele>431</ele>
        <time>2012-11-18T11:00:20Z</time>
      </trkpt>
      <trkpt lat="43.25378" lon="5.96954">
        <ele>430</ele>
        <time>2012-11-18T11:00:21Z</time>
      </trkpt>
      <trkpt lat="43.25383" lon="5.96958">
        <ele>430</ele>
        <time>2012-11-18T11:00:22Z</time>
      </trkpt>
      <trkpt lat="43.25388" lon="5.96963">
        <ele>429</ele>
        <time>2012-11-18T11:00:23Z</time>
      </trkpt>
      <trkpt lat="43.25393" lon="5.96967">
        <ele>429</ele>
        <time>2012-11-18T11:00:24Z</time>
      </trkpt>
      <trkpt lat="43.25398" lon="5.96971">
        <ele>428</ele>
        <time>2012-11-18T11:00:25Z</time>
      </trkpt>
      <trkpt lat="43.25405" lon="5.96974">
        <ele>428</ele>
        <time>2012-11-18T11:00:26Z</time>
      </trkpt>
      <trkpt lat="43.25411" lon="5.96976">
        <ele>427</ele>
        <time>2012-11-18T11:00:27Z</time>
      </trkpt>
      <trkpt lat="43.25424" lon="5.96983">
        <ele>426</ele>
        <time>2012-11-18T11:00:29Z</time>
      </trkpt>
      <trkpt lat="43.25436" lon="5.96989">
        <ele>424</ele>
        <time>2012-11-18T11:00:31Z</time>
      </trkpt>
      <trkpt lat="43.2545" lon="5.96988">
        <ele>423</ele>
        <time>2012-11-18T11:00:33Z</time>
      </trkpt>
      <trkpt lat="43.25456" lon="5.96987">
        <ele>423</ele>
        <time>2012-11-18T11:00:34Z</time>
      </trkpt>
      <trkpt lat="43.25461" lon="5.96987">
        <ele>423</ele>
        <time>2012-11-18T11:00:35Z</time>
      </trkpt>
      <trkpt lat="43.25466" lon="5.96989">
        <ele>422</ele>
        <time>2012-11-18T11:00:36Z</time>
      </trkpt>
      <trkpt lat="43.25473" lon="5.96991">
        <ele>422</ele>
        <time>2012-11-18T11:00:37Z</time>
      </trkpt>
      <trkpt lat="43.25485" lon="5.97">
        <ele>421</ele>
        <time>2012-11-18T11:00:39Z</time>
      </trkpt>
      <trkpt lat="43.25494" lon="5.97011">
        <ele>421</ele>
        <time>2012-11-18T11:00:41Z</time>
      </trkpt>
      <trkpt lat="43.25499" lon="5.97025">
        <ele>420</ele>
        <time>2012-11-18T11:00:43Z</time>
      </trkpt>
      <trkpt lat="43.25504" lon="5.97039">
        <ele>419</ele>
        <time>2012-11-18T11:00:45Z</time>
      </trkpt>
      <trkpt lat="43.25508" lon="5.97044">
        <ele>419</ele>
        <time>2012-11-18T11:00:46Z</time>
      </trkpt>
      <trkpt lat="43.25511" lon="5.97048">
        <ele>419</ele>
        <time>2012-11-18T11:00:47Z</time>
      </trkpt>
      <trkpt lat="43.25517" lon="5.97056">
        <ele>418</ele>
        <time>2012-11-18T11:00:49Z</time>
      </trkpt>
      <trkpt lat="43.25525" lon="5.97061">
        <ele>417</ele>
        <time>2012-11-18T11:00:51Z</time>
      </trkpt>
      <trkpt lat="43.25529" lon="5.97063">
        <ele>417</ele>
        <time>2012-11-18T11:00:52Z</time>
      </trkpt>
      <trkpt lat="43.25534" lon="5.97064">
        <ele>417</ele>
        <time>2012-11-18T11:00:53Z</time>
      </trkpt>
      <trkpt lat="43.25543" lon="5.97065">
        <ele>416</ele>
        <time>2012-11-18T11:00:55Z</time>
      </trkpt>
      <trkpt lat="43.2555" lon="5.97067">
        <ele>416</ele>
        <time>2012-11-18T11:00:57Z</time>
      </trkpt>
      <trkpt lat="43.25556" lon="5.9707">
        <ele>416</ele>
        <time>2012-11-18T11:00:59Z</time>
      </trkpt>
      <trkpt lat="43.25562" lon="5.97074">
        <ele>417</ele>
        <time>2012-11-18T11:01:01Z</time>
      </trkpt>
      <trkpt lat="43.25569" lon="5.97088">
        <ele>417</ele>
        <time>2012-11-18T11:01:04Z</time>
      </trkpt>
      <trkpt lat="43.25575" lon="5.97102">
        <ele>416</ele>
        <time>2012-11-18T11:01:06Z</time>
      </trkpt>
      <trkpt lat="43.25584" lon="5.97113">
        <ele>415</ele>
        <time>2012-11-18T11:01:08Z</time>
      </trkpt>
      <trkpt lat="43.25589" lon="5.97117">
        <ele>415</ele>
        <time>2012-11-18T11:01:09Z</time>
      </trkpt>
      <trkpt lat="43.25595" lon="5.97119">
        <ele>415</ele>
        <time>2012-11-18T11:01:10Z</time>
      </trkpt>
      <trkpt lat="43.25599" lon="5.9712">
        <ele>414</ele>
        <time>2012-11-18T11:01:11Z</time>
      </trkpt>
      <trkpt lat="43.25604" lon="5.9712">
        <ele>414</ele>
        <time>2012-11-18T11:01:12Z</time>
      </trkpt>
      <trkpt lat="43.2561" lon="5.97121">
        <ele>413</ele>
        <time>2012-11-18T11:01:13Z</time>
      </trkpt>
      <trkpt lat="43.25615" lon="5.97121">
        <ele>413</ele>
        <time>2012-11-18T11:01:14Z</time>
      </trkpt>
      <trkpt lat="43.2562" lon="5.97119">
        <ele>413</ele>
        <time>2012-11-18T11:01:15Z</time>
      </trkpt>
      <trkpt lat="43.25626" lon="5.97116">
        <ele>413</ele>
        <time>2012-11-18T11:01:16Z</time>
      </trkpt>
      <trkpt lat="43.25641" lon="5.9711">
        <ele>412</ele>
        <time>2012-11-18T11:01:18Z</time>
      </trkpt>
      <trkpt lat="43.25655" lon="5.97105">
        <ele>411</ele>
        <time>2012-11-18T11:01:20Z</time>
      </trkpt>
      <trkpt lat="43.25652" lon="5.97117">
        <ele>409</ele>
        <time>2012-11-18T11:01:28Z</time>
      </trkpt>
      <trkpt lat="43.25645" lon="5.9713">
        <ele>409</ele>
        <time>2012-11-18T11:01:31Z</time>
      </trkpt>
      <trkpt lat="43.25637" lon="5.97139">
        <ele>409</ele>
        <time>2012-11-18T11:01:33Z</time>
      </trkpt>
      <trkpt lat="43.25627" lon="5.97148">
        <ele>408</ele>
        <time>2012-11-18T11:01:35Z</time>
      </trkpt>
      <trkpt lat="43.25618" lon="5.97154">
        <ele>407</ele>
        <time>2012-11-18T11:01:37Z</time>
      </trkpt>
      <trkpt lat="43.25619" lon="5.97168">
        <ele>404</ele>
        <time>2012-11-18T11:01:41Z</time>
      </trkpt>
      <trkpt lat="43.25626" lon="5.97177">
        <ele>402</ele>
        <time>2012-11-18T11:01:43Z</time>
      </trkpt>
      <trkpt lat="43.25633" lon="5.97189">
        <ele>401</ele>
        <time>2012-11-18T11:01:45Z</time>
      </trkpt>
      <trkpt lat="43.25636" lon="5.97194">
        <ele>400</ele>
        <time>2012-11-18T11:01:46Z</time>
      </trkpt>
      <trkpt lat="43.25638" lon="5.97201">
        <ele>399</ele>
        <time>2012-11-18T11:01:47Z</time>
      </trkpt>
      <trkpt lat="43.2564" lon="5.97208">
        <ele>398</ele>
        <time>2012-11-18T11:01:48Z</time>
      </trkpt>
      <trkpt lat="43.25642" lon="5.97214">
        <ele>397</ele>
        <time>2012-11-18T11:01:49Z</time>
      </trkpt>
      <trkpt lat="43.25644" lon="5.97221">
        <ele>395</ele>
        <time>2012-11-18T11:01:50Z</time>
      </trkpt>
      <trkpt lat="43.25646" lon="5.97229">
        <ele>394</ele>
        <time>2012-11-18T11:01:51Z</time>
      </trkpt>
      <trkpt lat="43.25648" lon="5.97239">
        <ele>393</ele>
        <time>2012-11-18T11:01:52Z</time>
      </trkpt>
      <trkpt lat="43.25652" lon="5.97245">
        <ele>392</ele>
        <time>2012-11-18T11:01:53Z</time>
      </trkpt>
      <trkpt lat="43.25661" lon="5.97248">
        <ele>391</ele>
        <time>2012-11-18T11:01:55Z</time>
      </trkpt>
      <trkpt lat="43.25672" lon="5.97254">
        <ele>390</ele>
        <time>2012-11-18T11:01:57Z</time>
      </trkpt>
      <trkpt lat="43.25678" lon="5.97257">
        <ele>389</ele>
        <time>2012-11-18T11:01:58Z</time>
      </trkpt>
      <trkpt lat="43.25685" lon="5.97261">
        <ele>388</ele>
        <time>2012-11-18T11:01:59Z</time>
      </trkpt>
      <trkpt lat="43.25692" lon="5.97265">
        <ele>387</ele>
        <time>2012-11-18T11:02:00Z</time>
      </trkpt>
      <trkpt lat="43.25699" lon="5.97268">
        <ele>387</ele>
        <time>2012-11-18T11:02:01Z</time>
      </trkpt>
      <trkpt lat="43.25704" lon="5.9727">
        <ele>386</ele>
        <time>2012-11-18T11:02:02Z</time>
      </trkpt>
      <trkpt lat="43.25715" lon="5.9727">
        <ele>384</ele>
        <time>2012-11-18T11:02:05Z</time>
      </trkpt>
      <trkpt lat="43.25724" lon="5.97263">
        <ele>382</ele>
        <time>2012-11-18T11:02:08Z</time>
      </trkpt>
      <trkpt lat="43.25734" lon="5.97256">
        <ele>381</ele>
        <time>2012-11-18T11:02:10Z</time>
      </trkpt>
      <trkpt lat="43.25747" lon="5.97247">
        <ele>380</ele>
        <time>2012-11-18T11:02:12Z</time>
      </trkpt>
      <trkpt lat="43.25759" lon="5.97246">
        <ele>379</ele>
        <time>2012-11-18T11:02:14Z</time>
      </trkpt>
      <trkpt lat="43.25764" lon="5.97248">
        <ele>378</ele>
        <time>2012-11-18T11:02:15Z</time>
      </trkpt>
      <trkpt lat="43.25769" lon="5.97258">
        <ele>377</ele>
        <time>2012-11-18T11:02:18Z</time>
      </trkpt>
      <trkpt lat="43.25773" lon="5.9727">
        <ele>377</ele>
        <time>2012-11-18T11:02:20Z</time>
      </trkpt>
      <trkpt lat="43.25775" lon="5.97286">
        <ele>376</ele>
        <time>2012-11-18T11:02:23Z</time>
      </trkpt>
      <trkpt lat="43.25776" lon="5.97292">
        <ele>375</ele>
        <time>2012-11-18T11:02:24Z</time>
      </trkpt>
      <trkpt lat="43.25777" lon="5.97299">
        <ele>374</ele>
        <time>2012-11-18T11:02:25Z</time>
      </trkpt>
      <trkpt lat="43.25776" lon="5.9731">
        <ele>372</ele>
        <time>2012-11-18T11:02:27Z</time>
      </trkpt>
      <trkpt lat="43.25775" lon="5.97317">
        <ele>372</ele>
        <time>2012-11-18T11:02:28Z</time>
      </trkpt>
      <trkpt lat="43.25775" lon="5.97328">
        <ele>370</ele>
        <time>2012-11-18T11:02:30Z</time>
      </trkpt>
      <trkpt lat="43.25774" lon="5.97336">
        <ele>369</ele>
        <time>2012-11-18T11:02:32Z</time>
      </trkpt>
      <trkpt lat="43.25774" lon="5.97343">
        <ele>368</ele>
        <time>2012-11-18T11:02:34Z</time>
      </trkpt>
      <trkpt lat="43.25779" lon="5.97353">
        <ele>366</ele>
        <time>2012-11-18T11:02:38Z</time>
      </trkpt>
      <trkpt lat="43.25782" lon="5.9736">
        <ele>365</ele>
        <time>2012-11-18T11:02:41Z</time>
      </trkpt>
      <trkpt lat="43.25784" lon="5.97365">
        <ele>365</ele>
        <time>2012-11-18T11:02:44Z</time>
      </trkpt>
      <trkpt lat="43.25788" lon="5.97369">
        <ele>365</ele>
        <time>2012-11-18T11:03:01Z</time>
      </trkpt>
      <trkpt lat="43.25794" lon="5.97381">
        <ele>364</ele>
        <time>2012-11-18T11:03:05Z</time>
      </trkpt>
      <trkpt lat="43.25799" lon="5.97394">
        <ele>363</ele>
        <time>2012-11-18T11:03:08Z</time>
      </trkpt>
      <trkpt lat="43.25806" lon="5.97406">
        <ele>362</ele>
        <time>2012-11-18T11:03:11Z</time>
      </trkpt>
      <trkpt lat="43.25809" lon="5.97418">
        <ele>362</ele>
        <time>2012-11-18T11:03:13Z</time>
      </trkpt>
      <trkpt lat="43.2581" lon="5.97424">
        <ele>363</ele>
        <time>2012-11-18T11:03:14Z</time>
      </trkpt>
      <trkpt lat="43.25811" lon="5.97435">
        <ele>363</ele>
        <time>2012-11-18T11:03:16Z</time>
      </trkpt>
      <trkpt lat="43.25811" lon="5.97442">
        <ele>363</ele>
        <time>2012-11-18T11:03:17Z</time>
      </trkpt>
      <trkpt lat="43.25813" lon="5.97447">
        <ele>363</ele>
        <time>2012-11-18T11:03:18Z</time>
      </trkpt>
      <trkpt lat="43.25815" lon="5.97457">
        <ele>363</ele>
        <time>2012-11-18T11:03:20Z</time>
      </trkpt>
      <trkpt lat="43.25818" lon="5.97472">
        <ele>362</ele>
        <time>2012-11-18T11:03:23Z</time>
      </trkpt>
      <trkpt lat="43.25819" lon="5.97487">
        <ele>362</ele>
        <time>2012-11-18T11:03:26Z</time>
      </trkpt>
      <trkpt lat="43.2582" lon="5.97496">
        <ele>362</ele>
        <time>2012-11-18T11:03:28Z</time>
      </trkpt>
      <trkpt lat="43.2582" lon="5.97505">
        <ele>363</ele>
        <time>2012-11-18T11:03:30Z</time>
      </trkpt>
      <trkpt lat="43.25818" lon="5.97511">
        <ele>362</ele>
        <time>2012-11-18T11:03:32Z</time>
      </trkpt>
      <trkpt lat="43.25822" lon="5.97523">
        <ele>362</ele>
        <time>2012-11-18T11:03:36Z</time>
      </trkpt>
      <trkpt lat="43.25824" lon="5.9753">
        <ele>362</ele>
        <time>2012-11-18T11:03:38Z</time>
      </trkpt>
      <trkpt lat="43.25823" lon="5.97536">
        <ele>362</ele>
        <time>2012-11-18T11:03:40Z</time>
      </trkpt>
      <trkpt lat="43.25822" lon="5.97542">
        <ele>362</ele>
        <time>2012-11-18T11:03:43Z</time>
      </trkpt>
      <trkpt lat="43.25823" lon="5.97549">
        <ele>364</ele>
        <time>2012-11-18T11:03:48Z</time>
      </trkpt>
      <trkpt lat="43.25827" lon="5.9755">
        <ele>366</ele>
        <time>2012-11-18T11:03:54Z</time>
      </trkpt>
      <trkpt lat="43.25829" lon="5.97556">
        <ele>367</ele>
        <time>2012-11-18T11:04:06Z</time>
      </trkpt>
      <trkpt lat="43.25825" lon="5.97561">
        <ele>367</ele>
        <time>2012-11-18T11:04:10Z</time>
      </trkpt>
      <trkpt lat="43.2582" lon="5.97563">
        <ele>366</ele>
        <time>2012-11-18T11:04:15Z</time>
      </trkpt>
      <trkpt lat="43.25816" lon="5.97565">
        <ele>365</ele>
        <time>2012-11-18T11:04:17Z</time>
      </trkpt>
      <trkpt lat="43.25813" lon="5.9757">
        <ele>365</ele>
        <time>2012-11-18T11:04:19Z</time>
      </trkpt>
      <trkpt lat="43.25811" lon="5.97578">
        <ele>365</ele>
        <time>2012-11-18T11:04:22Z</time>
      </trkpt>
      <trkpt lat="43.25815" lon="5.97582">
        <ele>365</ele>
        <time>2012-11-18T11:04:27Z</time>
      </trkpt>
      <trkpt lat="43.25821" lon="5.97586">
        <ele>366</ele>
        <time>2012-11-18T11:04:31Z</time>
      </trkpt>
      <trkpt lat="43.25826" lon="5.9759">
        <ele>366</ele>
        <time>2012-11-18T11:04:34Z</time>
      </trkpt>
      <trkpt lat="43.25832" lon="5.97591">
        <ele>367</ele>
        <time>2012-11-18T11:04:38Z</time>
      </trkpt>
      <trkpt lat="43.25838" lon="5.97594">
        <ele>368</ele>
        <time>2012-11-18T11:04:49Z</time>
      </trkpt>
      <trkpt lat="43.25839" lon="5.97601">
        <ele>368</ele>
        <time>2012-11-18T11:04:52Z</time>
      </trkpt>
      <trkpt lat="43.25838" lon="5.97613">
        <ele>368</ele>
        <time>2012-11-18T11:04:58Z</time>
      </trkpt>
      <trkpt lat="43.25835" lon="5.97618">
        <ele>369</ele>
        <time>2012-11-18T11:05:00Z</time>
      </trkpt>
      <trkpt lat="43.25829" lon="5.97625">
        <ele>369</ele>
        <time>2012-11-18T11:05:02Z</time>
      </trkpt>
      <trkpt lat="43.25825" lon="5.9763">
        <ele>368</ele>
        <time>2012-11-18T11:05:04Z</time>
      </trkpt>
      <trkpt lat="43.25819" lon="5.9764">
        <ele>367</ele>
        <time>2012-11-18T11:05:06Z</time>
      </trkpt>
      <trkpt lat="43.25816" lon="5.97645">
        <ele>367</ele>
        <time>2012-11-18T11:05:07Z</time>
      </trkpt>
      <trkpt lat="43.25809" lon="5.97655">
        <ele>366</ele>
        <time>2012-11-18T11:05:09Z</time>
      </trkpt>
      <trkpt lat="43.25804" lon="5.97663">
        <ele>366</ele>
        <time>2012-11-18T11:05:11Z</time>
      </trkpt>
      <trkpt lat="43.258" lon="5.97672">
        <ele>366</ele>
        <time>2012-11-18T11:05:13Z</time>
      </trkpt>
      <trkpt lat="43.25804" lon="5.97685">
        <ele>365</ele>
        <time>2012-11-18T11:05:16Z</time>
      </trkpt>
      <trkpt lat="43.25807" lon="5.97693">
        <ele>365</ele>
        <time>2012-11-18T11:05:18Z</time>
      </trkpt>
      <trkpt lat="43.25812" lon="5.97705">
        <ele>364</ele>
        <time>2012-11-18T11:05:22Z</time>
      </trkpt>
      <trkpt lat="43.25813" lon="5.97712">
        <ele>364</ele>
        <time>2012-11-18T11:05:24Z</time>
      </trkpt>
      <trkpt lat="43.25815" lon="5.97719">
        <ele>364</ele>
        <time>2012-11-18T11:05:26Z</time>
      </trkpt>
      <trkpt lat="43.25816" lon="5.97727">
        <ele>364</ele>
        <time>2012-11-18T11:05:28Z</time>
      </trkpt>
      <trkpt lat="43.25813" lon="5.97744">
        <ele>364</ele>
        <time>2012-11-18T11:05:31Z</time>
      </trkpt>
      <trkpt lat="43.25813" lon="5.97755">
        <ele>365</ele>
        <time>2012-11-18T11:05:34Z</time>
      </trkpt>
      <trkpt lat="43.25815" lon="5.97764">
        <ele>366</ele>
        <time>2012-11-18T11:05:37Z</time>
      </trkpt>
      <trkpt lat="43.25812" lon="5.9777">
        <ele>366</ele>
        <time>2012-11-18T11:05:39Z</time>
      </trkpt>
      <trkpt lat="43.25811" lon="5.97782">
        <ele>366</ele>
        <time>2012-11-18T11:05:42Z</time>
      </trkpt>
      <trkpt lat="43.25813" lon="5.97791">
        <ele>366</ele>
        <time>2012-11-18T11:05:44Z</time>
      </trkpt>
      <trkpt lat="43.25816" lon="5.978">
        <ele>366</ele>
        <time>2012-11-18T11:05:46Z</time>
      </trkpt>
      <trkpt lat="43.25819" lon="5.97807">
        <ele>366</ele>
        <time>2012-11-18T11:05:48Z</time>
      </trkpt>
      <trkpt lat="43.25824" lon="5.97821">
        <ele>365</ele>
        <time>2012-11-18T11:05:51Z</time>
      </trkpt>
      <trkpt lat="43.25828" lon="5.97833">
        <ele>365</ele>
        <time>2012-11-18T11:05:53Z</time>
      </trkpt>
      <trkpt lat="43.25831" lon="5.97845">
        <ele>363</ele>
        <time>2012-11-18T11:05:55Z</time>
      </trkpt>
      <trkpt lat="43.25839" lon="5.97858">
        <ele>362</ele>
        <time>2012-11-18T11:05:57Z</time>
      </trkpt>
      <trkpt lat="43.25844" lon="5.97862">
        <ele>361</ele>
        <time>2012-11-18T11:05:58Z</time>
      </trkpt>
      <trkpt lat="43.25848" lon="5.97867">
        <ele>361</ele>
        <time>2012-11-18T11:05:59Z</time>
      </trkpt>
      <trkpt lat="43.25854" lon="5.97869">
        <ele>360</ele>
        <time>2012-11-18T11:06:00Z</time>
      </trkpt>
      <trkpt lat="43.2586" lon="5.97872">
        <ele>359</ele>
        <time>2012-11-18T11:06:01Z</time>
      </trkpt>
      <trkpt lat="43.25864" lon="5.97874">
        <ele>358</ele>
        <time>2012-11-18T11:06:02Z</time>
      </trkpt>
      <trkpt lat="43.25875" lon="5.97876">
        <ele>356</ele>
        <time>2012-11-18T11:06:06Z</time>
      </trkpt>
      <trkpt lat="43.25886" lon="5.97877">
        <ele>355</ele>
        <time>2012-11-18T11:06:09Z</time>
      </trkpt>
      <trkpt lat="43.25898" lon="5.97879">
        <ele>354</ele>
        <time>2012-11-18T11:06:11Z</time>
      </trkpt>
      <trkpt lat="43.25911" lon="5.97881">
        <ele>354</ele>
        <time>2012-11-18T11:06:13Z</time>
      </trkpt>
      <trkpt lat="43.25922" lon="5.97885">
        <ele>354</ele>
        <time>2012-11-18T11:06:15Z</time>
      </trkpt>
      <trkpt lat="43.25935" lon="5.9789">
        <ele>353</ele>
        <time>2012-11-18T11:06:17Z</time>
      </trkpt>
      <trkpt lat="43.25947" lon="5.97887">
        <ele>352</ele>
        <time>2012-11-18T11:06:19Z</time>
      </trkpt>
      <trkpt lat="43.25954" lon="5.97878">
        <ele>351</ele>
        <time>2012-11-18T11:06:21Z</time>
      </trkpt>
      <trkpt lat="43.2596" lon="5.97867">
        <ele>350</ele>
        <time>2012-11-18T11:06:23Z</time>
      </trkpt>
      <trkpt lat="43.25966" lon="5.97851">
        <ele>348</ele>
        <time>2012-11-18T11:06:25Z</time>
      </trkpt>
      <trkpt lat="43.25974" lon="5.97839">
        <ele>347</ele>
        <time>2012-11-18T11:06:27Z</time>
      </trkpt>
      <trkpt lat="43.25983" lon="5.97831">
        <ele>346</ele>
        <time>2012-11-18T11:06:29Z</time>
      </trkpt>
      <trkpt lat="43.25988" lon="5.9782">
        <ele>343</ele>
        <time>2012-11-18T11:06:31Z</time>
      </trkpt>
      <trkpt lat="43.25993" lon="5.97809">
        <ele>341</ele>
        <time>2012-11-18T11:06:33Z</time>
      </trkpt>
      <trkpt lat="43.26006" lon="5.97807">
        <ele>338</ele>
        <time>2012-11-18T11:06:36Z</time>
      </trkpt>
      <trkpt lat="43.26015" lon="5.97808">
        <ele>337</ele>
        <time>2012-11-18T11:06:38Z</time>
      </trkpt>
      <trkpt lat="43.26028" lon="5.97808">
        <ele>336</ele>
        <time>2012-11-18T11:06:41Z</time>
      </trkpt>
      <trkpt lat="43.26039" lon="5.97803">
        <ele>335</ele>
        <time>2012-11-18T11:06:44Z</time>
      </trkpt>
      <trkpt lat="43.2605" lon="5.97809">
        <ele>335</ele>
        <time>2012-11-18T11:06:47Z</time>
      </trkpt>
      <trkpt lat="43.2606" lon="5.97813">
        <ele>335</ele>
        <time>2012-11-18T11:06:50Z</time>
      </trkpt>
      <trkpt lat="43.26072" lon="5.97814">
        <ele>335</ele>
        <time>2012-11-18T11:06:53Z</time>
      </trkpt>
      <trkpt lat="43.26082" lon="5.97816">
        <ele>334</ele>
        <time>2012-11-18T11:06:55Z</time>
      </trkpt>
      <trkpt lat="43.26094" lon="5.97819">
        <ele>334</ele>
        <time>2012-11-18T11:06:58Z</time>
      </trkpt>
      <trkpt lat="43.26105" lon="5.97825">
        <ele>333</ele>
        <time>2012-11-18T11:07:01Z</time>
      </trkpt>
      <trkpt lat="43.26117" lon="5.97829">
        <ele>333</ele>
        <time>2012-11-18T11:07:04Z</time>
      </trkpt>
      <trkpt lat="43.26128" lon="5.9783">
        <ele>332</ele>
        <time>2012-11-18T11:07:07Z</time>
      </trkpt>
      <trkpt lat="43.26139" lon="5.97828">
        <ele>331</ele>
        <time>2012-11-18T11:07:11Z</time>
      </trkpt>
      <trkpt lat="43.26147" lon="5.97823">
        <ele>330</ele>
        <time>2012-11-18T11:07:14Z</time>
      </trkpt>
      <trkpt lat="43.26156" lon="5.97812">
        <ele>330</ele>
        <time>2012-11-18T11:07:17Z</time>
      </trkpt>
      <trkpt lat="43.26169" lon="5.97808">
        <ele>328</ele>
        <time>2012-11-18T11:07:20Z</time>
      </trkpt>
      <trkpt lat="43.26179" lon="5.9781">
        <ele>327</ele>
        <time>2012-11-18T11:07:22Z</time>
      </trkpt>
      <trkpt lat="43.26189" lon="5.97813">
        <ele>326</ele>
        <time>2012-11-18T11:07:24Z</time>
      </trkpt>
      <trkpt lat="43.26198" lon="5.97816">
        <ele>325</ele>
        <time>2012-11-18T11:07:26Z</time>
      </trkpt>
      <trkpt lat="43.26209" lon="5.97819">
        <ele>324</ele>
        <time>2012-11-18T11:07:28Z</time>
      </trkpt>
      <trkpt lat="43.26219" lon="5.97825">
        <ele>323</ele>
        <time>2012-11-18T11:07:30Z</time>
      </trkpt>
      <trkpt lat="43.26228" lon="5.9783">
        <ele>322</ele>
        <time>2012-11-18T11:07:32Z</time>
      </trkpt>
      <trkpt lat="43.26237" lon="5.97835">
        <ele>321</ele>
        <time>2012-11-18T11:07:34Z</time>
      </trkpt>
      <trkpt lat="43.26248" lon="5.97843">
        <ele>319</ele>
        <time>2012-11-18T11:07:37Z</time>
      </trkpt>
      <trkpt lat="43.26257" lon="5.97852">
        <ele>318</ele>
        <time>2012-11-18T11:07:40Z</time>
      </trkpt>
      <trkpt lat="43.26266" lon="5.97856">
        <ele>315</ele>
        <time>2012-11-18T11:07:44Z</time>
      </trkpt>
      <trkpt lat="43.26271" lon="5.97852">
        <ele>310</ele>
        <time>2012-11-18T11:08:08Z</time>
      </trkpt>
      <trkpt lat="43.26282" lon="5.97862">
        <ele>308</ele>
        <time>2012-11-18T11:08:34Z</time>
      </trkpt>
      <trkpt lat="43.2629" lon="5.97869">
        <ele>308</ele>
        <time>2012-11-18T11:08:36Z</time>
      </trkpt>
      <trkpt lat="43.26303" lon="5.97876">
        <ele>307</ele>
        <time>2012-11-18T11:08:38Z</time>
      </trkpt>
      <trkpt lat="43.26316" lon="5.97884">
        <ele>308</ele>
        <time>2012-11-18T11:08:40Z</time>
      </trkpt>
      <trkpt lat="43.26329" lon="5.97893">
        <ele>308</ele>
        <time>2012-11-18T11:08:42Z</time>
      </trkpt>
      <trkpt lat="43.26338" lon="5.97901">
        <ele>308</ele>
        <time>2012-11-18T11:08:44Z</time>
      </trkpt>
      <trkpt lat="43.26347" lon="5.97906">
        <ele>307</ele>
        <time>2012-11-18T11:08:46Z</time>
      </trkpt>
      <trkpt lat="43.26356" lon="5.97914">
        <ele>307</ele>
        <time>2012-11-18T11:08:48Z</time>
      </trkpt>
      <trkpt lat="43.26363" lon="5.97926">
        <ele>307</ele>
        <time>2012-11-18T11:08:50Z</time>
      </trkpt>
      <trkpt lat="43.26369" lon="5.97935">
        <ele>306</ele>
        <time>2012-11-18T11:08:52Z</time>
      </trkpt>
      <trkpt lat="43.2638" lon="5.97942">
        <ele>306</ele>
        <time>2012-11-18T11:08:54Z</time>
      </trkpt>
      <trkpt lat="43.26393" lon="5.97943">
        <ele>305</ele>
        <time>2012-11-18T11:08:57Z</time>
      </trkpt>
      <trkpt lat="43.26406" lon="5.97938">
        <ele>303</ele>
        <time>2012-11-18T11:09:00Z</time>
      </trkpt>
      <trkpt lat="43.26413" lon="5.97928">
        <ele>301</ele>
        <time>2012-11-18T11:09:02Z</time>
      </trkpt>
      <trkpt lat="43.26417" lon="5.97922">
        <ele>301</ele>
        <time>2012-11-18T11:09:03Z</time>
      </trkpt>
      <trkpt lat="43.26421" lon="5.97915">
        <ele>300</ele>
        <time>2012-11-18T11:09:04Z</time>
      </trkpt>
      <trkpt lat="43.26424" lon="5.97904">
        <ele>298</ele>
        <time>2012-11-18T11:09:07Z</time>
      </trkpt>
      <trkpt lat="43.26427" lon="5.97893">
        <ele>296</ele>
        <time>2012-11-18T11:09:09Z</time>
      </trkpt>
      <trkpt lat="43.2643" lon="5.97887">
        <ele>295</ele>
        <time>2012-11-18T11:09:10Z</time>
      </trkpt>
      <trkpt lat="43.26433" lon="5.97881">
        <ele>295</ele>
        <time>2012-11-18T11:09:11Z</time>
      </trkpt>
      <trkpt lat="43.26436" lon="5.97876">
        <ele>295</ele>
        <time>2012-11-18T11:09:12Z</time>
      </trkpt>
      <trkpt lat="43.26443" lon="5.97871">
        <ele>294</ele>
        <time>2012-11-18T11:09:14Z</time>
      </trkpt>
      <trkpt lat="43.26447" lon="5.9787">
        <ele>294</ele>
        <time>2012-11-18T11:09:15Z</time>
      </trkpt>
      <trkpt lat="43.26453" lon="5.9787">
        <ele>294</ele>
        <time>2012-11-18T11:09:16Z</time>
      </trkpt>
      <trkpt lat="43.26458" lon="5.97869">
        <ele>293</ele>
        <time>2012-11-18T11:09:17Z</time>
      </trkpt>
      <trkpt lat="43.26463" lon="5.97868">
        <ele>292</ele>
        <time>2012-11-18T11:09:18Z</time>
      </trkpt>
      <trkpt lat="43.26469" lon="5.97862">
        <ele>291</ele>
        <time>2012-11-18T11:09:20Z</time>
      </trkpt>
      <trkpt lat="43.26473" lon="5.97859">
        <ele>289</ele>
        <time>2012-11-18T11:09:29Z</time>
      </trkpt>
      <trkpt lat="43.26475" lon="5.97847">
        <ele>288</ele>
        <time>2012-11-18T11:09:43Z</time>
      </trkpt>
      <trkpt lat="43.26475" lon="5.97838">
        <ele>288</ele>
        <time>2012-11-18T11:09:46Z</time>
      </trkpt>
      <trkpt lat="43.26473" lon="5.97826">
        <ele>287</ele>
        <time>2012-11-18T11:09:51Z</time>
      </trkpt>
      <trkpt lat="43.26472" lon="5.97818">
        <ele>288</ele>
        <time>2012-11-18T11:09:54Z</time>
      </trkpt>
      <trkpt lat="43.26468" lon="5.97811">
        <ele>287</ele>
        <time>2012-11-18T11:09:57Z</time>
      </trkpt>
      <trkpt lat="43.26465" lon="5.97804">
        <ele>287</ele>
        <time>2012-11-18T11:09:59Z</time>
      </trkpt>
      <trkpt lat="43.26462" lon="5.97797">
        <ele>286</ele>
        <time>2012-11-18T11:10:02Z</time>
      </trkpt>
      <trkpt lat="43.26457" lon="5.9779">
        <ele>285</ele>
        <time>2012-11-18T11:10:05Z</time>
      </trkpt>
      <trkpt lat="43.26452" lon="5.97784">
        <ele>286</ele>
        <time>2012-11-18T11:10:08Z</time>
      </trkpt>
      <trkpt lat="43.26447" lon="5.97779">
        <ele>286</ele>
        <time>2012-11-18T11:10:10Z</time>
      </trkpt>
      <trkpt lat="43.26442" lon="5.97775">
        <ele>286</ele>
        <time>2012-11-18T11:10:12Z</time>
      </trkpt>
      <trkpt lat="43.26437" lon="5.97771">
        <ele>286</ele>
        <time>2012-11-18T11:10:14Z</time>
      </trkpt>
      <trkpt lat="43.26433" lon="5.97767">
        <ele>287</ele>
        <time>2012-11-18T11:10:16Z</time>
      </trkpt>
      <trkpt lat="43.26427" lon="5.97762">
        <ele>287</ele>
        <time>2012-11-18T11:10:18Z</time>
      </trkpt>
      <trkpt lat="43.26422" lon="5.97756">
        <ele>288</ele>
        <time>2012-11-18T11:10:20Z</time>
      </trkpt>
      <trkpt lat="43.26416" lon="5.9775">
        <ele>288</ele>
        <time>2012-11-18T11:10:22Z</time>
      </trkpt>
      <trkpt lat="43.2641" lon="5.97743">
        <ele>288</ele>
        <time>2012-11-18T11:10:24Z</time>
      </trkpt>
      <trkpt lat="43.26405" lon="5.97736">
        <ele>288</ele>
        <time>2012-11-18T11:10:26Z</time>
      </trkpt>
      <trkpt lat="43.264" lon="5.97731">
        <ele>288</ele>
        <time>2012-11-18T11:10:28Z</time>
      </trkpt>
      <trkpt lat="43.26394" lon="5.97725">
        <ele>289</ele>
        <time>2012-11-18T11:10:30Z</time>
      </trkpt>
      <trkpt lat="43.2639" lon="5.97722">
        <ele>289</ele>
        <time>2012-11-18T11:10:31Z</time>
      </trkpt>
      <trkpt lat="43.26384" lon="5.97716">
        <ele>290</ele>
        <time>2012-11-18T11:10:33Z</time>
      </trkpt>
      <trkpt lat="43.26379" lon="5.97712">
        <ele>290</ele>
        <time>2012-11-18T11:10:35Z</time>
      </trkpt>
      <trkpt lat="43.26375" lon="5.97708">
        <ele>291</ele>
        <time>2012-11-18T11:10:37Z</time>
      </trkpt>
      <trkpt lat="43.2637" lon="5.97705">
        <ele>292</ele>
        <time>2012-11-18T11:10:39Z</time>
      </trkpt>
      <trkpt lat="43.26366" lon="5.97701">
        <ele>292</ele>
        <time>2012-11-18T11:10:41Z</time>
      </trkpt>
      <trkpt lat="43.26358" lon="5.9769">
        <ele>293</ele>
        <time>2012-11-18T11:10:45Z</time>
      </trkpt>
      <trkpt lat="43.26355" lon="5.97685">
        <ele>294</ele>
        <time>2012-11-18T11:10:46Z</time>
      </trkpt>
      <trkpt lat="43.26352" lon="5.9768">
        <ele>294</ele>
        <time>2012-11-18T11:10:47Z</time>
      </trkpt>
      <trkpt lat="43.2635" lon="5.97675">
        <ele>295</ele>
        <time>2012-11-18T11:10:48Z</time>
      </trkpt>
      <trkpt lat="43.26344" lon="5.97665">
        <ele>295</ele>
        <time>2012-11-18T11:10:50Z</time>
      </trkpt>
      <trkpt lat="43.26339" lon="5.97657">
        <ele>295</ele>
        <time>2012-11-18T11:10:52Z</time>
      </trkpt>
      <trkpt lat="43.26334" lon="5.97648">
        <ele>296</ele>
        <time>2012-11-18T11:10:54Z</time>
      </trkpt>
      <trkpt lat="43.26328" lon="5.97639">
        <ele>296</ele>
        <time>2012-11-18T11:10:56Z</time>
      </trkpt>
      <trkpt lat="43.26323" lon="5.97631">
        <ele>296</ele>
        <time>2012-11-18T11:10:58Z</time>
      </trkpt>
      <trkpt lat="43.26317" lon="5.97623">
        <ele>296</ele>
        <time>2012-11-18T11:11:00Z</time>
      </trkpt>
      <trkpt lat="43.2631" lon="5.97615">
        <ele>296</ele>
        <time>2012-11-18T11:11:02Z</time>
      </trkpt>
      <trkpt lat="43.26304" lon="5.97606">
        <ele>295</ele>
        <time>2012-11-18T11:11:04Z</time>
      </trkpt>
      <trkpt lat="43.26301" lon="5.97601">
        <ele>295</ele>
        <time>2012-11-18T11:11:05Z</time>
      </trkpt>
      <trkpt lat="43.26299" lon="5.97594">
        <ele>294</ele>
        <time>2012-11-18T11:11:06Z</time>
      </trkpt>
      <trkpt lat="43.26296" lon="5.97588">
        <ele>294</ele>
        <time>2012-11-18T11:11:07Z</time>
      </trkpt>
      <trkpt lat="43.26295" lon="5.97581">
        <ele>294</ele>
        <time>2012-11-18T11:11:08Z</time>
      </trkpt>
      <trkpt lat="43.26293" lon="5.97575">
        <ele>294</ele>
        <time>2012-11-18T11:11:09Z</time>
      </trkpt>
      <trkpt lat="43.26292" lon="5.97569">
        <ele>293</ele>
        <time>2012-11-18T11:11:10Z</time>
      </trkpt>
      <trkpt lat="43.2629" lon="5.97563">
        <ele>293</ele>
        <time>2012-11-18T11:11:11Z</time>
      </trkpt>
      <trkpt lat="43.26288" lon="5.97546">
        <ele>293</ele>
        <time>2012-11-18T11:11:14Z</time>
      </trkpt>
      <trkpt lat="43.26284" lon="5.97531">
        <ele>293</ele>
        <time>2012-11-18T11:11:17Z</time>
      </trkpt>
      <trkpt lat="43.2628" lon="5.97515">
        <ele>293</ele>
        <time>2012-11-18T11:11:20Z</time>
      </trkpt>
      <trkpt lat="43.26275" lon="5.97499">
        <ele>292</ele>
        <time>2012-11-18T11:11:23Z</time>
      </trkpt>
      <trkpt lat="43.26271" lon="5.97484">
        <ele>290</ele>
        <time>2012-11-18T11:11:26Z</time>
      </trkpt>
      <trkpt lat="43.26269" lon="5.97472">
        <ele>290</ele>
        <time>2012-11-18T11:11:29Z</time>
      </trkpt>
      <trkpt lat="43.26265" lon="5.97458">
        <ele>291</ele>
        <time>2012-11-18T11:11:32Z</time>
      </trkpt>
      <trkpt lat="43.2626" lon="5.97445">
        <ele>292</ele>
        <time>2012-11-18T11:11:35Z</time>
      </trkpt>
      <trkpt lat="43.26253" lon="5.97431">
        <ele>292</ele>
        <time>2012-11-18T11:11:38Z</time>
      </trkpt>
      <trkpt lat="43.26247" lon="5.97421">
        <ele>292</ele>
        <time>2012-11-18T11:11:40Z</time>
      </trkpt>
      <trkpt lat="43.26243" lon="5.97411">
        <ele>292</ele>
        <time>2012-11-18T11:11:42Z</time>
      </trkpt>
      <trkpt lat="43.26241" lon="5.97401">
        <ele>292</ele>
        <time>2012-11-18T11:11:44Z</time>
      </trkpt>
      <trkpt lat="43.26241" lon="5.97388">
        <ele>292</ele>
        <time>2012-11-18T11:11:46Z</time>
      </trkpt>
      <trkpt lat="43.26241" lon="5.97375">
        <ele>293</ele>
        <time>2012-11-18T11:11:48Z</time>
      </trkpt>
      <trkpt lat="43.26241" lon="5.97358">
        <ele>293</ele>
        <time>2012-11-18T11:11:51Z</time>
      </trkpt>
      <trkpt lat="43.26237" lon="5.97346">
        <ele>294</ele>
        <time>2012-11-18T11:11:53Z</time>
      </trkpt>
      <trkpt lat="43.2623" lon="5.97336">
        <ele>294</ele>
        <time>2012-11-18T11:11:56Z</time>
      </trkpt>
      <trkpt lat="43.26223" lon="5.97331">
        <ele>294</ele>
        <time>2012-11-18T11:11:58Z</time>
      </trkpt>
      <trkpt lat="43.26219" lon="5.97327">
        <ele>294</ele>
        <time>2012-11-18T11:12:00Z</time>
      </trkpt>
      <trkpt lat="43.26215" lon="5.97323">
        <ele>292</ele>
        <time>2012-11-18T11:12:03Z</time>
      </trkpt>
      <trkpt lat="43.26211" lon="5.97319">
        <ele>292</ele>
        <time>2012-11-18T11:12:07Z</time>
      </trkpt>
      <trkpt lat="43.26207" lon="5.97315">
        <ele>292</ele>
        <time>2012-11-18T11:12:11Z</time>
      </trkpt>
      <trkpt lat="43.26203" lon="5.97311">
        <ele>292</ele>
        <time>2012-11-18T11:12:15Z</time>
      </trkpt>
      <trkpt lat="43.26199" lon="5.97307">
        <ele>294</ele>
        <time>2012-11-18T11:12:20Z</time>
      </trkpt>
      <trkpt lat="43.26196" lon="5.97301">
        <ele>296</ele>
        <time>2012-11-18T11:12:25Z</time>
      </trkpt>
      <trkpt lat="43.26193" lon="5.97295">
        <ele>298</ele>
        <time>2012-11-18T11:12:29Z</time>
      </trkpt>
      <trkpt lat="43.2619" lon="5.97288">
        <ele>297</ele>
        <time>2012-11-18T11:12:34Z</time>
      </trkpt>
      <trkpt lat="43.26188" lon="5.97282">
        <ele>296</ele>
        <time>2012-11-18T11:12:37Z</time>
      </trkpt>
      <trkpt lat="43.26187" lon="5.97276">
        <ele>297</ele>
        <time>2012-11-18T11:12:40Z</time>
      </trkpt>
      <trkpt lat="43.26185" lon="5.9727">
        <ele>298</ele>
        <time>2012-11-18T11:12:44Z</time>
      </trkpt>
      <trkpt lat="43.26182" lon="5.97264">
        <ele>300</ele>
        <time>2012-11-18T11:12:48Z</time>
      </trkpt>
      <trkpt lat="43.26181" lon="5.97255">
        <ele>303</ele>
        <time>2012-11-18T11:12:53Z</time>
      </trkpt>
      <trkpt lat="43.2618" lon="5.97248">
        <ele>304</ele>
        <time>2012-11-18T11:12:56Z</time>
      </trkpt>
      <trkpt lat="43.26178" lon="5.97241">
        <ele>305</ele>
        <time>2012-11-18T11:13:00Z</time>
      </trkpt>
      <trkpt lat="43.26176" lon="5.97235">
        <ele>306</ele>
        <time>2012-11-18T11:13:05Z</time>
      </trkpt>
      <trkpt lat="43.26173" lon="5.97228">
        <ele>306</ele>
        <time>2012-11-18T11:13:08Z</time>
      </trkpt>
      <trkpt lat="43.26169" lon="5.97223">
        <ele>305</ele>
        <time>2012-11-18T11:13:11Z</time>
      </trkpt>
      <trkpt lat="43.26165" lon="5.97212">
        <ele>305</ele>
        <time>2012-11-18T11:13:19Z</time>
      </trkpt>
      <trkpt lat="43.26163" lon="5.97205">
        <ele>305</ele>
        <time>2012-11-18T11:13:23Z</time>
      </trkpt>
      <trkpt lat="43.2616" lon="5.97199">
        <ele>304</ele>
        <time>2012-11-18T11:13:27Z</time>
      </trkpt>
      <trkpt lat="43.26157" lon="5.97193">
        <ele>305</ele>
        <time>2012-11-18T11:13:31Z</time>
      </trkpt>
      <trkpt lat="43.26153" lon="5.97187">
        <ele>305</ele>
        <time>2012-11-18T11:13:36Z</time>
      </trkpt>
      <trkpt lat="43.26152" lon="5.97179">
        <ele>306</ele>
        <time>2012-11-18T11:13:40Z</time>
      </trkpt>
      <trkpt lat="43.2615" lon="5.97173">
        <ele>306</ele>
        <time>2012-11-18T11:13:46Z</time>
      </trkpt>
      <trkpt lat="43.2615" lon="5.97165">
        <ele>306</ele>
        <time>2012-11-18T11:13:51Z</time>
      </trkpt>
      <trkpt lat="43.2615" lon="5.97155">
        <ele>303</ele>
        <time>2012-11-18T11:14:14Z</time>
      </trkpt>
      <trkpt lat="43.26161" lon="5.97146">
        <ele>303</ele>
        <time>2012-11-18T11:14:18Z</time>
      </trkpt>
      <trkpt lat="43.26169" lon="5.97141">
        <ele>304</ele>
        <time>2012-11-18T11:14:20Z</time>
      </trkpt>
      <trkpt lat="43.2618" lon="5.97135">
        <ele>304</ele>
        <time>2012-11-18T11:14:23Z</time>
      </trkpt>
      <trkpt lat="43.26183" lon="5.97131">
        <ele>304</ele>
        <time>2012-11-18T11:14:25Z</time>
      </trkpt>
      <trkpt lat="43.26189" lon="5.97122">
        <ele>304</ele>
        <time>2012-11-18T11:14:31Z</time>
      </trkpt>
      <trkpt lat="43.26194" lon="5.97111">
        <ele>304</ele>
        <time>2012-11-18T11:14:35Z</time>
      </trkpt>
      <trkpt lat="43.26196" lon="5.97096">
        <ele>306</ele>
        <time>2012-11-18T11:14:39Z</time>
      </trkpt>
      <trkpt lat="43.26194" lon="5.97084">
        <ele>308</ele>
        <time>2012-11-18T11:14:43Z</time>
      </trkpt>
      <trkpt lat="43.26192" lon="5.97074">
        <ele>309</ele>
        <time>2012-11-18T11:14:46Z</time>
      </trkpt>
      <trkpt lat="43.26188" lon="5.97061">
        <ele>310</ele>
        <time>2012-11-18T11:14:49Z</time>
      </trkpt>
      <trkpt lat="43.26185" lon="5.97049">
        <ele>309</ele>
        <time>2012-11-18T11:14:51Z</time>
      </trkpt>
      <trkpt lat="43.26186" lon="5.97034">
        <ele>309</ele>
        <time>2012-11-18T11:14:53Z</time>
      </trkpt>
      <trkpt lat="43.2619" lon="5.97021">
        <ele>309</ele>
        <time>2012-11-18T11:14:55Z</time>
      </trkpt>
      <trkpt lat="43.26195" lon="5.97009">
        <ele>309</ele>
        <time>2012-11-18T11:14:57Z</time>
      </trkpt>
      <trkpt lat="43.26202" lon="5.96997">
        <ele>309</ele>
        <time>2012-11-18T11:14:59Z</time>
      </trkpt>
      <trkpt lat="43.26207" lon="5.96983">
        <ele>309</ele>
        <time>2012-11-18T11:15:01Z</time>
      </trkpt>
      <trkpt lat="43.26212" lon="5.96966">
        <ele>311</ele>
        <time>2012-11-18T11:15:04Z</time>
      </trkpt>
      <trkpt lat="43.26218" lon="5.96951">
        <ele>311</ele>
        <time>2012-11-18T11:15:06Z</time>
      </trkpt>
      <trkpt lat="43.26224" lon="5.96937">
        <ele>312</ele>
        <time>2012-11-18T11:15:08Z</time>
      </trkpt>
      <trkpt lat="43.26232" lon="5.96919">
        <ele>313</ele>
        <time>2012-11-18T11:15:10Z</time>
      </trkpt>
      <trkpt lat="43.26237" lon="5.96903">
        <ele>313</ele>
        <time>2012-11-18T11:15:12Z</time>
      </trkpt>
      <trkpt lat="43.26242" lon="5.96888">
        <ele>313</ele>
        <time>2012-11-18T11:15:14Z</time>
      </trkpt>
      <trkpt lat="43.26248" lon="5.96874">
        <ele>312</ele>
        <time>2012-11-18T11:15:16Z</time>
      </trkpt>
      <trkpt lat="43.26255" lon="5.96887">
        <ele>307</ele>
        <time>2012-11-18T11:15:24Z</time>
      </trkpt>
      <trkpt lat="43.2626" lon="5.969">
        <ele>305</ele>
        <time>2012-11-18T11:15:26Z</time>
      </trkpt>
      <trkpt lat="43.26257" lon="5.96915">
        <ele>304</ele>
        <time>2012-11-18T11:15:28Z</time>
      </trkpt>
      <trkpt lat="43.2625" lon="5.96929">
        <ele>302</ele>
        <time>2012-11-18T11:15:30Z</time>
      </trkpt>
      <trkpt lat="43.26245" lon="5.96943">
        <ele>300</ele>
        <time>2012-11-18T11:15:32Z</time>
      </trkpt>
      <trkpt lat="43.26245" lon="5.96959">
        <ele>297</ele>
        <time>2012-11-18T11:15:36Z</time>
      </trkpt>
      <trkpt lat="43.26241" lon="5.9697">
        <ele>295</ele>
        <time>2012-11-18T11:15:39Z</time>
      </trkpt>
      <trkpt lat="43.26237" lon="5.96984">
        <ele>292</ele>
        <time>2012-11-18T11:15:43Z</time>
      </trkpt>
      <trkpt lat="43.26236" lon="5.96998">
        <ele>290</ele>
        <time>2012-11-18T11:15:47Z</time>
      </trkpt>
      <trkpt lat="43.26236" lon="5.97014">
        <ele>290</ele>
        <time>2012-11-18T11:15:51Z</time>
      </trkpt>
      <trkpt lat="43.26235" lon="5.97027">
        <ele>291</ele>
        <time>2012-11-18T11:15:54Z</time>
      </trkpt>
      <trkpt lat="43.26238" lon="5.97039">
        <ele>291</ele>
        <time>2012-11-18T11:15:58Z</time>
      </trkpt>
      <trkpt lat="43.26242" lon="5.97052">
        <ele>291</ele>
        <time>2012-11-18T11:16:02Z</time>
      </trkpt>
      <trkpt lat="43.26246" lon="5.97065">
        <ele>290</ele>
        <time>2012-11-18T11:16:04Z</time>
      </trkpt>
      <trkpt lat="43.26254" lon="5.97081">
        <ele>289</ele>
        <time>2012-11-18T11:16:07Z</time>
      </trkpt>
      <trkpt lat="43.26264" lon="5.97094">
        <ele>287</ele>
        <time>2012-11-18T11:16:10Z</time>
      </trkpt>
      <trkpt lat="43.26272" lon="5.971">
        <ele>284</ele>
        <time>2012-11-18T11:16:13Z</time>
      </trkpt>
      <trkpt lat="43.26281" lon="5.971">
        <ele>281</ele>
        <time>2012-11-18T11:16:21Z</time>
      </trkpt>
      <trkpt lat="43.26291" lon="5.97099">
        <ele>282</ele>
        <time>2012-11-18T11:16:24Z</time>
      </trkpt>
      <trkpt lat="43.26303" lon="5.97101">
        <ele>282</ele>
        <time>2012-11-18T11:16:27Z</time>
      </trkpt>
      <trkpt lat="43.26312" lon="5.97101">
        <ele>282</ele>
        <time>2012-11-18T11:16:30Z</time>
      </trkpt>
      <trkpt lat="43.26322" lon="5.97097">
        <ele>283</ele>
        <time>2012-11-18T11:16:33Z</time>
      </trkpt>
      <trkpt lat="43.26327" lon="5.97096">
        <ele>284</ele>
        <time>2012-11-18T11:16:35Z</time>
      </trkpt>
      <trkpt lat="43.26334" lon="5.97095">
        <ele>284</ele>
        <time>2012-11-18T11:16:37Z</time>
      </trkpt>
      <trkpt lat="43.26341" lon="5.97097">
        <ele>284</ele>
        <time>2012-11-18T11:16:39Z</time>
      </trkpt>
      <trkpt lat="43.26351" lon="5.97093">
        <ele>284</ele>
        <time>2012-11-18T11:16:43Z</time>
      </trkpt>
      <trkpt lat="43.2636" lon="5.97087">
        <ele>282</ele>
        <time>2012-11-18T11:16:47Z</time>
      </trkpt>
      <trkpt lat="43.2637" lon="5.97081">
        <ele>279</ele>
        <time>2012-11-18T11:16:50Z</time>
      </trkpt>
      <trkpt lat="43.26381" lon="5.97077">
        <ele>278</ele>
        <time>2012-11-18T11:16:53Z</time>
      </trkpt>
      <trkpt lat="43.26387" lon="5.97075">
        <ele>277</ele>
        <time>2012-11-18T11:16:55Z</time>
      </trkpt>
      <trkpt lat="43.26398" lon="5.97074">
        <ele>276</ele>
        <time>2012-11-18T11:16:59Z</time>
      </trkpt>
      <trkpt lat="43.26409" lon="5.97079">
        <ele>277</ele>
        <time>2012-11-18T11:17:02Z</time>
      </trkpt>
      <trkpt lat="43.26419" lon="5.9708">
        <ele>277</ele>
        <time>2012-11-18T11:17:05Z</time>
      </trkpt>
      <trkpt lat="43.26429" lon="5.97083">
        <ele>280</ele>
        <time>2012-11-18T11:17:08Z</time>
      </trkpt>
      <trkpt lat="43.26435" lon="5.97092">
        <ele>281</ele>
        <time>2012-11-18T11:17:11Z</time>
      </trkpt>
      <trkpt lat="43.26439" lon="5.97101">
        <ele>282</ele>
        <time>2012-11-18T11:17:14Z</time>
      </trkpt>
      <trkpt lat="43.26443" lon="5.97111">
        <ele>282</ele>
        <time>2012-11-18T11:17:16Z</time>
      </trkpt>
      <trkpt lat="43.2645" lon="5.97124">
        <ele>282</ele>
        <time>2012-11-18T11:17:19Z</time>
      </trkpt>
      <trkpt lat="43.26459" lon="5.97139">
        <ele>282</ele>
        <time>2012-11-18T11:17:22Z</time>
      </trkpt>
      <trkpt lat="43.26463" lon="5.97153">
        <ele>282</ele>
        <time>2012-11-18T11:17:24Z</time>
      </trkpt>
      <trkpt lat="43.26464" lon="5.97167">
        <ele>282</ele>
        <time>2012-11-18T11:17:26Z</time>
      </trkpt>
      <trkpt lat="43.26462" lon="5.97181">
        <ele>281</ele>
        <time>2012-11-18T11:17:28Z</time>
      </trkpt>
      <trkpt lat="43.26461" lon="5.97194">
        <ele>281</ele>
        <time>2012-11-18T11:17:31Z</time>
      </trkpt>
      <trkpt lat="43.26461" lon="5.97209">
        <ele>280</ele>
        <time>2012-11-18T11:17:34Z</time>
      </trkpt>
      <trkpt lat="43.2646" lon="5.97215">
        <ele>280</ele>
        <time>2012-11-18T11:17:35Z</time>
      </trkpt>
      <trkpt lat="43.26458" lon="5.97228">
        <ele>280</ele>
        <time>2012-11-18T11:17:37Z</time>
      </trkpt>
      <trkpt lat="43.26456" lon="5.97244">
        <ele>280</ele>
        <time>2012-11-18T11:17:40Z</time>
      </trkpt>
      <trkpt lat="43.26455" lon="5.97261">
        <ele>280</ele>
        <time>2012-11-18T11:17:43Z</time>
      </trkpt>
      <trkpt lat="43.26455" lon="5.97274">
        <ele>279</ele>
        <time>2012-11-18T11:17:45Z</time>
      </trkpt>
      <trkpt lat="43.26455" lon="5.97289">
        <ele>278</ele>
        <time>2012-11-18T11:17:49Z</time>
      </trkpt>
      <trkpt lat="43.26457" lon="5.97303">
        <ele>276</ele>
        <time>2012-11-18T11:17:53Z</time>
      </trkpt>
      <trkpt lat="43.2646" lon="5.97317">
        <ele>274</ele>
        <time>2012-11-18T11:17:56Z</time>
      </trkpt>
      <trkpt lat="43.26461" lon="5.97327">
        <ele>273</ele>
        <time>2012-11-18T11:17:58Z</time>
      </trkpt>
      <trkpt lat="43.26464" lon="5.97336">
        <ele>272</ele>
        <time>2012-11-18T11:18:00Z</time>
      </trkpt>
      <trkpt lat="43.26468" lon="5.97353">
        <ele>271</ele>
        <time>2012-11-18T11:18:03Z</time>
      </trkpt>
      <trkpt lat="43.26472" lon="5.97368">
        <ele>268</ele>
        <time>2012-11-18T11:18:06Z</time>
      </trkpt>
      <trkpt lat="43.26474" lon="5.97375">
        <ele>267</ele>
        <time>2012-11-18T11:18:08Z</time>
      </trkpt>
      <trkpt lat="43.26479" lon="5.97381">
        <ele>266</ele>
        <time>2012-11-18T11:18:10Z</time>
      </trkpt>
      <trkpt lat="43.26489" lon="5.97384">
        <ele>265</ele>
        <time>2012-11-18T11:18:13Z</time>
      </trkpt>
      <trkpt lat="43.265" lon="5.97385">
        <ele>264</ele>
        <time>2012-11-18T11:18:16Z</time>
      </trkpt>
      <trkpt lat="43.26512" lon="5.97386">
        <ele>262</ele>
        <time>2012-11-18T11:18:20Z</time>
      </trkpt>
      <trkpt lat="43.26524" lon="5.97382">
        <ele>261</ele>
        <time>2012-11-18T11:18:23Z</time>
      </trkpt>
      <trkpt lat="43.26534" lon="5.9738">
        <ele>260</ele>
        <time>2012-11-18T11:18:25Z</time>
      </trkpt>
      <trkpt lat="43.26543" lon="5.97376">
        <ele>260</ele>
        <time>2012-11-18T11:18:27Z</time>
      </trkpt>
      <trkpt lat="43.26552" lon="5.97371">
        <ele>260</ele>
        <time>2012-11-18T11:18:29Z</time>
      </trkpt>
      <trkpt lat="43.2656" lon="5.97361">
        <ele>259</ele>
        <time>2012-11-18T11:18:31Z</time>
      </trkpt>
      <trkpt lat="43.26565" lon="5.97348">
        <ele>259</ele>
        <time>2012-11-18T11:18:34Z</time>
      </trkpt>
      <trkpt lat="43.26565" lon="5.97345">
        <ele>252</ele>
        <time>2012-11-18T11:20:14Z</time>
      </trkpt>
      <trkpt lat="43.26568" lon="5.97343">
        <ele>256</ele>
        <time>2012-11-18T11:23:00Z</time>
      </trkpt>
      <trkpt lat="43.2657" lon="5.9734">
        <ele>255</ele>
        <time>2012-11-18T11:23:29Z</time>
      </trkpt>
      <trkpt lat="43.26566" lon="5.97339">
        <ele>256</ele>
        <time>2012-11-18T11:27:58Z</time>
      </trkpt>
      <trkpt lat="43.26564" lon="5.97345">
        <ele>256</ele>
        <time>2012-11-18T11:28:45Z</time>
      </trkpt>
      <trkpt lat="43.26568" lon="5.97329">
        <ele>255</ele>
        <time>2012-11-18T11:29:23Z</time>
      </trkpt>
      <trkpt lat="43.26569" lon="5.97315">
        <ele>255</ele>
        <time>2012-11-18T11:29:27Z</time>
      </trkpt>
      <trkpt lat="43.26568" lon="5.97302">
        <ele>255</ele>
        <time>2012-11-18T11:29:30Z</time>
      </trkpt>
      <trkpt lat="43.26571" lon="5.97286">
        <ele>254</ele>
        <time>2012-11-18T11:29:33Z</time>
      </trkpt>
      <trkpt lat="43.26573" lon="5.97273">
        <ele>254</ele>
        <time>2012-11-18T11:29:35Z</time>
      </trkpt>
      <trkpt lat="43.26575" lon="5.97256">
        <ele>255</ele>
        <time>2012-11-18T11:29:38Z</time>
      </trkpt>
      <trkpt lat="43.26574" lon="5.97243">
        <ele>255</ele>
        <time>2012-11-18T11:29:42Z</time>
      </trkpt>
      <trkpt lat="43.2657" lon="5.97226">
        <ele>256</ele>
        <time>2012-11-18T11:29:46Z</time>
      </trkpt>
      <trkpt lat="43.26568" lon="5.97209">
        <ele>255</ele>
        <time>2012-11-18T11:29:49Z</time>
      </trkpt>
      <trkpt lat="43.26567" lon="5.97195">
        <ele>254</ele>
        <time>2012-11-18T11:29:52Z</time>
      </trkpt>
      <trkpt lat="43.26563" lon="5.97184">
        <ele>255</ele>
        <time>2012-11-18T11:29:54Z</time>
      </trkpt>
      <trkpt lat="43.26562" lon="5.97168">
        <ele>256</ele>
        <time>2012-11-18T11:29:57Z</time>
      </trkpt>
      <trkpt lat="43.26562" lon="5.97154">
        <ele>256</ele>
        <time>2012-11-18T11:30:00Z</time>
      </trkpt>
      <trkpt lat="43.26562" lon="5.9714">
        <ele>255</ele>
        <time>2012-11-18T11:30:02Z</time>
      </trkpt>
      <trkpt lat="43.26561" lon="5.97124">
        <ele>255</ele>
        <time>2012-11-18T11:30:04Z</time>
      </trkpt>
      <trkpt lat="43.26555" lon="5.9711">
        <ele>253</ele>
        <time>2012-11-18T11:30:07Z</time>
      </trkpt>
      <trkpt lat="43.26548" lon="5.97103">
        <ele>251</ele>
        <time>2012-11-18T11:30:10Z</time>
      </trkpt>
      <trkpt lat="43.26544" lon="5.97097">
        <ele>250</ele>
        <time>2012-11-18T11:30:12Z</time>
      </trkpt>
      <trkpt lat="43.26542" lon="5.97085">
        <ele>249</ele>
        <time>2012-11-18T11:30:14Z</time>
      </trkpt>
      <trkpt lat="43.26536" lon="5.97071">
        <ele>246</ele>
        <time>2012-11-18T11:30:17Z</time>
      </trkpt>
      <trkpt lat="43.26528" lon="5.97061">
        <ele>245</ele>
        <time>2012-11-18T11:30:20Z</time>
      </trkpt>
      <trkpt lat="43.2652" lon="5.97048">
        <ele>242</ele>
        <time>2012-11-18T11:30:26Z</time>
      </trkpt>
      <trkpt lat="43.26514" lon="5.97039">
        <ele>241</ele>
        <time>2012-11-18T11:30:29Z</time>
      </trkpt>
      <trkpt lat="43.26506" lon="5.97026">
        <ele>241</ele>
        <time>2012-11-18T11:30:32Z</time>
      </trkpt>
      <trkpt lat="43.26502" lon="5.97014">
        <ele>241</ele>
        <time>2012-11-18T11:30:35Z</time>
      </trkpt>
      <trkpt lat="43.265" lon="5.97001">
        <ele>241</ele>
        <time>2012-11-18T11:30:38Z</time>
      </trkpt>
      <trkpt lat="43.26505" lon="5.96987">
        <ele>242</ele>
        <time>2012-11-18T11:30:41Z</time>
      </trkpt>
      <trkpt lat="43.26509" lon="5.96975">
        <ele>242</ele>
        <time>2012-11-18T11:30:43Z</time>
      </trkpt>
      <trkpt lat="43.26514" lon="5.96963">
        <ele>243</ele>
        <time>2012-11-18T11:30:45Z</time>
      </trkpt>
      <trkpt lat="43.26519" lon="5.96951">
        <ele>245</ele>
        <time>2012-11-18T11:30:48Z</time>
      </trkpt>
      <trkpt lat="43.26526" lon="5.96938">
        <ele>247</ele>
        <time>2012-11-18T11:30:52Z</time>
      </trkpt>
      <trkpt lat="43.26532" lon="5.96927">
        <ele>249</ele>
        <time>2012-11-18T11:30:56Z</time>
      </trkpt>
      <trkpt lat="43.2654" lon="5.96918">
        <ele>252</ele>
        <time>2012-11-18T11:31:01Z</time>
      </trkpt>
      <trkpt lat="43.26548" lon="5.96908">
        <ele>254</ele>
        <time>2012-11-18T11:31:06Z</time>
      </trkpt>
      <trkpt lat="43.26554" lon="5.96898">
        <ele>254</ele>
        <time>2012-11-18T11:31:10Z</time>
      </trkpt>
      <trkpt lat="43.26554" lon="5.96883">
        <ele>251</ele>
        <time>2012-11-18T11:31:16Z</time>
      </trkpt>
      <trkpt lat="43.2655" lon="5.96871">
        <ele>248</ele>
        <time>2012-11-18T11:31:21Z</time>
      </trkpt>
      <trkpt lat="43.26544" lon="5.96857">
        <ele>247</ele>
        <time>2012-11-18T11:31:24Z</time>
      </trkpt>
      <trkpt lat="43.26539" lon="5.96846">
        <ele>246</ele>
        <time>2012-11-18T11:31:26Z</time>
      </trkpt>
      <trkpt lat="43.2653" lon="5.96835">
        <ele>244</ele>
        <time>2012-11-18T11:31:29Z</time>
      </trkpt>
      <trkpt lat="43.26522" lon="5.96827">
        <ele>244</ele>
        <time>2012-11-18T11:31:32Z</time>
      </trkpt>
      <trkpt lat="43.26517" lon="5.96823">
        <ele>243</ele>
        <time>2012-11-18T11:31:34Z</time>
      </trkpt>
      <trkpt lat="43.26514" lon="5.96818">
        <ele>243</ele>
        <time>2012-11-18T11:31:36Z</time>
      </trkpt>
      <trkpt lat="43.26511" lon="5.96814">
        <ele>242</ele>
        <time>2012-11-18T11:31:38Z</time>
      </trkpt>
      <trkpt lat="43.26508" lon="5.96805">
        <ele>242</ele>
        <time>2012-11-18T11:31:41Z</time>
      </trkpt>
      <trkpt lat="43.26507" lon="5.96799">
        <ele>241</ele>
        <time>2012-11-18T11:31:43Z</time>
      </trkpt>
      <trkpt lat="43.26503" lon="5.96783">
        <ele>240</ele>
        <time>2012-11-18T11:31:47Z</time>
      </trkpt>
      <trkpt lat="43.26498" lon="5.9677">
        <ele>240</ele>
        <time>2012-11-18T11:31:50Z</time>
      </trkpt>
      <trkpt lat="43.26493" lon="5.9676">
        <ele>241</ele>
        <time>2012-11-18T11:31:53Z</time>
      </trkpt>
      <trkpt lat="43.26486" lon="5.96749">
        <ele>241</ele>
        <time>2012-11-18T11:31:57Z</time>
      </trkpt>
      <trkpt lat="43.26476" lon="5.9674">
        <ele>241</ele>
        <time>2012-11-18T11:32:02Z</time>
      </trkpt>
      <trkpt lat="43.26472" lon="5.96736">
        <ele>241</ele>
        <time>2012-11-18T11:32:04Z</time>
      </trkpt>
      <trkpt lat="43.26463" lon="5.96726">
        <ele>241</ele>
        <time>2012-11-18T11:32:08Z</time>
      </trkpt>
      <trkpt lat="43.26459" lon="5.96723">
        <ele>240</ele>
        <time>2012-11-18T11:32:13Z</time>
      </trkpt>
      <trkpt lat="43.26454" lon="5.96721">
        <ele>241</ele>
        <time>2012-11-18T11:32:21Z</time>
      </trkpt>
      <trkpt lat="43.26449" lon="5.96719">
        <ele>241</ele>
        <time>2012-11-18T11:33:01Z</time>
      </trkpt>
      <trkpt lat="43.26447" lon="5.96718">
        <ele>241</ele>
        <time>2012-11-18T11:33:12Z</time>
      </trkpt>
      <trkpt lat="43.26444" lon="5.9671">
        <ele>241</ele>
        <time>2012-11-18T11:33:26Z</time>
      </trkpt>
      <trkpt lat="43.26441" lon="5.96705">
        <ele>241</ele>
        <time>2012-11-18T11:33:37Z</time>
      </trkpt>
      <trkpt lat="43.26434" lon="5.96703">
        <ele>245</ele>
        <time>2012-11-18T11:33:50Z</time>
      </trkpt>
      <trkpt lat="43.26429" lon="5.967">
        <ele>246</ele>
        <time>2012-11-18T11:33:55Z</time>
      </trkpt>
      <trkpt lat="43.26425" lon="5.96694">
        <ele>245</ele>
        <time>2012-11-18T11:33:59Z</time>
      </trkpt>
      <trkpt lat="43.26423" lon="5.96686">
        <ele>245</ele>
        <time>2012-11-18T11:34:03Z</time>
      </trkpt>
      <trkpt lat="43.26428" lon="5.96673">
        <ele>245</ele>
        <time>2012-11-18T11:34:05Z</time>
      </trkpt>
      <trkpt lat="43.26432" lon="5.96655">
        <ele>245</ele>
        <time>2012-11-18T11:34:07Z</time>
      </trkpt>
      <trkpt lat="43.26437" lon="5.96639">
        <ele>246</ele>
        <time>2012-11-18T11:34:09Z</time>
      </trkpt>
      <trkpt lat="43.26439" lon="5.96626">
        <ele>246</ele>
        <time>2012-11-18T11:34:12Z</time>
      </trkpt>
      <trkpt lat="43.26442" lon="5.96612">
        <ele>246</ele>
        <time>2012-11-18T11:34:16Z</time>
      </trkpt>
      <trkpt lat="43.26445" lon="5.966">
        <ele>246</ele>
        <time>2012-11-18T11:34:18Z</time>
      </trkpt>
      <trkpt lat="43.26447" lon="5.96584">
        <ele>246</ele>
        <time>2012-11-18T11:34:20Z</time>
      </trkpt>
      <trkpt lat="43.2645" lon="5.96567">
        <ele>245</ele>
        <time>2012-11-18T11:34:22Z</time>
      </trkpt>
      <trkpt lat="43.26454" lon="5.96556">
        <ele>244</ele>
        <time>2012-11-18T11:34:24Z</time>
      </trkpt>
      <trkpt lat="43.26453" lon="5.96542">
        <ele>242</ele>
        <time>2012-11-18T11:34:28Z</time>
      </trkpt>
      <trkpt lat="43.26456" lon="5.96527">
        <ele>241</ele>
        <time>2012-11-18T11:34:31Z</time>
      </trkpt>
      <trkpt lat="43.26458" lon="5.96513">
        <ele>240</ele>
        <time>2012-11-18T11:34:34Z</time>
      </trkpt>
      <trkpt lat="43.26457" lon="5.96499">
        <ele>240</ele>
        <time>2012-11-18T11:34:37Z</time>
      </trkpt>
      <trkpt lat="43.26451" lon="5.96484">
        <ele>240</ele>
        <time>2012-11-18T11:34:40Z</time>
      </trkpt>
      <trkpt lat="43.26442" lon="5.96476">
        <ele>240</ele>
        <time>2012-11-18T11:34:44Z</time>
      </trkpt>
      <trkpt lat="43.26435" lon="5.96471">
        <ele>240</ele>
        <time>2012-11-18T11:34:47Z</time>
      </trkpt>
      <trkpt lat="43.26428" lon="5.96468">
        <ele>239</ele>
        <time>2012-11-18T11:34:51Z</time>
      </trkpt>
      <trkpt lat="43.26426" lon="5.96466">
        <ele>237</ele>
        <time>2012-11-18T11:35:03Z</time>
      </trkpt>
      <trkpt lat="43.26421" lon="5.96463">
        <ele>237</ele>
        <time>2012-11-18T11:35:10Z</time>
      </trkpt>
      <trkpt lat="43.26415" lon="5.96461">
        <ele>238</ele>
        <time>2012-11-18T11:35:18Z</time>
      </trkpt>
      <trkpt lat="43.26405" lon="5.96459">
        <ele>237</ele>
        <time>2012-11-18T11:35:25Z</time>
      </trkpt>
      <trkpt lat="43.26395" lon="5.96453">
        <ele>237</ele>
        <time>2012-11-18T11:35:29Z</time>
      </trkpt>
      <trkpt lat="43.26389" lon="5.9645">
        <ele>237</ele>
        <time>2012-11-18T11:35:31Z</time>
      </trkpt>
      <trkpt lat="43.26384" lon="5.96449">
        <ele>238</ele>
        <time>2012-11-18T11:35:34Z</time>
      </trkpt>
      <trkpt lat="43.26377" lon="5.96441">
        <ele>239</ele>
        <time>2012-11-18T11:35:38Z</time>
      </trkpt>
      <trkpt lat="43.26374" lon="5.96437">
        <ele>240</ele>
        <time>2012-11-18T11:35:40Z</time>
      </trkpt>
      <trkpt lat="43.26369" lon="5.9643">
        <ele>241</ele>
        <time>2012-11-18T11:35:43Z</time>
      </trkpt>
      <trkpt lat="43.26365" lon="5.96424">
        <ele>242</ele>
        <time>2012-11-18T11:35:45Z</time>
      </trkpt>
      <trkpt lat="43.26359" lon="5.96414">
        <ele>242</ele>
        <time>2012-11-18T11:35:48Z</time>
      </trkpt>
      <trkpt lat="43.26353" lon="5.96403">
        <ele>242</ele>
        <time>2012-11-18T11:35:52Z</time>
      </trkpt>
      <trkpt lat="43.26347" lon="5.96392">
        <ele>241</ele>
        <time>2012-11-18T11:35:55Z</time>
      </trkpt>
      <trkpt lat="43.2634" lon="5.96381">
        <ele>240</ele>
        <time>2012-11-18T11:36:00Z</time>
      </trkpt>
      <trkpt lat="43.26336" lon="5.96376">
        <ele>239</ele>
        <time>2012-11-18T11:36:03Z</time>
      </trkpt>
      <trkpt lat="43.26331" lon="5.96372">
        <ele>237</ele>
        <time>2012-11-18T11:36:22Z</time>
      </trkpt>
      <trkpt lat="43.26329" lon="5.96371">
        <ele>236</ele>
        <time>2012-11-18T11:36:28Z</time>
      </trkpt>
      <trkpt lat="43.26322" lon="5.96361">
        <ele>236</ele>
        <time>2012-11-18T11:36:34Z</time>
      </trkpt>
      <trkpt lat="43.26318" lon="5.96359">
        <ele>235</ele>
        <time>2012-11-18T11:36:45Z</time>
      </trkpt>
      <trkpt lat="43.26314" lon="5.96354">
        <ele>232</ele>
        <time>2012-11-18T11:36:55Z</time>
      </trkpt>
      <trkpt lat="43.26308" lon="5.96354">
        <ele>231</ele>
        <time>2012-11-18T11:37:03Z</time>
      </trkpt>
      <trkpt lat="43.26303" lon="5.96353">
        <ele>233</ele>
        <time>2012-11-18T11:37:08Z</time>
      </trkpt>
      <trkpt lat="43.26293" lon="5.9633">
        <ele>240</ele>
        <time>2012-11-18T11:37:36Z</time>
      </trkpt>
      <trkpt lat="43.26285" lon="5.96334">
        <ele>238</ele>
        <time>2012-11-18T11:38:12Z</time>
      </trkpt>
    </trkseg>
  </trk>
</gpx>